<?xml version="1.0" encoding="UTF-8" standalone="no" ?>
<gpx xmlns="http://www.topografix.com/GPX/1/1" xmlns:xsi="http://www.w3.org/2001/XMLSchema-instance" xsi:schemaLocation="http://www.topografix.com/GPX/1/1 http://www.topografix.com/GPX/1/1/gpx.xsd" version="1.1" creator="VisuGPX - https://www.visugpx.com">
  <metadata>
    <name>Champagnat Cyclisme sur route</name>
  </metadata>
  <trk>
    <name><![CDATA[Champagnat Cyclisme sur route_1]]></name>
    <trkseg>
      <trkpt lat="46.4827" lon="5.36836">
        <ele>266.4</ele>
        <time>2022-02-05T11:43:51Z</time>
      </trkpt>
      <trkpt lat="46.4826" lon="5.36824">
        <ele>265.8</ele>
        <time>2022-02-05T11:43:52Z</time>
      </trkpt>
      <trkpt lat="46.48249" lon="5.36814">
        <ele>265</ele>
        <time>2022-02-05T11:43:53Z</time>
      </trkpt>
      <trkpt lat="46.48226" lon="5.36795">
        <ele>263.2</ele>
        <time>2022-02-05T11:43:55Z</time>
      </trkpt>
      <trkpt lat="46.48216" lon="5.36785">
        <ele>261.6</ele>
        <time>2022-02-05T11:43:56Z</time>
      </trkpt>
      <trkpt lat="46.48193" lon="5.36767">
        <ele>259.8</ele>
        <time>2022-02-05T11:43:58Z</time>
      </trkpt>
      <trkpt lat="46.48171" lon="5.36749">
        <ele>258.6</ele>
        <time>2022-02-05T11:44:00Z</time>
      </trkpt>
      <trkpt lat="46.48149" lon="5.36733">
        <ele>257</ele>
        <time>2022-02-05T11:44:02Z</time>
      </trkpt>
      <trkpt lat="46.4813" lon="5.36718">
        <ele>255.4</ele>
        <time>2022-02-05T11:44:04Z</time>
      </trkpt>
      <trkpt lat="46.48122" lon="5.36711">
        <ele>254.6</ele>
        <time>2022-02-05T11:44:05Z</time>
      </trkpt>
      <trkpt lat="46.48115" lon="5.36705">
        <ele>254.2</ele>
        <time>2022-02-05T11:44:06Z</time>
      </trkpt>
      <trkpt lat="46.48111" lon="5.36699">
        <ele>253</ele>
        <time>2022-02-05T11:44:07Z</time>
      </trkpt>
      <trkpt lat="46.4811" lon="5.36691">
        <ele>252.6</ele>
        <time>2022-02-05T11:44:08Z</time>
      </trkpt>
      <trkpt lat="46.48109" lon="5.36685">
        <ele>251.6</ele>
        <time>2022-02-05T11:44:09Z</time>
      </trkpt>
      <trkpt lat="46.48111" lon="5.36678">
        <ele>251</ele>
        <time>2022-02-05T11:44:10Z</time>
      </trkpt>
      <trkpt lat="46.48117" lon="5.36672">
        <ele>250</ele>
        <time>2022-02-05T11:44:11Z</time>
      </trkpt>
      <trkpt lat="46.48128" lon="5.3666">
        <ele>248.8</ele>
        <time>2022-02-05T11:44:13Z</time>
      </trkpt>
      <trkpt lat="46.48136" lon="5.36651">
        <ele>248.2</ele>
        <time>2022-02-05T11:44:14Z</time>
      </trkpt>
      <trkpt lat="46.48172" lon="5.36622">
        <ele>247.4</ele>
        <time>2022-02-05T11:44:19Z</time>
      </trkpt>
      <trkpt lat="46.4818" lon="5.36617">
        <ele>247.2</ele>
        <time>2022-02-05T11:44:20Z</time>
      </trkpt>
      <trkpt lat="46.48196" lon="5.3661">
        <ele>247</ele>
        <time>2022-02-05T11:44:22Z</time>
      </trkpt>
      <trkpt lat="46.48211" lon="5.36605">
        <ele>246.8</ele>
        <time>2022-02-05T11:44:24Z</time>
      </trkpt>
      <trkpt lat="46.48221" lon="5.3659">
        <ele>246.8</ele>
        <time>2022-02-05T11:44:26Z</time>
      </trkpt>
      <trkpt lat="46.48224" lon="5.36581">
        <ele>246.6</ele>
        <time>2022-02-05T11:44:27Z</time>
      </trkpt>
      <trkpt lat="46.48227" lon="5.36571">
        <ele>246.4</ele>
        <time>2022-02-05T11:44:28Z</time>
      </trkpt>
      <trkpt lat="46.48236" lon="5.36555">
        <ele>246.2</ele>
        <time>2022-02-05T11:44:30Z</time>
      </trkpt>
      <trkpt lat="46.48273" lon="5.36517">
        <ele>245.6</ele>
        <time>2022-02-05T11:44:36Z</time>
      </trkpt>
      <trkpt lat="46.48304" lon="5.36482">
        <ele>244.6</ele>
        <time>2022-02-05T11:44:41Z</time>
      </trkpt>
      <trkpt lat="46.4831" lon="5.36475">
        <ele>244.4</ele>
        <time>2022-02-05T11:44:42Z</time>
      </trkpt>
      <trkpt lat="46.48355" lon="5.36425">
        <ele>243.4</ele>
        <time>2022-02-05T11:44:49Z</time>
      </trkpt>
      <trkpt lat="46.48361" lon="5.36418">
        <ele>243</ele>
        <time>2022-02-05T11:44:50Z</time>
      </trkpt>
      <trkpt lat="46.48381" lon="5.36395">
        <ele>242</ele>
        <time>2022-02-05T11:44:53Z</time>
      </trkpt>
      <trkpt lat="46.48406" lon="5.3637">
        <ele>240.8</ele>
        <time>2022-02-05T11:44:57Z</time>
      </trkpt>
      <trkpt lat="46.48412" lon="5.36365">
        <ele>240.8</ele>
        <time>2022-02-05T11:44:58Z</time>
      </trkpt>
      <trkpt lat="46.48439" lon="5.36352">
        <ele>240.2</ele>
        <time>2022-02-05T11:45:02Z</time>
      </trkpt>
      <trkpt lat="46.48446" lon="5.36351">
        <ele>240.2</ele>
        <time>2022-02-05T11:45:03Z</time>
      </trkpt>
      <trkpt lat="46.48472" lon="5.36346">
        <ele>239.8</ele>
        <time>2022-02-05T11:45:07Z</time>
      </trkpt>
      <trkpt lat="46.48486" lon="5.36344">
        <ele>239.8</ele>
        <time>2022-02-05T11:45:09Z</time>
      </trkpt>
      <trkpt lat="46.48537" lon="5.36335">
        <ele>239.4</ele>
        <time>2022-02-05T11:45:17Z</time>
      </trkpt>
      <trkpt lat="46.48583" lon="5.36327">
        <ele>239</ele>
        <time>2022-02-05T11:45:24Z</time>
      </trkpt>
      <trkpt lat="46.48591" lon="5.36326">
        <ele>238.8</ele>
        <time>2022-02-05T11:45:25Z</time>
      </trkpt>
      <trkpt lat="46.48606" lon="5.36324">
        <ele>238.4</ele>
        <time>2022-02-05T11:45:27Z</time>
      </trkpt>
      <trkpt lat="46.48619" lon="5.36317">
        <ele>238</ele>
        <time>2022-02-05T11:45:29Z</time>
      </trkpt>
      <trkpt lat="46.48626" lon="5.36309">
        <ele>237.8</ele>
        <time>2022-02-05T11:45:30Z</time>
      </trkpt>
      <trkpt lat="46.48631" lon="5.363">
        <ele>237.6</ele>
        <time>2022-02-05T11:45:31Z</time>
      </trkpt>
      <trkpt lat="46.48634" lon="5.36288">
        <ele>237.4</ele>
        <time>2022-02-05T11:45:32Z</time>
      </trkpt>
      <trkpt lat="46.48637" lon="5.36267">
        <ele>236</ele>
        <time>2022-02-05T11:45:34Z</time>
      </trkpt>
      <trkpt lat="46.4864" lon="5.36242">
        <ele>235.2</ele>
        <time>2022-02-05T11:45:36Z</time>
      </trkpt>
      <trkpt lat="46.48641" lon="5.3623">
        <ele>234.8</ele>
        <time>2022-02-05T11:45:37Z</time>
      </trkpt>
      <trkpt lat="46.48644" lon="5.36193">
        <ele>233.8</ele>
        <time>2022-02-05T11:45:40Z</time>
      </trkpt>
      <trkpt lat="46.48646" lon="5.36158">
        <ele>232.6</ele>
        <time>2022-02-05T11:45:43Z</time>
      </trkpt>
      <trkpt lat="46.48654" lon="5.36112">
        <ele>232</ele>
        <time>2022-02-05T11:45:47Z</time>
      </trkpt>
      <trkpt lat="46.48658" lon="5.3609">
        <ele>231.6</ele>
        <time>2022-02-05T11:45:49Z</time>
      </trkpt>
      <trkpt lat="46.4867" lon="5.36041">
        <ele>231.4</ele>
        <time>2022-02-05T11:45:54Z</time>
      </trkpt>
      <trkpt lat="46.48678" lon="5.35991">
        <ele>231.6</ele>
        <time>2022-02-05T11:46:00Z</time>
      </trkpt>
      <trkpt lat="46.48682" lon="5.35964">
        <ele>232.4</ele>
        <time>2022-02-05T11:46:03Z</time>
      </trkpt>
      <trkpt lat="46.48686" lon="5.35934">
        <ele>232.8</ele>
        <time>2022-02-05T11:46:06Z</time>
      </trkpt>
      <trkpt lat="46.487" lon="5.35884">
        <ele>233</ele>
        <time>2022-02-05T11:46:11Z</time>
      </trkpt>
      <trkpt lat="46.48724" lon="5.35825">
        <ele>232.4</ele>
        <time>2022-02-05T11:46:17Z</time>
      </trkpt>
      <trkpt lat="46.48741" lon="5.35788">
        <ele>231.8</ele>
        <time>2022-02-05T11:46:21Z</time>
      </trkpt>
      <trkpt lat="46.48753" lon="5.3576">
        <ele>231.2</ele>
        <time>2022-02-05T11:46:24Z</time>
      </trkpt>
      <trkpt lat="46.48772" lon="5.35716">
        <ele>230.6</ele>
        <time>2022-02-05T11:46:29Z</time>
      </trkpt>
      <trkpt lat="46.48775" lon="5.35707">
        <ele>230.6</ele>
        <time>2022-02-05T11:46:30Z</time>
      </trkpt>
      <trkpt lat="46.48806" lon="5.35641">
        <ele>230.2</ele>
        <time>2022-02-05T11:46:38Z</time>
      </trkpt>
      <trkpt lat="46.48836" lon="5.35574">
        <ele>230.2</ele>
        <time>2022-02-05T11:46:46Z</time>
      </trkpt>
      <trkpt lat="46.48859" lon="5.35523">
        <ele>230.8</ele>
        <time>2022-02-05T11:46:52Z</time>
      </trkpt>
      <trkpt lat="46.48862" lon="5.35514">
        <ele>230.8</ele>
        <time>2022-02-05T11:46:53Z</time>
      </trkpt>
      <trkpt lat="46.48894" lon="5.3544">
        <ele>230.6</ele>
        <time>2022-02-05T11:47:01Z</time>
      </trkpt>
      <trkpt lat="46.48902" lon="5.35421">
        <ele>230.4</ele>
        <time>2022-02-05T11:47:03Z</time>
      </trkpt>
      <trkpt lat="46.48932" lon="5.35355">
        <ele>229.8</ele>
        <time>2022-02-05T11:47:10Z</time>
      </trkpt>
      <trkpt lat="46.48944" lon="5.35327">
        <ele>229.8</ele>
        <time>2022-02-05T11:47:13Z</time>
      </trkpt>
      <trkpt lat="46.48967" lon="5.35275">
        <ele>229.6</ele>
        <time>2022-02-05T11:47:19Z</time>
      </trkpt>
      <trkpt lat="46.48977" lon="5.3525">
        <ele>229.6</ele>
        <time>2022-02-05T11:47:22Z</time>
      </trkpt>
      <trkpt lat="46.48988" lon="5.35226">
        <ele>229.6</ele>
        <time>2022-02-05T11:47:25Z</time>
      </trkpt>
      <trkpt lat="46.49013" lon="5.35174">
        <ele>230</ele>
        <time>2022-02-05T11:47:32Z</time>
      </trkpt>
      <trkpt lat="46.49036" lon="5.35123">
        <ele>230.6</ele>
        <time>2022-02-05T11:47:39Z</time>
      </trkpt>
      <trkpt lat="46.49046" lon="5.3511">
        <ele>231</ele>
        <time>2022-02-05T11:47:41Z</time>
      </trkpt>
      <trkpt lat="46.49063" lon="5.35096">
        <ele>231</ele>
        <time>2022-02-05T11:47:44Z</time>
      </trkpt>
      <trkpt lat="46.49099" lon="5.35063">
        <ele>230.8</ele>
        <time>2022-02-05T11:47:51Z</time>
      </trkpt>
      <trkpt lat="46.49145" lon="5.35022">
        <ele>230.6</ele>
        <time>2022-02-05T11:47:59Z</time>
      </trkpt>
      <trkpt lat="46.4915" lon="5.35017">
        <ele>230.4</ele>
        <time>2022-02-05T11:48:00Z</time>
      </trkpt>
      <trkpt lat="46.49184" lon="5.34985">
        <ele>229.8</ele>
        <time>2022-02-05T11:48:06Z</time>
      </trkpt>
      <trkpt lat="46.49219" lon="5.34934">
        <ele>229.6</ele>
        <time>2022-02-05T11:48:13Z</time>
      </trkpt>
      <trkpt lat="46.49235" lon="5.34911">
        <ele>229.6</ele>
        <time>2022-02-05T11:48:16Z</time>
      </trkpt>
      <trkpt lat="46.4924" lon="5.34904">
        <ele>229.4</ele>
        <time>2022-02-05T11:48:17Z</time>
      </trkpt>
      <trkpt lat="46.49247" lon="5.34892">
        <ele>229.4</ele>
        <time>2022-02-05T11:48:19Z</time>
      </trkpt>
      <trkpt lat="46.49254" lon="5.3488">
        <ele>229.4</ele>
        <time>2022-02-05T11:48:21Z</time>
      </trkpt>
      <trkpt lat="46.4927" lon="5.34859">
        <ele>229.4</ele>
        <time>2022-02-05T11:48:24Z</time>
      </trkpt>
      <trkpt lat="46.49275" lon="5.34853">
        <ele>229.4</ele>
        <time>2022-02-05T11:48:25Z</time>
      </trkpt>
      <trkpt lat="46.49292" lon="5.34844">
        <ele>229.2</ele>
        <time>2022-02-05T11:48:28Z</time>
      </trkpt>
      <trkpt lat="46.49309" lon="5.34837">
        <ele>228.4</ele>
        <time>2022-02-05T11:48:31Z</time>
      </trkpt>
      <trkpt lat="46.49333" lon="5.34833">
        <ele>228.2</ele>
        <time>2022-02-05T11:48:35Z</time>
      </trkpt>
      <trkpt lat="46.49378" lon="5.34825">
        <ele>228.2</ele>
        <time>2022-02-05T11:48:43Z</time>
      </trkpt>
      <trkpt lat="46.49404" lon="5.34813">
        <ele>228.6</ele>
        <time>2022-02-05T11:48:48Z</time>
      </trkpt>
      <trkpt lat="46.49417" lon="5.34803">
        <ele>228.8</ele>
        <time>2022-02-05T11:48:51Z</time>
      </trkpt>
      <trkpt lat="46.49421" lon="5.34798">
        <ele>228.8</ele>
        <time>2022-02-05T11:48:52Z</time>
      </trkpt>
      <trkpt lat="46.49426" lon="5.34793">
        <ele>228.8</ele>
        <time>2022-02-05T11:48:53Z</time>
      </trkpt>
      <trkpt lat="46.49449" lon="5.34768">
        <ele>228.4</ele>
        <time>2022-02-05T11:48:57Z</time>
      </trkpt>
      <trkpt lat="46.49487" lon="5.34727">
        <ele>227</ele>
        <time>2022-02-05T11:49:02Z</time>
      </trkpt>
      <trkpt lat="46.49495" lon="5.34718">
        <ele>226.4</ele>
        <time>2022-02-05T11:49:03Z</time>
      </trkpt>
      <trkpt lat="46.49503" lon="5.34709">
        <ele>226</ele>
        <time>2022-02-05T11:49:04Z</time>
      </trkpt>
      <trkpt lat="46.49525" lon="5.34685">
        <ele>224.8</ele>
        <time>2022-02-05T11:49:07Z</time>
      </trkpt>
      <trkpt lat="46.49533" lon="5.34675">
        <ele>223.8</ele>
        <time>2022-02-05T11:49:08Z</time>
      </trkpt>
      <trkpt lat="46.49548" lon="5.34657">
        <ele>222.6</ele>
        <time>2022-02-05T11:49:10Z</time>
      </trkpt>
      <trkpt lat="46.49563" lon="5.34639">
        <ele>221.8</ele>
        <time>2022-02-05T11:49:12Z</time>
      </trkpt>
      <trkpt lat="46.49571" lon="5.3463">
        <ele>221.4</ele>
        <time>2022-02-05T11:49:13Z</time>
      </trkpt>
      <trkpt lat="46.49591" lon="5.346">
        <ele>220</ele>
        <time>2022-02-05T11:49:16Z</time>
      </trkpt>
      <trkpt lat="46.49604" lon="5.3458">
        <ele>219</ele>
        <time>2022-02-05T11:49:18Z</time>
      </trkpt>
      <trkpt lat="46.49611" lon="5.34571">
        <ele>218.6</ele>
        <time>2022-02-05T11:49:19Z</time>
      </trkpt>
      <trkpt lat="46.49632" lon="5.34544">
        <ele>217.2</ele>
        <time>2022-02-05T11:49:23Z</time>
      </trkpt>
      <trkpt lat="46.49641" lon="5.34539">
        <ele>216.8</ele>
        <time>2022-02-05T11:49:25Z</time>
      </trkpt>
      <trkpt lat="46.49645" lon="5.34538">
        <ele>216.6</ele>
        <time>2022-02-05T11:49:26Z</time>
      </trkpt>
      <trkpt lat="46.49649" lon="5.34535">
        <ele>216.4</ele>
        <time>2022-02-05T11:49:27Z</time>
      </trkpt>
      <trkpt lat="46.49655" lon="5.34522">
        <ele>216.2</ele>
        <time>2022-02-05T11:49:29Z</time>
      </trkpt>
      <trkpt lat="46.49659" lon="5.34509">
        <ele>216.2</ele>
        <time>2022-02-05T11:49:31Z</time>
      </trkpt>
      <trkpt lat="46.49667" lon="5.3448">
        <ele>216.2</ele>
        <time>2022-02-05T11:49:35Z</time>
      </trkpt>
      <trkpt lat="46.49681" lon="5.34429">
        <ele>217.2</ele>
        <time>2022-02-05T11:49:42Z</time>
      </trkpt>
      <trkpt lat="46.49685" lon="5.34415">
        <ele>217.4</ele>
        <time>2022-02-05T11:49:44Z</time>
      </trkpt>
      <trkpt lat="46.49687" lon="5.34408">
        <ele>217.4</ele>
        <time>2022-02-05T11:49:45Z</time>
      </trkpt>
      <trkpt lat="46.49691" lon="5.34387">
        <ele>218</ele>
        <time>2022-02-05T11:49:48Z</time>
      </trkpt>
      <trkpt lat="46.49694" lon="5.34375">
        <ele>218.6</ele>
        <time>2022-02-05T11:49:50Z</time>
      </trkpt>
      <trkpt lat="46.497" lon="5.34356">
        <ele>219.2</ele>
        <time>2022-02-05T11:49:53Z</time>
      </trkpt>
      <trkpt lat="46.49704" lon="5.34345">
        <ele>219.8</ele>
        <time>2022-02-05T11:49:55Z</time>
      </trkpt>
      <trkpt lat="46.49711" lon="5.34325">
        <ele>220.6</ele>
        <time>2022-02-05T11:49:58Z</time>
      </trkpt>
      <trkpt lat="46.49714" lon="5.34317">
        <ele>220.8</ele>
        <time>2022-02-05T11:49:59Z</time>
      </trkpt>
      <trkpt lat="46.49717" lon="5.3431">
        <ele>221</ele>
        <time>2022-02-05T11:50:00Z</time>
      </trkpt>
      <trkpt lat="46.4972" lon="5.34303">
        <ele>221</ele>
        <time>2022-02-05T11:50:01Z</time>
      </trkpt>
      <trkpt lat="46.49731" lon="5.34279">
        <ele>221.4</ele>
        <time>2022-02-05T11:50:04Z</time>
      </trkpt>
      <trkpt lat="46.49735" lon="5.34273">
        <ele>221.2</ele>
        <time>2022-02-05T11:50:05Z</time>
      </trkpt>
      <trkpt lat="46.49751" lon="5.34247">
        <ele>221.4</ele>
        <time>2022-02-05T11:50:09Z</time>
      </trkpt>
      <trkpt lat="46.49775" lon="5.34205">
        <ele>221.2</ele>
        <time>2022-02-05T11:50:15Z</time>
      </trkpt>
      <trkpt lat="46.4981" lon="5.3415">
        <ele>221.4</ele>
        <time>2022-02-05T11:50:24Z</time>
      </trkpt>
      <trkpt lat="46.49842" lon="5.34097">
        <ele>221.4</ele>
        <time>2022-02-05T11:50:32Z</time>
      </trkpt>
      <trkpt lat="46.49875" lon="5.34052">
        <ele>221.4</ele>
        <time>2022-02-05T11:50:39Z</time>
      </trkpt>
      <trkpt lat="46.49907" lon="5.34016">
        <ele>221.4</ele>
        <time>2022-02-05T11:50:46Z</time>
      </trkpt>
      <trkpt lat="46.49923" lon="5.33998">
        <ele>221.6</ele>
        <time>2022-02-05T11:50:50Z</time>
      </trkpt>
      <trkpt lat="46.49932" lon="5.33989">
        <ele>221.8</ele>
        <time>2022-02-05T11:50:52Z</time>
      </trkpt>
      <trkpt lat="46.49948" lon="5.33974">
        <ele>222.6</ele>
        <time>2022-02-05T11:50:56Z</time>
      </trkpt>
      <trkpt lat="46.49955" lon="5.33965">
        <ele>222.6</ele>
        <time>2022-02-05T11:50:58Z</time>
      </trkpt>
      <trkpt lat="46.49964" lon="5.33957">
        <ele>223</ele>
        <time>2022-02-05T11:51:00Z</time>
      </trkpt>
      <trkpt lat="46.49974" lon="5.33945">
        <ele>223.4</ele>
        <time>2022-02-05T11:51:03Z</time>
      </trkpt>
      <trkpt lat="46.49978" lon="5.3394">
        <ele>223.4</ele>
        <time>2022-02-05T11:51:04Z</time>
      </trkpt>
      <trkpt lat="46.49988" lon="5.3393">
        <ele>223.8</ele>
        <time>2022-02-05T11:51:06Z</time>
      </trkpt>
      <trkpt lat="46.49993" lon="5.33925">
        <ele>223.8</ele>
        <time>2022-02-05T11:51:07Z</time>
      </trkpt>
      <trkpt lat="46.50003" lon="5.33914">
        <ele>224</ele>
        <time>2022-02-05T11:51:09Z</time>
      </trkpt>
      <trkpt lat="46.50039" lon="5.33872">
        <ele>224.4</ele>
        <time>2022-02-05T11:51:16Z</time>
      </trkpt>
      <trkpt lat="46.50078" lon="5.33827">
        <ele>223.8</ele>
        <time>2022-02-05T11:51:23Z</time>
      </trkpt>
      <trkpt lat="46.50116" lon="5.33788">
        <ele>222.8</ele>
        <time>2022-02-05T11:51:29Z</time>
      </trkpt>
      <trkpt lat="46.5016" lon="5.33742">
        <ele>222</ele>
        <time>2022-02-05T11:51:37Z</time>
      </trkpt>
      <trkpt lat="46.50165" lon="5.33736">
        <ele>222</ele>
        <time>2022-02-05T11:51:38Z</time>
      </trkpt>
      <trkpt lat="46.5018" lon="5.33721">
        <ele>222</ele>
        <time>2022-02-05T11:51:41Z</time>
      </trkpt>
      <trkpt lat="46.50215" lon="5.33681">
        <ele>222.6</ele>
        <time>2022-02-05T11:51:48Z</time>
      </trkpt>
      <trkpt lat="46.5026" lon="5.33633">
        <ele>222.4</ele>
        <time>2022-02-05T11:51:57Z</time>
      </trkpt>
      <trkpt lat="46.50266" lon="5.33627">
        <ele>222.4</ele>
        <time>2022-02-05T11:51:58Z</time>
      </trkpt>
      <trkpt lat="46.50313" lon="5.33576">
        <ele>222</ele>
        <time>2022-02-05T11:52:07Z</time>
      </trkpt>
      <trkpt lat="46.50335" lon="5.33554">
        <ele>221.6</ele>
        <time>2022-02-05T11:52:11Z</time>
      </trkpt>
      <trkpt lat="46.50368" lon="5.33518">
        <ele>221.2</ele>
        <time>2022-02-05T11:52:17Z</time>
      </trkpt>
      <trkpt lat="46.50405" lon="5.33477">
        <ele>220.4</ele>
        <time>2022-02-05T11:52:24Z</time>
      </trkpt>
      <trkpt lat="46.50412" lon="5.3347">
        <ele>220.4</ele>
        <time>2022-02-05T11:52:25Z</time>
      </trkpt>
      <trkpt lat="46.50449" lon="5.33419">
        <ele>219.2</ele>
        <time>2022-02-05T11:52:32Z</time>
      </trkpt>
      <trkpt lat="46.50457" lon="5.33401">
        <ele>218.8</ele>
        <time>2022-02-05T11:52:34Z</time>
      </trkpt>
      <trkpt lat="46.50462" lon="5.33381">
        <ele>218.8</ele>
        <time>2022-02-05T11:52:36Z</time>
      </trkpt>
      <trkpt lat="46.50465" lon="5.33362">
        <ele>218.6</ele>
        <time>2022-02-05T11:52:38Z</time>
      </trkpt>
      <trkpt lat="46.50466" lon="5.33353">
        <ele>218.4</ele>
        <time>2022-02-05T11:52:39Z</time>
      </trkpt>
      <trkpt lat="46.50467" lon="5.33341">
        <ele>218.4</ele>
        <time>2022-02-05T11:52:40Z</time>
      </trkpt>
      <trkpt lat="46.50467" lon="5.33314">
        <ele>218.2</ele>
        <time>2022-02-05T11:52:43Z</time>
      </trkpt>
      <trkpt lat="46.50466" lon="5.33305">
        <ele>218.2</ele>
        <time>2022-02-05T11:52:44Z</time>
      </trkpt>
      <trkpt lat="46.50465" lon="5.33298">
        <ele>218.2</ele>
        <time>2022-02-05T11:52:45Z</time>
      </trkpt>
      <trkpt lat="46.50465" lon="5.33288">
        <ele>218</ele>
        <time>2022-02-05T11:52:46Z</time>
      </trkpt>
      <trkpt lat="46.50465" lon="5.33281">
        <ele>218.2</ele>
        <time>2022-02-05T11:52:47Z</time>
      </trkpt>
      <trkpt lat="46.50464" lon="5.33251">
        <ele>218.2</ele>
        <time>2022-02-05T11:52:50Z</time>
      </trkpt>
      <trkpt lat="46.50464" lon="5.33234">
        <ele>218.4</ele>
        <time>2022-02-05T11:52:52Z</time>
      </trkpt>
      <trkpt lat="46.50465" lon="5.33201">
        <ele>218.4</ele>
        <time>2022-02-05T11:52:55Z</time>
      </trkpt>
      <trkpt lat="46.50466" lon="5.33185">
        <ele>218.4</ele>
        <time>2022-02-05T11:52:57Z</time>
      </trkpt>
      <trkpt lat="46.50465" lon="5.33176">
        <ele>218.4</ele>
        <time>2022-02-05T11:52:58Z</time>
      </trkpt>
      <trkpt lat="46.50464" lon="5.33149">
        <ele>218.4</ele>
        <time>2022-02-05T11:53:01Z</time>
      </trkpt>
      <trkpt lat="46.50466" lon="5.33121">
        <ele>218</ele>
        <time>2022-02-05T11:53:03Z</time>
      </trkpt>
      <trkpt lat="46.50469" lon="5.33063">
        <ele>217.4</ele>
        <time>2022-02-05T11:53:08Z</time>
      </trkpt>
      <trkpt lat="46.5047" lon="5.33038">
        <ele>216.6</ele>
        <time>2022-02-05T11:53:10Z</time>
      </trkpt>
      <trkpt lat="46.50472" lon="5.32996">
        <ele>215.4</ele>
        <time>2022-02-05T11:53:13Z</time>
      </trkpt>
      <trkpt lat="46.50472" lon="5.32983">
        <ele>215.4</ele>
        <time>2022-02-05T11:53:14Z</time>
      </trkpt>
      <trkpt lat="46.50472" lon="5.3296">
        <ele>214.2</ele>
        <time>2022-02-05T11:53:16Z</time>
      </trkpt>
      <trkpt lat="46.50473" lon="5.32932">
        <ele>213.2</ele>
        <time>2022-02-05T11:53:18Z</time>
      </trkpt>
      <trkpt lat="46.50474" lon="5.32879">
        <ele>211.2</ele>
        <time>2022-02-05T11:53:22Z</time>
      </trkpt>
      <trkpt lat="46.50474" lon="5.32868">
        <ele>211</ele>
        <time>2022-02-05T11:53:23Z</time>
      </trkpt>
      <trkpt lat="46.50474" lon="5.32841">
        <ele>209.8</ele>
        <time>2022-02-05T11:53:25Z</time>
      </trkpt>
      <trkpt lat="46.50475" lon="5.32816">
        <ele>208.4</ele>
        <time>2022-02-05T11:53:27Z</time>
      </trkpt>
      <trkpt lat="46.50476" lon="5.32778">
        <ele>207.2</ele>
        <time>2022-02-05T11:53:30Z</time>
      </trkpt>
      <trkpt lat="46.50476" lon="5.32763">
        <ele>206.8</ele>
        <time>2022-02-05T11:53:31Z</time>
      </trkpt>
      <trkpt lat="46.50477" lon="5.3273">
        <ele>206</ele>
        <time>2022-02-05T11:53:34Z</time>
      </trkpt>
      <trkpt lat="46.50477" lon="5.32683">
        <ele>205.6</ele>
        <time>2022-02-05T11:53:38Z</time>
      </trkpt>
      <trkpt lat="46.50478" lon="5.32623">
        <ele>204.8</ele>
        <time>2022-02-05T11:53:43Z</time>
      </trkpt>
      <trkpt lat="46.50477" lon="5.32575">
        <ele>204</ele>
        <time>2022-02-05T11:53:47Z</time>
      </trkpt>
      <trkpt lat="46.50476" lon="5.32551">
        <ele>203.4</ele>
        <time>2022-02-05T11:53:49Z</time>
      </trkpt>
      <trkpt lat="46.5047" lon="5.32468">
        <ele>202.4</ele>
        <time>2022-02-05T11:53:56Z</time>
      </trkpt>
      <trkpt lat="46.50469" lon="5.32456">
        <ele>202.2</ele>
        <time>2022-02-05T11:53:57Z</time>
      </trkpt>
      <trkpt lat="46.50454" lon="5.32377">
        <ele>201.4</ele>
        <time>2022-02-05T11:54:04Z</time>
      </trkpt>
      <trkpt lat="46.50452" lon="5.32366">
        <ele>201.2</ele>
        <time>2022-02-05T11:54:05Z</time>
      </trkpt>
      <trkpt lat="46.50436" lon="5.32291">
        <ele>201</ele>
        <time>2022-02-05T11:54:12Z</time>
      </trkpt>
      <trkpt lat="46.50433" lon="5.32269">
        <ele>200.8</ele>
        <time>2022-02-05T11:54:14Z</time>
      </trkpt>
      <trkpt lat="46.50431" lon="5.32215">
        <ele>200.8</ele>
        <time>2022-02-05T11:54:19Z</time>
      </trkpt>
      <trkpt lat="46.50433" lon="5.32206">
        <ele>200.8</ele>
        <time>2022-02-05T11:54:20Z</time>
      </trkpt>
      <trkpt lat="46.50437" lon="5.32198">
        <ele>200.8</ele>
        <time>2022-02-05T11:54:21Z</time>
      </trkpt>
      <trkpt lat="46.50447" lon="5.32186">
        <ele>200.8</ele>
        <time>2022-02-05T11:54:23Z</time>
      </trkpt>
      <trkpt lat="46.50459" lon="5.32176">
        <ele>200.8</ele>
        <time>2022-02-05T11:54:25Z</time>
      </trkpt>
      <trkpt lat="46.50466" lon="5.3216">
        <ele>200.8</ele>
        <time>2022-02-05T11:54:27Z</time>
      </trkpt>
      <trkpt lat="46.50486" lon="5.321">
        <ele>200.8</ele>
        <time>2022-02-05T11:54:34Z</time>
      </trkpt>
      <trkpt lat="46.50514" lon="5.32045">
        <ele>200.8</ele>
        <time>2022-02-05T11:54:41Z</time>
      </trkpt>
      <trkpt lat="46.50545" lon="5.31999">
        <ele>201.2</ele>
        <time>2022-02-05T11:54:48Z</time>
      </trkpt>
      <trkpt lat="46.50564" lon="5.3196">
        <ele>202.2</ele>
        <time>2022-02-05T11:54:54Z</time>
      </trkpt>
      <trkpt lat="46.50567" lon="5.31953">
        <ele>202.2</ele>
        <time>2022-02-05T11:54:55Z</time>
      </trkpt>
      <trkpt lat="46.50574" lon="5.3193">
        <ele>203.4</ele>
        <time>2022-02-05T11:54:59Z</time>
      </trkpt>
      <trkpt lat="46.50577" lon="5.31924">
        <ele>203.6</ele>
        <time>2022-02-05T11:55:00Z</time>
      </trkpt>
      <trkpt lat="46.50587" lon="5.31896">
        <ele>204.8</ele>
        <time>2022-02-05T11:55:05Z</time>
      </trkpt>
      <trkpt lat="46.50589" lon="5.31891">
        <ele>205</ele>
        <time>2022-02-05T11:55:06Z</time>
      </trkpt>
      <trkpt lat="46.50594" lon="5.31874">
        <ele>205.8</ele>
        <time>2022-02-05T11:55:09Z</time>
      </trkpt>
      <trkpt lat="46.50599" lon="5.31856">
        <ele>206.4</ele>
        <time>2022-02-05T11:55:12Z</time>
      </trkpt>
      <trkpt lat="46.50601" lon="5.31846">
        <ele>207</ele>
        <time>2022-02-05T11:55:14Z</time>
      </trkpt>
      <trkpt lat="46.5061" lon="5.31821">
        <ele>208</ele>
        <time>2022-02-05T11:55:19Z</time>
      </trkpt>
      <trkpt lat="46.50612" lon="5.31816">
        <ele>208.4</ele>
        <time>2022-02-05T11:55:20Z</time>
      </trkpt>
      <trkpt lat="46.50621" lon="5.31793">
        <ele>209.2</ele>
        <time>2022-02-05T11:55:24Z</time>
      </trkpt>
      <trkpt lat="46.50626" lon="5.31781">
        <ele>209.4</ele>
        <time>2022-02-05T11:55:26Z</time>
      </trkpt>
      <trkpt lat="46.50633" lon="5.31764">
        <ele>210.2</ele>
        <time>2022-02-05T11:55:29Z</time>
      </trkpt>
      <trkpt lat="46.50649" lon="5.31732">
        <ele>210.6</ele>
        <time>2022-02-05T11:55:34Z</time>
      </trkpt>
      <trkpt lat="46.50653" lon="5.31727">
        <ele>210.6</ele>
        <time>2022-02-05T11:55:35Z</time>
      </trkpt>
      <trkpt lat="46.50662" lon="5.31719">
        <ele>210.6</ele>
        <time>2022-02-05T11:55:37Z</time>
      </trkpt>
      <trkpt lat="46.50667" lon="5.31717">
        <ele>210.6</ele>
        <time>2022-02-05T11:55:38Z</time>
      </trkpt>
      <trkpt lat="46.50672" lon="5.31715">
        <ele>210.8</ele>
        <time>2022-02-05T11:55:39Z</time>
      </trkpt>
      <trkpt lat="46.50706" lon="5.3171">
        <ele>211</ele>
        <time>2022-02-05T11:55:45Z</time>
      </trkpt>
      <trkpt lat="46.5073" lon="5.31708">
        <ele>211.2</ele>
        <time>2022-02-05T11:55:49Z</time>
      </trkpt>
      <trkpt lat="46.50759" lon="5.31705">
        <ele>211.4</ele>
        <time>2022-02-05T11:55:54Z</time>
      </trkpt>
      <trkpt lat="46.5077" lon="5.31706">
        <ele>211.4</ele>
        <time>2022-02-05T11:55:56Z</time>
      </trkpt>
      <trkpt lat="46.50782" lon="5.31711">
        <ele>211.4</ele>
        <time>2022-02-05T11:55:58Z</time>
      </trkpt>
      <trkpt lat="46.50787" lon="5.31715">
        <ele>211.2</ele>
        <time>2022-02-05T11:55:59Z</time>
      </trkpt>
      <trkpt lat="46.50827" lon="5.31744">
        <ele>211.6</ele>
        <time>2022-02-05T11:56:07Z</time>
      </trkpt>
      <trkpt lat="46.50832" lon="5.31746">
        <ele>211.6</ele>
        <time>2022-02-05T11:56:08Z</time>
      </trkpt>
      <trkpt lat="46.50838" lon="5.31746">
        <ele>211.6</ele>
        <time>2022-02-05T11:56:09Z</time>
      </trkpt>
      <trkpt lat="46.50847" lon="5.31744">
        <ele>211.8</ele>
        <time>2022-02-05T11:56:11Z</time>
      </trkpt>
      <trkpt lat="46.50851" lon="5.31742">
        <ele>211.8</ele>
        <time>2022-02-05T11:56:12Z</time>
      </trkpt>
      <trkpt lat="46.50856" lon="5.31739">
        <ele>212</ele>
        <time>2022-02-05T11:56:13Z</time>
      </trkpt>
      <trkpt lat="46.5087" lon="5.31724">
        <ele>212.4</ele>
        <time>2022-02-05T11:56:16Z</time>
      </trkpt>
      <trkpt lat="46.50875" lon="5.3172">
        <ele>212.6</ele>
        <time>2022-02-05T11:56:17Z</time>
      </trkpt>
      <trkpt lat="46.50908" lon="5.31684">
        <ele>213.2</ele>
        <time>2022-02-05T11:56:24Z</time>
      </trkpt>
      <trkpt lat="46.50936" lon="5.31654">
        <ele>213</ele>
        <time>2022-02-05T11:56:29Z</time>
      </trkpt>
      <trkpt lat="46.50983" lon="5.31606">
        <ele>211.6</ele>
        <time>2022-02-05T11:56:37Z</time>
      </trkpt>
      <trkpt lat="46.51009" lon="5.31579">
        <ele>211.6</ele>
        <time>2022-02-05T11:56:42Z</time>
      </trkpt>
      <trkpt lat="46.51031" lon="5.3155">
        <ele>211.8</ele>
        <time>2022-02-05T11:56:47Z</time>
      </trkpt>
      <trkpt lat="46.51034" lon="5.31543">
        <ele>211.8</ele>
        <time>2022-02-05T11:56:48Z</time>
      </trkpt>
      <trkpt lat="46.51041" lon="5.31527">
        <ele>211.8</ele>
        <time>2022-02-05T11:56:50Z</time>
      </trkpt>
      <trkpt lat="46.51048" lon="5.31498">
        <ele>211.6</ele>
        <time>2022-02-05T11:56:53Z</time>
      </trkpt>
      <trkpt lat="46.5105" lon="5.31488">
        <ele>211.4</ele>
        <time>2022-02-05T11:56:54Z</time>
      </trkpt>
      <trkpt lat="46.51062" lon="5.31433">
        <ele>210.4</ele>
        <time>2022-02-05T11:56:59Z</time>
      </trkpt>
      <trkpt lat="46.51064" lon="5.31422">
        <ele>209.8</ele>
        <time>2022-02-05T11:57:00Z</time>
      </trkpt>
      <trkpt lat="46.5107" lon="5.31387">
        <ele>209.2</ele>
        <time>2022-02-05T11:57:03Z</time>
      </trkpt>
      <trkpt lat="46.5107" lon="5.31363">
        <ele>208.4</ele>
        <time>2022-02-05T11:57:05Z</time>
      </trkpt>
      <trkpt lat="46.51069" lon="5.3134">
        <ele>207.8</ele>
        <time>2022-02-05T11:57:07Z</time>
      </trkpt>
      <trkpt lat="46.51069" lon="5.31328">
        <ele>207.4</ele>
        <time>2022-02-05T11:57:08Z</time>
      </trkpt>
      <trkpt lat="46.51074" lon="5.31307">
        <ele>206.8</ele>
        <time>2022-02-05T11:57:10Z</time>
      </trkpt>
      <trkpt lat="46.51078" lon="5.31295">
        <ele>206.8</ele>
        <time>2022-02-05T11:57:11Z</time>
      </trkpt>
      <trkpt lat="46.51082" lon="5.31284">
        <ele>206.4</ele>
        <time>2022-02-05T11:57:12Z</time>
      </trkpt>
      <trkpt lat="46.51087" lon="5.31276">
        <ele>206.2</ele>
        <time>2022-02-05T11:57:13Z</time>
      </trkpt>
      <trkpt lat="46.51094" lon="5.31268">
        <ele>205.8</ele>
        <time>2022-02-05T11:57:14Z</time>
      </trkpt>
      <trkpt lat="46.51101" lon="5.31259">
        <ele>205.6</ele>
        <time>2022-02-05T11:57:15Z</time>
      </trkpt>
      <trkpt lat="46.51108" lon="5.31251">
        <ele>205.2</ele>
        <time>2022-02-05T11:57:16Z</time>
      </trkpt>
      <trkpt lat="46.51123" lon="5.31234">
        <ele>204.2</ele>
        <time>2022-02-05T11:57:18Z</time>
      </trkpt>
      <trkpt lat="46.51145" lon="5.31209">
        <ele>203.2</ele>
        <time>2022-02-05T11:57:21Z</time>
      </trkpt>
      <trkpt lat="46.51165" lon="5.31186">
        <ele>202.4</ele>
        <time>2022-02-05T11:57:24Z</time>
      </trkpt>
      <trkpt lat="46.51177" lon="5.31171">
        <ele>202</ele>
        <time>2022-02-05T11:57:26Z</time>
      </trkpt>
      <trkpt lat="46.51204" lon="5.31139">
        <ele>201.6</ele>
        <time>2022-02-05T11:57:30Z</time>
      </trkpt>
      <trkpt lat="46.5123" lon="5.31107">
        <ele>201</ele>
        <time>2022-02-05T11:57:34Z</time>
      </trkpt>
      <trkpt lat="46.51244" lon="5.31093">
        <ele>200.8</ele>
        <time>2022-02-05T11:57:36Z</time>
      </trkpt>
      <trkpt lat="46.5127" lon="5.31082">
        <ele>200</ele>
        <time>2022-02-05T11:57:39Z</time>
      </trkpt>
      <trkpt lat="46.51278" lon="5.31081">
        <ele>199.8</ele>
        <time>2022-02-05T11:57:40Z</time>
      </trkpt>
      <trkpt lat="46.51323" lon="5.31079">
        <ele>199.2</ele>
        <time>2022-02-05T11:57:46Z</time>
      </trkpt>
      <trkpt lat="46.51378" lon="5.31076">
        <ele>199.2</ele>
        <time>2022-02-05T11:57:54Z</time>
      </trkpt>
      <trkpt lat="46.5143" lon="5.31074">
        <ele>199.6</ele>
        <time>2022-02-05T11:58:02Z</time>
      </trkpt>
      <trkpt lat="46.51488" lon="5.31074">
        <ele>199.4</ele>
        <time>2022-02-05T11:58:11Z</time>
      </trkpt>
      <trkpt lat="46.51494" lon="5.31074">
        <ele>199.4</ele>
        <time>2022-02-05T11:58:12Z</time>
      </trkpt>
      <trkpt lat="46.51553" lon="5.31078">
        <ele>199.6</ele>
        <time>2022-02-05T11:58:22Z</time>
      </trkpt>
      <trkpt lat="46.516" lon="5.31089">
        <ele>199.4</ele>
        <time>2022-02-05T11:58:30Z</time>
      </trkpt>
      <trkpt lat="46.51636" lon="5.31105">
        <ele>199.8</ele>
        <time>2022-02-05T11:58:37Z</time>
      </trkpt>
      <trkpt lat="46.51641" lon="5.31106">
        <ele>200</ele>
        <time>2022-02-05T11:58:38Z</time>
      </trkpt>
      <trkpt lat="46.51659" lon="5.31105">
        <ele>200.6</ele>
        <time>2022-02-05T11:58:42Z</time>
      </trkpt>
      <trkpt lat="46.51664" lon="5.31105">
        <ele>200.8</ele>
        <time>2022-02-05T11:58:43Z</time>
      </trkpt>
      <trkpt lat="46.51668" lon="5.31106">
        <ele>201</ele>
        <time>2022-02-05T11:58:44Z</time>
      </trkpt>
      <trkpt lat="46.51672" lon="5.31108">
        <ele>201.4</ele>
        <time>2022-02-05T11:58:45Z</time>
      </trkpt>
      <trkpt lat="46.51675" lon="5.31112">
        <ele>201.6</ele>
        <time>2022-02-05T11:58:46Z</time>
      </trkpt>
      <trkpt lat="46.51678" lon="5.31118">
        <ele>201.6</ele>
        <time>2022-02-05T11:58:47Z</time>
      </trkpt>
      <trkpt lat="46.51689" lon="5.31138">
        <ele>201.8</ele>
        <time>2022-02-05T11:58:50Z</time>
      </trkpt>
      <trkpt lat="46.51714" lon="5.31168">
        <ele>201.6</ele>
        <time>2022-02-05T11:58:55Z</time>
      </trkpt>
      <trkpt lat="46.51742" lon="5.3118">
        <ele>201.2</ele>
        <time>2022-02-05T11:58:59Z</time>
      </trkpt>
      <trkpt lat="46.51781" lon="5.31182">
        <ele>200</ele>
        <time>2022-02-05T11:59:04Z</time>
      </trkpt>
      <trkpt lat="46.5179" lon="5.31182">
        <ele>199.8</ele>
        <time>2022-02-05T11:59:05Z</time>
      </trkpt>
      <trkpt lat="46.51824" lon="5.31185">
        <ele>198.4</ele>
        <time>2022-02-05T11:59:09Z</time>
      </trkpt>
      <trkpt lat="46.51833" lon="5.31187">
        <ele>197.8</ele>
        <time>2022-02-05T11:59:10Z</time>
      </trkpt>
      <trkpt lat="46.5185" lon="5.31195">
        <ele>197</ele>
        <time>2022-02-05T11:59:12Z</time>
      </trkpt>
      <trkpt lat="46.51858" lon="5.31201">
        <ele>196.6</ele>
        <time>2022-02-05T11:59:13Z</time>
      </trkpt>
      <trkpt lat="46.51865" lon="5.31207">
        <ele>195.8</ele>
        <time>2022-02-05T11:59:14Z</time>
      </trkpt>
      <trkpt lat="46.51884" lon="5.31231">
        <ele>194.8</ele>
        <time>2022-02-05T11:59:17Z</time>
      </trkpt>
      <trkpt lat="46.51921" lon="5.31286">
        <ele>194.2</ele>
        <time>2022-02-05T11:59:24Z</time>
      </trkpt>
      <trkpt lat="46.51955" lon="5.31335">
        <ele>194</ele>
        <time>2022-02-05T11:59:31Z</time>
      </trkpt>
      <trkpt lat="46.51983" lon="5.31379">
        <ele>194.4</ele>
        <time>2022-02-05T11:59:38Z</time>
      </trkpt>
      <trkpt lat="46.52003" lon="5.31409">
        <ele>194.6</ele>
        <time>2022-02-05T11:59:43Z</time>
      </trkpt>
      <trkpt lat="46.5201" lon="5.31423">
        <ele>194.6</ele>
        <time>2022-02-05T11:59:45Z</time>
      </trkpt>
      <trkpt lat="46.52025" lon="5.31447">
        <ele>194.8</ele>
        <time>2022-02-05T11:59:49Z</time>
      </trkpt>
      <trkpt lat="46.52031" lon="5.3146">
        <ele>195</ele>
        <time>2022-02-05T11:59:51Z</time>
      </trkpt>
      <trkpt lat="46.52035" lon="5.31466">
        <ele>195</ele>
        <time>2022-02-05T11:59:52Z</time>
      </trkpt>
      <trkpt lat="46.52047" lon="5.31481">
        <ele>195.4</ele>
        <time>2022-02-05T11:59:55Z</time>
      </trkpt>
      <trkpt lat="46.52062" lon="5.31502">
        <ele>195.8</ele>
        <time>2022-02-05T11:59:59Z</time>
      </trkpt>
      <trkpt lat="46.52077" lon="5.31521">
        <ele>196.4</ele>
        <time>2022-02-05T12:00:03Z</time>
      </trkpt>
      <trkpt lat="46.52087" lon="5.31539">
        <ele>196.6</ele>
        <time>2022-02-05T12:00:06Z</time>
      </trkpt>
      <trkpt lat="46.52094" lon="5.3155">
        <ele>196.8</ele>
        <time>2022-02-05T12:00:08Z</time>
      </trkpt>
      <trkpt lat="46.52099" lon="5.31555">
        <ele>197</ele>
        <time>2022-02-05T12:00:09Z</time>
      </trkpt>
      <trkpt lat="46.52103" lon="5.3156">
        <ele>197.2</ele>
        <time>2022-02-05T12:00:10Z</time>
      </trkpt>
      <trkpt lat="46.52106" lon="5.31565">
        <ele>197.6</ele>
        <time>2022-02-05T12:00:11Z</time>
      </trkpt>
      <trkpt lat="46.52114" lon="5.31576">
        <ele>197.8</ele>
        <time>2022-02-05T12:00:13Z</time>
      </trkpt>
      <trkpt lat="46.52121" lon="5.31582">
        <ele>198</ele>
        <time>2022-02-05T12:00:14Z</time>
      </trkpt>
      <trkpt lat="46.5213" lon="5.31598">
        <ele>198.2</ele>
        <time>2022-02-05T12:00:17Z</time>
      </trkpt>
      <trkpt lat="46.52136" lon="5.31608">
        <ele>198.8</ele>
        <time>2022-02-05T12:00:19Z</time>
      </trkpt>
      <trkpt lat="46.5214" lon="5.31612">
        <ele>199</ele>
        <time>2022-02-05T12:00:20Z</time>
      </trkpt>
      <trkpt lat="46.52143" lon="5.31619">
        <ele>199.4</ele>
        <time>2022-02-05T12:00:21Z</time>
      </trkpt>
      <trkpt lat="46.52152" lon="5.31628">
        <ele>199.4</ele>
        <time>2022-02-05T12:00:23Z</time>
      </trkpt>
      <trkpt lat="46.52159" lon="5.31639">
        <ele>200.2</ele>
        <time>2022-02-05T12:00:25Z</time>
      </trkpt>
      <trkpt lat="46.52165" lon="5.31649">
        <ele>200.6</ele>
        <time>2022-02-05T12:00:27Z</time>
      </trkpt>
      <trkpt lat="46.5217" lon="5.31659">
        <ele>201</ele>
        <time>2022-02-05T12:00:29Z</time>
      </trkpt>
      <trkpt lat="46.52176" lon="5.31669">
        <ele>201.2</ele>
        <time>2022-02-05T12:00:31Z</time>
      </trkpt>
      <trkpt lat="46.52179" lon="5.31674">
        <ele>201.4</ele>
        <time>2022-02-05T12:00:32Z</time>
      </trkpt>
      <trkpt lat="46.52193" lon="5.31691">
        <ele>202.2</ele>
        <time>2022-02-05T12:00:36Z</time>
      </trkpt>
      <trkpt lat="46.52196" lon="5.31696">
        <ele>202.4</ele>
        <time>2022-02-05T12:00:37Z</time>
      </trkpt>
      <trkpt lat="46.52217" lon="5.31725">
        <ele>203</ele>
        <time>2022-02-05T12:00:43Z</time>
      </trkpt>
      <trkpt lat="46.52228" lon="5.31739">
        <ele>203.4</ele>
        <time>2022-02-05T12:00:46Z</time>
      </trkpt>
      <trkpt lat="46.52233" lon="5.3175">
        <ele>203.6</ele>
        <time>2022-02-05T12:00:48Z</time>
      </trkpt>
      <trkpt lat="46.52238" lon="5.31763">
        <ele>204</ele>
        <time>2022-02-05T12:00:50Z</time>
      </trkpt>
      <trkpt lat="46.52247" lon="5.31777">
        <ele>204.4</ele>
        <time>2022-02-05T12:00:53Z</time>
      </trkpt>
      <trkpt lat="46.52254" lon="5.31787">
        <ele>205</ele>
        <time>2022-02-05T12:00:55Z</time>
      </trkpt>
      <trkpt lat="46.52265" lon="5.318">
        <ele>205.4</ele>
        <time>2022-02-05T12:00:58Z</time>
      </trkpt>
      <trkpt lat="46.52269" lon="5.31804">
        <ele>205.6</ele>
        <time>2022-02-05T12:00:59Z</time>
      </trkpt>
      <trkpt lat="46.52279" lon="5.31818">
        <ele>206</ele>
        <time>2022-02-05T12:01:02Z</time>
      </trkpt>
      <trkpt lat="46.52285" lon="5.31827">
        <ele>206.2</ele>
        <time>2022-02-05T12:01:04Z</time>
      </trkpt>
      <trkpt lat="46.52288" lon="5.31831">
        <ele>206.2</ele>
        <time>2022-02-05T12:01:05Z</time>
      </trkpt>
      <trkpt lat="46.52298" lon="5.31846">
        <ele>206.8</ele>
        <time>2022-02-05T12:01:08Z</time>
      </trkpt>
      <trkpt lat="46.52301" lon="5.3185">
        <ele>207</ele>
        <time>2022-02-05T12:01:09Z</time>
      </trkpt>
      <trkpt lat="46.52303" lon="5.31855">
        <ele>207</ele>
        <time>2022-02-05T12:01:10Z</time>
      </trkpt>
      <trkpt lat="46.52306" lon="5.3186">
        <ele>207.2</ele>
        <time>2022-02-05T12:01:11Z</time>
      </trkpt>
      <trkpt lat="46.52312" lon="5.31869">
        <ele>207.4</ele>
        <time>2022-02-05T12:01:13Z</time>
      </trkpt>
      <trkpt lat="46.52315" lon="5.31874">
        <ele>207.6</ele>
        <time>2022-02-05T12:01:14Z</time>
      </trkpt>
      <trkpt lat="46.52318" lon="5.31879">
        <ele>207.8</ele>
        <time>2022-02-05T12:01:15Z</time>
      </trkpt>
      <trkpt lat="46.52335" lon="5.31899">
        <ele>208.4</ele>
        <time>2022-02-05T12:01:20Z</time>
      </trkpt>
      <trkpt lat="46.52344" lon="5.31908">
        <ele>208.8</ele>
        <time>2022-02-05T12:01:22Z</time>
      </trkpt>
      <trkpt lat="46.52348" lon="5.31912">
        <ele>209</ele>
        <time>2022-02-05T12:01:23Z</time>
      </trkpt>
      <trkpt lat="46.52356" lon="5.31923">
        <ele>209.2</ele>
        <time>2022-02-05T12:01:25Z</time>
      </trkpt>
      <trkpt lat="46.52361" lon="5.31928">
        <ele>209.2</ele>
        <time>2022-02-05T12:01:26Z</time>
      </trkpt>
      <trkpt lat="46.52397" lon="5.31969">
        <ele>209</ele>
        <time>2022-02-05T12:01:33Z</time>
      </trkpt>
      <trkpt lat="46.52433" lon="5.3202">
        <ele>207.6</ele>
        <time>2022-02-05T12:01:40Z</time>
      </trkpt>
      <trkpt lat="46.52454" lon="5.32049">
        <ele>206.8</ele>
        <time>2022-02-05T12:01:44Z</time>
      </trkpt>
      <trkpt lat="46.52464" lon="5.32064">
        <ele>206.6</ele>
        <time>2022-02-05T12:01:46Z</time>
      </trkpt>
      <trkpt lat="46.52469" lon="5.32072">
        <ele>206.4</ele>
        <time>2022-02-05T12:01:47Z</time>
      </trkpt>
      <trkpt lat="46.5249" lon="5.32102">
        <ele>205.2</ele>
        <time>2022-02-05T12:01:51Z</time>
      </trkpt>
      <trkpt lat="46.52512" lon="5.32132">
        <ele>204.2</ele>
        <time>2022-02-05T12:01:55Z</time>
      </trkpt>
      <trkpt lat="46.52536" lon="5.32162">
        <ele>203.2</ele>
        <time>2022-02-05T12:01:59Z</time>
      </trkpt>
      <trkpt lat="46.52542" lon="5.32169">
        <ele>202.8</ele>
        <time>2022-02-05T12:02:00Z</time>
      </trkpt>
      <trkpt lat="46.52563" lon="5.32187">
        <ele>201.8</ele>
        <time>2022-02-05T12:02:03Z</time>
      </trkpt>
      <trkpt lat="46.52571" lon="5.32191">
        <ele>201.6</ele>
        <time>2022-02-05T12:02:04Z</time>
      </trkpt>
      <trkpt lat="46.52595" lon="5.32203">
        <ele>200.6</ele>
        <time>2022-02-05T12:02:07Z</time>
      </trkpt>
      <trkpt lat="46.52612" lon="5.32212">
        <ele>200</ele>
        <time>2022-02-05T12:02:09Z</time>
      </trkpt>
      <trkpt lat="46.52621" lon="5.32216">
        <ele>199.4</ele>
        <time>2022-02-05T12:02:10Z</time>
      </trkpt>
      <trkpt lat="46.52638" lon="5.32226">
        <ele>198.2</ele>
        <time>2022-02-05T12:02:12Z</time>
      </trkpt>
      <trkpt lat="46.52647" lon="5.32231">
        <ele>197.8</ele>
        <time>2022-02-05T12:02:13Z</time>
      </trkpt>
      <trkpt lat="46.52655" lon="5.32237">
        <ele>196.8</ele>
        <time>2022-02-05T12:02:14Z</time>
      </trkpt>
      <trkpt lat="46.52664" lon="5.32244">
        <ele>196.4</ele>
        <time>2022-02-05T12:02:15Z</time>
      </trkpt>
      <trkpt lat="46.5268" lon="5.32258">
        <ele>195.4</ele>
        <time>2022-02-05T12:02:17Z</time>
      </trkpt>
      <trkpt lat="46.52701" lon="5.3228">
        <ele>194.6</ele>
        <time>2022-02-05T12:02:20Z</time>
      </trkpt>
      <trkpt lat="46.52707" lon="5.32288">
        <ele>194</ele>
        <time>2022-02-05T12:02:21Z</time>
      </trkpt>
      <trkpt lat="46.5273" lon="5.32317">
        <ele>193.6</ele>
        <time>2022-02-05T12:02:25Z</time>
      </trkpt>
      <trkpt lat="46.52767" lon="5.3236">
        <ele>193.4</ele>
        <time>2022-02-05T12:02:32Z</time>
      </trkpt>
      <trkpt lat="46.52791" lon="5.32387">
        <ele>193.4</ele>
        <time>2022-02-05T12:02:37Z</time>
      </trkpt>
      <trkpt lat="46.52826" lon="5.32427">
        <ele>193.2</ele>
        <time>2022-02-05T12:02:44Z</time>
      </trkpt>
      <trkpt lat="46.52846" lon="5.32448">
        <ele>193</ele>
        <time>2022-02-05T12:02:48Z</time>
      </trkpt>
      <trkpt lat="46.52866" lon="5.32468">
        <ele>193</ele>
        <time>2022-02-05T12:02:52Z</time>
      </trkpt>
      <trkpt lat="46.52912" lon="5.32515">
        <ele>193</ele>
        <time>2022-02-05T12:03:01Z</time>
      </trkpt>
      <trkpt lat="46.52922" lon="5.32525">
        <ele>193</ele>
        <time>2022-02-05T12:03:03Z</time>
      </trkpt>
      <trkpt lat="46.52964" lon="5.32568">
        <ele>193.2</ele>
        <time>2022-02-05T12:03:12Z</time>
      </trkpt>
      <trkpt lat="46.52988" lon="5.32593">
        <ele>193.8</ele>
        <time>2022-02-05T12:03:18Z</time>
      </trkpt>
      <trkpt lat="46.52995" lon="5.32601">
        <ele>194</ele>
        <time>2022-02-05T12:03:20Z</time>
      </trkpt>
      <trkpt lat="46.53009" lon="5.32616">
        <ele>194.6</ele>
        <time>2022-02-05T12:03:24Z</time>
      </trkpt>
      <trkpt lat="46.53018" lon="5.32627">
        <ele>195.2</ele>
        <time>2022-02-05T12:03:27Z</time>
      </trkpt>
      <trkpt lat="46.53036" lon="5.32648">
        <ele>196.4</ele>
        <time>2022-02-05T12:03:33Z</time>
      </trkpt>
      <trkpt lat="46.53054" lon="5.32666">
        <ele>197.4</ele>
        <time>2022-02-05T12:03:39Z</time>
      </trkpt>
      <trkpt lat="46.53062" lon="5.32675">
        <ele>198.6</ele>
        <time>2022-02-05T12:03:42Z</time>
      </trkpt>
      <trkpt lat="46.53081" lon="5.32696">
        <ele>199.8</ele>
        <time>2022-02-05T12:03:49Z</time>
      </trkpt>
      <trkpt lat="46.53089" lon="5.32706">
        <ele>200.6</ele>
        <time>2022-02-05T12:03:52Z</time>
      </trkpt>
      <trkpt lat="46.53095" lon="5.32712">
        <ele>200.8</ele>
        <time>2022-02-05T12:03:54Z</time>
      </trkpt>
      <trkpt lat="46.53109" lon="5.32728">
        <ele>202.2</ele>
        <time>2022-02-05T12:03:59Z</time>
      </trkpt>
      <trkpt lat="46.53119" lon="5.32739">
        <ele>203.4</ele>
        <time>2022-02-05T12:04:03Z</time>
      </trkpt>
      <trkpt lat="46.5313" lon="5.32752">
        <ele>204.2</ele>
        <time>2022-02-05T12:04:07Z</time>
      </trkpt>
      <trkpt lat="46.53132" lon="5.32754">
        <ele>204.6</ele>
        <time>2022-02-05T12:04:08Z</time>
      </trkpt>
      <trkpt lat="46.53145" lon="5.32771">
        <ele>205.6</ele>
        <time>2022-02-05T12:04:13Z</time>
      </trkpt>
      <trkpt lat="46.53152" lon="5.3278">
        <ele>206.2</ele>
        <time>2022-02-05T12:04:16Z</time>
      </trkpt>
      <trkpt lat="46.53159" lon="5.3279">
        <ele>206.8</ele>
        <time>2022-02-05T12:04:19Z</time>
      </trkpt>
      <trkpt lat="46.53174" lon="5.32815">
        <ele>208</ele>
        <time>2022-02-05T12:04:26Z</time>
      </trkpt>
      <trkpt lat="46.53177" lon="5.32819">
        <ele>208</ele>
        <time>2022-02-05T12:04:27Z</time>
      </trkpt>
      <trkpt lat="46.53185" lon="5.32835">
        <ele>209.2</ele>
        <time>2022-02-05T12:04:31Z</time>
      </trkpt>
      <trkpt lat="46.53191" lon="5.32847">
        <ele>209.8</ele>
        <time>2022-02-05T12:04:34Z</time>
      </trkpt>
      <trkpt lat="46.53193" lon="5.32851">
        <ele>210.2</ele>
        <time>2022-02-05T12:04:35Z</time>
      </trkpt>
      <trkpt lat="46.53208" lon="5.3288">
        <ele>211.6</ele>
        <time>2022-02-05T12:04:42Z</time>
      </trkpt>
      <trkpt lat="46.5321" lon="5.32884">
        <ele>211.6</ele>
        <time>2022-02-05T12:04:43Z</time>
      </trkpt>
      <trkpt lat="46.53218" lon="5.32901">
        <ele>212.6</ele>
        <time>2022-02-05T12:04:47Z</time>
      </trkpt>
      <trkpt lat="46.53225" lon="5.32917">
        <ele>213.2</ele>
        <time>2022-02-05T12:04:51Z</time>
      </trkpt>
      <trkpt lat="46.53231" lon="5.32929">
        <ele>213.8</ele>
        <time>2022-02-05T12:04:54Z</time>
      </trkpt>
      <trkpt lat="46.53243" lon="5.32954">
        <ele>215</ele>
        <time>2022-02-05T12:05:00Z</time>
      </trkpt>
      <trkpt lat="46.53263" lon="5.32994">
        <ele>216</ele>
        <time>2022-02-05T12:05:09Z</time>
      </trkpt>
      <trkpt lat="46.53265" lon="5.32999">
        <ele>216.2</ele>
        <time>2022-02-05T12:05:10Z</time>
      </trkpt>
      <trkpt lat="46.53283" lon="5.33032">
        <ele>217.2</ele>
        <time>2022-02-05T12:05:17Z</time>
      </trkpt>
      <trkpt lat="46.53292" lon="5.33046">
        <ele>217.6</ele>
        <time>2022-02-05T12:05:20Z</time>
      </trkpt>
      <trkpt lat="46.53315" lon="5.33081">
        <ele>218</ele>
        <time>2022-02-05T12:05:27Z</time>
      </trkpt>
      <trkpt lat="46.53319" lon="5.33086">
        <ele>218.2</ele>
        <time>2022-02-05T12:05:28Z</time>
      </trkpt>
      <trkpt lat="46.5335" lon="5.33125">
        <ele>218.6</ele>
        <time>2022-02-05T12:05:36Z</time>
      </trkpt>
      <trkpt lat="46.53384" lon="5.33173">
        <ele>218.6</ele>
        <time>2022-02-05T12:05:45Z</time>
      </trkpt>
      <trkpt lat="46.53417" lon="5.33217">
        <ele>218.4</ele>
        <time>2022-02-05T12:05:53Z</time>
      </trkpt>
      <trkpt lat="46.53459" lon="5.33274">
        <ele>218.4</ele>
        <time>2022-02-05T12:06:03Z</time>
      </trkpt>
      <trkpt lat="46.53501" lon="5.33333">
        <ele>218.2</ele>
        <time>2022-02-05T12:06:13Z</time>
      </trkpt>
      <trkpt lat="46.53514" lon="5.33351">
        <ele>218.2</ele>
        <time>2022-02-05T12:06:16Z</time>
      </trkpt>
      <trkpt lat="46.53558" lon="5.3341">
        <ele>217.2</ele>
        <time>2022-02-05T12:06:25Z</time>
      </trkpt>
      <trkpt lat="46.53563" lon="5.33417">
        <ele>217</ele>
        <time>2022-02-05T12:06:26Z</time>
      </trkpt>
      <trkpt lat="46.53603" lon="5.33472">
        <ele>215.8</ele>
        <time>2022-02-05T12:06:34Z</time>
      </trkpt>
      <trkpt lat="46.53613" lon="5.33485">
        <ele>215.4</ele>
        <time>2022-02-05T12:06:36Z</time>
      </trkpt>
      <trkpt lat="46.53622" lon="5.33498">
        <ele>214.8</ele>
        <time>2022-02-05T12:06:38Z</time>
      </trkpt>
      <trkpt lat="46.53629" lon="5.3351">
        <ele>214.4</ele>
        <time>2022-02-05T12:06:40Z</time>
      </trkpt>
      <trkpt lat="46.53631" lon="5.33514">
        <ele>214.2</ele>
        <time>2022-02-05T12:06:41Z</time>
      </trkpt>
      <trkpt lat="46.53631" lon="5.3352">
        <ele>213.6</ele>
        <time>2022-02-05T12:06:43Z</time>
      </trkpt>
      <trkpt lat="46.53631" lon="5.33522">
        <ele>213.4</ele>
        <time>2022-02-05T12:06:44Z</time>
      </trkpt>
      <trkpt lat="46.5364" lon="5.33521">
        <ele>212.8</ele>
        <time>2022-02-05T12:06:47Z</time>
      </trkpt>
      <trkpt lat="46.53661" lon="5.33504">
        <ele>213</ele>
        <time>2022-02-05T12:06:52Z</time>
      </trkpt>
      <trkpt lat="46.53692" lon="5.33474">
        <ele>214.2</ele>
        <time>2022-02-05T12:06:59Z</time>
      </trkpt>
      <trkpt lat="46.53702" lon="5.33467">
        <ele>214.4</ele>
        <time>2022-02-05T12:07:01Z</time>
      </trkpt>
      <trkpt lat="46.53713" lon="5.33467">
        <ele>214.8</ele>
        <time>2022-02-05T12:07:03Z</time>
      </trkpt>
      <trkpt lat="46.53745" lon="5.33484">
        <ele>214.8</ele>
        <time>2022-02-05T12:07:08Z</time>
      </trkpt>
      <trkpt lat="46.53784" lon="5.33511">
        <ele>213.6</ele>
        <time>2022-02-05T12:07:14Z</time>
      </trkpt>
      <trkpt lat="46.53817" lon="5.33532">
        <ele>212.6</ele>
        <time>2022-02-05T12:07:19Z</time>
      </trkpt>
      <trkpt lat="46.5383" lon="5.3354">
        <ele>212.4</ele>
        <time>2022-02-05T12:07:21Z</time>
      </trkpt>
      <trkpt lat="46.53855" lon="5.33554">
        <ele>212</ele>
        <time>2022-02-05T12:07:25Z</time>
      </trkpt>
      <trkpt lat="46.53877" lon="5.33559">
        <ele>211.6</ele>
        <time>2022-02-05T12:07:28Z</time>
      </trkpt>
      <trkpt lat="46.53892" lon="5.33561">
        <ele>211.2</ele>
        <time>2022-02-05T12:07:30Z</time>
      </trkpt>
      <trkpt lat="46.53916" lon="5.33563">
        <ele>210.4</ele>
        <time>2022-02-05T12:07:33Z</time>
      </trkpt>
      <trkpt lat="46.53931" lon="5.33565">
        <ele>209.8</ele>
        <time>2022-02-05T12:07:35Z</time>
      </trkpt>
      <trkpt lat="46.53956" lon="5.33568">
        <ele>208.6</ele>
        <time>2022-02-05T12:07:38Z</time>
      </trkpt>
      <trkpt lat="46.53982" lon="5.33572">
        <ele>207.4</ele>
        <time>2022-02-05T12:07:41Z</time>
      </trkpt>
      <trkpt lat="46.54001" lon="5.33575">
        <ele>206</ele>
        <time>2022-02-05T12:07:43Z</time>
      </trkpt>
      <trkpt lat="46.54012" lon="5.33577">
        <ele>204.8</ele>
        <time>2022-02-05T12:07:44Z</time>
      </trkpt>
      <trkpt lat="46.54022" lon="5.33581">
        <ele>204.6</ele>
        <time>2022-02-05T12:07:45Z</time>
      </trkpt>
      <trkpt lat="46.54041" lon="5.33592">
        <ele>203.6</ele>
        <time>2022-02-05T12:07:47Z</time>
      </trkpt>
      <trkpt lat="46.54051" lon="5.33598">
        <ele>203</ele>
        <time>2022-02-05T12:07:48Z</time>
      </trkpt>
      <trkpt lat="46.5406" lon="5.33604">
        <ele>202.4</ele>
        <time>2022-02-05T12:07:49Z</time>
      </trkpt>
      <trkpt lat="46.54097" lon="5.33624">
        <ele>200.8</ele>
        <time>2022-02-05T12:07:53Z</time>
      </trkpt>
      <trkpt lat="46.54105" lon="5.33628">
        <ele>200.6</ele>
        <time>2022-02-05T12:07:54Z</time>
      </trkpt>
      <trkpt lat="46.54128" lon="5.33639">
        <ele>200</ele>
        <time>2022-02-05T12:07:57Z</time>
      </trkpt>
      <trkpt lat="46.54142" lon="5.33644">
        <ele>200</ele>
        <time>2022-02-05T12:07:59Z</time>
      </trkpt>
      <trkpt lat="46.54172" lon="5.3365">
        <ele>200</ele>
        <time>2022-02-05T12:08:04Z</time>
      </trkpt>
      <trkpt lat="46.54198" lon="5.33654">
        <ele>201</ele>
        <time>2022-02-05T12:08:09Z</time>
      </trkpt>
      <trkpt lat="46.54207" lon="5.33655">
        <ele>201.4</ele>
        <time>2022-02-05T12:08:11Z</time>
      </trkpt>
      <trkpt lat="46.54221" lon="5.33658">
        <ele>202.2</ele>
        <time>2022-02-05T12:08:14Z</time>
      </trkpt>
      <trkpt lat="46.54242" lon="5.3366">
        <ele>202.6</ele>
        <time>2022-02-05T12:08:18Z</time>
      </trkpt>
      <trkpt lat="46.5427" lon="5.3366">
        <ele>203.2</ele>
        <time>2022-02-05T12:08:23Z</time>
      </trkpt>
      <trkpt lat="46.54303" lon="5.33661">
        <ele>203.4</ele>
        <time>2022-02-05T12:08:28Z</time>
      </trkpt>
      <trkpt lat="46.54348" lon="5.33666">
        <ele>202.4</ele>
        <time>2022-02-05T12:08:34Z</time>
      </trkpt>
      <trkpt lat="46.54364" lon="5.3367">
        <ele>201.8</ele>
        <time>2022-02-05T12:08:36Z</time>
      </trkpt>
      <trkpt lat="46.54394" lon="5.33681">
        <ele>201.4</ele>
        <time>2022-02-05T12:08:40Z</time>
      </trkpt>
      <trkpt lat="46.54426" lon="5.33694">
        <ele>201.2</ele>
        <time>2022-02-05T12:08:45Z</time>
      </trkpt>
      <trkpt lat="46.5445" lon="5.33706">
        <ele>202</ele>
        <time>2022-02-05T12:08:50Z</time>
      </trkpt>
      <trkpt lat="46.54462" lon="5.33712">
        <ele>202.6</ele>
        <time>2022-02-05T12:08:53Z</time>
      </trkpt>
      <trkpt lat="46.5447" lon="5.33716">
        <ele>203</ele>
        <time>2022-02-05T12:08:55Z</time>
      </trkpt>
      <trkpt lat="46.54474" lon="5.33718">
        <ele>203</ele>
        <time>2022-02-05T12:08:56Z</time>
      </trkpt>
      <trkpt lat="46.54485" lon="5.33724">
        <ele>204</ele>
        <time>2022-02-05T12:08:59Z</time>
      </trkpt>
      <trkpt lat="46.54489" lon="5.33726">
        <ele>204.2</ele>
        <time>2022-02-05T12:09:00Z</time>
      </trkpt>
      <trkpt lat="46.54503" lon="5.33731">
        <ele>205.4</ele>
        <time>2022-02-05T12:09:04Z</time>
      </trkpt>
      <trkpt lat="46.54518" lon="5.33737">
        <ele>206.4</ele>
        <time>2022-02-05T12:09:08Z</time>
      </trkpt>
      <trkpt lat="46.54521" lon="5.33739">
        <ele>206.6</ele>
        <time>2022-02-05T12:09:09Z</time>
      </trkpt>
      <trkpt lat="46.54535" lon="5.33747">
        <ele>207.4</ele>
        <time>2022-02-05T12:09:13Z</time>
      </trkpt>
      <trkpt lat="46.54548" lon="5.33753">
        <ele>208.6</ele>
        <time>2022-02-05T12:09:17Z</time>
      </trkpt>
      <trkpt lat="46.54564" lon="5.33761">
        <ele>209.8</ele>
        <time>2022-02-05T12:09:22Z</time>
      </trkpt>
      <trkpt lat="46.54577" lon="5.33767">
        <ele>210.8</ele>
        <time>2022-02-05T12:09:26Z</time>
      </trkpt>
      <trkpt lat="46.54596" lon="5.33772">
        <ele>212</ele>
        <time>2022-02-05T12:09:31Z</time>
      </trkpt>
      <trkpt lat="46.54603" lon="5.33775">
        <ele>212.4</ele>
        <time>2022-02-05T12:09:33Z</time>
      </trkpt>
      <trkpt lat="46.54619" lon="5.3378">
        <ele>213.2</ele>
        <time>2022-02-05T12:09:37Z</time>
      </trkpt>
      <trkpt lat="46.54631" lon="5.33784">
        <ele>213.8</ele>
        <time>2022-02-05T12:09:40Z</time>
      </trkpt>
      <trkpt lat="46.54658" lon="5.33791">
        <ele>214</ele>
        <time>2022-02-05T12:09:45Z</time>
      </trkpt>
      <trkpt lat="46.54697" lon="5.33792">
        <ele>213.2</ele>
        <time>2022-02-05T12:09:51Z</time>
      </trkpt>
      <trkpt lat="46.54734" lon="5.33785">
        <ele>212.2</ele>
        <time>2022-02-05T12:09:56Z</time>
      </trkpt>
      <trkpt lat="46.54742" lon="5.33783">
        <ele>212</ele>
        <time>2022-02-05T12:09:57Z</time>
      </trkpt>
      <trkpt lat="46.54765" lon="5.33781">
        <ele>211</ele>
        <time>2022-02-05T12:10:00Z</time>
      </trkpt>
      <trkpt lat="46.5478" lon="5.33781">
        <ele>210.8</ele>
        <time>2022-02-05T12:10:02Z</time>
      </trkpt>
      <trkpt lat="46.5481" lon="5.33782">
        <ele>209.8</ele>
        <time>2022-02-05T12:10:06Z</time>
      </trkpt>
      <trkpt lat="46.54834" lon="5.33783">
        <ele>209</ele>
        <time>2022-02-05T12:10:09Z</time>
      </trkpt>
      <trkpt lat="46.54842" lon="5.33782">
        <ele>208.6</ele>
        <time>2022-02-05T12:10:10Z</time>
      </trkpt>
      <trkpt lat="46.54881" lon="5.33776">
        <ele>207.6</ele>
        <time>2022-02-05T12:10:15Z</time>
      </trkpt>
      <trkpt lat="46.54888" lon="5.33775">
        <ele>207.4</ele>
        <time>2022-02-05T12:10:16Z</time>
      </trkpt>
      <trkpt lat="46.54935" lon="5.33776">
        <ele>206.6</ele>
        <time>2022-02-05T12:10:22Z</time>
      </trkpt>
      <trkpt lat="46.54942" lon="5.33778">
        <ele>206.6</ele>
        <time>2022-02-05T12:10:23Z</time>
      </trkpt>
      <trkpt lat="46.54998" lon="5.3379">
        <ele>206</ele>
        <time>2022-02-05T12:10:31Z</time>
      </trkpt>
      <trkpt lat="46.55005" lon="5.33792">
        <ele>206</ele>
        <time>2022-02-05T12:10:32Z</time>
      </trkpt>
      <trkpt lat="46.55046" lon="5.33809">
        <ele>206.4</ele>
        <time>2022-02-05T12:10:39Z</time>
      </trkpt>
      <trkpt lat="46.55079" lon="5.33836">
        <ele>206.8</ele>
        <time>2022-02-05T12:10:46Z</time>
      </trkpt>
      <trkpt lat="46.55111" lon="5.33875">
        <ele>207.6</ele>
        <time>2022-02-05T12:10:54Z</time>
      </trkpt>
      <trkpt lat="46.55142" lon="5.3392">
        <ele>208.6</ele>
        <time>2022-02-05T12:11:03Z</time>
      </trkpt>
      <trkpt lat="46.55145" lon="5.33925">
        <ele>208.8</ele>
        <time>2022-02-05T12:11:04Z</time>
      </trkpt>
      <trkpt lat="46.5516" lon="5.33948">
        <ele>209.8</ele>
        <time>2022-02-05T12:11:09Z</time>
      </trkpt>
      <trkpt lat="46.55167" lon="5.33962">
        <ele>210.4</ele>
        <time>2022-02-05T12:11:12Z</time>
      </trkpt>
      <trkpt lat="46.55169" lon="5.33966">
        <ele>210.6</ele>
        <time>2022-02-05T12:11:13Z</time>
      </trkpt>
      <trkpt lat="46.55171" lon="5.33971">
        <ele>210.8</ele>
        <time>2022-02-05T12:11:14Z</time>
      </trkpt>
      <trkpt lat="46.5518" lon="5.33991">
        <ele>212.2</ele>
        <time>2022-02-05T12:11:18Z</time>
      </trkpt>
      <trkpt lat="46.55182" lon="5.33997">
        <ele>212.6</ele>
        <time>2022-02-05T12:11:19Z</time>
      </trkpt>
      <trkpt lat="46.55183" lon="5.34003">
        <ele>212.8</ele>
        <time>2022-02-05T12:11:20Z</time>
      </trkpt>
      <trkpt lat="46.55186" lon="5.34019">
        <ele>213.6</ele>
        <time>2022-02-05T12:11:23Z</time>
      </trkpt>
      <trkpt lat="46.55188" lon="5.34037">
        <ele>214</ele>
        <time>2022-02-05T12:11:26Z</time>
      </trkpt>
      <trkpt lat="46.5519" lon="5.34043">
        <ele>214.2</ele>
        <time>2022-02-05T12:11:27Z</time>
      </trkpt>
      <trkpt lat="46.55191" lon="5.34049">
        <ele>214.4</ele>
        <time>2022-02-05T12:11:28Z</time>
      </trkpt>
      <trkpt lat="46.55195" lon="5.3406">
        <ele>214.8</ele>
        <time>2022-02-05T12:11:30Z</time>
      </trkpt>
      <trkpt lat="46.552" lon="5.3407">
        <ele>215.4</ele>
        <time>2022-02-05T12:11:32Z</time>
      </trkpt>
      <trkpt lat="46.55204" lon="5.34081">
        <ele>216</ele>
        <time>2022-02-05T12:11:34Z</time>
      </trkpt>
      <trkpt lat="46.55207" lon="5.34092">
        <ele>216.6</ele>
        <time>2022-02-05T12:11:36Z</time>
      </trkpt>
      <trkpt lat="46.55208" lon="5.34097">
        <ele>216.8</ele>
        <time>2022-02-05T12:11:37Z</time>
      </trkpt>
      <trkpt lat="46.55211" lon="5.34107">
        <ele>217</ele>
        <time>2022-02-05T12:11:39Z</time>
      </trkpt>
      <trkpt lat="46.55215" lon="5.34118">
        <ele>217.2</ele>
        <time>2022-02-05T12:11:41Z</time>
      </trkpt>
      <trkpt lat="46.55217" lon="5.34124">
        <ele>217.2</ele>
        <time>2022-02-05T12:11:42Z</time>
      </trkpt>
      <trkpt lat="46.55223" lon="5.34154">
        <ele>217.4</ele>
        <time>2022-02-05T12:11:46Z</time>
      </trkpt>
      <trkpt lat="46.55224" lon="5.34161">
        <ele>217.4</ele>
        <time>2022-02-05T12:11:47Z</time>
      </trkpt>
      <trkpt lat="46.55231" lon="5.34215">
        <ele>217.2</ele>
        <time>2022-02-05T12:11:53Z</time>
      </trkpt>
      <trkpt lat="46.55238" lon="5.34239">
        <ele>217</ele>
        <time>2022-02-05T12:11:56Z</time>
      </trkpt>
      <trkpt lat="46.55244" lon="5.34254">
        <ele>216.8</ele>
        <time>2022-02-05T12:11:58Z</time>
      </trkpt>
      <trkpt lat="46.5526" lon="5.34276">
        <ele>216.4</ele>
        <time>2022-02-05T12:12:01Z</time>
      </trkpt>
      <trkpt lat="46.55269" lon="5.34282">
        <ele>216</ele>
        <time>2022-02-05T12:12:02Z</time>
      </trkpt>
      <trkpt lat="46.55275" lon="5.34289">
        <ele>215.8</ele>
        <time>2022-02-05T12:12:03Z</time>
      </trkpt>
      <trkpt lat="46.55279" lon="5.34295">
        <ele>215.6</ele>
        <time>2022-02-05T12:12:04Z</time>
      </trkpt>
      <trkpt lat="46.55289" lon="5.34305">
        <ele>215.2</ele>
        <time>2022-02-05T12:12:06Z</time>
      </trkpt>
      <trkpt lat="46.55299" lon="5.3431">
        <ele>215</ele>
        <time>2022-02-05T12:12:07Z</time>
      </trkpt>
      <trkpt lat="46.55322" lon="5.34321">
        <ele>214.8</ele>
        <time>2022-02-05T12:12:09Z</time>
      </trkpt>
      <trkpt lat="46.55331" lon="5.34327">
        <ele>214.6</ele>
        <time>2022-02-05T12:12:10Z</time>
      </trkpt>
      <trkpt lat="46.55346" lon="5.34347">
        <ele>214</ele>
        <time>2022-02-05T12:12:13Z</time>
      </trkpt>
      <trkpt lat="46.55349" lon="5.34353">
        <ele>214</ele>
        <time>2022-02-05T12:12:14Z</time>
      </trkpt>
      <trkpt lat="46.55354" lon="5.3436">
        <ele>213.8</ele>
        <time>2022-02-05T12:12:15Z</time>
      </trkpt>
      <trkpt lat="46.55359" lon="5.34366">
        <ele>213.2</ele>
        <time>2022-02-05T12:12:16Z</time>
      </trkpt>
      <trkpt lat="46.55383" lon="5.34389">
        <ele>212.6</ele>
        <time>2022-02-05T12:12:20Z</time>
      </trkpt>
      <trkpt lat="46.55427" lon="5.34435">
        <ele>211.8</ele>
        <time>2022-02-05T12:12:28Z</time>
      </trkpt>
      <trkpt lat="46.55432" lon="5.34441">
        <ele>211.8</ele>
        <time>2022-02-05T12:12:29Z</time>
      </trkpt>
      <trkpt lat="46.55458" lon="5.34467">
        <ele>211.6</ele>
        <time>2022-02-05T12:12:34Z</time>
      </trkpt>
      <trkpt lat="46.55472" lon="5.34482">
        <ele>211.6</ele>
        <time>2022-02-05T12:12:37Z</time>
      </trkpt>
      <trkpt lat="46.55511" lon="5.34519">
        <ele>211.6</ele>
        <time>2022-02-05T12:12:45Z</time>
      </trkpt>
      <trkpt lat="46.55561" lon="5.34549">
        <ele>211</ele>
        <time>2022-02-05T12:12:54Z</time>
      </trkpt>
      <trkpt lat="46.55599" lon="5.34563">
        <ele>210.6</ele>
        <time>2022-02-05T12:13:00Z</time>
      </trkpt>
      <trkpt lat="46.55606" lon="5.34565">
        <ele>210.4</ele>
        <time>2022-02-05T12:13:01Z</time>
      </trkpt>
      <trkpt lat="46.55635" lon="5.34575">
        <ele>209.4</ele>
        <time>2022-02-05T12:13:05Z</time>
      </trkpt>
      <trkpt lat="46.55651" lon="5.34578">
        <ele>209.2</ele>
        <time>2022-02-05T12:13:07Z</time>
      </trkpt>
      <trkpt lat="46.55668" lon="5.34577">
        <ele>208.4</ele>
        <time>2022-02-05T12:13:09Z</time>
      </trkpt>
      <trkpt lat="46.55695" lon="5.34576">
        <ele>207</ele>
        <time>2022-02-05T12:13:12Z</time>
      </trkpt>
      <trkpt lat="46.55705" lon="5.34577">
        <ele>206.8</ele>
        <time>2022-02-05T12:13:13Z</time>
      </trkpt>
      <trkpt lat="46.55723" lon="5.3458">
        <ele>205.6</ele>
        <time>2022-02-05T12:13:15Z</time>
      </trkpt>
      <trkpt lat="46.55742" lon="5.34584">
        <ele>204.6</ele>
        <time>2022-02-05T12:13:17Z</time>
      </trkpt>
      <trkpt lat="46.5576" lon="5.34588">
        <ele>203.6</ele>
        <time>2022-02-05T12:13:19Z</time>
      </trkpt>
      <trkpt lat="46.55769" lon="5.3459">
        <ele>203.2</ele>
        <time>2022-02-05T12:13:20Z</time>
      </trkpt>
      <trkpt lat="46.55788" lon="5.34594">
        <ele>202</ele>
        <time>2022-02-05T12:13:22Z</time>
      </trkpt>
      <trkpt lat="46.55814" lon="5.34599">
        <ele>201</ele>
        <time>2022-02-05T12:13:25Z</time>
      </trkpt>
      <trkpt lat="46.5583" lon="5.34603">
        <ele>200.2</ele>
        <time>2022-02-05T12:13:27Z</time>
      </trkpt>
      <trkpt lat="46.55853" lon="5.34608">
        <ele>199.8</ele>
        <time>2022-02-05T12:13:30Z</time>
      </trkpt>
      <trkpt lat="46.55875" lon="5.34615">
        <ele>199.4</ele>
        <time>2022-02-05T12:13:33Z</time>
      </trkpt>
      <trkpt lat="46.55912" lon="5.34624">
        <ele>199</ele>
        <time>2022-02-05T12:13:38Z</time>
      </trkpt>
      <trkpt lat="46.55927" lon="5.34629">
        <ele>198.8</ele>
        <time>2022-02-05T12:13:40Z</time>
      </trkpt>
      <trkpt lat="46.55964" lon="5.34637">
        <ele>198</ele>
        <time>2022-02-05T12:13:45Z</time>
      </trkpt>
      <trkpt lat="46.55996" lon="5.34644">
        <ele>197.8</ele>
        <time>2022-02-05T12:13:50Z</time>
      </trkpt>
      <trkpt lat="46.56009" lon="5.34647">
        <ele>197.8</ele>
        <time>2022-02-05T12:13:52Z</time>
      </trkpt>
      <trkpt lat="46.56058" lon="5.3466">
        <ele>198.2</ele>
        <time>2022-02-05T12:14:00Z</time>
      </trkpt>
      <trkpt lat="46.56105" lon="5.34672">
        <ele>198.2</ele>
        <time>2022-02-05T12:14:08Z</time>
      </trkpt>
      <trkpt lat="46.5613" lon="5.34678">
        <ele>198.4</ele>
        <time>2022-02-05T12:14:13Z</time>
      </trkpt>
      <trkpt lat="46.56139" lon="5.34678">
        <ele>198.8</ele>
        <time>2022-02-05T12:14:15Z</time>
      </trkpt>
      <trkpt lat="46.56162" lon="5.34681">
        <ele>199.6</ele>
        <time>2022-02-05T12:14:20Z</time>
      </trkpt>
      <trkpt lat="46.56166" lon="5.34681">
        <ele>200</ele>
        <time>2022-02-05T12:14:21Z</time>
      </trkpt>
      <trkpt lat="46.56192" lon="5.34679">
        <ele>201</ele>
        <time>2022-02-05T12:14:27Z</time>
      </trkpt>
      <trkpt lat="46.56221" lon="5.3467">
        <ele>202</ele>
        <time>2022-02-05T12:14:34Z</time>
      </trkpt>
      <trkpt lat="46.56225" lon="5.34668">
        <ele>202.4</ele>
        <time>2022-02-05T12:14:35Z</time>
      </trkpt>
      <trkpt lat="46.56242" lon="5.34663">
        <ele>203.2</ele>
        <time>2022-02-05T12:14:39Z</time>
      </trkpt>
      <trkpt lat="46.56258" lon="5.34658">
        <ele>203.6</ele>
        <time>2022-02-05T12:14:43Z</time>
      </trkpt>
      <trkpt lat="46.5627" lon="5.34654">
        <ele>204.2</ele>
        <time>2022-02-05T12:14:46Z</time>
      </trkpt>
      <trkpt lat="46.56294" lon="5.34648">
        <ele>204.8</ele>
        <time>2022-02-05T12:14:52Z</time>
      </trkpt>
      <trkpt lat="46.56298" lon="5.34648">
        <ele>205</ele>
        <time>2022-02-05T12:14:53Z</time>
      </trkpt>
      <trkpt lat="46.56302" lon="5.34648">
        <ele>205.4</ele>
        <time>2022-02-05T12:14:54Z</time>
      </trkpt>
      <trkpt lat="46.56321" lon="5.3465">
        <ele>206.4</ele>
        <time>2022-02-05T12:14:59Z</time>
      </trkpt>
      <trkpt lat="46.56329" lon="5.34651">
        <ele>207</ele>
        <time>2022-02-05T12:15:01Z</time>
      </trkpt>
      <trkpt lat="46.56341" lon="5.34656">
        <ele>207.6</ele>
        <time>2022-02-05T12:15:04Z</time>
      </trkpt>
      <trkpt lat="46.56359" lon="5.34665">
        <ele>208.4</ele>
        <time>2022-02-05T12:15:08Z</time>
      </trkpt>
      <trkpt lat="46.56368" lon="5.34669">
        <ele>208.6</ele>
        <time>2022-02-05T12:15:10Z</time>
      </trkpt>
      <trkpt lat="46.56386" lon="5.34674">
        <ele>208.6</ele>
        <time>2022-02-05T12:15:13Z</time>
      </trkpt>
      <trkpt lat="46.5639" lon="5.34674">
        <ele>208.6</ele>
        <time>2022-02-05T12:15:14Z</time>
      </trkpt>
      <trkpt lat="46.56426" lon="5.34685">
        <ele>208</ele>
        <time>2022-02-05T12:15:20Z</time>
      </trkpt>
      <trkpt lat="46.56451" lon="5.347">
        <ele>207.2</ele>
        <time>2022-02-05T12:15:24Z</time>
      </trkpt>
      <trkpt lat="46.56472" lon="5.34712">
        <ele>206.2</ele>
        <time>2022-02-05T12:15:27Z</time>
      </trkpt>
      <trkpt lat="46.56518" lon="5.34738">
        <ele>204.8</ele>
        <time>2022-02-05T12:15:34Z</time>
      </trkpt>
      <trkpt lat="46.56543" lon="5.34753">
        <ele>203.6</ele>
        <time>2022-02-05T12:15:37Z</time>
      </trkpt>
      <trkpt lat="46.56559" lon="5.34762">
        <ele>202.8</ele>
        <time>2022-02-05T12:15:39Z</time>
      </trkpt>
      <trkpt lat="46.56567" lon="5.34766">
        <ele>202.4</ele>
        <time>2022-02-05T12:15:40Z</time>
      </trkpt>
      <trkpt lat="46.56575" lon="5.34769">
        <ele>201.8</ele>
        <time>2022-02-05T12:15:41Z</time>
      </trkpt>
      <trkpt lat="46.56593" lon="5.34771">
        <ele>201.2</ele>
        <time>2022-02-05T12:15:43Z</time>
      </trkpt>
      <trkpt lat="46.56611" lon="5.3476">
        <ele>200.6</ele>
        <time>2022-02-05T12:15:45Z</time>
      </trkpt>
      <trkpt lat="46.56623" lon="5.34739">
        <ele>199.6</ele>
        <time>2022-02-05T12:15:47Z</time>
      </trkpt>
      <trkpt lat="46.56629" lon="5.34727">
        <ele>199.4</ele>
        <time>2022-02-05T12:15:48Z</time>
      </trkpt>
      <trkpt lat="46.56641" lon="5.34704">
        <ele>197.8</ele>
        <time>2022-02-05T12:15:50Z</time>
      </trkpt>
      <trkpt lat="46.56649" lon="5.34696">
        <ele>197.6</ele>
        <time>2022-02-05T12:15:51Z</time>
      </trkpt>
      <trkpt lat="46.56658" lon="5.34691">
        <ele>196.8</ele>
        <time>2022-02-05T12:15:52Z</time>
      </trkpt>
      <trkpt lat="46.56675" lon="5.34686">
        <ele>196.2</ele>
        <time>2022-02-05T12:15:54Z</time>
      </trkpt>
      <trkpt lat="46.56693" lon="5.34681">
        <ele>195.6</ele>
        <time>2022-02-05T12:15:56Z</time>
      </trkpt>
      <trkpt lat="46.56734" lon="5.34665">
        <ele>195</ele>
        <time>2022-02-05T12:16:01Z</time>
      </trkpt>
      <trkpt lat="46.56741" lon="5.34662">
        <ele>195.2</ele>
        <time>2022-02-05T12:16:02Z</time>
      </trkpt>
      <trkpt lat="46.56757" lon="5.34661">
        <ele>194.8</ele>
        <time>2022-02-05T12:16:04Z</time>
      </trkpt>
      <trkpt lat="46.56772" lon="5.34671">
        <ele>194.6</ele>
        <time>2022-02-05T12:16:06Z</time>
      </trkpt>
      <trkpt lat="46.56777" lon="5.34679">
        <ele>194.4</ele>
        <time>2022-02-05T12:16:07Z</time>
      </trkpt>
      <trkpt lat="46.5678" lon="5.34688">
        <ele>194.4</ele>
        <time>2022-02-05T12:16:08Z</time>
      </trkpt>
      <trkpt lat="46.56787" lon="5.34717">
        <ele>194.4</ele>
        <time>2022-02-05T12:16:11Z</time>
      </trkpt>
      <trkpt lat="46.568" lon="5.34774">
        <ele>194</ele>
        <time>2022-02-05T12:16:17Z</time>
      </trkpt>
      <trkpt lat="46.56812" lon="5.34842">
        <ele>194</ele>
        <time>2022-02-05T12:16:24Z</time>
      </trkpt>
      <trkpt lat="46.56822" lon="5.34904">
        <ele>194.4</ele>
        <time>2022-02-05T12:16:31Z</time>
      </trkpt>
      <trkpt lat="46.56831" lon="5.34951">
        <ele>195.2</ele>
        <time>2022-02-05T12:16:37Z</time>
      </trkpt>
      <trkpt lat="46.5684" lon="5.34984">
        <ele>195.6</ele>
        <time>2022-02-05T12:16:42Z</time>
      </trkpt>
      <trkpt lat="46.56845" lon="5.34997">
        <ele>196.2</ele>
        <time>2022-02-05T12:16:44Z</time>
      </trkpt>
      <trkpt lat="46.56856" lon="5.35023">
        <ele>197.4</ele>
        <time>2022-02-05T12:16:49Z</time>
      </trkpt>
      <trkpt lat="46.56861" lon="5.35033">
        <ele>197.6</ele>
        <time>2022-02-05T12:16:51Z</time>
      </trkpt>
      <trkpt lat="46.56864" lon="5.35042">
        <ele>198.2</ele>
        <time>2022-02-05T12:16:53Z</time>
      </trkpt>
      <trkpt lat="46.56868" lon="5.35051">
        <ele>198.6</ele>
        <time>2022-02-05T12:16:55Z</time>
      </trkpt>
      <trkpt lat="46.56875" lon="5.35064">
        <ele>199.4</ele>
        <time>2022-02-05T12:16:58Z</time>
      </trkpt>
      <trkpt lat="46.56881" lon="5.35077">
        <ele>200.4</ele>
        <time>2022-02-05T12:17:01Z</time>
      </trkpt>
      <trkpt lat="46.56883" lon="5.35082">
        <ele>200.8</ele>
        <time>2022-02-05T12:17:02Z</time>
      </trkpt>
      <trkpt lat="46.56893" lon="5.35103">
        <ele>201.8</ele>
        <time>2022-02-05T12:17:07Z</time>
      </trkpt>
      <trkpt lat="46.56895" lon="5.35107">
        <ele>202</ele>
        <time>2022-02-05T12:17:08Z</time>
      </trkpt>
      <trkpt lat="46.56905" lon="5.35129">
        <ele>203</ele>
        <time>2022-02-05T12:17:13Z</time>
      </trkpt>
      <trkpt lat="46.56906" lon="5.35134">
        <ele>203.2</ele>
        <time>2022-02-05T12:17:14Z</time>
      </trkpt>
      <trkpt lat="46.56916" lon="5.35149">
        <ele>204.4</ele>
        <time>2022-02-05T12:17:18Z</time>
      </trkpt>
      <trkpt lat="46.5692" lon="5.35153">
        <ele>204.6</ele>
        <time>2022-02-05T12:17:19Z</time>
      </trkpt>
      <trkpt lat="46.56939" lon="5.35171">
        <ele>205.4</ele>
        <time>2022-02-05T12:17:24Z</time>
      </trkpt>
      <trkpt lat="46.56959" lon="5.35188">
        <ele>205.6</ele>
        <time>2022-02-05T12:17:28Z</time>
      </trkpt>
      <trkpt lat="46.56965" lon="5.35194">
        <ele>205.4</ele>
        <time>2022-02-05T12:17:29Z</time>
      </trkpt>
      <trkpt lat="46.56969" lon="5.35202">
        <ele>205.2</ele>
        <time>2022-02-05T12:17:30Z</time>
      </trkpt>
      <trkpt lat="46.56976" lon="5.3522">
        <ele>204.6</ele>
        <time>2022-02-05T12:17:32Z</time>
      </trkpt>
      <trkpt lat="46.56981" lon="5.35242">
        <ele>204.2</ele>
        <time>2022-02-05T12:17:34Z</time>
      </trkpt>
      <trkpt lat="46.56987" lon="5.35276">
        <ele>203</ele>
        <time>2022-02-05T12:17:37Z</time>
      </trkpt>
      <trkpt lat="46.57" lon="5.3532">
        <ele>201.8</ele>
        <time>2022-02-05T12:17:41Z</time>
      </trkpt>
      <trkpt lat="46.57006" lon="5.35341">
        <ele>201.2</ele>
        <time>2022-02-05T12:17:43Z</time>
      </trkpt>
      <trkpt lat="46.57014" lon="5.3537">
        <ele>200.6</ele>
        <time>2022-02-05T12:17:46Z</time>
      </trkpt>
      <trkpt lat="46.57032" lon="5.35429">
        <ele>200</ele>
        <time>2022-02-05T12:17:52Z</time>
      </trkpt>
      <trkpt lat="46.57039" lon="5.3548">
        <ele>199.8</ele>
        <time>2022-02-05T12:17:57Z</time>
      </trkpt>
      <trkpt lat="46.57039" lon="5.3549">
        <ele>199.8</ele>
        <time>2022-02-05T12:17:58Z</time>
      </trkpt>
      <trkpt lat="46.57042" lon="5.35531">
        <ele>199.6</ele>
        <time>2022-02-05T12:18:02Z</time>
      </trkpt>
      <trkpt lat="46.57044" lon="5.35563">
        <ele>199.4</ele>
        <time>2022-02-05T12:18:05Z</time>
      </trkpt>
      <trkpt lat="46.5705" lon="5.35607">
        <ele>199</ele>
        <time>2022-02-05T12:18:09Z</time>
      </trkpt>
      <trkpt lat="46.57054" lon="5.35617">
        <ele>198.6</ele>
        <time>2022-02-05T12:18:10Z</time>
      </trkpt>
      <trkpt lat="46.57058" lon="5.35626">
        <ele>198.4</ele>
        <time>2022-02-05T12:18:11Z</time>
      </trkpt>
      <trkpt lat="46.57068" lon="5.35641">
        <ele>198.2</ele>
        <time>2022-02-05T12:18:13Z</time>
      </trkpt>
      <trkpt lat="46.57074" lon="5.35648">
        <ele>198</ele>
        <time>2022-02-05T12:18:14Z</time>
      </trkpt>
      <trkpt lat="46.57106" lon="5.35687">
        <ele>197.8</ele>
        <time>2022-02-05T12:18:20Z</time>
      </trkpt>
      <trkpt lat="46.57141" lon="5.35729">
        <ele>197.6</ele>
        <time>2022-02-05T12:18:27Z</time>
      </trkpt>
      <trkpt lat="46.57176" lon="5.35754">
        <ele>198</ele>
        <time>2022-02-05T12:18:33Z</time>
      </trkpt>
      <trkpt lat="46.57229" lon="5.35787">
        <ele>198</ele>
        <time>2022-02-05T12:18:42Z</time>
      </trkpt>
      <trkpt lat="46.57235" lon="5.35791">
        <ele>198</ele>
        <time>2022-02-05T12:18:43Z</time>
      </trkpt>
      <trkpt lat="46.57282" lon="5.35822">
        <ele>198.4</ele>
        <time>2022-02-05T12:18:52Z</time>
      </trkpt>
      <trkpt lat="46.57303" lon="5.35833">
        <ele>198.8</ele>
        <time>2022-02-05T12:18:56Z</time>
      </trkpt>
      <trkpt lat="46.57308" lon="5.35835">
        <ele>198.8</ele>
        <time>2022-02-05T12:18:57Z</time>
      </trkpt>
      <trkpt lat="46.57341" lon="5.35842">
        <ele>198.8</ele>
        <time>2022-02-05T12:19:03Z</time>
      </trkpt>
      <trkpt lat="46.5735" lon="5.35845">
        <ele>199</ele>
        <time>2022-02-05T12:19:05Z</time>
      </trkpt>
      <trkpt lat="46.57373" lon="5.35859">
        <ele>199.2</ele>
        <time>2022-02-05T12:19:10Z</time>
      </trkpt>
      <trkpt lat="46.5738" lon="5.35867">
        <ele>199.4</ele>
        <time>2022-02-05T12:19:12Z</time>
      </trkpt>
      <trkpt lat="46.57385" lon="5.35878">
        <ele>199.6</ele>
        <time>2022-02-05T12:19:14Z</time>
      </trkpt>
      <trkpt lat="46.57386" lon="5.35882">
        <ele>199.6</ele>
        <time>2022-02-05T12:19:15Z</time>
      </trkpt>
      <trkpt lat="46.57392" lon="5.35899">
        <ele>200.2</ele>
        <time>2022-02-05T12:19:18Z</time>
      </trkpt>
      <trkpt lat="46.57393" lon="5.35905">
        <ele>200.2</ele>
        <time>2022-02-05T12:19:19Z</time>
      </trkpt>
      <trkpt lat="46.57395" lon="5.35915">
        <ele>200.6</ele>
        <time>2022-02-05T12:19:21Z</time>
      </trkpt>
      <trkpt lat="46.574" lon="5.35941">
        <ele>202</ele>
        <time>2022-02-05T12:19:26Z</time>
      </trkpt>
      <trkpt lat="46.57404" lon="5.35964">
        <ele>203.4</ele>
        <time>2022-02-05T12:19:30Z</time>
      </trkpt>
      <trkpt lat="46.57406" lon="5.35986">
        <ele>204.2</ele>
        <time>2022-02-05T12:19:33Z</time>
      </trkpt>
      <trkpt lat="46.57408" lon="5.36">
        <ele>204.4</ele>
        <time>2022-02-05T12:19:35Z</time>
      </trkpt>
      <trkpt lat="46.57409" lon="5.36005">
        <ele>204.6</ele>
        <time>2022-02-05T12:19:36Z</time>
      </trkpt>
      <trkpt lat="46.5741" lon="5.36019">
        <ele>205</ele>
        <time>2022-02-05T12:19:38Z</time>
      </trkpt>
      <trkpt lat="46.57408" lon="5.36035">
        <ele>205.6</ele>
        <time>2022-02-05T12:19:40Z</time>
      </trkpt>
      <trkpt lat="46.57399" lon="5.36087">
        <ele>206</ele>
        <time>2022-02-05T12:19:47Z</time>
      </trkpt>
      <trkpt lat="46.57393" lon="5.36121">
        <ele>205.8</ele>
        <time>2022-02-05T12:19:51Z</time>
      </trkpt>
      <trkpt lat="46.57392" lon="5.36131">
        <ele>205.6</ele>
        <time>2022-02-05T12:19:52Z</time>
      </trkpt>
      <trkpt lat="46.57392" lon="5.36153">
        <ele>205.2</ele>
        <time>2022-02-05T12:19:54Z</time>
      </trkpt>
      <trkpt lat="46.57395" lon="5.36172">
        <ele>204.8</ele>
        <time>2022-02-05T12:19:56Z</time>
      </trkpt>
      <trkpt lat="46.57398" lon="5.36193">
        <ele>204.6</ele>
        <time>2022-02-05T12:19:58Z</time>
      </trkpt>
      <trkpt lat="46.57407" lon="5.36247">
        <ele>203</ele>
        <time>2022-02-05T12:20:03Z</time>
      </trkpt>
      <trkpt lat="46.57409" lon="5.36261">
        <ele>203</ele>
        <time>2022-02-05T12:20:04Z</time>
      </trkpt>
      <trkpt lat="46.57414" lon="5.36293">
        <ele>202</ele>
        <time>2022-02-05T12:20:07Z</time>
      </trkpt>
      <trkpt lat="46.57425" lon="5.36364">
        <ele>200.6</ele>
        <time>2022-02-05T12:20:13Z</time>
      </trkpt>
      <trkpt lat="46.57427" lon="5.36376">
        <ele>200.2</ele>
        <time>2022-02-05T12:20:14Z</time>
      </trkpt>
      <trkpt lat="46.57429" lon="5.36388">
        <ele>200</ele>
        <time>2022-02-05T12:20:15Z</time>
      </trkpt>
      <trkpt lat="46.57432" lon="5.364">
        <ele>199.6</ele>
        <time>2022-02-05T12:20:16Z</time>
      </trkpt>
      <trkpt lat="46.57438" lon="5.36413">
        <ele>199.4</ele>
        <time>2022-02-05T12:20:17Z</time>
      </trkpt>
      <trkpt lat="46.57442" lon="5.36421">
        <ele>198.8</ele>
        <time>2022-02-05T12:20:18Z</time>
      </trkpt>
      <trkpt lat="46.57452" lon="5.36442">
        <ele>198.4</ele>
        <time>2022-02-05T12:20:20Z</time>
      </trkpt>
      <trkpt lat="46.57471" lon="5.36471">
        <ele>197</ele>
        <time>2022-02-05T12:20:23Z</time>
      </trkpt>
      <trkpt lat="46.57495" lon="5.36508">
        <ele>195.8</ele>
        <time>2022-02-05T12:20:27Z</time>
      </trkpt>
      <trkpt lat="46.57501" lon="5.36517">
        <ele>195.8</ele>
        <time>2022-02-05T12:20:28Z</time>
      </trkpt>
      <trkpt lat="46.57535" lon="5.36578">
        <ele>195.6</ele>
        <time>2022-02-05T12:20:35Z</time>
      </trkpt>
      <trkpt lat="46.57543" lon="5.36595">
        <ele>195.4</ele>
        <time>2022-02-05T12:20:37Z</time>
      </trkpt>
      <trkpt lat="46.57548" lon="5.36613">
        <ele>195.4</ele>
        <time>2022-02-05T12:20:39Z</time>
      </trkpt>
      <trkpt lat="46.5755" lon="5.36624">
        <ele>195.4</ele>
        <time>2022-02-05T12:20:40Z</time>
      </trkpt>
      <trkpt lat="46.57545" lon="5.36639">
        <ele>195.2</ele>
        <time>2022-02-05T12:20:42Z</time>
      </trkpt>
      <trkpt lat="46.57531" lon="5.36658">
        <ele>195.4</ele>
        <time>2022-02-05T12:20:45Z</time>
      </trkpt>
      <trkpt lat="46.57525" lon="5.36675">
        <ele>195.4</ele>
        <time>2022-02-05T12:20:47Z</time>
      </trkpt>
      <trkpt lat="46.57523" lon="5.36682">
        <ele>195.4</ele>
        <time>2022-02-05T12:20:48Z</time>
      </trkpt>
      <trkpt lat="46.57522" lon="5.36692">
        <ele>195.4</ele>
        <time>2022-02-05T12:20:49Z</time>
      </trkpt>
      <trkpt lat="46.57523" lon="5.36714">
        <ele>196</ele>
        <time>2022-02-05T12:20:52Z</time>
      </trkpt>
      <trkpt lat="46.57527" lon="5.3674">
        <ele>197</ele>
        <time>2022-02-05T12:20:56Z</time>
      </trkpt>
      <trkpt lat="46.57527" lon="5.36753">
        <ele>197.6</ele>
        <time>2022-02-05T12:20:58Z</time>
      </trkpt>
      <trkpt lat="46.57526" lon="5.36774">
        <ele>198.2</ele>
        <time>2022-02-05T12:21:01Z</time>
      </trkpt>
      <trkpt lat="46.57523" lon="5.36808">
        <ele>199.2</ele>
        <time>2022-02-05T12:21:06Z</time>
      </trkpt>
      <trkpt lat="46.57522" lon="5.36813">
        <ele>199.2</ele>
        <time>2022-02-05T12:21:07Z</time>
      </trkpt>
      <trkpt lat="46.57521" lon="5.36819">
        <ele>199.4</ele>
        <time>2022-02-05T12:21:08Z</time>
      </trkpt>
      <trkpt lat="46.5752" lon="5.3683">
        <ele>199.8</ele>
        <time>2022-02-05T12:21:10Z</time>
      </trkpt>
      <trkpt lat="46.57518" lon="5.36852">
        <ele>200.6</ele>
        <time>2022-02-05T12:21:14Z</time>
      </trkpt>
      <trkpt lat="46.57519" lon="5.36857">
        <ele>201</ele>
        <time>2022-02-05T12:21:15Z</time>
      </trkpt>
      <trkpt lat="46.57521" lon="5.36876">
        <ele>201.6</ele>
        <time>2022-02-05T12:21:18Z</time>
      </trkpt>
      <trkpt lat="46.57527" lon="5.369">
        <ele>202.4</ele>
        <time>2022-02-05T12:21:22Z</time>
      </trkpt>
      <trkpt lat="46.5753" lon="5.36911">
        <ele>202.8</ele>
        <time>2022-02-05T12:21:24Z</time>
      </trkpt>
      <trkpt lat="46.5753" lon="5.36926">
        <ele>203</ele>
        <time>2022-02-05T12:21:26Z</time>
      </trkpt>
      <trkpt lat="46.57521" lon="5.3696">
        <ele>203.4</ele>
        <time>2022-02-05T12:21:30Z</time>
      </trkpt>
      <trkpt lat="46.57499" lon="5.37034">
        <ele>203.4</ele>
        <time>2022-02-05T12:21:40Z</time>
      </trkpt>
      <trkpt lat="46.57491" lon="5.37058">
        <ele>203.8</ele>
        <time>2022-02-05T12:21:44Z</time>
      </trkpt>
      <trkpt lat="46.5749" lon="5.37063">
        <ele>204</ele>
        <time>2022-02-05T12:21:45Z</time>
      </trkpt>
      <trkpt lat="46.57482" lon="5.37086">
        <ele>204.8</ele>
        <time>2022-02-05T12:21:49Z</time>
      </trkpt>
      <trkpt lat="46.57481" lon="5.37091">
        <ele>205.4</ele>
        <time>2022-02-05T12:21:50Z</time>
      </trkpt>
      <trkpt lat="46.57478" lon="5.37104">
        <ele>205.6</ele>
        <time>2022-02-05T12:21:52Z</time>
      </trkpt>
      <trkpt lat="46.57475" lon="5.37119">
        <ele>205.8</ele>
        <time>2022-02-05T12:21:54Z</time>
      </trkpt>
      <trkpt lat="46.5747" lon="5.3716">
        <ele>206.2</ele>
        <time>2022-02-05T12:21:59Z</time>
      </trkpt>
      <trkpt lat="46.57468" lon="5.37222">
        <ele>206.2</ele>
        <time>2022-02-05T12:22:07Z</time>
      </trkpt>
      <trkpt lat="46.57468" lon="5.37245">
        <ele>206.4</ele>
        <time>2022-02-05T12:22:10Z</time>
      </trkpt>
      <trkpt lat="46.57469" lon="5.3728">
        <ele>207</ele>
        <time>2022-02-05T12:22:15Z</time>
      </trkpt>
      <trkpt lat="46.5747" lon="5.37299">
        <ele>207.4</ele>
        <time>2022-02-05T12:22:18Z</time>
      </trkpt>
      <trkpt lat="46.57471" lon="5.37317">
        <ele>208</ele>
        <time>2022-02-05T12:22:21Z</time>
      </trkpt>
      <trkpt lat="46.57471" lon="5.37323">
        <ele>208.2</ele>
        <time>2022-02-05T12:22:22Z</time>
      </trkpt>
      <trkpt lat="46.5747" lon="5.37336">
        <ele>208.8</ele>
        <time>2022-02-05T12:22:24Z</time>
      </trkpt>
      <trkpt lat="46.57466" lon="5.37349">
        <ele>209.2</ele>
        <time>2022-02-05T12:22:26Z</time>
      </trkpt>
      <trkpt lat="46.57459" lon="5.3736">
        <ele>209.6</ele>
        <time>2022-02-05T12:22:28Z</time>
      </trkpt>
      <trkpt lat="46.57448" lon="5.37377">
        <ele>210</ele>
        <time>2022-02-05T12:22:31Z</time>
      </trkpt>
      <trkpt lat="46.57443" lon="5.3739">
        <ele>210.2</ele>
        <time>2022-02-05T12:22:33Z</time>
      </trkpt>
      <trkpt lat="46.57439" lon="5.37406">
        <ele>210.4</ele>
        <time>2022-02-05T12:22:35Z</time>
      </trkpt>
      <trkpt lat="46.57436" lon="5.37422">
        <ele>210.6</ele>
        <time>2022-02-05T12:22:37Z</time>
      </trkpt>
      <trkpt lat="46.57428" lon="5.37461">
        <ele>210.8</ele>
        <time>2022-02-05T12:22:42Z</time>
      </trkpt>
      <trkpt lat="46.57405" lon="5.37516">
        <ele>211.4</ele>
        <time>2022-02-05T12:22:50Z</time>
      </trkpt>
      <trkpt lat="46.57396" lon="5.37534">
        <ele>211.6</ele>
        <time>2022-02-05T12:22:53Z</time>
      </trkpt>
      <trkpt lat="46.57379" lon="5.37562">
        <ele>212.4</ele>
        <time>2022-02-05T12:22:58Z</time>
      </trkpt>
      <trkpt lat="46.57364" lon="5.37584">
        <ele>212.8</ele>
        <time>2022-02-05T12:23:02Z</time>
      </trkpt>
      <trkpt lat="46.57348" lon="5.37604">
        <ele>213.2</ele>
        <time>2022-02-05T12:23:06Z</time>
      </trkpt>
      <trkpt lat="46.57302" lon="5.37651">
        <ele>213.6</ele>
        <time>2022-02-05T12:23:15Z</time>
      </trkpt>
      <trkpt lat="46.57262" lon="5.37695">
        <ele>213.2</ele>
        <time>2022-02-05T12:23:22Z</time>
      </trkpt>
      <trkpt lat="46.57233" lon="5.37728">
        <ele>212.4</ele>
        <time>2022-02-05T12:23:27Z</time>
      </trkpt>
      <trkpt lat="46.57229" lon="5.37735">
        <ele>212.2</ele>
        <time>2022-02-05T12:23:28Z</time>
      </trkpt>
      <trkpt lat="46.57227" lon="5.37742">
        <ele>212</ele>
        <time>2022-02-05T12:23:29Z</time>
      </trkpt>
      <trkpt lat="46.57226" lon="5.37751">
        <ele>211.6</ele>
        <time>2022-02-05T12:23:30Z</time>
      </trkpt>
      <trkpt lat="46.57227" lon="5.37761">
        <ele>211.4</ele>
        <time>2022-02-05T12:23:31Z</time>
      </trkpt>
      <trkpt lat="46.57245" lon="5.378">
        <ele>210.8</ele>
        <time>2022-02-05T12:23:35Z</time>
      </trkpt>
      <trkpt lat="46.57256" lon="5.37822">
        <ele>210.4</ele>
        <time>2022-02-05T12:23:37Z</time>
      </trkpt>
      <trkpt lat="46.57284" lon="5.37876">
        <ele>209.4</ele>
        <time>2022-02-05T12:23:42Z</time>
      </trkpt>
      <trkpt lat="46.57295" lon="5.37898">
        <ele>208.4</ele>
        <time>2022-02-05T12:23:44Z</time>
      </trkpt>
      <trkpt lat="46.57312" lon="5.37931">
        <ele>207.4</ele>
        <time>2022-02-05T12:23:47Z</time>
      </trkpt>
      <trkpt lat="46.57324" lon="5.37952">
        <ele>206.2</ele>
        <time>2022-02-05T12:23:49Z</time>
      </trkpt>
      <trkpt lat="46.57345" lon="5.37995">
        <ele>204.8</ele>
        <time>2022-02-05T12:23:53Z</time>
      </trkpt>
      <trkpt lat="46.57351" lon="5.38005">
        <ele>204.6</ele>
        <time>2022-02-05T12:23:54Z</time>
      </trkpt>
      <trkpt lat="46.57368" lon="5.38037">
        <ele>203.6</ele>
        <time>2022-02-05T12:23:57Z</time>
      </trkpt>
      <trkpt lat="46.57378" lon="5.38062">
        <ele>203</ele>
        <time>2022-02-05T12:23:59Z</time>
      </trkpt>
      <trkpt lat="46.57385" lon="5.38072">
        <ele>202.6</ele>
        <time>2022-02-05T12:24:00Z</time>
      </trkpt>
      <trkpt lat="46.574" lon="5.38089">
        <ele>201.4</ele>
        <time>2022-02-05T12:24:02Z</time>
      </trkpt>
      <trkpt lat="46.57416" lon="5.38103">
        <ele>200.2</ele>
        <time>2022-02-05T12:24:04Z</time>
      </trkpt>
      <trkpt lat="46.57439" lon="5.38121">
        <ele>199.2</ele>
        <time>2022-02-05T12:24:07Z</time>
      </trkpt>
      <trkpt lat="46.57447" lon="5.38126">
        <ele>199</ele>
        <time>2022-02-05T12:24:08Z</time>
      </trkpt>
      <trkpt lat="46.57482" lon="5.38153">
        <ele>198</ele>
        <time>2022-02-05T12:24:13Z</time>
      </trkpt>
      <trkpt lat="46.57489" lon="5.38159">
        <ele>198</ele>
        <time>2022-02-05T12:24:14Z</time>
      </trkpt>
      <trkpt lat="46.57536" lon="5.38196">
        <ele>197.2</ele>
        <time>2022-02-05T12:24:21Z</time>
      </trkpt>
      <trkpt lat="46.57574" lon="5.38227">
        <ele>197.2</ele>
        <time>2022-02-05T12:24:27Z</time>
      </trkpt>
      <trkpt lat="46.57585" lon="5.3824">
        <ele>197.2</ele>
        <time>2022-02-05T12:24:29Z</time>
      </trkpt>
      <trkpt lat="46.57607" lon="5.38273">
        <ele>197</ele>
        <time>2022-02-05T12:24:34Z</time>
      </trkpt>
      <trkpt lat="46.57611" lon="5.3828">
        <ele>197</ele>
        <time>2022-02-05T12:24:35Z</time>
      </trkpt>
      <trkpt lat="46.57625" lon="5.38314">
        <ele>198</ele>
        <time>2022-02-05T12:24:40Z</time>
      </trkpt>
      <trkpt lat="46.57632" lon="5.38321">
        <ele>198.8</ele>
        <time>2022-02-05T12:24:42Z</time>
      </trkpt>
      <trkpt lat="46.57637" lon="5.38321">
        <ele>199.2</ele>
        <time>2022-02-05T12:24:43Z</time>
      </trkpt>
      <trkpt lat="46.57646" lon="5.38318">
        <ele>199.4</ele>
        <time>2022-02-05T12:24:45Z</time>
      </trkpt>
      <trkpt lat="46.5766" lon="5.38312">
        <ele>200</ele>
        <time>2022-02-05T12:24:48Z</time>
      </trkpt>
      <trkpt lat="46.57665" lon="5.38311">
        <ele>200.4</ele>
        <time>2022-02-05T12:24:49Z</time>
      </trkpt>
      <trkpt lat="46.57691" lon="5.38307">
        <ele>201.4</ele>
        <time>2022-02-05T12:24:54Z</time>
      </trkpt>
      <trkpt lat="46.57701" lon="5.38305">
        <ele>201.6</ele>
        <time>2022-02-05T12:24:56Z</time>
      </trkpt>
      <trkpt lat="46.57738" lon="5.38294">
        <ele>202</ele>
        <time>2022-02-05T12:25:03Z</time>
      </trkpt>
      <trkpt lat="46.57743" lon="5.38292">
        <ele>202.2</ele>
        <time>2022-02-05T12:25:04Z</time>
      </trkpt>
      <trkpt lat="46.57769" lon="5.38272">
        <ele>202.4</ele>
        <time>2022-02-05T12:25:09Z</time>
      </trkpt>
      <trkpt lat="46.57815" lon="5.38227">
        <ele>201.8</ele>
        <time>2022-02-05T12:25:18Z</time>
      </trkpt>
      <trkpt lat="46.57847" lon="5.38196">
        <ele>201.6</ele>
        <time>2022-02-05T12:25:24Z</time>
      </trkpt>
      <trkpt lat="46.57852" lon="5.3819">
        <ele>201.4</ele>
        <time>2022-02-05T12:25:25Z</time>
      </trkpt>
      <trkpt lat="46.57872" lon="5.38144">
        <ele>201</ele>
        <time>2022-02-05T12:25:31Z</time>
      </trkpt>
      <trkpt lat="46.57892" lon="5.38083">
        <ele>200.8</ele>
        <time>2022-02-05T12:25:39Z</time>
      </trkpt>
      <trkpt lat="46.5791" lon="5.38032">
        <ele>200.8</ele>
        <time>2022-02-05T12:25:46Z</time>
      </trkpt>
      <trkpt lat="46.57918" lon="5.38018">
        <ele>200.8</ele>
        <time>2022-02-05T12:25:48Z</time>
      </trkpt>
      <trkpt lat="46.57934" lon="5.38001">
        <ele>200.8</ele>
        <time>2022-02-05T12:25:51Z</time>
      </trkpt>
      <trkpt lat="46.57946" lon="5.37991">
        <ele>200.4</ele>
        <time>2022-02-05T12:25:53Z</time>
      </trkpt>
      <trkpt lat="46.57967" lon="5.37979">
        <ele>200</ele>
        <time>2022-02-05T12:25:56Z</time>
      </trkpt>
      <trkpt lat="46.57981" lon="5.37969">
        <ele>199.2</ele>
        <time>2022-02-05T12:25:58Z</time>
      </trkpt>
      <trkpt lat="46.58001" lon="5.37952">
        <ele>198.6</ele>
        <time>2022-02-05T12:26:01Z</time>
      </trkpt>
      <trkpt lat="46.58015" lon="5.37944">
        <ele>198.2</ele>
        <time>2022-02-05T12:26:03Z</time>
      </trkpt>
      <trkpt lat="46.58028" lon="5.37938">
        <ele>197.8</ele>
        <time>2022-02-05T12:26:05Z</time>
      </trkpt>
      <trkpt lat="46.58056" lon="5.3793">
        <ele>197</ele>
        <time>2022-02-05T12:26:09Z</time>
      </trkpt>
      <trkpt lat="46.58084" lon="5.37921">
        <ele>196.4</ele>
        <time>2022-02-05T12:26:13Z</time>
      </trkpt>
      <trkpt lat="46.58127" lon="5.37904">
        <ele>196.4</ele>
        <time>2022-02-05T12:26:20Z</time>
      </trkpt>
      <trkpt lat="46.58132" lon="5.379">
        <ele>196.6</ele>
        <time>2022-02-05T12:26:21Z</time>
      </trkpt>
      <trkpt lat="46.58153" lon="5.37883">
        <ele>196.8</ele>
        <time>2022-02-05T12:26:25Z</time>
      </trkpt>
      <trkpt lat="46.58165" lon="5.37879">
        <ele>196.6</ele>
        <time>2022-02-05T12:26:27Z</time>
      </trkpt>
      <trkpt lat="46.58177" lon="5.3788">
        <ele>196.6</ele>
        <time>2022-02-05T12:26:29Z</time>
      </trkpt>
      <trkpt lat="46.58188" lon="5.37883">
        <ele>196.6</ele>
        <time>2022-02-05T12:26:31Z</time>
      </trkpt>
      <trkpt lat="46.58204" lon="5.37892">
        <ele>197</ele>
        <time>2022-02-05T12:26:34Z</time>
      </trkpt>
      <trkpt lat="46.58232" lon="5.37911">
        <ele>197.8</ele>
        <time>2022-02-05T12:26:40Z</time>
      </trkpt>
      <trkpt lat="46.58256" lon="5.37927">
        <ele>198.4</ele>
        <time>2022-02-05T12:26:45Z</time>
      </trkpt>
      <trkpt lat="46.58275" lon="5.37937">
        <ele>198.6</ele>
        <time>2022-02-05T12:26:49Z</time>
      </trkpt>
      <trkpt lat="46.58298" lon="5.37951">
        <ele>199.4</ele>
        <time>2022-02-05T12:26:54Z</time>
      </trkpt>
      <trkpt lat="46.58317" lon="5.3796">
        <ele>200</ele>
        <time>2022-02-05T12:26:58Z</time>
      </trkpt>
      <trkpt lat="46.58335" lon="5.37969">
        <ele>200.4</ele>
        <time>2022-02-05T12:27:02Z</time>
      </trkpt>
      <trkpt lat="46.58359" lon="5.37978">
        <ele>200.8</ele>
        <time>2022-02-05T12:27:07Z</time>
      </trkpt>
      <trkpt lat="46.58373" lon="5.37984">
        <ele>201.4</ele>
        <time>2022-02-05T12:27:10Z</time>
      </trkpt>
      <trkpt lat="46.584" lon="5.37995">
        <ele>202.6</ele>
        <time>2022-02-05T12:27:16Z</time>
      </trkpt>
      <trkpt lat="46.58419" lon="5.38004">
        <ele>203.6</ele>
        <time>2022-02-05T12:27:21Z</time>
      </trkpt>
      <trkpt lat="46.58435" lon="5.38011">
        <ele>204</ele>
        <time>2022-02-05T12:27:25Z</time>
      </trkpt>
      <trkpt lat="46.58448" lon="5.38017">
        <ele>204.8</ele>
        <time>2022-02-05T12:27:29Z</time>
      </trkpt>
      <trkpt lat="46.58463" lon="5.38022">
        <ele>205.4</ele>
        <time>2022-02-05T12:27:33Z</time>
      </trkpt>
      <trkpt lat="46.58475" lon="5.38026">
        <ele>205.8</ele>
        <time>2022-02-05T12:27:36Z</time>
      </trkpt>
      <trkpt lat="46.58485" lon="5.38031">
        <ele>206.4</ele>
        <time>2022-02-05T12:27:39Z</time>
      </trkpt>
      <trkpt lat="46.58496" lon="5.38033">
        <ele>207</ele>
        <time>2022-02-05T12:27:42Z</time>
      </trkpt>
      <trkpt lat="46.58509" lon="5.38032">
        <ele>207.8</ele>
        <time>2022-02-05T12:27:45Z</time>
      </trkpt>
      <trkpt lat="46.58513" lon="5.3803">
        <ele>208</ele>
        <time>2022-02-05T12:27:46Z</time>
      </trkpt>
      <trkpt lat="46.58517" lon="5.38028">
        <ele>208.2</ele>
        <time>2022-02-05T12:27:47Z</time>
      </trkpt>
      <trkpt lat="46.58536" lon="5.38017">
        <ele>208.6</ele>
        <time>2022-02-05T12:27:51Z</time>
      </trkpt>
      <trkpt lat="46.58564" lon="5.38004">
        <ele>208.6</ele>
        <time>2022-02-05T12:27:56Z</time>
      </trkpt>
      <trkpt lat="46.58575" lon="5.38007">
        <ele>208.4</ele>
        <time>2022-02-05T12:27:58Z</time>
      </trkpt>
      <trkpt lat="46.58581" lon="5.38011">
        <ele>208.4</ele>
        <time>2022-02-05T12:27:59Z</time>
      </trkpt>
      <trkpt lat="46.58586" lon="5.38015">
        <ele>208.2</ele>
        <time>2022-02-05T12:28:00Z</time>
      </trkpt>
      <trkpt lat="46.58607" lon="5.38036">
        <ele>208.2</ele>
        <time>2022-02-05T12:28:05Z</time>
      </trkpt>
      <trkpt lat="46.58637" lon="5.3805">
        <ele>208.6</ele>
        <time>2022-02-05T12:28:11Z</time>
      </trkpt>
      <trkpt lat="46.58679" lon="5.38056">
        <ele>209</ele>
        <time>2022-02-05T12:28:19Z</time>
      </trkpt>
      <trkpt lat="46.58732" lon="5.3806">
        <ele>210</ele>
        <time>2022-02-05T12:28:29Z</time>
      </trkpt>
      <trkpt lat="46.58738" lon="5.38061">
        <ele>210.2</ele>
        <time>2022-02-05T12:28:30Z</time>
      </trkpt>
      <trkpt lat="46.58765" lon="5.38066">
        <ele>210.4</ele>
        <time>2022-02-05T12:28:35Z</time>
      </trkpt>
      <trkpt lat="46.58775" lon="5.38071">
        <ele>210.6</ele>
        <time>2022-02-05T12:28:37Z</time>
      </trkpt>
      <trkpt lat="46.58785" lon="5.38078">
        <ele>210.6</ele>
        <time>2022-02-05T12:28:39Z</time>
      </trkpt>
      <trkpt lat="46.58794" lon="5.38086">
        <ele>210.8</ele>
        <time>2022-02-05T12:28:41Z</time>
      </trkpt>
      <trkpt lat="46.58798" lon="5.38091">
        <ele>210.8</ele>
        <time>2022-02-05T12:28:42Z</time>
      </trkpt>
      <trkpt lat="46.5881" lon="5.38107">
        <ele>211.2</ele>
        <time>2022-02-05T12:28:45Z</time>
      </trkpt>
      <trkpt lat="46.58836" lon="5.38139">
        <ele>211.6</ele>
        <time>2022-02-05T12:28:51Z</time>
      </trkpt>
      <trkpt lat="46.5888" lon="5.38195">
        <ele>210.8</ele>
        <time>2022-02-05T12:29:00Z</time>
      </trkpt>
      <trkpt lat="46.58917" lon="5.38239">
        <ele>210.2</ele>
        <time>2022-02-05T12:29:07Z</time>
      </trkpt>
      <trkpt lat="46.58958" lon="5.38283">
        <ele>209</ele>
        <time>2022-02-05T12:29:14Z</time>
      </trkpt>
      <trkpt lat="46.58998" lon="5.38317">
        <ele>207.6</ele>
        <time>2022-02-05T12:29:20Z</time>
      </trkpt>
      <trkpt lat="46.59011" lon="5.38327">
        <ele>207.4</ele>
        <time>2022-02-05T12:29:22Z</time>
      </trkpt>
      <trkpt lat="46.59052" lon="5.38362">
        <ele>207</ele>
        <time>2022-02-05T12:29:29Z</time>
      </trkpt>
      <trkpt lat="46.59091" lon="5.38395">
        <ele>208.4</ele>
        <time>2022-02-05T12:29:37Z</time>
      </trkpt>
      <trkpt lat="46.591" lon="5.38403">
        <ele>208.8</ele>
        <time>2022-02-05T12:29:39Z</time>
      </trkpt>
      <trkpt lat="46.59114" lon="5.38415">
        <ele>209</ele>
        <time>2022-02-05T12:29:41Z</time>
      </trkpt>
      <trkpt lat="46.59129" lon="5.38434">
        <ele>209.4</ele>
        <time>2022-02-05T12:29:45Z</time>
      </trkpt>
      <trkpt lat="46.59132" lon="5.38439">
        <ele>210</ele>
        <time>2022-02-05T12:29:46Z</time>
      </trkpt>
      <trkpt lat="46.59156" lon="5.38477">
        <ele>211.2</ele>
        <time>2022-02-05T12:29:53Z</time>
      </trkpt>
      <trkpt lat="46.59156" lon="5.38477">
        <ele>211.4</ele>
        <time>2022-02-05T12:29:54Z</time>
      </trkpt>
      <trkpt lat="46.5917" lon="5.38499">
        <ele>212.4</ele>
        <time>2022-02-05T12:29:57Z</time>
      </trkpt>
      <trkpt lat="46.59184" lon="5.38518">
        <ele>213.4</ele>
        <time>2022-02-05T12:30:01Z</time>
      </trkpt>
      <trkpt lat="46.59188" lon="5.38522">
        <ele>213.6</ele>
        <time>2022-02-05T12:30:02Z</time>
      </trkpt>
      <trkpt lat="46.59211" lon="5.38546">
        <ele>214.6</ele>
        <time>2022-02-05T12:30:08Z</time>
      </trkpt>
      <trkpt lat="46.59215" lon="5.3855">
        <ele>214.8</ele>
        <time>2022-02-05T12:30:09Z</time>
      </trkpt>
      <trkpt lat="46.59219" lon="5.38554">
        <ele>215</ele>
        <time>2022-02-05T12:30:10Z</time>
      </trkpt>
      <trkpt lat="46.59232" lon="5.38567">
        <ele>215.4</ele>
        <time>2022-02-05T12:30:14Z</time>
      </trkpt>
      <trkpt lat="46.59267" lon="5.38608">
        <ele>215.6</ele>
        <time>2022-02-05T12:30:20Z</time>
      </trkpt>
      <trkpt lat="46.59304" lon="5.3865">
        <ele>214.6</ele>
        <time>2022-02-05T12:30:28Z</time>
      </trkpt>
      <trkpt lat="46.5935" lon="5.38699">
        <ele>214.6</ele>
        <time>2022-02-05T12:30:36Z</time>
      </trkpt>
      <trkpt lat="46.59365" lon="5.38716">
        <ele>214.8</ele>
        <time>2022-02-05T12:30:39Z</time>
      </trkpt>
      <trkpt lat="46.5941" lon="5.38762">
        <ele>215</ele>
        <time>2022-02-05T12:30:48Z</time>
      </trkpt>
      <trkpt lat="46.59414" lon="5.38767">
        <ele>215</ele>
        <time>2022-02-05T12:30:49Z</time>
      </trkpt>
      <trkpt lat="46.59436" lon="5.38797">
        <ele>215.4</ele>
        <time>2022-02-05T12:30:54Z</time>
      </trkpt>
      <trkpt lat="46.59439" lon="5.38805">
        <ele>215.4</ele>
        <time>2022-02-05T12:30:55Z</time>
      </trkpt>
      <trkpt lat="46.59442" lon="5.38813">
        <ele>215.4</ele>
        <time>2022-02-05T12:30:56Z</time>
      </trkpt>
      <trkpt lat="46.59446" lon="5.38829">
        <ele>215.8</ele>
        <time>2022-02-05T12:30:58Z</time>
      </trkpt>
      <trkpt lat="46.59447" lon="5.38837">
        <ele>215.8</ele>
        <time>2022-02-05T12:30:59Z</time>
      </trkpt>
      <trkpt lat="46.59448" lon="5.38846">
        <ele>215.8</ele>
        <time>2022-02-05T12:31:00Z</time>
      </trkpt>
      <trkpt lat="46.59448" lon="5.38873">
        <ele>216.2</ele>
        <time>2022-02-05T12:31:03Z</time>
      </trkpt>
      <trkpt lat="46.59453" lon="5.38902">
        <ele>216.2</ele>
        <time>2022-02-05T12:31:06Z</time>
      </trkpt>
      <trkpt lat="46.59468" lon="5.38946">
        <ele>215.8</ele>
        <time>2022-02-05T12:31:11Z</time>
      </trkpt>
      <trkpt lat="46.59477" lon="5.38993">
        <ele>215.6</ele>
        <time>2022-02-05T12:31:16Z</time>
      </trkpt>
      <trkpt lat="46.59488" lon="5.39077">
        <ele>215.4</ele>
        <time>2022-02-05T12:31:25Z</time>
      </trkpt>
      <trkpt lat="46.59497" lon="5.39146">
        <ele>215.2</ele>
        <time>2022-02-05T12:31:33Z</time>
      </trkpt>
      <trkpt lat="46.595" lon="5.39164">
        <ele>215.4</ele>
        <time>2022-02-05T12:31:35Z</time>
      </trkpt>
      <trkpt lat="46.59504" lon="5.3918">
        <ele>215.4</ele>
        <time>2022-02-05T12:31:37Z</time>
      </trkpt>
      <trkpt lat="46.59507" lon="5.39187">
        <ele>215.6</ele>
        <time>2022-02-05T12:31:38Z</time>
      </trkpt>
      <trkpt lat="46.59515" lon="5.392">
        <ele>215.8</ele>
        <time>2022-02-05T12:31:40Z</time>
      </trkpt>
      <trkpt lat="46.59525" lon="5.39209">
        <ele>216</ele>
        <time>2022-02-05T12:31:42Z</time>
      </trkpt>
      <trkpt lat="46.59537" lon="5.39213">
        <ele>216</ele>
        <time>2022-02-05T12:31:44Z</time>
      </trkpt>
      <trkpt lat="46.5955" lon="5.39213">
        <ele>216.2</ele>
        <time>2022-02-05T12:31:46Z</time>
      </trkpt>
      <trkpt lat="46.59587" lon="5.39203">
        <ele>216.4</ele>
        <time>2022-02-05T12:31:52Z</time>
      </trkpt>
      <trkpt lat="46.59592" lon="5.392">
        <ele>216.4</ele>
        <time>2022-02-05T12:31:53Z</time>
      </trkpt>
      <trkpt lat="46.59621" lon="5.3919">
        <ele>216.6</ele>
        <time>2022-02-05T12:31:58Z</time>
      </trkpt>
      <trkpt lat="46.59627" lon="5.3919">
        <ele>216.6</ele>
        <time>2022-02-05T12:31:59Z</time>
      </trkpt>
      <trkpt lat="46.59657" lon="5.39194">
        <ele>216.8</ele>
        <time>2022-02-05T12:32:05Z</time>
      </trkpt>
      <trkpt lat="46.59674" lon="5.39197">
        <ele>216.8</ele>
        <time>2022-02-05T12:32:07Z</time>
      </trkpt>
      <trkpt lat="46.59712" lon="5.39204">
        <ele>217.4</ele>
        <time>2022-02-05T12:32:14Z</time>
      </trkpt>
      <trkpt lat="46.59717" lon="5.39206">
        <ele>217.4</ele>
        <time>2022-02-05T12:32:15Z</time>
      </trkpt>
      <trkpt lat="46.59726" lon="5.39214">
        <ele>217.6</ele>
        <time>2022-02-05T12:32:17Z</time>
      </trkpt>
      <trkpt lat="46.5973" lon="5.39219">
        <ele>217.8</ele>
        <time>2022-02-05T12:32:18Z</time>
      </trkpt>
      <trkpt lat="46.5973" lon="5.39219">
        <ele>217.8</ele>
        <time>2022-02-05T12:32:19Z</time>
      </trkpt>
      <trkpt lat="46.59737" lon="5.39226">
        <ele>217.8</ele>
        <time>2022-02-05T12:32:20Z</time>
      </trkpt>
      <trkpt lat="46.59741" lon="5.39226">
        <ele>217.8</ele>
        <time>2022-02-05T12:32:21Z</time>
      </trkpt>
      <trkpt lat="46.59745" lon="5.39224">
        <ele>217.8</ele>
        <time>2022-02-05T12:32:22Z</time>
      </trkpt>
      <trkpt lat="46.59756" lon="5.39215">
        <ele>217.8</ele>
        <time>2022-02-05T12:32:24Z</time>
      </trkpt>
      <trkpt lat="46.59768" lon="5.39206">
        <ele>217.6</ele>
        <time>2022-02-05T12:32:26Z</time>
      </trkpt>
      <trkpt lat="46.5978" lon="5.39201">
        <ele>217.2</ele>
        <time>2022-02-05T12:32:28Z</time>
      </trkpt>
      <trkpt lat="46.59801" lon="5.39196">
        <ele>216.6</ele>
        <time>2022-02-05T12:32:31Z</time>
      </trkpt>
      <trkpt lat="46.59813" lon="5.39197">
        <ele>216.6</ele>
        <time>2022-02-05T12:32:33Z</time>
      </trkpt>
      <trkpt lat="46.59856" lon="5.39203">
        <ele>216.6</ele>
        <time>2022-02-05T12:32:40Z</time>
      </trkpt>
      <trkpt lat="46.59862" lon="5.39202">
        <ele>216.6</ele>
        <time>2022-02-05T12:32:41Z</time>
      </trkpt>
      <trkpt lat="46.59887" lon="5.39196">
        <ele>216.6</ele>
        <time>2022-02-05T12:32:45Z</time>
      </trkpt>
      <trkpt lat="46.59906" lon="5.3919">
        <ele>216.2</ele>
        <time>2022-02-05T12:32:48Z</time>
      </trkpt>
      <trkpt lat="46.59927" lon="5.39188">
        <ele>216.2</ele>
        <time>2022-02-05T12:32:51Z</time>
      </trkpt>
      <trkpt lat="46.59942" lon="5.39188">
        <ele>215.6</ele>
        <time>2022-02-05T12:32:53Z</time>
      </trkpt>
      <trkpt lat="46.59972" lon="5.39189">
        <ele>215</ele>
        <time>2022-02-05T12:32:57Z</time>
      </trkpt>
      <trkpt lat="46.59979" lon="5.39191">
        <ele>215</ele>
        <time>2022-02-05T12:32:58Z</time>
      </trkpt>
      <trkpt lat="46.59987" lon="5.39194">
        <ele>214.6</ele>
        <time>2022-02-05T12:32:59Z</time>
      </trkpt>
      <trkpt lat="46.60007" lon="5.39206">
        <ele>214</ele>
        <time>2022-02-05T12:33:02Z</time>
      </trkpt>
      <trkpt lat="46.60014" lon="5.3921">
        <ele>213.8</ele>
        <time>2022-02-05T12:33:03Z</time>
      </trkpt>
      <trkpt lat="46.60026" lon="5.39222">
        <ele>213.6</ele>
        <time>2022-02-05T12:33:05Z</time>
      </trkpt>
      <trkpt lat="46.60031" lon="5.3923">
        <ele>213.6</ele>
        <time>2022-02-05T12:33:06Z</time>
      </trkpt>
      <trkpt lat="46.60036" lon="5.39239">
        <ele>213.4</ele>
        <time>2022-02-05T12:33:07Z</time>
      </trkpt>
      <trkpt lat="46.6004" lon="5.39249">
        <ele>213.2</ele>
        <time>2022-02-05T12:33:08Z</time>
      </trkpt>
      <trkpt lat="46.60047" lon="5.39272">
        <ele>212.6</ele>
        <time>2022-02-05T12:33:10Z</time>
      </trkpt>
      <trkpt lat="46.60049" lon="5.39285">
        <ele>212.2</ele>
        <time>2022-02-05T12:33:11Z</time>
      </trkpt>
      <trkpt lat="46.60051" lon="5.39311">
        <ele>211.6</ele>
        <time>2022-02-05T12:33:13Z</time>
      </trkpt>
      <trkpt lat="46.6005" lon="5.39325">
        <ele>211.2</ele>
        <time>2022-02-05T12:33:14Z</time>
      </trkpt>
      <trkpt lat="46.60049" lon="5.39338">
        <ele>210.2</ele>
        <time>2022-02-05T12:33:15Z</time>
      </trkpt>
      <trkpt lat="46.60047" lon="5.39364">
        <ele>208.8</ele>
        <time>2022-02-05T12:33:17Z</time>
      </trkpt>
      <trkpt lat="46.60045" lon="5.39377">
        <ele>208</ele>
        <time>2022-02-05T12:33:18Z</time>
      </trkpt>
      <trkpt lat="46.60043" lon="5.39389">
        <ele>207.8</ele>
        <time>2022-02-05T12:33:19Z</time>
      </trkpt>
      <trkpt lat="46.60041" lon="5.394">
        <ele>207.2</ele>
        <time>2022-02-05T12:33:20Z</time>
      </trkpt>
      <trkpt lat="46.60036" lon="5.39422">
        <ele>206.8</ele>
        <time>2022-02-05T12:33:22Z</time>
      </trkpt>
      <trkpt lat="46.60034" lon="5.39474">
        <ele>206.6</ele>
        <time>2022-02-05T12:33:27Z</time>
      </trkpt>
      <trkpt lat="46.60041" lon="5.39503">
        <ele>206.8</ele>
        <time>2022-02-05T12:33:30Z</time>
      </trkpt>
      <trkpt lat="46.60045" lon="5.39513">
        <ele>206.8</ele>
        <time>2022-02-05T12:33:31Z</time>
      </trkpt>
      <trkpt lat="46.60069" lon="5.39564">
        <ele>206</ele>
        <time>2022-02-05T12:33:36Z</time>
      </trkpt>
      <trkpt lat="46.60078" lon="5.39586">
        <ele>205.6</ele>
        <time>2022-02-05T12:33:38Z</time>
      </trkpt>
      <trkpt lat="46.60084" lon="5.3961">
        <ele>205</ele>
        <time>2022-02-05T12:33:40Z</time>
      </trkpt>
      <trkpt lat="46.60086" lon="5.39635">
        <ele>204.2</ele>
        <time>2022-02-05T12:33:42Z</time>
      </trkpt>
      <trkpt lat="46.60085" lon="5.39648">
        <ele>203.8</ele>
        <time>2022-02-05T12:33:43Z</time>
      </trkpt>
      <trkpt lat="46.60083" lon="5.39661">
        <ele>203.6</ele>
        <time>2022-02-05T12:33:44Z</time>
      </trkpt>
      <trkpt lat="46.60075" lon="5.39685">
        <ele>202.8</ele>
        <time>2022-02-05T12:33:46Z</time>
      </trkpt>
      <trkpt lat="46.6007" lon="5.39696">
        <ele>202.2</ele>
        <time>2022-02-05T12:33:47Z</time>
      </trkpt>
      <trkpt lat="46.60065" lon="5.39707">
        <ele>202</ele>
        <time>2022-02-05T12:33:48Z</time>
      </trkpt>
      <trkpt lat="46.60061" lon="5.39732">
        <ele>201</ele>
        <time>2022-02-05T12:33:50Z</time>
      </trkpt>
      <trkpt lat="46.60065" lon="5.39756">
        <ele>200.2</ele>
        <time>2022-02-05T12:33:52Z</time>
      </trkpt>
      <trkpt lat="46.60068" lon="5.39767">
        <ele>200</ele>
        <time>2022-02-05T12:33:53Z</time>
      </trkpt>
      <trkpt lat="46.60072" lon="5.39778">
        <ele>199.6</ele>
        <time>2022-02-05T12:33:54Z</time>
      </trkpt>
      <trkpt lat="46.60085" lon="5.3981">
        <ele>199</ele>
        <time>2022-02-05T12:33:57Z</time>
      </trkpt>
      <trkpt lat="46.6009" lon="5.39818">
        <ele>198.8</ele>
        <time>2022-02-05T12:33:58Z</time>
      </trkpt>
      <trkpt lat="46.60097" lon="5.39826">
        <ele>198.8</ele>
        <time>2022-02-05T12:33:59Z</time>
      </trkpt>
      <trkpt lat="46.60103" lon="5.39833">
        <ele>198.6</ele>
        <time>2022-02-05T12:34:00Z</time>
      </trkpt>
      <trkpt lat="46.60117" lon="5.39846">
        <ele>198.2</ele>
        <time>2022-02-05T12:34:02Z</time>
      </trkpt>
      <trkpt lat="46.60143" lon="5.39869">
        <ele>197.6</ele>
        <time>2022-02-05T12:34:06Z</time>
      </trkpt>
      <trkpt lat="46.60166" lon="5.39893">
        <ele>197.6</ele>
        <time>2022-02-05T12:34:10Z</time>
      </trkpt>
      <trkpt lat="46.60175" lon="5.39908">
        <ele>197.6</ele>
        <time>2022-02-05T12:34:12Z</time>
      </trkpt>
      <trkpt lat="46.60182" lon="5.39924">
        <ele>197.6</ele>
        <time>2022-02-05T12:34:14Z</time>
      </trkpt>
      <trkpt lat="46.60187" lon="5.39958">
        <ele>197.8</ele>
        <time>2022-02-05T12:34:18Z</time>
      </trkpt>
      <trkpt lat="46.60187" lon="5.39958">
        <ele>197.8</ele>
        <time>2022-02-05T12:34:19Z</time>
      </trkpt>
      <trkpt lat="46.60187" lon="5.39998">
        <ele>198.6</ele>
        <time>2022-02-05T12:34:23Z</time>
      </trkpt>
      <trkpt lat="46.60187" lon="5.40013">
        <ele>199</ele>
        <time>2022-02-05T12:34:25Z</time>
      </trkpt>
      <trkpt lat="46.60188" lon="5.40054">
        <ele>199.8</ele>
        <time>2022-02-05T12:34:30Z</time>
      </trkpt>
      <trkpt lat="46.60189" lon="5.40077">
        <ele>200.4</ele>
        <time>2022-02-05T12:34:33Z</time>
      </trkpt>
      <trkpt lat="46.60186" lon="5.40124">
        <ele>201</ele>
        <time>2022-02-05T12:34:39Z</time>
      </trkpt>
      <trkpt lat="46.60185" lon="5.40131">
        <ele>201</ele>
        <time>2022-02-05T12:34:40Z</time>
      </trkpt>
      <trkpt lat="46.60175" lon="5.40177">
        <ele>202</ele>
        <time>2022-02-05T12:34:46Z</time>
      </trkpt>
      <trkpt lat="46.60171" lon="5.40203">
        <ele>202.2</ele>
        <time>2022-02-05T12:34:49Z</time>
      </trkpt>
      <trkpt lat="46.60171" lon="5.40221">
        <ele>202.2</ele>
        <time>2022-02-05T12:34:51Z</time>
      </trkpt>
      <trkpt lat="46.60174" lon="5.40239">
        <ele>202.2</ele>
        <time>2022-02-05T12:34:53Z</time>
      </trkpt>
      <trkpt lat="46.60176" lon="5.40247">
        <ele>202.2</ele>
        <time>2022-02-05T12:34:54Z</time>
      </trkpt>
      <trkpt lat="46.60189" lon="5.40277">
        <ele>202.2</ele>
        <time>2022-02-05T12:34:58Z</time>
      </trkpt>
      <trkpt lat="46.60215" lon="5.40352">
        <ele>202.8</ele>
        <time>2022-02-05T12:35:08Z</time>
      </trkpt>
      <trkpt lat="46.60216" lon="5.4036">
        <ele>203</ele>
        <time>2022-02-05T12:35:09Z</time>
      </trkpt>
      <trkpt lat="46.60218" lon="5.40377">
        <ele>203</ele>
        <time>2022-02-05T12:35:11Z</time>
      </trkpt>
      <trkpt lat="46.60218" lon="5.40386">
        <ele>203</ele>
        <time>2022-02-05T12:35:12Z</time>
      </trkpt>
      <trkpt lat="46.60218" lon="5.40396">
        <ele>203</ele>
        <time>2022-02-05T12:35:13Z</time>
      </trkpt>
      <trkpt lat="46.60215" lon="5.40454">
        <ele>202.2</ele>
        <time>2022-02-05T12:35:18Z</time>
      </trkpt>
      <trkpt lat="46.60216" lon="5.40479">
        <ele>201.6</ele>
        <time>2022-02-05T12:35:20Z</time>
      </trkpt>
      <trkpt lat="46.6022" lon="5.40505">
        <ele>201.4</ele>
        <time>2022-02-05T12:35:22Z</time>
      </trkpt>
      <trkpt lat="46.60229" lon="5.40541">
        <ele>200.2</ele>
        <time>2022-02-05T12:35:25Z</time>
      </trkpt>
      <trkpt lat="46.60233" lon="5.40564">
        <ele>199</ele>
        <time>2022-02-05T12:35:27Z</time>
      </trkpt>
      <trkpt lat="46.60233" lon="5.40589">
        <ele>198.4</ele>
        <time>2022-02-05T12:35:29Z</time>
      </trkpt>
      <trkpt lat="46.60232" lon="5.406">
        <ele>198</ele>
        <time>2022-02-05T12:35:30Z</time>
      </trkpt>
      <trkpt lat="46.60229" lon="5.40612">
        <ele>197.8</ele>
        <time>2022-02-05T12:35:31Z</time>
      </trkpt>
      <trkpt lat="46.60221" lon="5.40635">
        <ele>197.6</ele>
        <time>2022-02-05T12:35:33Z</time>
      </trkpt>
      <trkpt lat="46.60211" lon="5.40652">
        <ele>197.6</ele>
        <time>2022-02-05T12:35:35Z</time>
      </trkpt>
      <trkpt lat="46.60181" lon="5.40706">
        <ele>197</ele>
        <time>2022-02-05T12:35:41Z</time>
      </trkpt>
      <trkpt lat="46.60177" lon="5.40716">
        <ele>197</ele>
        <time>2022-02-05T12:35:42Z</time>
      </trkpt>
      <trkpt lat="46.60171" lon="5.40738">
        <ele>197</ele>
        <time>2022-02-05T12:35:44Z</time>
      </trkpt>
      <trkpt lat="46.6017" lon="5.40749">
        <ele>197</ele>
        <time>2022-02-05T12:35:45Z</time>
      </trkpt>
      <trkpt lat="46.6017" lon="5.40761">
        <ele>196.8</ele>
        <time>2022-02-05T12:35:46Z</time>
      </trkpt>
      <trkpt lat="46.60172" lon="5.40783">
        <ele>196.8</ele>
        <time>2022-02-05T12:35:48Z</time>
      </trkpt>
      <trkpt lat="46.60174" lon="5.40794">
        <ele>196.8</ele>
        <time>2022-02-05T12:35:49Z</time>
      </trkpt>
      <trkpt lat="46.60178" lon="5.40804">
        <ele>196.8</ele>
        <time>2022-02-05T12:35:50Z</time>
      </trkpt>
      <trkpt lat="46.60188" lon="5.4082">
        <ele>196.8</ele>
        <time>2022-02-05T12:35:52Z</time>
      </trkpt>
      <trkpt lat="46.60217" lon="5.40849">
        <ele>196.8</ele>
        <time>2022-02-05T12:35:57Z</time>
      </trkpt>
      <trkpt lat="46.60247" lon="5.4087">
        <ele>197.2</ele>
        <time>2022-02-05T12:36:02Z</time>
      </trkpt>
      <trkpt lat="46.60273" lon="5.40889">
        <ele>197.4</ele>
        <time>2022-02-05T12:36:07Z</time>
      </trkpt>
      <trkpt lat="46.60281" lon="5.40897">
        <ele>198</ele>
        <time>2022-02-05T12:36:09Z</time>
      </trkpt>
      <trkpt lat="46.60297" lon="5.40914">
        <ele>198.8</ele>
        <time>2022-02-05T12:36:13Z</time>
      </trkpt>
      <trkpt lat="46.60303" lon="5.40923">
        <ele>199</ele>
        <time>2022-02-05T12:36:15Z</time>
      </trkpt>
      <trkpt lat="46.6031" lon="5.40938">
        <ele>199.8</ele>
        <time>2022-02-05T12:36:18Z</time>
      </trkpt>
      <trkpt lat="46.6032" lon="5.40957">
        <ele>200.2</ele>
        <time>2022-02-05T12:36:22Z</time>
      </trkpt>
      <trkpt lat="46.60327" lon="5.40967">
        <ele>201</ele>
        <time>2022-02-05T12:36:25Z</time>
      </trkpt>
      <trkpt lat="46.6033" lon="5.40971">
        <ele>201.2</ele>
        <time>2022-02-05T12:36:26Z</time>
      </trkpt>
      <trkpt lat="46.60338" lon="5.40984">
        <ele>202.4</ele>
        <time>2022-02-05T12:36:30Z</time>
      </trkpt>
      <trkpt lat="46.60343" lon="5.4099">
        <ele>203</ele>
        <time>2022-02-05T12:36:32Z</time>
      </trkpt>
      <trkpt lat="46.60348" lon="5.40995">
        <ele>203.6</ele>
        <time>2022-02-05T12:36:34Z</time>
      </trkpt>
      <trkpt lat="46.6036" lon="5.41006">
        <ele>204.8</ele>
        <time>2022-02-05T12:36:38Z</time>
      </trkpt>
      <trkpt lat="46.60366" lon="5.41011">
        <ele>205.2</ele>
        <time>2022-02-05T12:36:40Z</time>
      </trkpt>
      <trkpt lat="46.60369" lon="5.41013">
        <ele>205.8</ele>
        <time>2022-02-05T12:36:42Z</time>
      </trkpt>
      <trkpt lat="46.60385" lon="5.41029">
        <ele>207</ele>
        <time>2022-02-05T12:36:46Z</time>
      </trkpt>
      <trkpt lat="46.60388" lon="5.41032">
        <ele>207.2</ele>
        <time>2022-02-05T12:36:47Z</time>
      </trkpt>
      <trkpt lat="46.60397" lon="5.41044">
        <ele>208</ele>
        <time>2022-02-05T12:36:50Z</time>
      </trkpt>
      <trkpt lat="46.60406" lon="5.41062">
        <ele>209.2</ele>
        <time>2022-02-05T12:36:54Z</time>
      </trkpt>
      <trkpt lat="46.60416" lon="5.41088">
        <ele>209.8</ele>
        <time>2022-02-05T12:36:59Z</time>
      </trkpt>
      <trkpt lat="46.60422" lon="5.41102">
        <ele>210</ele>
        <time>2022-02-05T12:37:01Z</time>
      </trkpt>
      <trkpt lat="46.60429" lon="5.41113">
        <ele>210</ele>
        <time>2022-02-05T12:37:03Z</time>
      </trkpt>
      <trkpt lat="46.60439" lon="5.41124">
        <ele>210</ele>
        <time>2022-02-05T12:37:05Z</time>
      </trkpt>
      <trkpt lat="46.60451" lon="5.41132">
        <ele>210</ele>
        <time>2022-02-05T12:37:07Z</time>
      </trkpt>
      <trkpt lat="46.60463" lon="5.41137">
        <ele>209.8</ele>
        <time>2022-02-05T12:37:09Z</time>
      </trkpt>
      <trkpt lat="46.60505" lon="5.4114">
        <ele>209.2</ele>
        <time>2022-02-05T12:37:15Z</time>
      </trkpt>
      <trkpt lat="46.6055" lon="5.41143">
        <ele>207.8</ele>
        <time>2022-02-05T12:37:21Z</time>
      </trkpt>
      <trkpt lat="46.60566" lon="5.41146">
        <ele>206.6</ele>
        <time>2022-02-05T12:37:23Z</time>
      </trkpt>
      <trkpt lat="46.60597" lon="5.41155">
        <ele>205.8</ele>
        <time>2022-02-05T12:37:27Z</time>
      </trkpt>
      <trkpt lat="46.60606" lon="5.41157">
        <ele>205.2</ele>
        <time>2022-02-05T12:37:28Z</time>
      </trkpt>
      <trkpt lat="46.60638" lon="5.41167">
        <ele>204.2</ele>
        <time>2022-02-05T12:37:32Z</time>
      </trkpt>
      <trkpt lat="46.60677" lon="5.41181">
        <ele>203</ele>
        <time>2022-02-05T12:37:37Z</time>
      </trkpt>
      <trkpt lat="46.60691" lon="5.4119">
        <ele>203</ele>
        <time>2022-02-05T12:37:39Z</time>
      </trkpt>
      <trkpt lat="46.60703" lon="5.41201">
        <ele>202.8</ele>
        <time>2022-02-05T12:37:41Z</time>
      </trkpt>
      <trkpt lat="46.60739" lon="5.41248">
        <ele>202</ele>
        <time>2022-02-05T12:37:48Z</time>
      </trkpt>
      <trkpt lat="46.60782" lon="5.41294">
        <ele>202.2</ele>
        <time>2022-02-05T12:37:56Z</time>
      </trkpt>
      <trkpt lat="46.60814" lon="5.41325">
        <ele>202</ele>
        <time>2022-02-05T12:38:01Z</time>
      </trkpt>
      <trkpt lat="46.60829" lon="5.41332">
        <ele>201.8</ele>
        <time>2022-02-05T12:38:03Z</time>
      </trkpt>
      <trkpt lat="46.60837" lon="5.41333">
        <ele>201.6</ele>
        <time>2022-02-05T12:38:04Z</time>
      </trkpt>
      <trkpt lat="46.60844" lon="5.41332">
        <ele>201</ele>
        <time>2022-02-05T12:38:05Z</time>
      </trkpt>
      <trkpt lat="46.60855" lon="5.41326">
        <ele>199.8</ele>
        <time>2022-02-05T12:38:07Z</time>
      </trkpt>
      <trkpt lat="46.60866" lon="5.41317">
        <ele>199.6</ele>
        <time>2022-02-05T12:38:09Z</time>
      </trkpt>
      <trkpt lat="46.60876" lon="5.41306">
        <ele>199.2</ele>
        <time>2022-02-05T12:38:11Z</time>
      </trkpt>
      <trkpt lat="46.60882" lon="5.41299">
        <ele>198.8</ele>
        <time>2022-02-05T12:38:12Z</time>
      </trkpt>
      <trkpt lat="46.6091" lon="5.41264">
        <ele>197.6</ele>
        <time>2022-02-05T12:38:17Z</time>
      </trkpt>
      <trkpt lat="46.60915" lon="5.41257">
        <ele>197.4</ele>
        <time>2022-02-05T12:38:18Z</time>
      </trkpt>
      <trkpt lat="46.60962" lon="5.41207">
        <ele>196.6</ele>
        <time>2022-02-05T12:38:26Z</time>
      </trkpt>
      <trkpt lat="46.60968" lon="5.41202">
        <ele>196.6</ele>
        <time>2022-02-05T12:38:27Z</time>
      </trkpt>
      <trkpt lat="46.60974" lon="5.41196">
        <ele>196.6</ele>
        <time>2022-02-05T12:38:28Z</time>
      </trkpt>
      <trkpt lat="46.61019" lon="5.41159">
        <ele>195.8</ele>
        <time>2022-02-05T12:38:35Z</time>
      </trkpt>
      <trkpt lat="46.61024" lon="5.41157">
        <ele>195.8</ele>
        <time>2022-02-05T12:38:36Z</time>
      </trkpt>
      <trkpt lat="46.61036" lon="5.41155">
        <ele>195.6</ele>
        <time>2022-02-05T12:38:38Z</time>
      </trkpt>
      <trkpt lat="46.61047" lon="5.4116">
        <ele>195.6</ele>
        <time>2022-02-05T12:38:40Z</time>
      </trkpt>
      <trkpt lat="46.61054" lon="5.41175">
        <ele>195.6</ele>
        <time>2022-02-05T12:38:42Z</time>
      </trkpt>
      <trkpt lat="46.61056" lon="5.41184">
        <ele>195.6</ele>
        <time>2022-02-05T12:38:43Z</time>
      </trkpt>
      <trkpt lat="46.61058" lon="5.41194">
        <ele>195.4</ele>
        <time>2022-02-05T12:38:44Z</time>
      </trkpt>
      <trkpt lat="46.61068" lon="5.41232">
        <ele>195.2</ele>
        <time>2022-02-05T12:38:48Z</time>
      </trkpt>
      <trkpt lat="46.61072" lon="5.41241">
        <ele>195.2</ele>
        <time>2022-02-05T12:38:49Z</time>
      </trkpt>
      <trkpt lat="46.61085" lon="5.41264">
        <ele>195.2</ele>
        <time>2022-02-05T12:38:52Z</time>
      </trkpt>
      <trkpt lat="46.61102" lon="5.41293">
        <ele>195.4</ele>
        <time>2022-02-05T12:38:56Z</time>
      </trkpt>
      <trkpt lat="46.61109" lon="5.41309">
        <ele>195.4</ele>
        <time>2022-02-05T12:38:58Z</time>
      </trkpt>
      <trkpt lat="46.61111" lon="5.41317">
        <ele>195.4</ele>
        <time>2022-02-05T12:38:59Z</time>
      </trkpt>
      <trkpt lat="46.61114" lon="5.41326">
        <ele>195.4</ele>
        <time>2022-02-05T12:39:00Z</time>
      </trkpt>
      <trkpt lat="46.61118" lon="5.41353">
        <ele>195.4</ele>
        <time>2022-02-05T12:39:03Z</time>
      </trkpt>
      <trkpt lat="46.61125" lon="5.41427">
        <ele>195.6</ele>
        <time>2022-02-05T12:39:11Z</time>
      </trkpt>
      <trkpt lat="46.61139" lon="5.41478">
        <ele>195.8</ele>
        <time>2022-02-05T12:39:17Z</time>
      </trkpt>
      <trkpt lat="46.61162" lon="5.41522">
        <ele>195.8</ele>
        <time>2022-02-05T12:39:23Z</time>
      </trkpt>
      <trkpt lat="46.61196" lon="5.41574">
        <ele>195.6</ele>
        <time>2022-02-05T12:39:31Z</time>
      </trkpt>
      <trkpt lat="46.61227" lon="5.41632">
        <ele>195.8</ele>
        <time>2022-02-05T12:39:39Z</time>
      </trkpt>
      <trkpt lat="46.61256" lon="5.41693">
        <ele>195.8</ele>
        <time>2022-02-05T12:39:47Z</time>
      </trkpt>
      <trkpt lat="46.61286" lon="5.41741">
        <ele>196.2</ele>
        <time>2022-02-05T12:39:54Z</time>
      </trkpt>
      <trkpt lat="46.61328" lon="5.41799">
        <ele>196</ele>
        <time>2022-02-05T12:40:03Z</time>
      </trkpt>
      <trkpt lat="46.61337" lon="5.41812">
        <ele>196</ele>
        <time>2022-02-05T12:40:05Z</time>
      </trkpt>
      <trkpt lat="46.61376" lon="5.4186">
        <ele>196.4</ele>
        <time>2022-02-05T12:40:13Z</time>
      </trkpt>
      <trkpt lat="46.61401" lon="5.41888">
        <ele>196.6</ele>
        <time>2022-02-05T12:40:18Z</time>
      </trkpt>
      <trkpt lat="46.61406" lon="5.41895">
        <ele>196.6</ele>
        <time>2022-02-05T12:40:19Z</time>
      </trkpt>
      <trkpt lat="46.6141" lon="5.41902">
        <ele>196.6</ele>
        <time>2022-02-05T12:40:20Z</time>
      </trkpt>
      <trkpt lat="46.61432" lon="5.41949">
        <ele>196.6</ele>
        <time>2022-02-05T12:40:26Z</time>
      </trkpt>
      <trkpt lat="46.61457" lon="5.42005">
        <ele>197</ele>
        <time>2022-02-05T12:40:33Z</time>
      </trkpt>
      <trkpt lat="46.61472" lon="5.42037">
        <ele>197.2</ele>
        <time>2022-02-05T12:40:37Z</time>
      </trkpt>
      <trkpt lat="46.61481" lon="5.42051">
        <ele>197.2</ele>
        <time>2022-02-05T12:40:39Z</time>
      </trkpt>
      <trkpt lat="46.61511" lon="5.42099">
        <ele>197.2</ele>
        <time>2022-02-05T12:40:46Z</time>
      </trkpt>
      <trkpt lat="46.61534" lon="5.42165">
        <ele>197.2</ele>
        <time>2022-02-05T12:40:54Z</time>
      </trkpt>
      <trkpt lat="46.61554" lon="5.42243">
        <ele>197.4</ele>
        <time>2022-02-05T12:41:03Z</time>
      </trkpt>
      <trkpt lat="46.61556" lon="5.42254">
        <ele>197.4</ele>
        <time>2022-02-05T12:41:04Z</time>
      </trkpt>
      <trkpt lat="46.61566" lon="5.4233">
        <ele>197.4</ele>
        <time>2022-02-05T12:41:12Z</time>
      </trkpt>
      <trkpt lat="46.61576" lon="5.42414">
        <ele>197.2</ele>
        <time>2022-02-05T12:41:21Z</time>
      </trkpt>
      <trkpt lat="46.61578" lon="5.42423">
        <ele>197.2</ele>
        <time>2022-02-05T12:41:22Z</time>
      </trkpt>
      <trkpt lat="46.616" lon="5.42485">
        <ele>197.8</ele>
        <time>2022-02-05T12:41:30Z</time>
      </trkpt>
      <trkpt lat="46.61603" lon="5.42493">
        <ele>197.8</ele>
        <time>2022-02-05T12:41:31Z</time>
      </trkpt>
      <trkpt lat="46.61606" lon="5.425">
        <ele>198</ele>
        <time>2022-02-05T12:41:32Z</time>
      </trkpt>
      <trkpt lat="46.61617" lon="5.42516">
        <ele>198.2</ele>
        <time>2022-02-05T12:41:35Z</time>
      </trkpt>
      <trkpt lat="46.61645" lon="5.42535">
        <ele>199</ele>
        <time>2022-02-05T12:41:41Z</time>
      </trkpt>
      <trkpt lat="46.61667" lon="5.42549">
        <ele>200</ele>
        <time>2022-02-05T12:41:46Z</time>
      </trkpt>
      <trkpt lat="46.61675" lon="5.42555">
        <ele>200.4</ele>
        <time>2022-02-05T12:41:48Z</time>
      </trkpt>
      <trkpt lat="46.61687" lon="5.42566">
        <ele>201</ele>
        <time>2022-02-05T12:41:51Z</time>
      </trkpt>
      <trkpt lat="46.61703" lon="5.42582">
        <ele>202.2</ele>
        <time>2022-02-05T12:41:55Z</time>
      </trkpt>
      <trkpt lat="46.61718" lon="5.42598">
        <ele>203.2</ele>
        <time>2022-02-05T12:41:59Z</time>
      </trkpt>
      <trkpt lat="46.61728" lon="5.42611">
        <ele>203.8</ele>
        <time>2022-02-05T12:42:02Z</time>
      </trkpt>
      <trkpt lat="46.61731" lon="5.42616">
        <ele>204</ele>
        <time>2022-02-05T12:42:03Z</time>
      </trkpt>
      <trkpt lat="46.61735" lon="5.42626">
        <ele>204.2</ele>
        <time>2022-02-05T12:42:05Z</time>
      </trkpt>
      <trkpt lat="46.61737" lon="5.42632">
        <ele>204.2</ele>
        <time>2022-02-05T12:42:06Z</time>
      </trkpt>
      <trkpt lat="46.61738" lon="5.42638">
        <ele>204.4</ele>
        <time>2022-02-05T12:42:07Z</time>
      </trkpt>
      <trkpt lat="46.61738" lon="5.42644">
        <ele>204.4</ele>
        <time>2022-02-05T12:42:08Z</time>
      </trkpt>
      <trkpt lat="46.61734" lon="5.42654">
        <ele>204.8</ele>
        <time>2022-02-05T12:42:10Z</time>
      </trkpt>
      <trkpt lat="46.61722" lon="5.42656">
        <ele>204.8</ele>
        <time>2022-02-05T12:42:13Z</time>
      </trkpt>
      <trkpt lat="46.61696" lon="5.42658">
        <ele>204.4</ele>
        <time>2022-02-05T12:42:17Z</time>
      </trkpt>
      <trkpt lat="46.61676" lon="5.42671">
        <ele>203.4</ele>
        <time>2022-02-05T12:42:20Z</time>
      </trkpt>
      <trkpt lat="46.61669" lon="5.42677">
        <ele>203.2</ele>
        <time>2022-02-05T12:42:21Z</time>
      </trkpt>
      <trkpt lat="46.61649" lon="5.42697">
        <ele>202.2</ele>
        <time>2022-02-05T12:42:24Z</time>
      </trkpt>
      <trkpt lat="46.61627" lon="5.42716">
        <ele>201.4</ele>
        <time>2022-02-05T12:42:27Z</time>
      </trkpt>
      <trkpt lat="46.61611" lon="5.42728">
        <ele>200.6</ele>
        <time>2022-02-05T12:42:29Z</time>
      </trkpt>
      <trkpt lat="46.6158" lon="5.42756">
        <ele>199.6</ele>
        <time>2022-02-05T12:42:33Z</time>
      </trkpt>
      <trkpt lat="46.61565" lon="5.42769">
        <ele>199</ele>
        <time>2022-02-05T12:42:35Z</time>
      </trkpt>
      <trkpt lat="46.61516" lon="5.42807">
        <ele>198.6</ele>
        <time>2022-02-05T12:42:42Z</time>
      </trkpt>
      <trkpt lat="46.61509" lon="5.42812">
        <ele>198.6</ele>
        <time>2022-02-05T12:42:43Z</time>
      </trkpt>
      <trkpt lat="46.61459" lon="5.42854">
        <ele>198.2</ele>
        <time>2022-02-05T12:42:51Z</time>
      </trkpt>
      <trkpt lat="46.61426" lon="5.4289">
        <ele>198</ele>
        <time>2022-02-05T12:42:57Z</time>
      </trkpt>
      <trkpt lat="46.61393" lon="5.42936">
        <ele>197.8</ele>
        <time>2022-02-05T12:43:04Z</time>
      </trkpt>
      <trkpt lat="46.61374" lon="5.42962">
        <ele>198.6</ele>
        <time>2022-02-05T12:43:09Z</time>
      </trkpt>
      <trkpt lat="46.61353" lon="5.42986">
        <ele>199.6</ele>
        <time>2022-02-05T12:43:15Z</time>
      </trkpt>
      <trkpt lat="46.61343" lon="5.42999">
        <ele>200</ele>
        <time>2022-02-05T12:43:18Z</time>
      </trkpt>
      <trkpt lat="46.61338" lon="5.43008">
        <ele>200.4</ele>
        <time>2022-02-05T12:43:20Z</time>
      </trkpt>
      <trkpt lat="46.61337" lon="5.43014">
        <ele>200.6</ele>
        <time>2022-02-05T12:43:21Z</time>
      </trkpt>
      <trkpt lat="46.61336" lon="5.4302">
        <ele>200.8</ele>
        <time>2022-02-05T12:43:22Z</time>
      </trkpt>
      <trkpt lat="46.61336" lon="5.43026">
        <ele>201.2</ele>
        <time>2022-02-05T12:43:23Z</time>
      </trkpt>
      <trkpt lat="46.61337" lon="5.43033">
        <ele>201.2</ele>
        <time>2022-02-05T12:43:24Z</time>
      </trkpt>
      <trkpt lat="46.61338" lon="5.43039">
        <ele>201.8</ele>
        <time>2022-02-05T12:43:25Z</time>
      </trkpt>
      <trkpt lat="46.6134" lon="5.43044">
        <ele>202.2</ele>
        <time>2022-02-05T12:43:26Z</time>
      </trkpt>
      <trkpt lat="46.61345" lon="5.43054">
        <ele>202.4</ele>
        <time>2022-02-05T12:43:28Z</time>
      </trkpt>
      <trkpt lat="46.61348" lon="5.43059">
        <ele>202.6</ele>
        <time>2022-02-05T12:43:29Z</time>
      </trkpt>
      <trkpt lat="46.61351" lon="5.43064">
        <ele>202.8</ele>
        <time>2022-02-05T12:43:30Z</time>
      </trkpt>
      <trkpt lat="46.61362" lon="5.43078">
        <ele>203.6</ele>
        <time>2022-02-05T12:43:33Z</time>
      </trkpt>
      <trkpt lat="46.61367" lon="5.43082">
        <ele>203.8</ele>
        <time>2022-02-05T12:43:34Z</time>
      </trkpt>
      <trkpt lat="46.61372" lon="5.43088">
        <ele>204</ele>
        <time>2022-02-05T12:43:35Z</time>
      </trkpt>
      <trkpt lat="46.61392" lon="5.43113">
        <ele>204</ele>
        <time>2022-02-05T12:43:39Z</time>
      </trkpt>
      <trkpt lat="46.61397" lon="5.4312">
        <ele>203.8</ele>
        <time>2022-02-05T12:43:40Z</time>
      </trkpt>
      <trkpt lat="46.61418" lon="5.43172">
        <ele>202.8</ele>
        <time>2022-02-05T12:43:46Z</time>
      </trkpt>
      <trkpt lat="46.61421" lon="5.43182">
        <ele>202.8</ele>
        <time>2022-02-05T12:43:47Z</time>
      </trkpt>
      <trkpt lat="46.61423" lon="5.43202">
        <ele>202.6</ele>
        <time>2022-02-05T12:43:49Z</time>
      </trkpt>
      <trkpt lat="46.61418" lon="5.43221">
        <ele>202.4</ele>
        <time>2022-02-05T12:43:51Z</time>
      </trkpt>
      <trkpt lat="46.61414" lon="5.43229">
        <ele>202.4</ele>
        <time>2022-02-05T12:43:52Z</time>
      </trkpt>
      <trkpt lat="46.61401" lon="5.43251">
        <ele>201.8</ele>
        <time>2022-02-05T12:43:55Z</time>
      </trkpt>
      <trkpt lat="46.61384" lon="5.43282">
        <ele>201.4</ele>
        <time>2022-02-05T12:43:59Z</time>
      </trkpt>
      <trkpt lat="46.6136" lon="5.4334">
        <ele>201.4</ele>
        <time>2022-02-05T12:44:06Z</time>
      </trkpt>
      <trkpt lat="46.61357" lon="5.43349">
        <ele>201.4</ele>
        <time>2022-02-05T12:44:07Z</time>
      </trkpt>
      <trkpt lat="46.61353" lon="5.43367">
        <ele>201.6</ele>
        <time>2022-02-05T12:44:09Z</time>
      </trkpt>
      <trkpt lat="46.61351" lon="5.43396">
        <ele>201.6</ele>
        <time>2022-02-05T12:44:12Z</time>
      </trkpt>
      <trkpt lat="46.61355" lon="5.43448">
        <ele>202</ele>
        <time>2022-02-05T12:44:18Z</time>
      </trkpt>
      <trkpt lat="46.61356" lon="5.43493">
        <ele>202.4</ele>
        <time>2022-02-05T12:44:23Z</time>
      </trkpt>
      <trkpt lat="46.61354" lon="5.43512">
        <ele>202.6</ele>
        <time>2022-02-05T12:44:25Z</time>
      </trkpt>
      <trkpt lat="46.61351" lon="5.43551">
        <ele>203</ele>
        <time>2022-02-05T12:44:29Z</time>
      </trkpt>
      <trkpt lat="46.61347" lon="5.4359">
        <ele>203</ele>
        <time>2022-02-05T12:44:33Z</time>
      </trkpt>
      <trkpt lat="46.61347" lon="5.43665">
        <ele>203.2</ele>
        <time>2022-02-05T12:44:41Z</time>
      </trkpt>
      <trkpt lat="46.61348" lon="5.43749">
        <ele>203.6</ele>
        <time>2022-02-05T12:44:50Z</time>
      </trkpt>
      <trkpt lat="46.61355" lon="5.43811">
        <ele>204.2</ele>
        <time>2022-02-05T12:44:57Z</time>
      </trkpt>
      <trkpt lat="46.61357" lon="5.43827">
        <ele>204.2</ele>
        <time>2022-02-05T12:44:59Z</time>
      </trkpt>
      <trkpt lat="46.61367" lon="5.43872">
        <ele>205.2</ele>
        <time>2022-02-05T12:45:05Z</time>
      </trkpt>
      <trkpt lat="46.61369" lon="5.43879">
        <ele>205.4</ele>
        <time>2022-02-05T12:45:06Z</time>
      </trkpt>
      <trkpt lat="46.61376" lon="5.43917">
        <ele>206.2</ele>
        <time>2022-02-05T12:45:11Z</time>
      </trkpt>
      <trkpt lat="46.61378" lon="5.43941">
        <ele>206.8</ele>
        <time>2022-02-05T12:45:14Z</time>
      </trkpt>
      <trkpt lat="46.61385" lon="5.43984">
        <ele>207</ele>
        <time>2022-02-05T12:45:19Z</time>
      </trkpt>
      <trkpt lat="46.61386" lon="5.43993">
        <ele>207</ele>
        <time>2022-02-05T12:45:20Z</time>
      </trkpt>
      <trkpt lat="46.61387" lon="5.44042">
        <ele>207</ele>
        <time>2022-02-05T12:45:25Z</time>
      </trkpt>
      <trkpt lat="46.6138" lon="5.44103">
        <ele>206.4</ele>
        <time>2022-02-05T12:45:31Z</time>
      </trkpt>
      <trkpt lat="46.61367" lon="5.44148">
        <ele>206.4</ele>
        <time>2022-02-05T12:45:36Z</time>
      </trkpt>
      <trkpt lat="46.61338" lon="5.44209">
        <ele>206.8</ele>
        <time>2022-02-05T12:45:44Z</time>
      </trkpt>
      <trkpt lat="46.61325" lon="5.44257">
        <ele>206.8</ele>
        <time>2022-02-05T12:45:49Z</time>
      </trkpt>
      <trkpt lat="46.61319" lon="5.44325">
        <ele>206.8</ele>
        <time>2022-02-05T12:45:56Z</time>
      </trkpt>
      <trkpt lat="46.61305" lon="5.44405">
        <ele>206.8</ele>
        <time>2022-02-05T12:46:05Z</time>
      </trkpt>
      <trkpt lat="46.6129" lon="5.44481">
        <ele>207.8</ele>
        <time>2022-02-05T12:46:14Z</time>
      </trkpt>
      <trkpt lat="46.61289" lon="5.44489">
        <ele>207.8</ele>
        <time>2022-02-05T12:46:15Z</time>
      </trkpt>
      <trkpt lat="46.61281" lon="5.4452">
        <ele>208</ele>
        <time>2022-02-05T12:46:19Z</time>
      </trkpt>
      <trkpt lat="46.61278" lon="5.44534">
        <ele>208.2</ele>
        <time>2022-02-05T12:46:21Z</time>
      </trkpt>
      <trkpt lat="46.61274" lon="5.44547">
        <ele>208.6</ele>
        <time>2022-02-05T12:46:23Z</time>
      </trkpt>
      <trkpt lat="46.6127" lon="5.44565">
        <ele>209.6</ele>
        <time>2022-02-05T12:46:26Z</time>
      </trkpt>
      <trkpt lat="46.61266" lon="5.44585">
        <ele>210.2</ele>
        <time>2022-02-05T12:46:29Z</time>
      </trkpt>
      <trkpt lat="46.61261" lon="5.44611">
        <ele>210.8</ele>
        <time>2022-02-05T12:46:33Z</time>
      </trkpt>
      <trkpt lat="46.61253" lon="5.44649">
        <ele>211.6</ele>
        <time>2022-02-05T12:46:39Z</time>
      </trkpt>
      <trkpt lat="46.6125" lon="5.4466">
        <ele>211.8</ele>
        <time>2022-02-05T12:46:41Z</time>
      </trkpt>
      <trkpt lat="46.61245" lon="5.44689">
        <ele>213.2</ele>
        <time>2022-02-05T12:46:46Z</time>
      </trkpt>
      <trkpt lat="46.61243" lon="5.44695">
        <ele>213.4</ele>
        <time>2022-02-05T12:46:47Z</time>
      </trkpt>
      <trkpt lat="46.6124" lon="5.44712">
        <ele>214.4</ele>
        <time>2022-02-05T12:46:50Z</time>
      </trkpt>
      <trkpt lat="46.61238" lon="5.44735">
        <ele>215.4</ele>
        <time>2022-02-05T12:46:54Z</time>
      </trkpt>
      <trkpt lat="46.61235" lon="5.44758">
        <ele>216.4</ele>
        <time>2022-02-05T12:46:58Z</time>
      </trkpt>
      <trkpt lat="46.61235" lon="5.44758">
        <ele>216.6</ele>
        <time>2022-02-05T12:46:59Z</time>
      </trkpt>
      <trkpt lat="46.61233" lon="5.44778">
        <ele>217.6</ele>
        <time>2022-02-05T12:47:02Z</time>
      </trkpt>
      <trkpt lat="46.6123" lon="5.44792">
        <ele>217.8</ele>
        <time>2022-02-05T12:47:04Z</time>
      </trkpt>
      <trkpt lat="46.61224" lon="5.44817">
        <ele>218.6</ele>
        <time>2022-02-05T12:47:08Z</time>
      </trkpt>
      <trkpt lat="46.61217" lon="5.44835">
        <ele>219.2</ele>
        <time>2022-02-05T12:47:11Z</time>
      </trkpt>
      <trkpt lat="46.61196" lon="5.44878">
        <ele>219.8</ele>
        <time>2022-02-05T12:47:18Z</time>
      </trkpt>
      <trkpt lat="46.61192" lon="5.44883">
        <ele>219.8</ele>
        <time>2022-02-05T12:47:19Z</time>
      </trkpt>
      <trkpt lat="46.6117" lon="5.44905">
        <ele>220.2</ele>
        <time>2022-02-05T12:47:24Z</time>
      </trkpt>
      <trkpt lat="46.61136" lon="5.44935">
        <ele>220.8</ele>
        <time>2022-02-05T12:47:31Z</time>
      </trkpt>
      <trkpt lat="46.61132" lon="5.4494">
        <ele>220.8</ele>
        <time>2022-02-05T12:47:32Z</time>
      </trkpt>
      <trkpt lat="46.61115" lon="5.4497">
        <ele>221.2</ele>
        <time>2022-02-05T12:47:37Z</time>
      </trkpt>
      <trkpt lat="46.61107" lon="5.45014">
        <ele>221.6</ele>
        <time>2022-02-05T12:47:43Z</time>
      </trkpt>
      <trkpt lat="46.61103" lon="5.45054">
        <ele>221.8</ele>
        <time>2022-02-05T12:47:48Z</time>
      </trkpt>
      <trkpt lat="46.61099" lon="5.45084">
        <ele>222</ele>
        <time>2022-02-05T12:47:52Z</time>
      </trkpt>
      <trkpt lat="46.61099" lon="5.45092">
        <ele>222</ele>
        <time>2022-02-05T12:47:53Z</time>
      </trkpt>
      <trkpt lat="46.61094" lon="5.45137">
        <ele>223</ele>
        <time>2022-02-05T12:47:59Z</time>
      </trkpt>
      <trkpt lat="46.61092" lon="5.45152">
        <ele>223.4</ele>
        <time>2022-02-05T12:48:01Z</time>
      </trkpt>
      <trkpt lat="46.61078" lon="5.45221">
        <ele>224</ele>
        <time>2022-02-05T12:48:10Z</time>
      </trkpt>
      <trkpt lat="46.61062" lon="5.45282">
        <ele>224</ele>
        <time>2022-02-05T12:48:18Z</time>
      </trkpt>
      <trkpt lat="46.6106" lon="5.45289">
        <ele>224</ele>
        <time>2022-02-05T12:48:19Z</time>
      </trkpt>
      <trkpt lat="46.6105" lon="5.45334">
        <ele>224.4</ele>
        <time>2022-02-05T12:48:25Z</time>
      </trkpt>
      <trkpt lat="46.61043" lon="5.45397">
        <ele>225</ele>
        <time>2022-02-05T12:48:33Z</time>
      </trkpt>
      <trkpt lat="46.61043" lon="5.45404">
        <ele>225.2</ele>
        <time>2022-02-05T12:48:34Z</time>
      </trkpt>
      <trkpt lat="46.61036" lon="5.45469">
        <ele>226.2</ele>
        <time>2022-02-05T12:48:42Z</time>
      </trkpt>
      <trkpt lat="46.61036" lon="5.45485">
        <ele>226.2</ele>
        <time>2022-02-05T12:48:44Z</time>
      </trkpt>
      <trkpt lat="46.61035" lon="5.45528">
        <ele>226.6</ele>
        <time>2022-02-05T12:48:49Z</time>
      </trkpt>
      <trkpt lat="46.61026" lon="5.45587">
        <ele>226.8</ele>
        <time>2022-02-05T12:48:56Z</time>
      </trkpt>
      <trkpt lat="46.61012" lon="5.45651">
        <ele>227.2</ele>
        <time>2022-02-05T12:49:04Z</time>
      </trkpt>
      <trkpt lat="46.61011" lon="5.45659">
        <ele>227.2</ele>
        <time>2022-02-05T12:49:05Z</time>
      </trkpt>
      <trkpt lat="46.60994" lon="5.45729">
        <ele>228</ele>
        <time>2022-02-05T12:49:14Z</time>
      </trkpt>
      <trkpt lat="46.60971" lon="5.45809">
        <ele>228</ele>
        <time>2022-02-05T12:49:24Z</time>
      </trkpt>
      <trkpt lat="46.6095" lon="5.45885">
        <ele>227.8</ele>
        <time>2022-02-05T12:49:33Z</time>
      </trkpt>
      <trkpt lat="46.60938" lon="5.45968">
        <ele>227.4</ele>
        <time>2022-02-05T12:49:42Z</time>
      </trkpt>
      <trkpt lat="46.60932" lon="5.46005">
        <ele>227</ele>
        <time>2022-02-05T12:49:46Z</time>
      </trkpt>
      <trkpt lat="46.60926" lon="5.46024">
        <ele>227</ele>
        <time>2022-02-05T12:49:48Z</time>
      </trkpt>
      <trkpt lat="46.60914" lon="5.46048">
        <ele>226.2</ele>
        <time>2022-02-05T12:49:51Z</time>
      </trkpt>
      <trkpt lat="46.60904" lon="5.46063">
        <ele>226</ele>
        <time>2022-02-05T12:49:53Z</time>
      </trkpt>
      <trkpt lat="46.60863" lon="5.46126">
        <ele>225.4</ele>
        <time>2022-02-05T12:50:01Z</time>
      </trkpt>
      <trkpt lat="46.60857" lon="5.46134">
        <ele>225</ele>
        <time>2022-02-05T12:50:02Z</time>
      </trkpt>
      <trkpt lat="46.60825" lon="5.46176">
        <ele>223.6</ele>
        <time>2022-02-05T12:50:07Z</time>
      </trkpt>
      <trkpt lat="46.60818" lon="5.46184">
        <ele>223.4</ele>
        <time>2022-02-05T12:50:08Z</time>
      </trkpt>
      <trkpt lat="46.6081" lon="5.46191">
        <ele>222.6</ele>
        <time>2022-02-05T12:50:09Z</time>
      </trkpt>
      <trkpt lat="46.60796" lon="5.46205">
        <ele>221.4</ele>
        <time>2022-02-05T12:50:11Z</time>
      </trkpt>
      <trkpt lat="46.6076" lon="5.46245">
        <ele>220.4</ele>
        <time>2022-02-05T12:50:16Z</time>
      </trkpt>
      <trkpt lat="46.60725" lon="5.46289">
        <ele>219</ele>
        <time>2022-02-05T12:50:21Z</time>
      </trkpt>
      <trkpt lat="46.60709" lon="5.46307">
        <ele>218</ele>
        <time>2022-02-05T12:50:23Z</time>
      </trkpt>
      <trkpt lat="46.60693" lon="5.46323">
        <ele>217.2</ele>
        <time>2022-02-05T12:50:25Z</time>
      </trkpt>
      <trkpt lat="46.60676" lon="5.46338">
        <ele>216.4</ele>
        <time>2022-02-05T12:50:27Z</time>
      </trkpt>
      <trkpt lat="46.6066" lon="5.46354">
        <ele>215.4</ele>
        <time>2022-02-05T12:50:29Z</time>
      </trkpt>
      <trkpt lat="46.60652" lon="5.46362">
        <ele>214.8</ele>
        <time>2022-02-05T12:50:30Z</time>
      </trkpt>
      <trkpt lat="46.60645" lon="5.46372">
        <ele>214.2</ele>
        <time>2022-02-05T12:50:31Z</time>
      </trkpt>
      <trkpt lat="46.60628" lon="5.46403">
        <ele>213.2</ele>
        <time>2022-02-05T12:50:34Z</time>
      </trkpt>
      <trkpt lat="46.60618" lon="5.46424">
        <ele>212.4</ele>
        <time>2022-02-05T12:50:36Z</time>
      </trkpt>
      <trkpt lat="46.60608" lon="5.46444">
        <ele>212</ele>
        <time>2022-02-05T12:50:38Z</time>
      </trkpt>
      <trkpt lat="46.60591" lon="5.46469">
        <ele>211</ele>
        <time>2022-02-05T12:50:41Z</time>
      </trkpt>
      <trkpt lat="46.60584" lon="5.46476">
        <ele>210.8</ele>
        <time>2022-02-05T12:50:42Z</time>
      </trkpt>
      <trkpt lat="46.60577" lon="5.46481">
        <ele>210.8</ele>
        <time>2022-02-05T12:50:43Z</time>
      </trkpt>
      <trkpt lat="46.60562" lon="5.4649">
        <ele>210.4</ele>
        <time>2022-02-05T12:50:45Z</time>
      </trkpt>
      <trkpt lat="46.60534" lon="5.46504">
        <ele>210.2</ele>
        <time>2022-02-05T12:50:49Z</time>
      </trkpt>
      <trkpt lat="46.60528" lon="5.46509">
        <ele>210.2</ele>
        <time>2022-02-05T12:50:50Z</time>
      </trkpt>
      <trkpt lat="46.60505" lon="5.46537">
        <ele>210.2</ele>
        <time>2022-02-05T12:50:54Z</time>
      </trkpt>
      <trkpt lat="46.6048" lon="5.46587">
        <ele>210.4</ele>
        <time>2022-02-05T12:51:00Z</time>
      </trkpt>
      <trkpt lat="46.60447" lon="5.46645">
        <ele>210.6</ele>
        <time>2022-02-05T12:51:08Z</time>
      </trkpt>
      <trkpt lat="46.60433" lon="5.46658">
        <ele>210.6</ele>
        <time>2022-02-05T12:51:11Z</time>
      </trkpt>
      <trkpt lat="46.60429" lon="5.46663">
        <ele>210.8</ele>
        <time>2022-02-05T12:51:12Z</time>
      </trkpt>
      <trkpt lat="46.60427" lon="5.4667">
        <ele>211</ele>
        <time>2022-02-05T12:51:13Z</time>
      </trkpt>
      <trkpt lat="46.60423" lon="5.46687">
        <ele>211.2</ele>
        <time>2022-02-05T12:51:15Z</time>
      </trkpt>
      <trkpt lat="46.60422" lon="5.46695">
        <ele>211.2</ele>
        <time>2022-02-05T12:51:16Z</time>
      </trkpt>
      <trkpt lat="46.60421" lon="5.46738">
        <ele>212</ele>
        <time>2022-02-05T12:51:21Z</time>
      </trkpt>
      <trkpt lat="46.60421" lon="5.46747">
        <ele>212.2</ele>
        <time>2022-02-05T12:51:22Z</time>
      </trkpt>
      <trkpt lat="46.60415" lon="5.46808">
        <ele>212.4</ele>
        <time>2022-02-05T12:51:29Z</time>
      </trkpt>
      <trkpt lat="46.60414" lon="5.46816">
        <ele>212.6</ele>
        <time>2022-02-05T12:51:30Z</time>
      </trkpt>
      <trkpt lat="46.6041" lon="5.46832">
        <ele>212.6</ele>
        <time>2022-02-05T12:51:32Z</time>
      </trkpt>
      <trkpt lat="46.60405" lon="5.46846">
        <ele>212.8</ele>
        <time>2022-02-05T12:51:34Z</time>
      </trkpt>
      <trkpt lat="46.60401" lon="5.46861">
        <ele>213</ele>
        <time>2022-02-05T12:51:36Z</time>
      </trkpt>
      <trkpt lat="46.60386" lon="5.46917">
        <ele>213.8</ele>
        <time>2022-02-05T12:51:43Z</time>
      </trkpt>
      <trkpt lat="46.60379" lon="5.46946">
        <ele>214.2</ele>
        <time>2022-02-05T12:51:47Z</time>
      </trkpt>
      <trkpt lat="46.60367" lon="5.46984">
        <ele>214.6</ele>
        <time>2022-02-05T12:51:52Z</time>
      </trkpt>
      <trkpt lat="46.60362" lon="5.46997">
        <ele>214.6</ele>
        <time>2022-02-05T12:51:54Z</time>
      </trkpt>
      <trkpt lat="46.60354" lon="5.47036">
        <ele>215</ele>
        <time>2022-02-05T12:51:59Z</time>
      </trkpt>
      <trkpt lat="46.60352" lon="5.47044">
        <ele>215.2</ele>
        <time>2022-02-05T12:52:00Z</time>
      </trkpt>
      <trkpt lat="46.60341" lon="5.47105">
        <ele>216.4</ele>
        <time>2022-02-05T12:52:08Z</time>
      </trkpt>
      <trkpt lat="46.60332" lon="5.47163">
        <ele>217.6</ele>
        <time>2022-02-05T12:52:16Z</time>
      </trkpt>
      <trkpt lat="46.60326" lon="5.4719">
        <ele>218.4</ele>
        <time>2022-02-05T12:52:20Z</time>
      </trkpt>
      <trkpt lat="46.60326" lon="5.47197">
        <ele>218.6</ele>
        <time>2022-02-05T12:52:21Z</time>
      </trkpt>
      <trkpt lat="46.60323" lon="5.47217">
        <ele>219</ele>
        <time>2022-02-05T12:52:24Z</time>
      </trkpt>
      <trkpt lat="46.60314" lon="5.47257">
        <ele>219.8</ele>
        <time>2022-02-05T12:52:30Z</time>
      </trkpt>
      <trkpt lat="46.6031" lon="5.4727">
        <ele>220</ele>
        <time>2022-02-05T12:52:32Z</time>
      </trkpt>
      <trkpt lat="46.60304" lon="5.47296">
        <ele>220.6</ele>
        <time>2022-02-05T12:52:36Z</time>
      </trkpt>
      <trkpt lat="46.60302" lon="5.47302">
        <ele>220.8</ele>
        <time>2022-02-05T12:52:37Z</time>
      </trkpt>
      <trkpt lat="46.60293" lon="5.47332">
        <ele>221.6</ele>
        <time>2022-02-05T12:52:42Z</time>
      </trkpt>
      <trkpt lat="46.6029" lon="5.47345">
        <ele>222</ele>
        <time>2022-02-05T12:52:44Z</time>
      </trkpt>
      <trkpt lat="46.60284" lon="5.47378">
        <ele>222.8</ele>
        <time>2022-02-05T12:52:49Z</time>
      </trkpt>
      <trkpt lat="46.60284" lon="5.47385">
        <ele>222.8</ele>
        <time>2022-02-05T12:52:50Z</time>
      </trkpt>
      <trkpt lat="46.60285" lon="5.47399">
        <ele>223</ele>
        <time>2022-02-05T12:52:52Z</time>
      </trkpt>
      <trkpt lat="46.60285" lon="5.47415">
        <ele>223.6</ele>
        <time>2022-02-05T12:52:54Z</time>
      </trkpt>
      <trkpt lat="46.60285" lon="5.4743">
        <ele>223.8</ele>
        <time>2022-02-05T12:52:56Z</time>
      </trkpt>
      <trkpt lat="46.60285" lon="5.47452">
        <ele>224.2</ele>
        <time>2022-02-05T12:52:59Z</time>
      </trkpt>
      <trkpt lat="46.60284" lon="5.47494">
        <ele>224.6</ele>
        <time>2022-02-05T12:53:05Z</time>
      </trkpt>
      <trkpt lat="46.60283" lon="5.47513">
        <ele>225.4</ele>
        <time>2022-02-05T12:53:08Z</time>
      </trkpt>
      <trkpt lat="46.60279" lon="5.47547">
        <ele>226.4</ele>
        <time>2022-02-05T12:53:13Z</time>
      </trkpt>
      <trkpt lat="46.60277" lon="5.47554">
        <ele>226.6</ele>
        <time>2022-02-05T12:53:14Z</time>
      </trkpt>
      <trkpt lat="46.60269" lon="5.47585">
        <ele>227.2</ele>
        <time>2022-02-05T12:53:18Z</time>
      </trkpt>
      <trkpt lat="46.60259" lon="5.47605">
        <ele>227.4</ele>
        <time>2022-02-05T12:53:21Z</time>
      </trkpt>
      <trkpt lat="46.60254" lon="5.4761">
        <ele>227.4</ele>
        <time>2022-02-05T12:53:22Z</time>
      </trkpt>
      <trkpt lat="46.60248" lon="5.47614">
        <ele>227.4</ele>
        <time>2022-02-05T12:53:23Z</time>
      </trkpt>
      <trkpt lat="46.60237" lon="5.47619">
        <ele>227.4</ele>
        <time>2022-02-05T12:53:25Z</time>
      </trkpt>
      <trkpt lat="46.60231" lon="5.47621">
        <ele>227.4</ele>
        <time>2022-02-05T12:53:26Z</time>
      </trkpt>
      <trkpt lat="46.60182" lon="5.47636">
        <ele>226.8</ele>
        <time>2022-02-05T12:53:34Z</time>
      </trkpt>
      <trkpt lat="46.60147" lon="5.47663">
        <ele>227</ele>
        <time>2022-02-05T12:53:40Z</time>
      </trkpt>
      <trkpt lat="46.60106" lon="5.47708">
        <ele>227.4</ele>
        <time>2022-02-05T12:53:48Z</time>
      </trkpt>
      <trkpt lat="46.60098" lon="5.4772">
        <ele>227.6</ele>
        <time>2022-02-05T12:53:50Z</time>
      </trkpt>
      <trkpt lat="46.60084" lon="5.47742">
        <ele>228.2</ele>
        <time>2022-02-05T12:53:54Z</time>
      </trkpt>
      <trkpt lat="46.60081" lon="5.47748">
        <ele>228.4</ele>
        <time>2022-02-05T12:53:55Z</time>
      </trkpt>
      <trkpt lat="46.60075" lon="5.47759">
        <ele>228.6</ele>
        <time>2022-02-05T12:53:57Z</time>
      </trkpt>
      <trkpt lat="46.60073" lon="5.47765">
        <ele>228.8</ele>
        <time>2022-02-05T12:53:58Z</time>
      </trkpt>
      <trkpt lat="46.6007" lon="5.4777">
        <ele>229</ele>
        <time>2022-02-05T12:53:59Z</time>
      </trkpt>
      <trkpt lat="46.60065" lon="5.47783">
        <ele>229.8</ele>
        <time>2022-02-05T12:54:01Z</time>
      </trkpt>
      <trkpt lat="46.60061" lon="5.47803">
        <ele>230.4</ele>
        <time>2022-02-05T12:54:04Z</time>
      </trkpt>
      <trkpt lat="46.6006" lon="5.47817">
        <ele>230.8</ele>
        <time>2022-02-05T12:54:06Z</time>
      </trkpt>
      <trkpt lat="46.6006" lon="5.47823">
        <ele>231</ele>
        <time>2022-02-05T12:54:07Z</time>
      </trkpt>
      <trkpt lat="46.60059" lon="5.47835">
        <ele>231.6</ele>
        <time>2022-02-05T12:54:09Z</time>
      </trkpt>
      <trkpt lat="46.60059" lon="5.47841">
        <ele>232</ele>
        <time>2022-02-05T12:54:10Z</time>
      </trkpt>
      <trkpt lat="46.60058" lon="5.47858">
        <ele>232.4</ele>
        <time>2022-02-05T12:54:13Z</time>
      </trkpt>
      <trkpt lat="46.60056" lon="5.47869">
        <ele>233.4</ele>
        <time>2022-02-05T12:54:15Z</time>
      </trkpt>
      <trkpt lat="46.60054" lon="5.47875">
        <ele>233.6</ele>
        <time>2022-02-05T12:54:16Z</time>
      </trkpt>
      <trkpt lat="46.60048" lon="5.47888">
        <ele>234</ele>
        <time>2022-02-05T12:54:18Z</time>
      </trkpt>
      <trkpt lat="46.60044" lon="5.47894">
        <ele>234</ele>
        <time>2022-02-05T12:54:19Z</time>
      </trkpt>
      <trkpt lat="46.6004" lon="5.479">
        <ele>234</ele>
        <time>2022-02-05T12:54:20Z</time>
      </trkpt>
      <trkpt lat="46.60023" lon="5.47919">
        <ele>234</ele>
        <time>2022-02-05T12:54:23Z</time>
      </trkpt>
      <trkpt lat="46.60017" lon="5.47927">
        <ele>233.8</ele>
        <time>2022-02-05T12:54:24Z</time>
      </trkpt>
      <trkpt lat="46.60008" lon="5.47943">
        <ele>233.4</ele>
        <time>2022-02-05T12:54:26Z</time>
      </trkpt>
      <trkpt lat="46.60005" lon="5.47953">
        <ele>233.2</ele>
        <time>2022-02-05T12:54:27Z</time>
      </trkpt>
      <trkpt lat="46.60003" lon="5.47961">
        <ele>233</ele>
        <time>2022-02-05T12:54:28Z</time>
      </trkpt>
      <trkpt lat="46.60003" lon="5.47978">
        <ele>232.8</ele>
        <time>2022-02-05T12:54:30Z</time>
      </trkpt>
      <trkpt lat="46.60007" lon="5.48002">
        <ele>232.8</ele>
        <time>2022-02-05T12:54:33Z</time>
      </trkpt>
      <trkpt lat="46.60011" lon="5.48019">
        <ele>233</ele>
        <time>2022-02-05T12:54:35Z</time>
      </trkpt>
      <trkpt lat="46.60013" lon="5.48027">
        <ele>233</ele>
        <time>2022-02-05T12:54:36Z</time>
      </trkpt>
      <trkpt lat="46.60019" lon="5.48041">
        <ele>233.6</ele>
        <time>2022-02-05T12:54:38Z</time>
      </trkpt>
      <trkpt lat="46.60022" lon="5.48047">
        <ele>233.8</ele>
        <time>2022-02-05T12:54:39Z</time>
      </trkpt>
      <trkpt lat="46.60025" lon="5.48053">
        <ele>234</ele>
        <time>2022-02-05T12:54:40Z</time>
      </trkpt>
      <trkpt lat="46.60027" lon="5.48067">
        <ele>234.2</ele>
        <time>2022-02-05T12:54:42Z</time>
      </trkpt>
      <trkpt lat="46.60028" lon="5.48084">
        <ele>234.6</ele>
        <time>2022-02-05T12:54:44Z</time>
      </trkpt>
      <trkpt lat="46.60028" lon="5.48115">
        <ele>234.8</ele>
        <time>2022-02-05T12:54:47Z</time>
      </trkpt>
      <trkpt lat="46.60032" lon="5.48162">
        <ele>234.6</ele>
        <time>2022-02-05T12:54:51Z</time>
      </trkpt>
      <trkpt lat="46.60033" lon="5.48205">
        <ele>234</ele>
        <time>2022-02-05T12:54:54Z</time>
      </trkpt>
      <trkpt lat="46.60031" lon="5.48219">
        <ele>233.2</ele>
        <time>2022-02-05T12:54:55Z</time>
      </trkpt>
      <trkpt lat="46.60028" lon="5.48235">
        <ele>232.6</ele>
        <time>2022-02-05T12:54:56Z</time>
      </trkpt>
      <trkpt lat="46.60022" lon="5.48259">
        <ele>231</ele>
        <time>2022-02-05T12:54:58Z</time>
      </trkpt>
      <trkpt lat="46.60018" lon="5.48272">
        <ele>230.4</ele>
        <time>2022-02-05T12:54:59Z</time>
      </trkpt>
      <trkpt lat="46.60014" lon="5.48285">
        <ele>229.8</ele>
        <time>2022-02-05T12:55:00Z</time>
      </trkpt>
      <trkpt lat="46.60006" lon="5.48311">
        <ele>228.8</ele>
        <time>2022-02-05T12:55:02Z</time>
      </trkpt>
      <trkpt lat="46.59999" lon="5.48337">
        <ele>227.8</ele>
        <time>2022-02-05T12:55:04Z</time>
      </trkpt>
      <trkpt lat="46.59987" lon="5.48377">
        <ele>226.6</ele>
        <time>2022-02-05T12:55:07Z</time>
      </trkpt>
      <trkpt lat="46.59962" lon="5.48457">
        <ele>226</ele>
        <time>2022-02-05T12:55:14Z</time>
      </trkpt>
      <trkpt lat="46.59959" lon="5.48468">
        <ele>226</ele>
        <time>2022-02-05T12:55:15Z</time>
      </trkpt>
      <trkpt lat="46.59943" lon="5.4852">
        <ele>225.8</ele>
        <time>2022-02-05T12:55:20Z</time>
      </trkpt>
      <trkpt lat="46.59931" lon="5.48581">
        <ele>225.8</ele>
        <time>2022-02-05T12:55:26Z</time>
      </trkpt>
      <trkpt lat="46.59926" lon="5.48638">
        <ele>226.4</ele>
        <time>2022-02-05T12:55:32Z</time>
      </trkpt>
      <trkpt lat="46.59925" lon="5.48696">
        <ele>226.8</ele>
        <time>2022-02-05T12:55:39Z</time>
      </trkpt>
      <trkpt lat="46.59921" lon="5.48732">
        <ele>227</ele>
        <time>2022-02-05T12:55:42Z</time>
      </trkpt>
      <trkpt lat="46.59921" lon="5.48756">
        <ele>227.2</ele>
        <time>2022-02-05T12:55:45Z</time>
      </trkpt>
      <trkpt lat="46.59919" lon="5.48776">
        <ele>227.4</ele>
        <time>2022-02-05T12:55:47Z</time>
      </trkpt>
      <trkpt lat="46.59916" lon="5.48792">
        <ele>227.6</ele>
        <time>2022-02-05T12:55:49Z</time>
      </trkpt>
      <trkpt lat="46.59913" lon="5.48801">
        <ele>227.6</ele>
        <time>2022-02-05T12:55:50Z</time>
      </trkpt>
      <trkpt lat="46.59888" lon="5.48876">
        <ele>228</ele>
        <time>2022-02-05T12:55:59Z</time>
      </trkpt>
      <trkpt lat="46.59883" lon="5.48895">
        <ele>228.2</ele>
        <time>2022-02-05T12:56:01Z</time>
      </trkpt>
      <trkpt lat="46.59879" lon="5.48912">
        <ele>228.6</ele>
        <time>2022-02-05T12:56:04Z</time>
      </trkpt>
      <trkpt lat="46.59877" lon="5.48936">
        <ele>228.8</ele>
        <time>2022-02-05T12:56:06Z</time>
      </trkpt>
      <trkpt lat="46.59873" lon="5.48968">
        <ele>229.2</ele>
        <time>2022-02-05T12:56:10Z</time>
      </trkpt>
      <trkpt lat="46.59868" lon="5.49">
        <ele>229.8</ele>
        <time>2022-02-05T12:56:14Z</time>
      </trkpt>
      <trkpt lat="46.59867" lon="5.49006">
        <ele>230</ele>
        <time>2022-02-05T12:56:15Z</time>
      </trkpt>
      <trkpt lat="46.59866" lon="5.49022">
        <ele>230.2</ele>
        <time>2022-02-05T12:56:17Z</time>
      </trkpt>
      <trkpt lat="46.59866" lon="5.49051">
        <ele>231</ele>
        <time>2022-02-05T12:56:21Z</time>
      </trkpt>
      <trkpt lat="46.59867" lon="5.49067">
        <ele>231.4</ele>
        <time>2022-02-05T12:56:23Z</time>
      </trkpt>
      <trkpt lat="46.59874" lon="5.49109">
        <ele>232</ele>
        <time>2022-02-05T12:56:28Z</time>
      </trkpt>
      <trkpt lat="46.59875" lon="5.49117">
        <ele>232</ele>
        <time>2022-02-05T12:56:29Z</time>
      </trkpt>
      <trkpt lat="46.59877" lon="5.49127">
        <ele>232</ele>
        <time>2022-02-05T12:56:30Z</time>
      </trkpt>
      <trkpt lat="46.59883" lon="5.49174">
        <ele>232.2</ele>
        <time>2022-02-05T12:56:35Z</time>
      </trkpt>
      <trkpt lat="46.59897" lon="5.49228">
        <ele>232</ele>
        <time>2022-02-05T12:56:41Z</time>
      </trkpt>
      <trkpt lat="46.59898" lon="5.4924">
        <ele>232</ele>
        <time>2022-02-05T12:56:42Z</time>
      </trkpt>
      <trkpt lat="46.59895" lon="5.49294">
        <ele>231.6</ele>
        <time>2022-02-05T12:56:48Z</time>
      </trkpt>
      <trkpt lat="46.59895" lon="5.49317">
        <ele>231.6</ele>
        <time>2022-02-05T12:56:51Z</time>
      </trkpt>
      <trkpt lat="46.59899" lon="5.49334">
        <ele>231.8</ele>
        <time>2022-02-05T12:56:53Z</time>
      </trkpt>
      <trkpt lat="46.59913" lon="5.49388">
        <ele>232.2</ele>
        <time>2022-02-05T12:57:00Z</time>
      </trkpt>
      <trkpt lat="46.5992" lon="5.49444">
        <ele>232.4</ele>
        <time>2022-02-05T12:57:07Z</time>
      </trkpt>
      <trkpt lat="46.59918" lon="5.49468">
        <ele>232.6</ele>
        <time>2022-02-05T12:57:10Z</time>
      </trkpt>
      <trkpt lat="46.59918" lon="5.49498">
        <ele>232.8</ele>
        <time>2022-02-05T12:57:14Z</time>
      </trkpt>
      <trkpt lat="46.59915" lon="5.4951">
        <ele>233</ele>
        <time>2022-02-05T12:57:16Z</time>
      </trkpt>
      <trkpt lat="46.59913" lon="5.49515">
        <ele>233.2</ele>
        <time>2022-02-05T12:57:17Z</time>
      </trkpt>
      <trkpt lat="46.5991" lon="5.4952">
        <ele>233.2</ele>
        <time>2022-02-05T12:57:18Z</time>
      </trkpt>
      <trkpt lat="46.59898" lon="5.49531">
        <ele>234.2</ele>
        <time>2022-02-05T12:57:22Z</time>
      </trkpt>
      <trkpt lat="46.59888" lon="5.49541">
        <ele>234.6</ele>
        <time>2022-02-05T12:57:27Z</time>
      </trkpt>
      <trkpt lat="46.59887" lon="5.49542">
        <ele>234.6</ele>
        <time>2022-02-05T12:57:31Z</time>
      </trkpt>
      <trkpt lat="46.59893" lon="5.49536">
        <ele>234.2</ele>
        <time>2022-02-05T12:59:16Z</time>
      </trkpt>
      <trkpt lat="46.59897" lon="5.49533">
        <ele>234.2</ele>
        <time>2022-02-05T12:59:19Z</time>
      </trkpt>
      <trkpt lat="46.599" lon="5.4953">
        <ele>234.2</ele>
        <time>2022-02-05T12:59:22Z</time>
      </trkpt>
      <trkpt lat="46.59903" lon="5.49527">
        <ele>234.2</ele>
        <time>2022-02-05T12:59:26Z</time>
      </trkpt>
      <trkpt lat="46.5992" lon="5.49524">
        <ele>234</ele>
        <time>2022-02-05T12:59:33Z</time>
      </trkpt>
      <trkpt lat="46.59923" lon="5.49525">
        <ele>233.8</ele>
        <time>2022-02-05T12:59:34Z</time>
      </trkpt>
      <trkpt lat="46.59932" lon="5.49541">
        <ele>233.8</ele>
        <time>2022-02-05T12:59:38Z</time>
      </trkpt>
      <trkpt lat="46.59938" lon="5.49573">
        <ele>234.2</ele>
        <time>2022-02-05T12:59:44Z</time>
      </trkpt>
      <trkpt lat="46.5994" lon="5.49606">
        <ele>235.2</ele>
        <time>2022-02-05T12:59:49Z</time>
      </trkpt>
      <trkpt lat="46.59943" lon="5.49635">
        <ele>235.4</ele>
        <time>2022-02-05T12:59:53Z</time>
      </trkpt>
      <trkpt lat="46.59944" lon="5.49649">
        <ele>235.8</ele>
        <time>2022-02-05T12:59:55Z</time>
      </trkpt>
      <trkpt lat="46.59944" lon="5.49669">
        <ele>236.2</ele>
        <time>2022-02-05T12:59:58Z</time>
      </trkpt>
      <trkpt lat="46.59944" lon="5.49697">
        <ele>236.2</ele>
        <time>2022-02-05T13:00:02Z</time>
      </trkpt>
      <trkpt lat="46.59943" lon="5.49738">
        <ele>237.2</ele>
        <time>2022-02-05T13:00:08Z</time>
      </trkpt>
      <trkpt lat="46.59943" lon="5.49753">
        <ele>237.2</ele>
        <time>2022-02-05T13:00:10Z</time>
      </trkpt>
      <trkpt lat="46.59942" lon="5.4976">
        <ele>237.4</ele>
        <time>2022-02-05T13:00:11Z</time>
      </trkpt>
      <trkpt lat="46.59934" lon="5.49815">
        <ele>238.4</ele>
        <time>2022-02-05T13:00:19Z</time>
      </trkpt>
      <trkpt lat="46.59931" lon="5.49827">
        <ele>238.6</ele>
        <time>2022-02-05T13:00:21Z</time>
      </trkpt>
      <trkpt lat="46.59926" lon="5.49846">
        <ele>239.2</ele>
        <time>2022-02-05T13:00:24Z</time>
      </trkpt>
      <trkpt lat="46.59924" lon="5.49858">
        <ele>239.4</ele>
        <time>2022-02-05T13:00:26Z</time>
      </trkpt>
      <trkpt lat="46.59922" lon="5.49871">
        <ele>239.6</ele>
        <time>2022-02-05T13:00:28Z</time>
      </trkpt>
      <trkpt lat="46.59918" lon="5.49914">
        <ele>240.2</ele>
        <time>2022-02-05T13:00:35Z</time>
      </trkpt>
      <trkpt lat="46.59918" lon="5.49921">
        <ele>240.4</ele>
        <time>2022-02-05T13:00:36Z</time>
      </trkpt>
      <trkpt lat="46.59917" lon="5.4994">
        <ele>241</ele>
        <time>2022-02-05T13:00:39Z</time>
      </trkpt>
      <trkpt lat="46.59916" lon="5.49959">
        <ele>241.4</ele>
        <time>2022-02-05T13:00:42Z</time>
      </trkpt>
      <trkpt lat="46.59915" lon="5.49975">
        <ele>242</ele>
        <time>2022-02-05T13:00:45Z</time>
      </trkpt>
      <trkpt lat="46.59912" lon="5.49987">
        <ele>242.6</ele>
        <time>2022-02-05T13:00:47Z</time>
      </trkpt>
      <trkpt lat="46.5991" lon="5.49998">
        <ele>243</ele>
        <time>2022-02-05T13:00:49Z</time>
      </trkpt>
      <trkpt lat="46.59907" lon="5.50011">
        <ele>243.4</ele>
        <time>2022-02-05T13:00:51Z</time>
      </trkpt>
      <trkpt lat="46.59902" lon="5.50023">
        <ele>243.6</ele>
        <time>2022-02-05T13:00:53Z</time>
      </trkpt>
      <trkpt lat="46.59899" lon="5.50028">
        <ele>243.8</ele>
        <time>2022-02-05T13:00:54Z</time>
      </trkpt>
      <trkpt lat="46.59881" lon="5.50069">
        <ele>244.6</ele>
        <time>2022-02-05T13:01:01Z</time>
      </trkpt>
      <trkpt lat="46.59876" lon="5.5008">
        <ele>244.6</ele>
        <time>2022-02-05T13:01:03Z</time>
      </trkpt>
      <trkpt lat="46.59866" lon="5.50105">
        <ele>245.8</ele>
        <time>2022-02-05T13:01:08Z</time>
      </trkpt>
      <trkpt lat="46.59864" lon="5.5011">
        <ele>246</ele>
        <time>2022-02-05T13:01:09Z</time>
      </trkpt>
      <trkpt lat="46.59856" lon="5.5012">
        <ele>246.8</ele>
        <time>2022-02-05T13:01:12Z</time>
      </trkpt>
      <trkpt lat="46.59851" lon="5.50127">
        <ele>247.4</ele>
        <time>2022-02-05T13:01:14Z</time>
      </trkpt>
      <trkpt lat="46.59846" lon="5.50134">
        <ele>248</ele>
        <time>2022-02-05T13:01:16Z</time>
      </trkpt>
      <trkpt lat="46.59836" lon="5.50147">
        <ele>249</ele>
        <time>2022-02-05T13:01:20Z</time>
      </trkpt>
      <trkpt lat="46.59835" lon="5.50151">
        <ele>249.2</ele>
        <time>2022-02-05T13:01:21Z</time>
      </trkpt>
      <trkpt lat="46.59824" lon="5.50166">
        <ele>250.2</ele>
        <time>2022-02-05T13:01:25Z</time>
      </trkpt>
      <trkpt lat="46.59817" lon="5.50174">
        <ele>250.6</ele>
        <time>2022-02-05T13:01:27Z</time>
      </trkpt>
      <trkpt lat="46.59807" lon="5.50185">
        <ele>251.2</ele>
        <time>2022-02-05T13:01:30Z</time>
      </trkpt>
      <trkpt lat="46.59788" lon="5.50204">
        <ele>251.8</ele>
        <time>2022-02-05T13:01:35Z</time>
      </trkpt>
      <trkpt lat="46.59785" lon="5.50207">
        <ele>252</ele>
        <time>2022-02-05T13:01:36Z</time>
      </trkpt>
      <trkpt lat="46.59781" lon="5.50209">
        <ele>252.2</ele>
        <time>2022-02-05T13:01:37Z</time>
      </trkpt>
      <trkpt lat="46.59777" lon="5.50211">
        <ele>252.4</ele>
        <time>2022-02-05T13:01:38Z</time>
      </trkpt>
      <trkpt lat="46.59763" lon="5.50215">
        <ele>252.8</ele>
        <time>2022-02-05T13:01:41Z</time>
      </trkpt>
      <trkpt lat="46.59733" lon="5.50224">
        <ele>253.2</ele>
        <time>2022-02-05T13:01:47Z</time>
      </trkpt>
      <trkpt lat="46.59728" lon="5.50226">
        <ele>253.2</ele>
        <time>2022-02-05T13:01:48Z</time>
      </trkpt>
      <trkpt lat="46.59706" lon="5.50239">
        <ele>253.4</ele>
        <time>2022-02-05T13:01:53Z</time>
      </trkpt>
      <trkpt lat="46.59695" lon="5.50247">
        <ele>253.6</ele>
        <time>2022-02-05T13:01:56Z</time>
      </trkpt>
      <trkpt lat="46.59689" lon="5.50255">
        <ele>254.2</ele>
        <time>2022-02-05T13:01:58Z</time>
      </trkpt>
      <trkpt lat="46.59687" lon="5.5026">
        <ele>254.4</ele>
        <time>2022-02-05T13:01:59Z</time>
      </trkpt>
      <trkpt lat="46.59686" lon="5.50266">
        <ele>254.4</ele>
        <time>2022-02-05T13:02:00Z</time>
      </trkpt>
      <trkpt lat="46.59685" lon="5.50278">
        <ele>254.6</ele>
        <time>2022-02-05T13:02:02Z</time>
      </trkpt>
      <trkpt lat="46.59688" lon="5.50291">
        <ele>255.4</ele>
        <time>2022-02-05T13:02:05Z</time>
      </trkpt>
      <trkpt lat="46.5969" lon="5.50295">
        <ele>255.4</ele>
        <time>2022-02-05T13:02:06Z</time>
      </trkpt>
      <trkpt lat="46.597" lon="5.50301">
        <ele>256.4</ele>
        <time>2022-02-05T13:02:09Z</time>
      </trkpt>
      <trkpt lat="46.59703" lon="5.50301">
        <ele>256.6</ele>
        <time>2022-02-05T13:02:10Z</time>
      </trkpt>
      <trkpt lat="46.59717" lon="5.50293">
        <ele>257.6</ele>
        <time>2022-02-05T13:02:14Z</time>
      </trkpt>
      <trkpt lat="46.59721" lon="5.50291">
        <ele>257.8</ele>
        <time>2022-02-05T13:02:15Z</time>
      </trkpt>
      <trkpt lat="46.59738" lon="5.5028">
        <ele>258.8</ele>
        <time>2022-02-05T13:02:20Z</time>
      </trkpt>
      <trkpt lat="46.59749" lon="5.50274">
        <ele>259.6</ele>
        <time>2022-02-05T13:02:24Z</time>
      </trkpt>
      <trkpt lat="46.59752" lon="5.50272">
        <ele>260.4</ele>
        <time>2022-02-05T13:02:25Z</time>
      </trkpt>
      <trkpt lat="46.59764" lon="5.50264">
        <ele>261.4</ele>
        <time>2022-02-05T13:02:29Z</time>
      </trkpt>
      <trkpt lat="46.59771" lon="5.5026">
        <ele>261.8</ele>
        <time>2022-02-05T13:02:31Z</time>
      </trkpt>
      <trkpt lat="46.5978" lon="5.50253">
        <ele>262.6</ele>
        <time>2022-02-05T13:02:34Z</time>
      </trkpt>
      <trkpt lat="46.59795" lon="5.50243">
        <ele>263.8</ele>
        <time>2022-02-05T13:02:39Z</time>
      </trkpt>
      <trkpt lat="46.59807" lon="5.50235">
        <ele>264.8</ele>
        <time>2022-02-05T13:02:43Z</time>
      </trkpt>
      <trkpt lat="46.5981" lon="5.50234">
        <ele>264.8</ele>
        <time>2022-02-05T13:02:44Z</time>
      </trkpt>
      <trkpt lat="46.59825" lon="5.50224">
        <ele>266</ele>
        <time>2022-02-05T13:02:49Z</time>
      </trkpt>
      <trkpt lat="46.59837" lon="5.50217">
        <ele>267.2</ele>
        <time>2022-02-05T13:02:53Z</time>
      </trkpt>
      <trkpt lat="46.5984" lon="5.50215">
        <ele>267.2</ele>
        <time>2022-02-05T13:02:54Z</time>
      </trkpt>
      <trkpt lat="46.59856" lon="5.50206">
        <ele>268.4</ele>
        <time>2022-02-05T13:02:59Z</time>
      </trkpt>
      <trkpt lat="46.59869" lon="5.50201">
        <ele>269.4</ele>
        <time>2022-02-05T13:03:03Z</time>
      </trkpt>
      <trkpt lat="46.59886" lon="5.50196">
        <ele>270.4</ele>
        <time>2022-02-05T13:03:08Z</time>
      </trkpt>
      <trkpt lat="46.59899" lon="5.50194">
        <ele>271</ele>
        <time>2022-02-05T13:03:12Z</time>
      </trkpt>
      <trkpt lat="46.59909" lon="5.50193">
        <ele>271.6</ele>
        <time>2022-02-05T13:03:15Z</time>
      </trkpt>
      <trkpt lat="46.59925" lon="5.50191">
        <ele>272.6</ele>
        <time>2022-02-05T13:03:20Z</time>
      </trkpt>
      <trkpt lat="46.59942" lon="5.50189">
        <ele>273.6</ele>
        <time>2022-02-05T13:03:25Z</time>
      </trkpt>
      <trkpt lat="46.59959" lon="5.5019">
        <ele>274.6</ele>
        <time>2022-02-05T13:03:30Z</time>
      </trkpt>
      <trkpt lat="46.59963" lon="5.50192">
        <ele>275</ele>
        <time>2022-02-05T13:03:31Z</time>
      </trkpt>
      <trkpt lat="46.59973" lon="5.50205">
        <ele>275.6</ele>
        <time>2022-02-05T13:03:35Z</time>
      </trkpt>
      <trkpt lat="46.59974" lon="5.50211">
        <ele>276</ele>
        <time>2022-02-05T13:03:36Z</time>
      </trkpt>
      <trkpt lat="46.59978" lon="5.50228">
        <ele>277</ele>
        <time>2022-02-05T13:03:40Z</time>
      </trkpt>
      <trkpt lat="46.59984" lon="5.50241">
        <ele>277.8</ele>
        <time>2022-02-05T13:03:43Z</time>
      </trkpt>
      <trkpt lat="46.59986" lon="5.50245">
        <ele>278</ele>
        <time>2022-02-05T13:03:44Z</time>
      </trkpt>
      <trkpt lat="46.60002" lon="5.50265">
        <ele>279.2</ele>
        <time>2022-02-05T13:03:50Z</time>
      </trkpt>
      <trkpt lat="46.60022" lon="5.50279">
        <ele>280.4</ele>
        <time>2022-02-05T13:03:57Z</time>
      </trkpt>
      <trkpt lat="46.6004" lon="5.50284">
        <ele>281.6</ele>
        <time>2022-02-05T13:04:02Z</time>
      </trkpt>
      <trkpt lat="46.60049" lon="5.50285">
        <ele>282</ele>
        <time>2022-02-05T13:04:04Z</time>
      </trkpt>
      <trkpt lat="46.60058" lon="5.50286">
        <ele>282.6</ele>
        <time>2022-02-05T13:04:06Z</time>
      </trkpt>
      <trkpt lat="46.60079" lon="5.50286">
        <ele>283.8</ele>
        <time>2022-02-05T13:04:11Z</time>
      </trkpt>
      <trkpt lat="46.60097" lon="5.50288">
        <ele>284.8</ele>
        <time>2022-02-05T13:04:15Z</time>
      </trkpt>
      <trkpt lat="46.60108" lon="5.50295">
        <ele>285.6</ele>
        <time>2022-02-05T13:04:18Z</time>
      </trkpt>
      <trkpt lat="46.60112" lon="5.50297">
        <ele>285.8</ele>
        <time>2022-02-05T13:04:19Z</time>
      </trkpt>
      <trkpt lat="46.60126" lon="5.50306">
        <ele>287</ele>
        <time>2022-02-05T13:04:23Z</time>
      </trkpt>
      <trkpt lat="46.60136" lon="5.50312">
        <ele>287.6</ele>
        <time>2022-02-05T13:04:26Z</time>
      </trkpt>
      <trkpt lat="46.6014" lon="5.50315">
        <ele>288</ele>
        <time>2022-02-05T13:04:27Z</time>
      </trkpt>
      <trkpt lat="46.60151" lon="5.50323">
        <ele>289</ele>
        <time>2022-02-05T13:04:30Z</time>
      </trkpt>
      <trkpt lat="46.60168" lon="5.50335">
        <ele>290</ele>
        <time>2022-02-05T13:04:35Z</time>
      </trkpt>
      <trkpt lat="46.60175" lon="5.50339">
        <ele>290.6</ele>
        <time>2022-02-05T13:04:37Z</time>
      </trkpt>
      <trkpt lat="46.60183" lon="5.50343">
        <ele>291</ele>
        <time>2022-02-05T13:04:39Z</time>
      </trkpt>
      <trkpt lat="46.60187" lon="5.50345">
        <ele>291.4</ele>
        <time>2022-02-05T13:04:40Z</time>
      </trkpt>
      <trkpt lat="46.60195" lon="5.50349">
        <ele>292</ele>
        <time>2022-02-05T13:04:42Z</time>
      </trkpt>
      <trkpt lat="46.60203" lon="5.50353">
        <ele>292.6</ele>
        <time>2022-02-05T13:04:44Z</time>
      </trkpt>
      <trkpt lat="46.60218" lon="5.50358">
        <ele>293.4</ele>
        <time>2022-02-05T13:04:48Z</time>
      </trkpt>
      <trkpt lat="46.60222" lon="5.50359">
        <ele>293.8</ele>
        <time>2022-02-05T13:04:49Z</time>
      </trkpt>
      <trkpt lat="46.60239" lon="5.5036">
        <ele>294.8</ele>
        <time>2022-02-05T13:04:53Z</time>
      </trkpt>
      <trkpt lat="46.60242" lon="5.5036">
        <ele>295.2</ele>
        <time>2022-02-05T13:04:54Z</time>
      </trkpt>
      <trkpt lat="46.60262" lon="5.50359">
        <ele>296.4</ele>
        <time>2022-02-05T13:04:59Z</time>
      </trkpt>
      <trkpt lat="46.60271" lon="5.50361">
        <ele>296.6</ele>
        <time>2022-02-05T13:05:01Z</time>
      </trkpt>
      <trkpt lat="46.60285" lon="5.50369">
        <ele>297.4</ele>
        <time>2022-02-05T13:05:05Z</time>
      </trkpt>
      <trkpt lat="46.60295" lon="5.50378">
        <ele>298</ele>
        <time>2022-02-05T13:05:08Z</time>
      </trkpt>
      <trkpt lat="46.60301" lon="5.50385">
        <ele>298.6</ele>
        <time>2022-02-05T13:05:10Z</time>
      </trkpt>
      <trkpt lat="46.60316" lon="5.50403">
        <ele>299.8</ele>
        <time>2022-02-05T13:05:15Z</time>
      </trkpt>
      <trkpt lat="46.60324" lon="5.50413">
        <ele>300.4</ele>
        <time>2022-02-05T13:05:18Z</time>
      </trkpt>
      <trkpt lat="46.6033" lon="5.50419">
        <ele>301</ele>
        <time>2022-02-05T13:05:20Z</time>
      </trkpt>
      <trkpt lat="46.60343" lon="5.50432">
        <ele>302</ele>
        <time>2022-02-05T13:05:24Z</time>
      </trkpt>
      <trkpt lat="46.60349" lon="5.5044">
        <ele>302.6</ele>
        <time>2022-02-05T13:05:26Z</time>
      </trkpt>
      <trkpt lat="46.60353" lon="5.50449">
        <ele>303</ele>
        <time>2022-02-05T13:05:28Z</time>
      </trkpt>
      <trkpt lat="46.60356" lon="5.50464">
        <ele>303.6</ele>
        <time>2022-02-05T13:05:31Z</time>
      </trkpt>
      <trkpt lat="46.60359" lon="5.50477">
        <ele>304.2</ele>
        <time>2022-02-05T13:05:33Z</time>
      </trkpt>
      <trkpt lat="46.60367" lon="5.50499">
        <ele>305.2</ele>
        <time>2022-02-05T13:05:37Z</time>
      </trkpt>
      <trkpt lat="46.60371" lon="5.50509">
        <ele>305.8</ele>
        <time>2022-02-05T13:05:39Z</time>
      </trkpt>
      <trkpt lat="46.6038" lon="5.50529">
        <ele>306.4</ele>
        <time>2022-02-05T13:05:43Z</time>
      </trkpt>
      <trkpt lat="46.60396" lon="5.50554">
        <ele>307.4</ele>
        <time>2022-02-05T13:05:49Z</time>
      </trkpt>
      <trkpt lat="46.60398" lon="5.50557">
        <ele>307.6</ele>
        <time>2022-02-05T13:05:50Z</time>
      </trkpt>
      <trkpt lat="46.60413" lon="5.50574">
        <ele>309</ele>
        <time>2022-02-05T13:05:55Z</time>
      </trkpt>
      <trkpt lat="46.60423" lon="5.50583">
        <ele>310</ele>
        <time>2022-02-05T13:05:58Z</time>
      </trkpt>
      <trkpt lat="46.60426" lon="5.50586">
        <ele>310.4</ele>
        <time>2022-02-05T13:05:59Z</time>
      </trkpt>
      <trkpt lat="46.60443" lon="5.50599">
        <ele>311.4</ele>
        <time>2022-02-05T13:06:04Z</time>
      </trkpt>
      <trkpt lat="46.60456" lon="5.50609">
        <ele>312.4</ele>
        <time>2022-02-05T13:06:08Z</time>
      </trkpt>
      <trkpt lat="46.6046" lon="5.50612">
        <ele>312.8</ele>
        <time>2022-02-05T13:06:09Z</time>
      </trkpt>
      <trkpt lat="46.60481" lon="5.50626">
        <ele>314</ele>
        <time>2022-02-05T13:06:15Z</time>
      </trkpt>
      <trkpt lat="46.60495" lon="5.50635">
        <ele>315.2</ele>
        <time>2022-02-05T13:06:19Z</time>
      </trkpt>
      <trkpt lat="46.60506" lon="5.50642">
        <ele>316</ele>
        <time>2022-02-05T13:06:22Z</time>
      </trkpt>
      <trkpt lat="46.6051" lon="5.50644">
        <ele>316.6</ele>
        <time>2022-02-05T13:06:23Z</time>
      </trkpt>
      <trkpt lat="46.60526" lon="5.5065">
        <ele>317.8</ele>
        <time>2022-02-05T13:06:27Z</time>
      </trkpt>
      <trkpt lat="46.60535" lon="5.50653">
        <ele>318.6</ele>
        <time>2022-02-05T13:06:29Z</time>
      </trkpt>
      <trkpt lat="46.60542" lon="5.50654">
        <ele>319.2</ele>
        <time>2022-02-05T13:06:31Z</time>
      </trkpt>
      <trkpt lat="46.60554" lon="5.50656">
        <ele>320.4</ele>
        <time>2022-02-05T13:06:34Z</time>
      </trkpt>
      <trkpt lat="46.60568" lon="5.50654">
        <ele>321.2</ele>
        <time>2022-02-05T13:06:38Z</time>
      </trkpt>
      <trkpt lat="46.60573" lon="5.50653">
        <ele>321.4</ele>
        <time>2022-02-05T13:06:39Z</time>
      </trkpt>
      <trkpt lat="46.60588" lon="5.50648">
        <ele>322.2</ele>
        <time>2022-02-05T13:06:43Z</time>
      </trkpt>
      <trkpt lat="46.60595" lon="5.50646">
        <ele>322.8</ele>
        <time>2022-02-05T13:06:45Z</time>
      </trkpt>
      <trkpt lat="46.60606" lon="5.50644">
        <ele>323.4</ele>
        <time>2022-02-05T13:06:48Z</time>
      </trkpt>
      <trkpt lat="46.60614" lon="5.50642">
        <ele>323.8</ele>
        <time>2022-02-05T13:06:50Z</time>
      </trkpt>
      <trkpt lat="46.60636" lon="5.50643">
        <ele>325</ele>
        <time>2022-02-05T13:06:56Z</time>
      </trkpt>
      <trkpt lat="46.60655" lon="5.50646">
        <ele>326</ele>
        <time>2022-02-05T13:07:01Z</time>
      </trkpt>
      <trkpt lat="46.6067" lon="5.50648">
        <ele>326.8</ele>
        <time>2022-02-05T13:07:05Z</time>
      </trkpt>
      <trkpt lat="46.60674" lon="5.50649">
        <ele>327</ele>
        <time>2022-02-05T13:07:06Z</time>
      </trkpt>
      <trkpt lat="46.60696" lon="5.50652">
        <ele>328.2</ele>
        <time>2022-02-05T13:07:12Z</time>
      </trkpt>
      <trkpt lat="46.60711" lon="5.50653">
        <ele>329.2</ele>
        <time>2022-02-05T13:07:16Z</time>
      </trkpt>
      <trkpt lat="46.60715" lon="5.50652">
        <ele>329.4</ele>
        <time>2022-02-05T13:07:17Z</time>
      </trkpt>
      <trkpt lat="46.60734" lon="5.5065">
        <ele>330.6</ele>
        <time>2022-02-05T13:07:22Z</time>
      </trkpt>
      <trkpt lat="46.60749" lon="5.50648">
        <ele>331.4</ele>
        <time>2022-02-05T13:07:26Z</time>
      </trkpt>
      <trkpt lat="46.60757" lon="5.50647">
        <ele>331.8</ele>
        <time>2022-02-05T13:07:28Z</time>
      </trkpt>
      <trkpt lat="46.6078" lon="5.50653">
        <ele>333</ele>
        <time>2022-02-05T13:07:34Z</time>
      </trkpt>
      <trkpt lat="46.60795" lon="5.50661">
        <ele>334</ele>
        <time>2022-02-05T13:07:38Z</time>
      </trkpt>
      <trkpt lat="46.60807" lon="5.50671">
        <ele>335.2</ele>
        <time>2022-02-05T13:07:42Z</time>
      </trkpt>
      <trkpt lat="46.60817" lon="5.50684">
        <ele>336.4</ele>
        <time>2022-02-05T13:07:46Z</time>
      </trkpt>
      <trkpt lat="46.60823" lon="5.50697">
        <ele>337</ele>
        <time>2022-02-05T13:07:49Z</time>
      </trkpt>
      <trkpt lat="46.60822" lon="5.50707">
        <ele>337.6</ele>
        <time>2022-02-05T13:07:51Z</time>
      </trkpt>
      <trkpt lat="46.6082" lon="5.50711">
        <ele>337.8</ele>
        <time>2022-02-05T13:07:52Z</time>
      </trkpt>
      <trkpt lat="46.6081" lon="5.50715">
        <ele>338.8</ele>
        <time>2022-02-05T13:07:55Z</time>
      </trkpt>
      <trkpt lat="46.60799" lon="5.50714">
        <ele>339.8</ele>
        <time>2022-02-05T13:07:58Z</time>
      </trkpt>
      <trkpt lat="46.60787" lon="5.50715">
        <ele>340.6</ele>
        <time>2022-02-05T13:08:01Z</time>
      </trkpt>
      <trkpt lat="46.60783" lon="5.50715">
        <ele>340.8</ele>
        <time>2022-02-05T13:08:02Z</time>
      </trkpt>
      <trkpt lat="46.6076" lon="5.50715">
        <ele>341.8</ele>
        <time>2022-02-05T13:08:08Z</time>
      </trkpt>
      <trkpt lat="46.60749" lon="5.50716">
        <ele>342.4</ele>
        <time>2022-02-05T13:08:11Z</time>
      </trkpt>
      <trkpt lat="46.60735" lon="5.50718">
        <ele>343</ele>
        <time>2022-02-05T13:08:14Z</time>
      </trkpt>
      <trkpt lat="46.60719" lon="5.50724">
        <ele>343.6</ele>
        <time>2022-02-05T13:08:18Z</time>
      </trkpt>
      <trkpt lat="46.60715" lon="5.50727">
        <ele>343.6</ele>
        <time>2022-02-05T13:08:19Z</time>
      </trkpt>
      <trkpt lat="46.60708" lon="5.50731">
        <ele>344</ele>
        <time>2022-02-05T13:08:21Z</time>
      </trkpt>
      <trkpt lat="46.60683" lon="5.50745">
        <ele>345.2</ele>
        <time>2022-02-05T13:08:27Z</time>
      </trkpt>
      <trkpt lat="46.60663" lon="5.50756">
        <ele>346.2</ele>
        <time>2022-02-05T13:08:32Z</time>
      </trkpt>
      <trkpt lat="46.6065" lon="5.50762">
        <ele>346.8</ele>
        <time>2022-02-05T13:08:35Z</time>
      </trkpt>
      <trkpt lat="46.60632" lon="5.50767">
        <ele>347.6</ele>
        <time>2022-02-05T13:08:39Z</time>
      </trkpt>
      <trkpt lat="46.60612" lon="5.50769">
        <ele>348.4</ele>
        <time>2022-02-05T13:08:44Z</time>
      </trkpt>
      <trkpt lat="46.60607" lon="5.50769">
        <ele>348.6</ele>
        <time>2022-02-05T13:08:45Z</time>
      </trkpt>
      <trkpt lat="46.60585" lon="5.50771">
        <ele>349.6</ele>
        <time>2022-02-05T13:08:50Z</time>
      </trkpt>
      <trkpt lat="46.60572" lon="5.50772">
        <ele>350.2</ele>
        <time>2022-02-05T13:08:53Z</time>
      </trkpt>
      <trkpt lat="46.60558" lon="5.50774">
        <ele>350.6</ele>
        <time>2022-02-05T13:08:56Z</time>
      </trkpt>
      <trkpt lat="46.60537" lon="5.50775">
        <ele>351.8</ele>
        <time>2022-02-05T13:09:01Z</time>
      </trkpt>
      <trkpt lat="46.60517" lon="5.50775">
        <ele>353</ele>
        <time>2022-02-05T13:09:06Z</time>
      </trkpt>
      <trkpt lat="46.60496" lon="5.50774">
        <ele>354</ele>
        <time>2022-02-05T13:09:11Z</time>
      </trkpt>
      <trkpt lat="46.60487" lon="5.50772">
        <ele>354.6</ele>
        <time>2022-02-05T13:09:13Z</time>
      </trkpt>
      <trkpt lat="46.60479" lon="5.50771">
        <ele>355.2</ele>
        <time>2022-02-05T13:09:15Z</time>
      </trkpt>
      <trkpt lat="46.60459" lon="5.50767">
        <ele>356.2</ele>
        <time>2022-02-05T13:09:20Z</time>
      </trkpt>
      <trkpt lat="46.60435" lon="5.50763">
        <ele>357.4</ele>
        <time>2022-02-05T13:09:26Z</time>
      </trkpt>
      <trkpt lat="46.60432" lon="5.50762">
        <ele>357.6</ele>
        <time>2022-02-05T13:09:27Z</time>
      </trkpt>
      <trkpt lat="46.60416" lon="5.50758">
        <ele>358.6</ele>
        <time>2022-02-05T13:09:31Z</time>
      </trkpt>
      <trkpt lat="46.60404" lon="5.50754">
        <ele>359.6</ele>
        <time>2022-02-05T13:09:34Z</time>
      </trkpt>
      <trkpt lat="46.60397" lon="5.50751">
        <ele>359.8</ele>
        <time>2022-02-05T13:09:36Z</time>
      </trkpt>
      <trkpt lat="46.60385" lon="5.50745">
        <ele>360.8</ele>
        <time>2022-02-05T13:09:39Z</time>
      </trkpt>
      <trkpt lat="46.60362" lon="5.50736">
        <ele>361.8</ele>
        <time>2022-02-05T13:09:45Z</time>
      </trkpt>
      <trkpt lat="46.60354" lon="5.50733">
        <ele>362.4</ele>
        <time>2022-02-05T13:09:47Z</time>
      </trkpt>
      <trkpt lat="46.60341" lon="5.5073">
        <ele>363</ele>
        <time>2022-02-05T13:09:50Z</time>
      </trkpt>
      <trkpt lat="46.60324" lon="5.50728">
        <ele>363.6</ele>
        <time>2022-02-05T13:09:54Z</time>
      </trkpt>
      <trkpt lat="46.60316" lon="5.50728">
        <ele>364</ele>
        <time>2022-02-05T13:09:56Z</time>
      </trkpt>
      <trkpt lat="46.60285" lon="5.50728">
        <ele>365.2</ele>
        <time>2022-02-05T13:10:03Z</time>
      </trkpt>
      <trkpt lat="46.60269" lon="5.50729">
        <ele>365.8</ele>
        <time>2022-02-05T13:10:07Z</time>
      </trkpt>
      <trkpt lat="46.6026" lon="5.5073">
        <ele>366</ele>
        <time>2022-02-05T13:10:09Z</time>
      </trkpt>
      <trkpt lat="46.60255" lon="5.50732">
        <ele>366.2</ele>
        <time>2022-02-05T13:10:10Z</time>
      </trkpt>
      <trkpt lat="46.60251" lon="5.50732">
        <ele>366.4</ele>
        <time>2022-02-05T13:10:11Z</time>
      </trkpt>
      <trkpt lat="46.60239" lon="5.50731">
        <ele>367</ele>
        <time>2022-02-05T13:10:14Z</time>
      </trkpt>
      <trkpt lat="46.60234" lon="5.50729">
        <ele>367.4</ele>
        <time>2022-02-05T13:10:15Z</time>
      </trkpt>
      <trkpt lat="46.60219" lon="5.50725">
        <ele>368.4</ele>
        <time>2022-02-05T13:10:19Z</time>
      </trkpt>
      <trkpt lat="46.60215" lon="5.50723">
        <ele>368.6</ele>
        <time>2022-02-05T13:10:20Z</time>
      </trkpt>
      <trkpt lat="46.60202" lon="5.50719">
        <ele>369.4</ele>
        <time>2022-02-05T13:10:24Z</time>
      </trkpt>
      <trkpt lat="46.60195" lon="5.50716">
        <ele>370</ele>
        <time>2022-02-05T13:10:26Z</time>
      </trkpt>
      <trkpt lat="46.60187" lon="5.50713">
        <ele>370.6</ele>
        <time>2022-02-05T13:10:29Z</time>
      </trkpt>
      <trkpt lat="46.60184" lon="5.50711">
        <ele>371</ele>
        <time>2022-02-05T13:10:30Z</time>
      </trkpt>
      <trkpt lat="46.60174" lon="5.50706">
        <ele>371.8</ele>
        <time>2022-02-05T13:10:33Z</time>
      </trkpt>
      <trkpt lat="46.60165" lon="5.50701">
        <ele>372.4</ele>
        <time>2022-02-05T13:10:35Z</time>
      </trkpt>
      <trkpt lat="46.60152" lon="5.50694">
        <ele>373.2</ele>
        <time>2022-02-05T13:10:39Z</time>
      </trkpt>
      <trkpt lat="46.60146" lon="5.50688">
        <ele>373.6</ele>
        <time>2022-02-05T13:10:41Z</time>
      </trkpt>
      <trkpt lat="46.60131" lon="5.50678">
        <ele>374.4</ele>
        <time>2022-02-05T13:10:44Z</time>
      </trkpt>
      <trkpt lat="46.60127" lon="5.50674">
        <ele>374.6</ele>
        <time>2022-02-05T13:10:45Z</time>
      </trkpt>
      <trkpt lat="46.60107" lon="5.50656">
        <ele>375.6</ele>
        <time>2022-02-05T13:10:49Z</time>
      </trkpt>
      <trkpt lat="46.60102" lon="5.50652">
        <ele>375.8</ele>
        <time>2022-02-05T13:10:50Z</time>
      </trkpt>
      <trkpt lat="46.60088" lon="5.50637">
        <ele>376.8</ele>
        <time>2022-02-05T13:10:54Z</time>
      </trkpt>
      <trkpt lat="46.60084" lon="5.50633">
        <ele>377</ele>
        <time>2022-02-05T13:10:55Z</time>
      </trkpt>
      <trkpt lat="46.60065" lon="5.50616">
        <ele>378</ele>
        <time>2022-02-05T13:11:00Z</time>
      </trkpt>
      <trkpt lat="46.60047" lon="5.50597">
        <ele>379</ele>
        <time>2022-02-05T13:11:05Z</time>
      </trkpt>
      <trkpt lat="46.60041" lon="5.50589">
        <ele>379.4</ele>
        <time>2022-02-05T13:11:07Z</time>
      </trkpt>
      <trkpt lat="46.60023" lon="5.50572">
        <ele>380.2</ele>
        <time>2022-02-05T13:11:12Z</time>
      </trkpt>
      <trkpt lat="46.60005" lon="5.50557">
        <ele>381.2</ele>
        <time>2022-02-05T13:11:17Z</time>
      </trkpt>
      <trkpt lat="46.59977" lon="5.50544">
        <ele>382.2</ele>
        <time>2022-02-05T13:11:24Z</time>
      </trkpt>
      <trkpt lat="46.59973" lon="5.50543">
        <ele>382.4</ele>
        <time>2022-02-05T13:11:25Z</time>
      </trkpt>
      <trkpt lat="46.5996" lon="5.50542">
        <ele>383.4</ele>
        <time>2022-02-05T13:11:28Z</time>
      </trkpt>
      <trkpt lat="46.59956" lon="5.50542">
        <ele>383.4</ele>
        <time>2022-02-05T13:11:29Z</time>
      </trkpt>
      <trkpt lat="46.59948" lon="5.50545">
        <ele>384</ele>
        <time>2022-02-05T13:11:31Z</time>
      </trkpt>
      <trkpt lat="46.59941" lon="5.50551">
        <ele>384.4</ele>
        <time>2022-02-05T13:11:33Z</time>
      </trkpt>
      <trkpt lat="46.59935" lon="5.50562">
        <ele>384.8</ele>
        <time>2022-02-05T13:11:35Z</time>
      </trkpt>
      <trkpt lat="46.59933" lon="5.50573">
        <ele>385</ele>
        <time>2022-02-05T13:11:37Z</time>
      </trkpt>
      <trkpt lat="46.59936" lon="5.50585">
        <ele>385.4</ele>
        <time>2022-02-05T13:11:39Z</time>
      </trkpt>
      <trkpt lat="46.59943" lon="5.50592">
        <ele>385.8</ele>
        <time>2022-02-05T13:11:41Z</time>
      </trkpt>
      <trkpt lat="46.59947" lon="5.50592">
        <ele>386.4</ele>
        <time>2022-02-05T13:11:42Z</time>
      </trkpt>
      <trkpt lat="46.59952" lon="5.50592">
        <ele>386.6</ele>
        <time>2022-02-05T13:11:43Z</time>
      </trkpt>
      <trkpt lat="46.59965" lon="5.50586">
        <ele>387.2</ele>
        <time>2022-02-05T13:11:46Z</time>
      </trkpt>
      <trkpt lat="46.59973" lon="5.50584">
        <ele>387.4</ele>
        <time>2022-02-05T13:11:48Z</time>
      </trkpt>
      <trkpt lat="46.59983" lon="5.50584">
        <ele>387.8</ele>
        <time>2022-02-05T13:11:50Z</time>
      </trkpt>
      <trkpt lat="46.59987" lon="5.50585">
        <ele>388</ele>
        <time>2022-02-05T13:11:51Z</time>
      </trkpt>
      <trkpt lat="46.59991" lon="5.50587">
        <ele>388.2</ele>
        <time>2022-02-05T13:11:52Z</time>
      </trkpt>
      <trkpt lat="46.60001" lon="5.50596">
        <ele>389.2</ele>
        <time>2022-02-05T13:11:55Z</time>
      </trkpt>
      <trkpt lat="46.60004" lon="5.506">
        <ele>389.2</ele>
        <time>2022-02-05T13:11:56Z</time>
      </trkpt>
      <trkpt lat="46.60013" lon="5.5061">
        <ele>390.2</ele>
        <time>2022-02-05T13:11:59Z</time>
      </trkpt>
      <trkpt lat="46.60027" lon="5.50622">
        <ele>391.4</ele>
        <time>2022-02-05T13:12:03Z</time>
      </trkpt>
      <trkpt lat="46.6003" lon="5.50625">
        <ele>391.6</ele>
        <time>2022-02-05T13:12:04Z</time>
      </trkpt>
      <trkpt lat="46.60036" lon="5.50636">
        <ele>392.2</ele>
        <time>2022-02-05T13:12:06Z</time>
      </trkpt>
      <trkpt lat="46.60037" lon="5.50642">
        <ele>392.4</ele>
        <time>2022-02-05T13:12:07Z</time>
      </trkpt>
      <trkpt lat="46.60037" lon="5.50647">
        <ele>392.8</ele>
        <time>2022-02-05T13:12:08Z</time>
      </trkpt>
      <trkpt lat="46.60033" lon="5.50653">
        <ele>393.2</ele>
        <time>2022-02-05T13:12:10Z</time>
      </trkpt>
      <trkpt lat="46.60029" lon="5.50653">
        <ele>393.6</ele>
        <time>2022-02-05T13:12:11Z</time>
      </trkpt>
      <trkpt lat="46.6002" lon="5.50644">
        <ele>394.2</ele>
        <time>2022-02-05T13:12:14Z</time>
      </trkpt>
      <trkpt lat="46.60011" lon="5.50631">
        <ele>394.8</ele>
        <time>2022-02-05T13:12:17Z</time>
      </trkpt>
      <trkpt lat="46.59995" lon="5.50614">
        <ele>395.6</ele>
        <time>2022-02-05T13:12:22Z</time>
      </trkpt>
      <trkpt lat="46.59988" lon="5.50609">
        <ele>395.8</ele>
        <time>2022-02-05T13:12:24Z</time>
      </trkpt>
      <trkpt lat="46.59973" lon="5.50605">
        <ele>396.8</ele>
        <time>2022-02-05T13:12:28Z</time>
      </trkpt>
      <trkpt lat="46.59969" lon="5.50606">
        <ele>397</ele>
        <time>2022-02-05T13:12:29Z</time>
      </trkpt>
      <trkpt lat="46.59963" lon="5.5061">
        <ele>397.2</ele>
        <time>2022-02-05T13:12:31Z</time>
      </trkpt>
      <trkpt lat="46.5996" lon="5.50614">
        <ele>397.4</ele>
        <time>2022-02-05T13:12:32Z</time>
      </trkpt>
      <trkpt lat="46.59951" lon="5.50639">
        <ele>398</ele>
        <time>2022-02-05T13:12:37Z</time>
      </trkpt>
      <trkpt lat="46.59951" lon="5.50644">
        <ele>398.2</ele>
        <time>2022-02-05T13:12:38Z</time>
      </trkpt>
      <trkpt lat="46.59946" lon="5.50671">
        <ele>399.4</ele>
        <time>2022-02-05T13:12:43Z</time>
      </trkpt>
      <trkpt lat="46.59945" lon="5.50676">
        <ele>399.4</ele>
        <time>2022-02-05T13:12:44Z</time>
      </trkpt>
      <trkpt lat="46.59943" lon="5.50692">
        <ele>400.4</ele>
        <time>2022-02-05T13:12:47Z</time>
      </trkpt>
      <trkpt lat="46.59935" lon="5.50722">
        <ele>401.4</ele>
        <time>2022-02-05T13:12:53Z</time>
      </trkpt>
      <trkpt lat="46.59933" lon="5.50727">
        <ele>401.6</ele>
        <time>2022-02-05T13:12:54Z</time>
      </trkpt>
      <trkpt lat="46.59923" lon="5.50749">
        <ele>402.8</ele>
        <time>2022-02-05T13:12:59Z</time>
      </trkpt>
      <trkpt lat="46.59922" lon="5.50754">
        <ele>402.8</ele>
        <time>2022-02-05T13:13:00Z</time>
      </trkpt>
      <trkpt lat="46.59914" lon="5.5077">
        <ele>403.8</ele>
        <time>2022-02-05T13:13:04Z</time>
      </trkpt>
      <trkpt lat="46.59908" lon="5.50783">
        <ele>404.4</ele>
        <time>2022-02-05T13:13:07Z</time>
      </trkpt>
      <trkpt lat="46.59902" lon="5.50796">
        <ele>405.2</ele>
        <time>2022-02-05T13:13:10Z</time>
      </trkpt>
      <trkpt lat="46.59896" lon="5.50808">
        <ele>405.8</ele>
        <time>2022-02-05T13:13:13Z</time>
      </trkpt>
      <trkpt lat="46.59892" lon="5.50817">
        <ele>406.2</ele>
        <time>2022-02-05T13:13:15Z</time>
      </trkpt>
      <trkpt lat="46.59885" lon="5.5084">
        <ele>407.6</ele>
        <time>2022-02-05T13:13:20Z</time>
      </trkpt>
      <trkpt lat="46.59888" lon="5.50872">
        <ele>409</ele>
        <time>2022-02-05T13:13:26Z</time>
      </trkpt>
      <trkpt lat="46.599" lon="5.50893">
        <ele>410.2</ele>
        <time>2022-02-05T13:13:31Z</time>
      </trkpt>
      <trkpt lat="46.59913" lon="5.5091">
        <ele>411.2</ele>
        <time>2022-02-05T13:13:36Z</time>
      </trkpt>
      <trkpt lat="46.59918" lon="5.50917">
        <ele>411.6</ele>
        <time>2022-02-05T13:13:38Z</time>
      </trkpt>
      <trkpt lat="46.59926" lon="5.50938">
        <ele>412.4</ele>
        <time>2022-02-05T13:13:43Z</time>
      </trkpt>
      <trkpt lat="46.59926" lon="5.50961">
        <ele>413.6</ele>
        <time>2022-02-05T13:13:48Z</time>
      </trkpt>
      <trkpt lat="46.59925" lon="5.50981">
        <ele>414.6</ele>
        <time>2022-02-05T13:13:52Z</time>
      </trkpt>
      <trkpt lat="46.59923" lon="5.50988">
        <ele>415</ele>
        <time>2022-02-05T13:13:54Z</time>
      </trkpt>
      <trkpt lat="46.59918" lon="5.51006">
        <ele>415.8</ele>
        <time>2022-02-05T13:13:58Z</time>
      </trkpt>
      <trkpt lat="46.59913" lon="5.51017">
        <ele>416.4</ele>
        <time>2022-02-05T13:14:01Z</time>
      </trkpt>
      <trkpt lat="46.59912" lon="5.51021">
        <ele>416.6</ele>
        <time>2022-02-05T13:14:02Z</time>
      </trkpt>
      <trkpt lat="46.5991" lon="5.51026">
        <ele>417</ele>
        <time>2022-02-05T13:14:03Z</time>
      </trkpt>
      <trkpt lat="46.59909" lon="5.5103">
        <ele>417.2</ele>
        <time>2022-02-05T13:14:04Z</time>
      </trkpt>
      <trkpt lat="46.59904" lon="5.51039">
        <ele>417.8</ele>
        <time>2022-02-05T13:14:07Z</time>
      </trkpt>
      <trkpt lat="46.59901" lon="5.51041">
        <ele>418</ele>
        <time>2022-02-05T13:14:08Z</time>
      </trkpt>
      <trkpt lat="46.59892" lon="5.51045">
        <ele>418.4</ele>
        <time>2022-02-05T13:14:10Z</time>
      </trkpt>
      <trkpt lat="46.59878" lon="5.51047">
        <ele>418.8</ele>
        <time>2022-02-05T13:14:14Z</time>
      </trkpt>
      <trkpt lat="46.59875" lon="5.51048">
        <ele>419</ele>
        <time>2022-02-05T13:14:15Z</time>
      </trkpt>
      <trkpt lat="46.59871" lon="5.51049">
        <ele>419.2</ele>
        <time>2022-02-05T13:14:16Z</time>
      </trkpt>
      <trkpt lat="46.59862" lon="5.5105">
        <ele>419.6</ele>
        <time>2022-02-05T13:14:18Z</time>
      </trkpt>
      <trkpt lat="46.59852" lon="5.51053">
        <ele>420.2</ele>
        <time>2022-02-05T13:14:20Z</time>
      </trkpt>
      <trkpt lat="46.59837" lon="5.51055">
        <ele>420.6</ele>
        <time>2022-02-05T13:14:23Z</time>
      </trkpt>
      <trkpt lat="46.59827" lon="5.51056">
        <ele>421.2</ele>
        <time>2022-02-05T13:14:26Z</time>
      </trkpt>
      <trkpt lat="46.59817" lon="5.51059">
        <ele>421.8</ele>
        <time>2022-02-05T13:14:29Z</time>
      </trkpt>
      <trkpt lat="46.59812" lon="5.51061">
        <ele>422.4</ele>
        <time>2022-02-05T13:14:31Z</time>
      </trkpt>
      <trkpt lat="46.598" lon="5.51064">
        <ele>423.2</ele>
        <time>2022-02-05T13:14:35Z</time>
      </trkpt>
      <trkpt lat="46.59796" lon="5.51064">
        <ele>423.4</ele>
        <time>2022-02-05T13:14:36Z</time>
      </trkpt>
      <trkpt lat="46.59779" lon="5.51058">
        <ele>424.6</ele>
        <time>2022-02-05T13:14:41Z</time>
      </trkpt>
      <trkpt lat="46.59761" lon="5.51052">
        <ele>425.6</ele>
        <time>2022-02-05T13:14:46Z</time>
      </trkpt>
      <trkpt lat="46.59758" lon="5.5105">
        <ele>425.8</ele>
        <time>2022-02-05T13:14:47Z</time>
      </trkpt>
      <trkpt lat="46.59742" lon="5.51044">
        <ele>426.8</ele>
        <time>2022-02-05T13:14:51Z</time>
      </trkpt>
      <trkpt lat="46.59734" lon="5.51039">
        <ele>427.4</ele>
        <time>2022-02-05T13:14:53Z</time>
      </trkpt>
      <trkpt lat="46.59725" lon="5.51037">
        <ele>428</ele>
        <time>2022-02-05T13:14:56Z</time>
      </trkpt>
      <trkpt lat="46.59709" lon="5.51029">
        <ele>429.2</ele>
        <time>2022-02-05T13:15:01Z</time>
      </trkpt>
      <trkpt lat="46.59693" lon="5.51028">
        <ele>430.2</ele>
        <time>2022-02-05T13:15:06Z</time>
      </trkpt>
      <trkpt lat="46.5969" lon="5.51027">
        <ele>430.4</ele>
        <time>2022-02-05T13:15:07Z</time>
      </trkpt>
      <trkpt lat="46.59687" lon="5.51027">
        <ele>430.6</ele>
        <time>2022-02-05T13:15:08Z</time>
      </trkpt>
      <trkpt lat="46.59679" lon="5.51026">
        <ele>431.2</ele>
        <time>2022-02-05T13:15:11Z</time>
      </trkpt>
      <trkpt lat="46.59667" lon="5.51022">
        <ele>432.6</ele>
        <time>2022-02-05T13:15:16Z</time>
      </trkpt>
      <trkpt lat="46.5966" lon="5.51021">
        <ele>433.2</ele>
        <time>2022-02-05T13:15:18Z</time>
      </trkpt>
      <trkpt lat="46.59655" lon="5.5102">
        <ele>433.8</ele>
        <time>2022-02-05T13:15:20Z</time>
      </trkpt>
      <trkpt lat="46.59639" lon="5.51014">
        <ele>434.6</ele>
        <time>2022-02-05T13:15:25Z</time>
      </trkpt>
      <trkpt lat="46.59636" lon="5.51014">
        <ele>434.8</ele>
        <time>2022-02-05T13:15:26Z</time>
      </trkpt>
      <trkpt lat="46.59634" lon="5.51013">
        <ele>435</ele>
        <time>2022-02-05T13:15:27Z</time>
      </trkpt>
      <trkpt lat="46.59623" lon="5.51007">
        <ele>435.6</ele>
        <time>2022-02-05T13:15:30Z</time>
      </trkpt>
      <trkpt lat="46.59616" lon="5.51004">
        <ele>436.2</ele>
        <time>2022-02-05T13:15:32Z</time>
      </trkpt>
      <trkpt lat="46.59601" lon="5.50999">
        <ele>437</ele>
        <time>2022-02-05T13:15:36Z</time>
      </trkpt>
      <trkpt lat="46.59597" lon="5.50998">
        <ele>437.4</ele>
        <time>2022-02-05T13:15:37Z</time>
      </trkpt>
      <trkpt lat="46.59576" lon="5.50992">
        <ele>438.4</ele>
        <time>2022-02-05T13:15:42Z</time>
      </trkpt>
      <trkpt lat="46.59566" lon="5.50991">
        <ele>439</ele>
        <time>2022-02-05T13:15:44Z</time>
      </trkpt>
      <trkpt lat="46.59549" lon="5.50987">
        <ele>439.6</ele>
        <time>2022-02-05T13:15:48Z</time>
      </trkpt>
      <trkpt lat="46.5954" lon="5.50988">
        <ele>440</ele>
        <time>2022-02-05T13:15:50Z</time>
      </trkpt>
      <trkpt lat="46.59529" lon="5.50987">
        <ele>440.8</ele>
        <time>2022-02-05T13:15:53Z</time>
      </trkpt>
      <trkpt lat="46.59515" lon="5.50987">
        <ele>441.4</ele>
        <time>2022-02-05T13:15:57Z</time>
      </trkpt>
      <trkpt lat="46.59508" lon="5.50987">
        <ele>442</ele>
        <time>2022-02-05T13:15:59Z</time>
      </trkpt>
      <trkpt lat="46.5949" lon="5.50992">
        <ele>443.2</ele>
        <time>2022-02-05T13:16:04Z</time>
      </trkpt>
      <trkpt lat="46.59475" lon="5.50999">
        <ele>444.2</ele>
        <time>2022-02-05T13:16:09Z</time>
      </trkpt>
      <trkpt lat="46.59471" lon="5.51001">
        <ele>444.2</ele>
        <time>2022-02-05T13:16:10Z</time>
      </trkpt>
      <trkpt lat="46.59453" lon="5.51016">
        <ele>445.4</ele>
        <time>2022-02-05T13:16:15Z</time>
      </trkpt>
      <trkpt lat="46.59434" lon="5.51043">
        <ele>446.4</ele>
        <time>2022-02-05T13:16:22Z</time>
      </trkpt>
      <trkpt lat="46.59429" lon="5.51068">
        <ele>447.8</ele>
        <time>2022-02-05T13:16:27Z</time>
      </trkpt>
      <trkpt lat="46.59427" lon="5.51078">
        <ele>448.6</ele>
        <time>2022-02-05T13:16:29Z</time>
      </trkpt>
      <trkpt lat="46.59424" lon="5.51093">
        <ele>449.2</ele>
        <time>2022-02-05T13:16:32Z</time>
      </trkpt>
      <trkpt lat="46.59419" lon="5.51116">
        <ele>450.2</ele>
        <time>2022-02-05T13:16:37Z</time>
      </trkpt>
      <trkpt lat="46.59419" lon="5.51142">
        <ele>451.2</ele>
        <time>2022-02-05T13:16:42Z</time>
      </trkpt>
      <trkpt lat="46.5942" lon="5.51152">
        <ele>451.8</ele>
        <time>2022-02-05T13:16:44Z</time>
      </trkpt>
      <trkpt lat="46.59423" lon="5.51162">
        <ele>452.4</ele>
        <time>2022-02-05T13:16:46Z</time>
      </trkpt>
      <trkpt lat="46.59428" lon="5.51181">
        <ele>453.4</ele>
        <time>2022-02-05T13:16:50Z</time>
      </trkpt>
      <trkpt lat="46.5943" lon="5.51196">
        <ele>454.2</ele>
        <time>2022-02-05T13:16:53Z</time>
      </trkpt>
      <trkpt lat="46.59429" lon="5.51206">
        <ele>454.6</ele>
        <time>2022-02-05T13:16:55Z</time>
      </trkpt>
      <trkpt lat="46.59427" lon="5.51226">
        <ele>455.6</ele>
        <time>2022-02-05T13:16:59Z</time>
      </trkpt>
      <trkpt lat="46.59423" lon="5.5125">
        <ele>456.4</ele>
        <time>2022-02-05T13:17:04Z</time>
      </trkpt>
      <trkpt lat="46.59423" lon="5.5126">
        <ele>456.6</ele>
        <time>2022-02-05T13:17:06Z</time>
      </trkpt>
      <trkpt lat="46.59427" lon="5.51274">
        <ele>457.6</ele>
        <time>2022-02-05T13:17:09Z</time>
      </trkpt>
      <trkpt lat="46.59429" lon="5.51278">
        <ele>458</ele>
        <time>2022-02-05T13:17:10Z</time>
      </trkpt>
      <trkpt lat="46.59444" lon="5.513">
        <ele>459</ele>
        <time>2022-02-05T13:17:15Z</time>
      </trkpt>
      <trkpt lat="46.59448" lon="5.51304">
        <ele>459.2</ele>
        <time>2022-02-05T13:17:16Z</time>
      </trkpt>
      <trkpt lat="46.59455" lon="5.51315">
        <ele>459.6</ele>
        <time>2022-02-05T13:17:18Z</time>
      </trkpt>
      <trkpt lat="46.59466" lon="5.51332">
        <ele>460.2</ele>
        <time>2022-02-05T13:17:21Z</time>
      </trkpt>
      <trkpt lat="46.59469" lon="5.51337">
        <ele>460.4</ele>
        <time>2022-02-05T13:17:22Z</time>
      </trkpt>
      <trkpt lat="46.59492" lon="5.51366">
        <ele>461.8</ele>
        <time>2022-02-05T13:17:28Z</time>
      </trkpt>
      <trkpt lat="46.59497" lon="5.5137">
        <ele>462</ele>
        <time>2022-02-05T13:17:29Z</time>
      </trkpt>
      <trkpt lat="46.59502" lon="5.51374">
        <ele>462.2</ele>
        <time>2022-02-05T13:17:30Z</time>
      </trkpt>
      <trkpt lat="46.59537" lon="5.51389">
        <ele>462.6</ele>
        <time>2022-02-05T13:17:36Z</time>
      </trkpt>
      <trkpt lat="46.59575" lon="5.51396">
        <ele>461.8</ele>
        <time>2022-02-05T13:17:41Z</time>
      </trkpt>
      <trkpt lat="46.59598" lon="5.51399">
        <ele>461.2</ele>
        <time>2022-02-05T13:17:44Z</time>
      </trkpt>
      <trkpt lat="46.59612" lon="5.51405">
        <ele>460.6</ele>
        <time>2022-02-05T13:17:46Z</time>
      </trkpt>
      <trkpt lat="46.59618" lon="5.5141">
        <ele>460.4</ele>
        <time>2022-02-05T13:17:47Z</time>
      </trkpt>
      <trkpt lat="46.59634" lon="5.51425">
        <ele>460.2</ele>
        <time>2022-02-05T13:17:50Z</time>
      </trkpt>
      <trkpt lat="46.59658" lon="5.51444">
        <ele>460.6</ele>
        <time>2022-02-05T13:17:55Z</time>
      </trkpt>
      <trkpt lat="46.59663" lon="5.51447">
        <ele>460.6</ele>
        <time>2022-02-05T13:17:56Z</time>
      </trkpt>
      <trkpt lat="46.59668" lon="5.51449">
        <ele>460.8</ele>
        <time>2022-02-05T13:17:57Z</time>
      </trkpt>
      <trkpt lat="46.59682" lon="5.51455">
        <ele>461.6</ele>
        <time>2022-02-05T13:18:00Z</time>
      </trkpt>
      <trkpt lat="46.59701" lon="5.51465">
        <ele>462.8</ele>
        <time>2022-02-05T13:18:04Z</time>
      </trkpt>
      <trkpt lat="46.59706" lon="5.51467">
        <ele>463</ele>
        <time>2022-02-05T13:18:05Z</time>
      </trkpt>
      <trkpt lat="46.59723" lon="5.51477">
        <ele>464.2</ele>
        <time>2022-02-05T13:18:09Z</time>
      </trkpt>
      <trkpt lat="46.59728" lon="5.51479">
        <ele>464.4</ele>
        <time>2022-02-05T13:18:10Z</time>
      </trkpt>
      <trkpt lat="46.59749" lon="5.51485">
        <ele>465.4</ele>
        <time>2022-02-05T13:18:14Z</time>
      </trkpt>
      <trkpt lat="46.59765" lon="5.51491">
        <ele>465.4</ele>
        <time>2022-02-05T13:18:17Z</time>
      </trkpt>
      <trkpt lat="46.59767" lon="5.51496">
        <ele>465.6</ele>
        <time>2022-02-05T13:18:18Z</time>
      </trkpt>
      <trkpt lat="46.59769" lon="5.51512">
        <ele>465.8</ele>
        <time>2022-02-05T13:18:21Z</time>
      </trkpt>
      <trkpt lat="46.59779" lon="5.51544">
        <ele>466.6</ele>
        <time>2022-02-05T13:18:27Z</time>
      </trkpt>
      <trkpt lat="46.59781" lon="5.51548">
        <ele>466.6</ele>
        <time>2022-02-05T13:18:28Z</time>
      </trkpt>
      <trkpt lat="46.59789" lon="5.51561">
        <ele>467.2</ele>
        <time>2022-02-05T13:18:31Z</time>
      </trkpt>
      <trkpt lat="46.59798" lon="5.51569">
        <ele>467.8</ele>
        <time>2022-02-05T13:18:34Z</time>
      </trkpt>
      <trkpt lat="46.59814" lon="5.51569">
        <ele>469.2</ele>
        <time>2022-02-05T13:18:39Z</time>
      </trkpt>
      <trkpt lat="46.59817" lon="5.51569">
        <ele>469.2</ele>
        <time>2022-02-05T13:18:40Z</time>
      </trkpt>
      <trkpt lat="46.59821" lon="5.51573">
        <ele>470</ele>
        <time>2022-02-05T13:18:42Z</time>
      </trkpt>
      <trkpt lat="46.59822" lon="5.51576">
        <ele>470.2</ele>
        <time>2022-02-05T13:18:43Z</time>
      </trkpt>
      <trkpt lat="46.59819" lon="5.51587">
        <ele>471</ele>
        <time>2022-02-05T13:18:46Z</time>
      </trkpt>
      <trkpt lat="46.59816" lon="5.51594">
        <ele>471.6</ele>
        <time>2022-02-05T13:18:48Z</time>
      </trkpt>
      <trkpt lat="46.59811" lon="5.51611">
        <ele>473</ele>
        <time>2022-02-05T13:18:52Z</time>
      </trkpt>
      <trkpt lat="46.5981" lon="5.51615">
        <ele>473.2</ele>
        <time>2022-02-05T13:18:53Z</time>
      </trkpt>
      <trkpt lat="46.59808" lon="5.51628">
        <ele>474</ele>
        <time>2022-02-05T13:18:56Z</time>
      </trkpt>
      <trkpt lat="46.59807" lon="5.51641">
        <ele>475</ele>
        <time>2022-02-05T13:18:59Z</time>
      </trkpt>
      <trkpt lat="46.59806" lon="5.51651">
        <ele>475.6</ele>
        <time>2022-02-05T13:19:01Z</time>
      </trkpt>
      <trkpt lat="46.59805" lon="5.51665">
        <ele>476.2</ele>
        <time>2022-02-05T13:19:04Z</time>
      </trkpt>
      <trkpt lat="46.59802" lon="5.51695">
        <ele>477.4</ele>
        <time>2022-02-05T13:19:10Z</time>
      </trkpt>
      <trkpt lat="46.59802" lon="5.51713">
        <ele>478</ele>
        <time>2022-02-05T13:19:13Z</time>
      </trkpt>
      <trkpt lat="46.59803" lon="5.51719">
        <ele>478</ele>
        <time>2022-02-05T13:19:14Z</time>
      </trkpt>
      <trkpt lat="46.59805" lon="5.51725">
        <ele>478</ele>
        <time>2022-02-05T13:19:15Z</time>
      </trkpt>
      <trkpt lat="46.59817" lon="5.51748">
        <ele>478</ele>
        <time>2022-02-05T13:19:19Z</time>
      </trkpt>
      <trkpt lat="46.59824" lon="5.51768">
        <ele>478</ele>
        <time>2022-02-05T13:19:22Z</time>
      </trkpt>
      <trkpt lat="46.59827" lon="5.51783">
        <ele>478</ele>
        <time>2022-02-05T13:19:24Z</time>
      </trkpt>
      <trkpt lat="46.59828" lon="5.5179">
        <ele>478</ele>
        <time>2022-02-05T13:19:25Z</time>
      </trkpt>
      <trkpt lat="46.59827" lon="5.51797">
        <ele>478</ele>
        <time>2022-02-05T13:19:26Z</time>
      </trkpt>
      <trkpt lat="46.59822" lon="5.51817">
        <ele>478.2</ele>
        <time>2022-02-05T13:19:29Z</time>
      </trkpt>
      <trkpt lat="46.59825" lon="5.51833">
        <ele>478.4</ele>
        <time>2022-02-05T13:19:32Z</time>
      </trkpt>
      <trkpt lat="46.59828" lon="5.51837">
        <ele>478.8</ele>
        <time>2022-02-05T13:19:33Z</time>
      </trkpt>
      <trkpt lat="46.59835" lon="5.51838">
        <ele>479</ele>
        <time>2022-02-05T13:19:35Z</time>
      </trkpt>
      <trkpt lat="46.59849" lon="5.51832">
        <ele>479.8</ele>
        <time>2022-02-05T13:19:39Z</time>
      </trkpt>
      <trkpt lat="46.59852" lon="5.5183">
        <ele>480.2</ele>
        <time>2022-02-05T13:19:40Z</time>
      </trkpt>
      <trkpt lat="46.59858" lon="5.51827">
        <ele>480.8</ele>
        <time>2022-02-05T13:19:42Z</time>
      </trkpt>
      <trkpt lat="46.59861" lon="5.51827">
        <ele>481.2</ele>
        <time>2022-02-05T13:19:43Z</time>
      </trkpt>
      <trkpt lat="46.59866" lon="5.5183">
        <ele>481.6</ele>
        <time>2022-02-05T13:19:45Z</time>
      </trkpt>
      <trkpt lat="46.59864" lon="5.51837">
        <ele>482</ele>
        <time>2022-02-05T13:19:47Z</time>
      </trkpt>
      <trkpt lat="46.59861" lon="5.5184">
        <ele>482.2</ele>
        <time>2022-02-05T13:19:48Z</time>
      </trkpt>
      <trkpt lat="46.59844" lon="5.51853">
        <ele>483.2</ele>
        <time>2022-02-05T13:19:53Z</time>
      </trkpt>
      <trkpt lat="46.59818" lon="5.51875">
        <ele>484</ele>
        <time>2022-02-05T13:20:00Z</time>
      </trkpt>
      <trkpt lat="46.59807" lon="5.51882">
        <ele>484.4</ele>
        <time>2022-02-05T13:20:03Z</time>
      </trkpt>
      <trkpt lat="46.59803" lon="5.51884">
        <ele>484.4</ele>
        <time>2022-02-05T13:20:04Z</time>
      </trkpt>
      <trkpt lat="46.59785" lon="5.51893">
        <ele>485.6</ele>
        <time>2022-02-05T13:20:09Z</time>
      </trkpt>
      <trkpt lat="46.59781" lon="5.51895">
        <ele>485.6</ele>
        <time>2022-02-05T13:20:10Z</time>
      </trkpt>
      <trkpt lat="46.59758" lon="5.51907">
        <ele>487</ele>
        <time>2022-02-05T13:20:16Z</time>
      </trkpt>
      <trkpt lat="46.5975" lon="5.51911">
        <ele>487.2</ele>
        <time>2022-02-05T13:20:18Z</time>
      </trkpt>
      <trkpt lat="46.59741" lon="5.51914">
        <ele>487.6</ele>
        <time>2022-02-05T13:20:20Z</time>
      </trkpt>
      <trkpt lat="46.59719" lon="5.51925">
        <ele>488</ele>
        <time>2022-02-05T13:20:25Z</time>
      </trkpt>
      <trkpt lat="46.5971" lon="5.51928">
        <ele>488.4</ele>
        <time>2022-02-05T13:20:27Z</time>
      </trkpt>
      <trkpt lat="46.597" lon="5.51927">
        <ele>488.4</ele>
        <time>2022-02-05T13:20:29Z</time>
      </trkpt>
      <trkpt lat="46.59696" lon="5.51925">
        <ele>488.6</ele>
        <time>2022-02-05T13:20:30Z</time>
      </trkpt>
      <trkpt lat="46.59687" lon="5.51921">
        <ele>489</ele>
        <time>2022-02-05T13:20:32Z</time>
      </trkpt>
      <trkpt lat="46.59678" lon="5.5192">
        <ele>489</ele>
        <time>2022-02-05T13:20:34Z</time>
      </trkpt>
      <trkpt lat="46.59673" lon="5.51922">
        <ele>489.2</ele>
        <time>2022-02-05T13:20:35Z</time>
      </trkpt>
      <trkpt lat="46.59669" lon="5.51925">
        <ele>489.4</ele>
        <time>2022-02-05T13:20:36Z</time>
      </trkpt>
      <trkpt lat="46.59663" lon="5.51934">
        <ele>489.6</ele>
        <time>2022-02-05T13:20:38Z</time>
      </trkpt>
      <trkpt lat="46.59657" lon="5.51957">
        <ele>489.8</ele>
        <time>2022-02-05T13:20:42Z</time>
      </trkpt>
      <trkpt lat="46.59654" lon="5.51963">
        <ele>490</ele>
        <time>2022-02-05T13:20:43Z</time>
      </trkpt>
      <trkpt lat="46.5965" lon="5.51965">
        <ele>490</ele>
        <time>2022-02-05T13:20:44Z</time>
      </trkpt>
      <trkpt lat="46.59635" lon="5.5197">
        <ele>490.4</ele>
        <time>2022-02-05T13:20:47Z</time>
      </trkpt>
      <trkpt lat="46.59629" lon="5.51971">
        <ele>490.2</ele>
        <time>2022-02-05T13:20:48Z</time>
      </trkpt>
      <trkpt lat="46.59605" lon="5.51972">
        <ele>490.2</ele>
        <time>2022-02-05T13:20:53Z</time>
      </trkpt>
      <trkpt lat="46.59555" lon="5.51976">
        <ele>489</ele>
        <time>2022-02-05T13:21:00Z</time>
      </trkpt>
      <trkpt lat="46.59532" lon="5.51978">
        <ele>488</ele>
        <time>2022-02-05T13:21:03Z</time>
      </trkpt>
      <trkpt lat="46.59493" lon="5.51982">
        <ele>487.2</ele>
        <time>2022-02-05T13:21:08Z</time>
      </trkpt>
      <trkpt lat="46.59485" lon="5.51983">
        <ele>487</ele>
        <time>2022-02-05T13:21:09Z</time>
      </trkpt>
      <trkpt lat="46.59441" lon="5.51986">
        <ele>485.6</ele>
        <time>2022-02-05T13:21:14Z</time>
      </trkpt>
      <trkpt lat="46.59405" lon="5.51989">
        <ele>484.6</ele>
        <time>2022-02-05T13:21:18Z</time>
      </trkpt>
      <trkpt lat="46.5937" lon="5.51991">
        <ele>484.2</ele>
        <time>2022-02-05T13:21:22Z</time>
      </trkpt>
      <trkpt lat="46.5932" lon="5.5199">
        <ele>483.6</ele>
        <time>2022-02-05T13:21:28Z</time>
      </trkpt>
      <trkpt lat="46.59301" lon="5.51989">
        <ele>483.4</ele>
        <time>2022-02-05T13:21:30Z</time>
      </trkpt>
      <trkpt lat="46.59246" lon="5.51984">
        <ele>483.4</ele>
        <time>2022-02-05T13:21:37Z</time>
      </trkpt>
      <trkpt lat="46.59238" lon="5.51983">
        <ele>483.4</ele>
        <time>2022-02-05T13:21:38Z</time>
      </trkpt>
      <trkpt lat="46.5918" lon="5.51972">
        <ele>484</ele>
        <time>2022-02-05T13:21:46Z</time>
      </trkpt>
      <trkpt lat="46.59173" lon="5.51971">
        <ele>484</ele>
        <time>2022-02-05T13:21:47Z</time>
      </trkpt>
      <trkpt lat="46.59137" lon="5.51964">
        <ele>484.8</ele>
        <time>2022-02-05T13:21:52Z</time>
      </trkpt>
      <trkpt lat="46.59122" lon="5.5196">
        <ele>485</ele>
        <time>2022-02-05T13:21:54Z</time>
      </trkpt>
      <trkpt lat="46.59064" lon="5.51949">
        <ele>485.8</ele>
        <time>2022-02-05T13:22:02Z</time>
      </trkpt>
      <trkpt lat="46.59015" lon="5.51945">
        <ele>486.2</ele>
        <time>2022-02-05T13:22:09Z</time>
      </trkpt>
      <trkpt lat="46.58965" lon="5.51945">
        <ele>486.6</ele>
        <time>2022-02-05T13:22:16Z</time>
      </trkpt>
      <trkpt lat="46.58908" lon="5.51936">
        <ele>486.4</ele>
        <time>2022-02-05T13:22:24Z</time>
      </trkpt>
      <trkpt lat="46.58862" lon="5.51926">
        <ele>486.6</ele>
        <time>2022-02-05T13:22:31Z</time>
      </trkpt>
      <trkpt lat="46.58818" lon="5.51922">
        <ele>487</ele>
        <time>2022-02-05T13:22:38Z</time>
      </trkpt>
      <trkpt lat="46.58798" lon="5.51922">
        <ele>487.2</ele>
        <time>2022-02-05T13:22:41Z</time>
      </trkpt>
      <trkpt lat="46.58743" lon="5.51915">
        <ele>487.6</ele>
        <time>2022-02-05T13:22:49Z</time>
      </trkpt>
      <trkpt lat="46.58707" lon="5.51901">
        <ele>487.2</ele>
        <time>2022-02-05T13:22:54Z</time>
      </trkpt>
      <trkpt lat="46.58657" lon="5.51867">
        <ele>486.6</ele>
        <time>2022-02-05T13:23:01Z</time>
      </trkpt>
      <trkpt lat="46.58602" lon="5.51838">
        <ele>486.2</ele>
        <time>2022-02-05T13:23:08Z</time>
      </trkpt>
      <trkpt lat="46.58593" lon="5.51835">
        <ele>486</ele>
        <time>2022-02-05T13:23:09Z</time>
      </trkpt>
      <trkpt lat="46.58558" lon="5.51821">
        <ele>484.8</ele>
        <time>2022-02-05T13:23:13Z</time>
      </trkpt>
      <trkpt lat="46.58531" lon="5.51811">
        <ele>484.2</ele>
        <time>2022-02-05T13:23:16Z</time>
      </trkpt>
      <trkpt lat="46.58522" lon="5.51808">
        <ele>483.8</ele>
        <time>2022-02-05T13:23:17Z</time>
      </trkpt>
      <trkpt lat="46.58476" lon="5.51791">
        <ele>482.8</ele>
        <time>2022-02-05T13:23:22Z</time>
      </trkpt>
      <trkpt lat="46.58438" lon="5.5178">
        <ele>481.6</ele>
        <time>2022-02-05T13:23:26Z</time>
      </trkpt>
      <trkpt lat="46.584" lon="5.5177">
        <ele>480.6</ele>
        <time>2022-02-05T13:23:30Z</time>
      </trkpt>
      <trkpt lat="46.5835" lon="5.5175">
        <ele>479</ele>
        <time>2022-02-05T13:23:35Z</time>
      </trkpt>
      <trkpt lat="46.58322" lon="5.51732">
        <ele>478</ele>
        <time>2022-02-05T13:23:38Z</time>
      </trkpt>
      <trkpt lat="46.58305" lon="5.51719">
        <ele>477</ele>
        <time>2022-02-05T13:23:40Z</time>
      </trkpt>
      <trkpt lat="46.58297" lon="5.51712">
        <ele>476.6</ele>
        <time>2022-02-05T13:23:41Z</time>
      </trkpt>
      <trkpt lat="46.58249" lon="5.51676">
        <ele>475.8</ele>
        <time>2022-02-05T13:23:47Z</time>
      </trkpt>
      <trkpt lat="46.58241" lon="5.51671">
        <ele>475.6</ele>
        <time>2022-02-05T13:23:48Z</time>
      </trkpt>
      <trkpt lat="46.58187" lon="5.51646">
        <ele>474.8</ele>
        <time>2022-02-05T13:23:54Z</time>
      </trkpt>
      <trkpt lat="46.58178" lon="5.51643">
        <ele>474.6</ele>
        <time>2022-02-05T13:23:55Z</time>
      </trkpt>
      <trkpt lat="46.5814" lon="5.51633">
        <ele>473.6</ele>
        <time>2022-02-05T13:23:59Z</time>
      </trkpt>
      <trkpt lat="46.58121" lon="5.51628">
        <ele>473.4</ele>
        <time>2022-02-05T13:24:01Z</time>
      </trkpt>
      <trkpt lat="46.58071" lon="5.51617">
        <ele>472.4</ele>
        <time>2022-02-05T13:24:06Z</time>
      </trkpt>
      <trkpt lat="46.5803" lon="5.51608">
        <ele>471.4</ele>
        <time>2022-02-05T13:24:10Z</time>
      </trkpt>
      <trkpt lat="46.58019" lon="5.51605">
        <ele>470.8</ele>
        <time>2022-02-05T13:24:11Z</time>
      </trkpt>
      <trkpt lat="46.57988" lon="5.51597">
        <ele>469.6</ele>
        <time>2022-02-05T13:24:14Z</time>
      </trkpt>
      <trkpt lat="46.57957" lon="5.51585">
        <ele>468.6</ele>
        <time>2022-02-05T13:24:17Z</time>
      </trkpt>
      <trkpt lat="46.57924" lon="5.51573">
        <ele>467.4</ele>
        <time>2022-02-05T13:24:20Z</time>
      </trkpt>
      <trkpt lat="46.5789" lon="5.5156">
        <ele>466.4</ele>
        <time>2022-02-05T13:24:23Z</time>
      </trkpt>
      <trkpt lat="46.57867" lon="5.51551">
        <ele>465.2</ele>
        <time>2022-02-05T13:24:25Z</time>
      </trkpt>
      <trkpt lat="46.57844" lon="5.51543">
        <ele>464</ele>
        <time>2022-02-05T13:24:27Z</time>
      </trkpt>
      <trkpt lat="46.5782" lon="5.51534">
        <ele>463</ele>
        <time>2022-02-05T13:24:29Z</time>
      </trkpt>
      <trkpt lat="46.57808" lon="5.51529">
        <ele>462.4</ele>
        <time>2022-02-05T13:24:30Z</time>
      </trkpt>
      <trkpt lat="46.57797" lon="5.51525">
        <ele>461.8</ele>
        <time>2022-02-05T13:24:31Z</time>
      </trkpt>
      <trkpt lat="46.57761" lon="5.51512">
        <ele>460</ele>
        <time>2022-02-05T13:24:34Z</time>
      </trkpt>
      <trkpt lat="46.57738" lon="5.51503">
        <ele>459</ele>
        <time>2022-02-05T13:24:36Z</time>
      </trkpt>
      <trkpt lat="46.57715" lon="5.51495">
        <ele>458.4</ele>
        <time>2022-02-05T13:24:38Z</time>
      </trkpt>
      <trkpt lat="46.57694" lon="5.51485">
        <ele>457.4</ele>
        <time>2022-02-05T13:24:40Z</time>
      </trkpt>
      <trkpt lat="46.57673" lon="5.51472">
        <ele>456.6</ele>
        <time>2022-02-05T13:24:42Z</time>
      </trkpt>
      <trkpt lat="46.57664" lon="5.51465">
        <ele>456</ele>
        <time>2022-02-05T13:24:43Z</time>
      </trkpt>
      <trkpt lat="46.57639" lon="5.51438">
        <ele>455</ele>
        <time>2022-02-05T13:24:46Z</time>
      </trkpt>
      <trkpt lat="46.57607" lon="5.51391">
        <ele>454</ele>
        <time>2022-02-05T13:24:51Z</time>
      </trkpt>
      <trkpt lat="46.57602" lon="5.51383">
        <ele>454</ele>
        <time>2022-02-05T13:24:52Z</time>
      </trkpt>
      <trkpt lat="46.57583" lon="5.51353">
        <ele>454</ele>
        <time>2022-02-05T13:24:56Z</time>
      </trkpt>
      <trkpt lat="46.57563" lon="5.5132">
        <ele>455.2</ele>
        <time>2022-02-05T13:25:01Z</time>
      </trkpt>
      <trkpt lat="46.57559" lon="5.51314">
        <ele>455.6</ele>
        <time>2022-02-05T13:25:02Z</time>
      </trkpt>
      <trkpt lat="46.57552" lon="5.51303">
        <ele>456.2</ele>
        <time>2022-02-05T13:25:04Z</time>
      </trkpt>
      <trkpt lat="46.57536" lon="5.51282">
        <ele>457.4</ele>
        <time>2022-02-05T13:25:08Z</time>
      </trkpt>
      <trkpt lat="46.57529" lon="5.51274">
        <ele>457.6</ele>
        <time>2022-02-05T13:25:10Z</time>
      </trkpt>
      <trkpt lat="46.57508" lon="5.51258">
        <ele>458.4</ele>
        <time>2022-02-05T13:25:15Z</time>
      </trkpt>
      <trkpt lat="46.57488" lon="5.51244">
        <ele>459.4</ele>
        <time>2022-02-05T13:25:20Z</time>
      </trkpt>
      <trkpt lat="46.57476" lon="5.51235">
        <ele>460.2</ele>
        <time>2022-02-05T13:25:23Z</time>
      </trkpt>
      <trkpt lat="46.57468" lon="5.51229">
        <ele>460.6</ele>
        <time>2022-02-05T13:25:25Z</time>
      </trkpt>
      <trkpt lat="46.57454" lon="5.5122">
        <ele>461.6</ele>
        <time>2022-02-05T13:25:29Z</time>
      </trkpt>
      <trkpt lat="46.57451" lon="5.51217">
        <ele>461.8</ele>
        <time>2022-02-05T13:25:30Z</time>
      </trkpt>
      <trkpt lat="46.57427" lon="5.51202">
        <ele>462.8</ele>
        <time>2022-02-05T13:25:36Z</time>
      </trkpt>
      <trkpt lat="46.57409" lon="5.51192">
        <ele>463.8</ele>
        <time>2022-02-05T13:25:40Z</time>
      </trkpt>
      <trkpt lat="46.57396" lon="5.51185">
        <ele>464.2</ele>
        <time>2022-02-05T13:25:43Z</time>
      </trkpt>
      <trkpt lat="46.57385" lon="5.51179">
        <ele>464.8</ele>
        <time>2022-02-05T13:25:46Z</time>
      </trkpt>
      <trkpt lat="46.57366" lon="5.51168">
        <ele>466</ele>
        <time>2022-02-05T13:25:51Z</time>
      </trkpt>
      <trkpt lat="46.57362" lon="5.51165">
        <ele>466.2</ele>
        <time>2022-02-05T13:25:52Z</time>
      </trkpt>
      <trkpt lat="46.57344" lon="5.51155">
        <ele>467</ele>
        <time>2022-02-05T13:25:57Z</time>
      </trkpt>
      <trkpt lat="46.57337" lon="5.51151">
        <ele>467.4</ele>
        <time>2022-02-05T13:25:59Z</time>
      </trkpt>
      <trkpt lat="46.57322" lon="5.51145">
        <ele>468.2</ele>
        <time>2022-02-05T13:26:03Z</time>
      </trkpt>
      <trkpt lat="46.57299" lon="5.51138">
        <ele>469</ele>
        <time>2022-02-05T13:26:09Z</time>
      </trkpt>
      <trkpt lat="46.57295" lon="5.51137">
        <ele>469.4</ele>
        <time>2022-02-05T13:26:10Z</time>
      </trkpt>
      <trkpt lat="46.5728" lon="5.51132">
        <ele>470.4</ele>
        <time>2022-02-05T13:26:15Z</time>
      </trkpt>
      <trkpt lat="46.5726" lon="5.51125">
        <ele>471.8</ele>
        <time>2022-02-05T13:26:21Z</time>
      </trkpt>
      <trkpt lat="46.57257" lon="5.51123">
        <ele>471.8</ele>
        <time>2022-02-05T13:26:22Z</time>
      </trkpt>
      <trkpt lat="46.57238" lon="5.51108">
        <ele>473</ele>
        <time>2022-02-05T13:26:28Z</time>
      </trkpt>
      <trkpt lat="46.57232" lon="5.51102">
        <ele>473.2</ele>
        <time>2022-02-05T13:26:30Z</time>
      </trkpt>
      <trkpt lat="46.57221" lon="5.51089">
        <ele>474</ele>
        <time>2022-02-05T13:26:34Z</time>
      </trkpt>
      <trkpt lat="46.5721" lon="5.51075">
        <ele>475</ele>
        <time>2022-02-05T13:26:38Z</time>
      </trkpt>
      <trkpt lat="46.57208" lon="5.51071">
        <ele>475.2</ele>
        <time>2022-02-05T13:26:39Z</time>
      </trkpt>
      <trkpt lat="46.57194" lon="5.51054">
        <ele>476.2</ele>
        <time>2022-02-05T13:26:44Z</time>
      </trkpt>
      <trkpt lat="46.57183" lon="5.5104">
        <ele>477.2</ele>
        <time>2022-02-05T13:26:48Z</time>
      </trkpt>
      <trkpt lat="46.5718" lon="5.51037">
        <ele>477.4</ele>
        <time>2022-02-05T13:26:49Z</time>
      </trkpt>
      <trkpt lat="46.57157" lon="5.51019">
        <ele>478.4</ele>
        <time>2022-02-05T13:26:56Z</time>
      </trkpt>
      <trkpt lat="46.57151" lon="5.51015">
        <ele>478.8</ele>
        <time>2022-02-05T13:26:58Z</time>
      </trkpt>
      <trkpt lat="46.57133" lon="5.51006">
        <ele>479.6</ele>
        <time>2022-02-05T13:27:03Z</time>
      </trkpt>
      <trkpt lat="46.57114" lon="5.50998">
        <ele>480.8</ele>
        <time>2022-02-05T13:27:08Z</time>
      </trkpt>
      <trkpt lat="46.57085" lon="5.50986">
        <ele>482</ele>
        <time>2022-02-05T13:27:15Z</time>
      </trkpt>
      <trkpt lat="46.5707" lon="5.50979">
        <ele>482.6</ele>
        <time>2022-02-05T13:27:19Z</time>
      </trkpt>
      <trkpt lat="46.5705" lon="5.50966">
        <ele>483.2</ele>
        <time>2022-02-05T13:27:24Z</time>
      </trkpt>
      <trkpt lat="46.57039" lon="5.50956">
        <ele>483.8</ele>
        <time>2022-02-05T13:27:27Z</time>
      </trkpt>
      <trkpt lat="46.57022" lon="5.50937">
        <ele>484.6</ele>
        <time>2022-02-05T13:27:32Z</time>
      </trkpt>
      <trkpt lat="46.57014" lon="5.50925">
        <ele>485.2</ele>
        <time>2022-02-05T13:27:35Z</time>
      </trkpt>
      <trkpt lat="46.57008" lon="5.50916">
        <ele>485.6</ele>
        <time>2022-02-05T13:27:37Z</time>
      </trkpt>
      <trkpt lat="46.56997" lon="5.50898">
        <ele>486.6</ele>
        <time>2022-02-05T13:27:41Z</time>
      </trkpt>
      <trkpt lat="46.56989" lon="5.5088">
        <ele>487.4</ele>
        <time>2022-02-05T13:27:45Z</time>
      </trkpt>
      <trkpt lat="46.56985" lon="5.5087">
        <ele>487.6</ele>
        <time>2022-02-05T13:27:47Z</time>
      </trkpt>
      <trkpt lat="46.56977" lon="5.50846">
        <ele>488.8</ele>
        <time>2022-02-05T13:27:52Z</time>
      </trkpt>
      <trkpt lat="46.56974" lon="5.50835">
        <ele>489.2</ele>
        <time>2022-02-05T13:27:54Z</time>
      </trkpt>
      <trkpt lat="46.56971" lon="5.50824">
        <ele>489.8</ele>
        <time>2022-02-05T13:27:56Z</time>
      </trkpt>
      <trkpt lat="46.56966" lon="5.50795">
        <ele>491.2</ele>
        <time>2022-02-05T13:28:01Z</time>
      </trkpt>
      <trkpt lat="46.56964" lon="5.50784">
        <ele>491.6</ele>
        <time>2022-02-05T13:28:03Z</time>
      </trkpt>
      <trkpt lat="46.5696" lon="5.50767">
        <ele>492.2</ele>
        <time>2022-02-05T13:28:06Z</time>
      </trkpt>
      <trkpt lat="46.56952" lon="5.50733">
        <ele>493.2</ele>
        <time>2022-02-05T13:28:12Z</time>
      </trkpt>
      <trkpt lat="46.56951" lon="5.50728">
        <ele>493.2</ele>
        <time>2022-02-05T13:28:13Z</time>
      </trkpt>
      <trkpt lat="46.56942" lon="5.50699">
        <ele>494.4</ele>
        <time>2022-02-05T13:28:19Z</time>
      </trkpt>
      <trkpt lat="46.56935" lon="5.50684">
        <ele>495</ele>
        <time>2022-02-05T13:28:22Z</time>
      </trkpt>
      <trkpt lat="46.56926" lon="5.50666">
        <ele>495.4</ele>
        <time>2022-02-05T13:28:26Z</time>
      </trkpt>
      <trkpt lat="46.56908" lon="5.50637">
        <ele>496.6</ele>
        <time>2022-02-05T13:28:33Z</time>
      </trkpt>
      <trkpt lat="46.56884" lon="5.50613">
        <ele>497.8</ele>
        <time>2022-02-05T13:28:40Z</time>
      </trkpt>
      <trkpt lat="46.5688" lon="5.5061">
        <ele>497.8</ele>
        <time>2022-02-05T13:28:41Z</time>
      </trkpt>
      <trkpt lat="46.56872" lon="5.50605">
        <ele>498</ele>
        <time>2022-02-05T13:28:43Z</time>
      </trkpt>
      <trkpt lat="46.56859" lon="5.50598">
        <ele>498.2</ele>
        <time>2022-02-05T13:28:46Z</time>
      </trkpt>
      <trkpt lat="46.56855" lon="5.50595">
        <ele>498.6</ele>
        <time>2022-02-05T13:28:47Z</time>
      </trkpt>
      <trkpt lat="46.56847" lon="5.5059">
        <ele>498.8</ele>
        <time>2022-02-05T13:28:49Z</time>
      </trkpt>
      <trkpt lat="46.56842" lon="5.50589">
        <ele>498.8</ele>
        <time>2022-02-05T13:28:50Z</time>
      </trkpt>
      <trkpt lat="46.56828" lon="5.50582">
        <ele>499</ele>
        <time>2022-02-05T13:28:53Z</time>
      </trkpt>
      <trkpt lat="46.56774" lon="5.50559">
        <ele>499.6</ele>
        <time>2022-02-05T13:29:04Z</time>
      </trkpt>
      <trkpt lat="46.56734" lon="5.50542">
        <ele>500</ele>
        <time>2022-02-05T13:29:11Z</time>
      </trkpt>
      <trkpt lat="46.56683" lon="5.5052">
        <ele>500.2</ele>
        <time>2022-02-05T13:29:19Z</time>
      </trkpt>
      <trkpt lat="46.56625" lon="5.50496">
        <ele>500.4</ele>
        <time>2022-02-05T13:29:28Z</time>
      </trkpt>
      <trkpt lat="46.5662" lon="5.50494">
        <ele>500.4</ele>
        <time>2022-02-05T13:29:29Z</time>
      </trkpt>
      <trkpt lat="46.56565" lon="5.50472">
        <ele>501</ele>
        <time>2022-02-05T13:29:38Z</time>
      </trkpt>
      <trkpt lat="46.56559" lon="5.5047">
        <ele>501</ele>
        <time>2022-02-05T13:29:39Z</time>
      </trkpt>
      <trkpt lat="46.56547" lon="5.50465">
        <ele>501.2</ele>
        <time>2022-02-05T13:29:41Z</time>
      </trkpt>
      <trkpt lat="46.56497" lon="5.50441">
        <ele>501.4</ele>
        <time>2022-02-05T13:29:49Z</time>
      </trkpt>
      <trkpt lat="46.56444" lon="5.50407">
        <ele>501.4</ele>
        <time>2022-02-05T13:29:57Z</time>
      </trkpt>
      <trkpt lat="46.56401" lon="5.5037">
        <ele>500.6</ele>
        <time>2022-02-05T13:30:03Z</time>
      </trkpt>
      <trkpt lat="46.56394" lon="5.50363">
        <ele>500.2</ele>
        <time>2022-02-05T13:30:04Z</time>
      </trkpt>
      <trkpt lat="46.56355" lon="5.50329">
        <ele>499</ele>
        <time>2022-02-05T13:30:09Z</time>
      </trkpt>
      <trkpt lat="46.56347" lon="5.50322">
        <ele>498.8</ele>
        <time>2022-02-05T13:30:10Z</time>
      </trkpt>
      <trkpt lat="46.56331" lon="5.50308">
        <ele>497.8</ele>
        <time>2022-02-05T13:30:12Z</time>
      </trkpt>
      <trkpt lat="46.5629" lon="5.50271">
        <ele>496.2</ele>
        <time>2022-02-05T13:30:17Z</time>
      </trkpt>
      <trkpt lat="46.56281" lon="5.50264">
        <ele>495.8</ele>
        <time>2022-02-05T13:30:18Z</time>
      </trkpt>
      <trkpt lat="46.56264" lon="5.50249">
        <ele>494.8</ele>
        <time>2022-02-05T13:30:20Z</time>
      </trkpt>
      <trkpt lat="46.5623" lon="5.50218">
        <ele>493.4</ele>
        <time>2022-02-05T13:30:24Z</time>
      </trkpt>
      <trkpt lat="46.56204" lon="5.50195">
        <ele>492.2</ele>
        <time>2022-02-05T13:30:27Z</time>
      </trkpt>
      <trkpt lat="46.56169" lon="5.50168">
        <ele>490.8</ele>
        <time>2022-02-05T13:30:31Z</time>
      </trkpt>
      <trkpt lat="46.56143" lon="5.50152">
        <ele>490.2</ele>
        <time>2022-02-05T13:30:34Z</time>
      </trkpt>
      <trkpt lat="46.56126" lon="5.50142">
        <ele>489.8</ele>
        <time>2022-02-05T13:30:36Z</time>
      </trkpt>
      <trkpt lat="46.56077" lon="5.50115">
        <ele>489</ele>
        <time>2022-02-05T13:30:42Z</time>
      </trkpt>
      <trkpt lat="46.5604" lon="5.50095">
        <ele>488.8</ele>
        <time>2022-02-05T13:30:47Z</time>
      </trkpt>
      <trkpt lat="46.55983" lon="5.50068">
        <ele>488.4</ele>
        <time>2022-02-05T13:30:55Z</time>
      </trkpt>
      <trkpt lat="46.55925" lon="5.50046">
        <ele>488.2</ele>
        <time>2022-02-05T13:31:03Z</time>
      </trkpt>
      <trkpt lat="46.55918" lon="5.50042">
        <ele>488.2</ele>
        <time>2022-02-05T13:31:04Z</time>
      </trkpt>
      <trkpt lat="46.55911" lon="5.50038">
        <ele>488.2</ele>
        <time>2022-02-05T13:31:05Z</time>
      </trkpt>
      <trkpt lat="46.55886" lon="5.50016">
        <ele>488.6</ele>
        <time>2022-02-05T13:31:09Z</time>
      </trkpt>
      <trkpt lat="46.55841" lon="5.49967">
        <ele>488.6</ele>
        <time>2022-02-05T13:31:17Z</time>
      </trkpt>
      <trkpt lat="46.55836" lon="5.49961">
        <ele>488.6</ele>
        <time>2022-02-05T13:31:18Z</time>
      </trkpt>
      <trkpt lat="46.55792" lon="5.49913">
        <ele>488.6</ele>
        <time>2022-02-05T13:31:26Z</time>
      </trkpt>
      <trkpt lat="46.55782" lon="5.49901">
        <ele>488.6</ele>
        <time>2022-02-05T13:31:28Z</time>
      </trkpt>
      <trkpt lat="46.55744" lon="5.49849">
        <ele>489</ele>
        <time>2022-02-05T13:31:36Z</time>
      </trkpt>
      <trkpt lat="46.55708" lon="5.49789">
        <ele>490</ele>
        <time>2022-02-05T13:31:45Z</time>
      </trkpt>
      <trkpt lat="46.55704" lon="5.49782">
        <ele>490.2</ele>
        <time>2022-02-05T13:31:46Z</time>
      </trkpt>
      <trkpt lat="46.55673" lon="5.49728">
        <ele>490.6</ele>
        <time>2022-02-05T13:31:54Z</time>
      </trkpt>
      <trkpt lat="46.55632" lon="5.49668">
        <ele>491.2</ele>
        <time>2022-02-05T13:32:03Z</time>
      </trkpt>
      <trkpt lat="46.55627" lon="5.49661">
        <ele>491.2</ele>
        <time>2022-02-05T13:32:04Z</time>
      </trkpt>
      <trkpt lat="46.55584" lon="5.49601">
        <ele>491.2</ele>
        <time>2022-02-05T13:32:13Z</time>
      </trkpt>
      <trkpt lat="46.55569" lon="5.49583">
        <ele>491.4</ele>
        <time>2022-02-05T13:32:16Z</time>
      </trkpt>
      <trkpt lat="46.55541" lon="5.49545">
        <ele>491.8</ele>
        <time>2022-02-05T13:32:22Z</time>
      </trkpt>
      <trkpt lat="46.55497" lon="5.4949">
        <ele>492.4</ele>
        <time>2022-02-05T13:32:31Z</time>
      </trkpt>
      <trkpt lat="46.55492" lon="5.49484">
        <ele>492.4</ele>
        <time>2022-02-05T13:32:32Z</time>
      </trkpt>
      <trkpt lat="46.5546" lon="5.49444">
        <ele>493.2</ele>
        <time>2022-02-05T13:32:39Z</time>
      </trkpt>
      <trkpt lat="46.55452" lon="5.49433">
        <ele>493.4</ele>
        <time>2022-02-05T13:32:41Z</time>
      </trkpt>
      <trkpt lat="46.5543" lon="5.49408">
        <ele>494.6</ele>
        <time>2022-02-05T13:32:46Z</time>
      </trkpt>
      <trkpt lat="46.55426" lon="5.49404">
        <ele>494.8</ele>
        <time>2022-02-05T13:32:47Z</time>
      </trkpt>
      <trkpt lat="46.55409" lon="5.49387">
        <ele>495.8</ele>
        <time>2022-02-05T13:32:51Z</time>
      </trkpt>
      <trkpt lat="46.55396" lon="5.49375">
        <ele>496.8</ele>
        <time>2022-02-05T13:32:54Z</time>
      </trkpt>
      <trkpt lat="46.55391" lon="5.49372">
        <ele>497</ele>
        <time>2022-02-05T13:32:55Z</time>
      </trkpt>
      <trkpt lat="46.55361" lon="5.49355">
        <ele>497.8</ele>
        <time>2022-02-05T13:33:01Z</time>
      </trkpt>
      <trkpt lat="46.55355" lon="5.49352">
        <ele>498</ele>
        <time>2022-02-05T13:33:02Z</time>
      </trkpt>
      <trkpt lat="46.55323" lon="5.49343">
        <ele>498.2</ele>
        <time>2022-02-05T13:33:08Z</time>
      </trkpt>
      <trkpt lat="46.55278" lon="5.49327">
        <ele>498.6</ele>
        <time>2022-02-05T13:33:16Z</time>
      </trkpt>
      <trkpt lat="46.5525" lon="5.49297">
        <ele>499</ele>
        <time>2022-02-05T13:33:22Z</time>
      </trkpt>
      <trkpt lat="46.5522" lon="5.49263">
        <ele>499.8</ele>
        <time>2022-02-05T13:33:29Z</time>
      </trkpt>
      <trkpt lat="46.55213" lon="5.49252">
        <ele>500</ele>
        <time>2022-02-05T13:33:31Z</time>
      </trkpt>
      <trkpt lat="46.55187" lon="5.4922">
        <ele>501.6</ele>
        <time>2022-02-05T13:33:38Z</time>
      </trkpt>
      <trkpt lat="46.55163" lon="5.49186">
        <ele>502.4</ele>
        <time>2022-02-05T13:33:45Z</time>
      </trkpt>
      <trkpt lat="46.5516" lon="5.4918">
        <ele>502.6</ele>
        <time>2022-02-05T13:33:46Z</time>
      </trkpt>
      <trkpt lat="46.55158" lon="5.49174">
        <ele>502.6</ele>
        <time>2022-02-05T13:33:47Z</time>
      </trkpt>
      <trkpt lat="46.55155" lon="5.49153">
        <ele>503</ele>
        <time>2022-02-05T13:33:50Z</time>
      </trkpt>
      <trkpt lat="46.55154" lon="5.49146">
        <ele>503.2</ele>
        <time>2022-02-05T13:33:51Z</time>
      </trkpt>
      <trkpt lat="46.55154" lon="5.49131">
        <ele>503.6</ele>
        <time>2022-02-05T13:33:53Z</time>
      </trkpt>
      <trkpt lat="46.55155" lon="5.49074">
        <ele>504</ele>
        <time>2022-02-05T13:34:00Z</time>
      </trkpt>
      <trkpt lat="46.55156" lon="5.49012">
        <ele>504</ele>
        <time>2022-02-05T13:34:07Z</time>
      </trkpt>
      <trkpt lat="46.55156" lon="5.48955">
        <ele>504.4</ele>
        <time>2022-02-05T13:34:14Z</time>
      </trkpt>
      <trkpt lat="46.55156" lon="5.48933">
        <ele>504.6</ele>
        <time>2022-02-05T13:34:17Z</time>
      </trkpt>
      <trkpt lat="46.55156" lon="5.48926">
        <ele>504.8</ele>
        <time>2022-02-05T13:34:18Z</time>
      </trkpt>
      <trkpt lat="46.55157" lon="5.48899">
        <ele>505.8</ele>
        <time>2022-02-05T13:34:22Z</time>
      </trkpt>
      <trkpt lat="46.55157" lon="5.48893">
        <ele>506.2</ele>
        <time>2022-02-05T13:34:23Z</time>
      </trkpt>
      <trkpt lat="46.55158" lon="5.48874">
        <ele>507.2</ele>
        <time>2022-02-05T13:34:26Z</time>
      </trkpt>
      <trkpt lat="46.55158" lon="5.48836">
        <ele>508.6</ele>
        <time>2022-02-05T13:34:32Z</time>
      </trkpt>
      <trkpt lat="46.55154" lon="5.48801">
        <ele>509.8</ele>
        <time>2022-02-05T13:34:37Z</time>
      </trkpt>
      <trkpt lat="46.55153" lon="5.48794">
        <ele>510</ele>
        <time>2022-02-05T13:34:38Z</time>
      </trkpt>
      <trkpt lat="46.55145" lon="5.48766">
        <ele>511</ele>
        <time>2022-02-05T13:34:42Z</time>
      </trkpt>
      <trkpt lat="46.55136" lon="5.48747">
        <ele>511.2</ele>
        <time>2022-02-05T13:34:45Z</time>
      </trkpt>
      <trkpt lat="46.55105" lon="5.487">
        <ele>511</ele>
        <time>2022-02-05T13:34:53Z</time>
      </trkpt>
      <trkpt lat="46.55064" lon="5.48665">
        <ele>511</ele>
        <time>2022-02-05T13:35:01Z</time>
      </trkpt>
      <trkpt lat="46.55015" lon="5.48625">
        <ele>511.4</ele>
        <time>2022-02-05T13:35:10Z</time>
      </trkpt>
      <trkpt lat="46.54973" lon="5.48578">
        <ele>511</ele>
        <time>2022-02-05T13:35:18Z</time>
      </trkpt>
      <trkpt lat="46.54927" lon="5.48524">
        <ele>510.8</ele>
        <time>2022-02-05T13:35:26Z</time>
      </trkpt>
      <trkpt lat="46.54884" lon="5.48487">
        <ele>509.6</ele>
        <time>2022-02-05T13:35:32Z</time>
      </trkpt>
      <trkpt lat="46.54853" lon="5.48465">
        <ele>508.6</ele>
        <time>2022-02-05T13:35:36Z</time>
      </trkpt>
      <trkpt lat="46.54829" lon="5.48452">
        <ele>507.8</ele>
        <time>2022-02-05T13:35:39Z</time>
      </trkpt>
      <trkpt lat="46.54821" lon="5.48448">
        <ele>507.6</ele>
        <time>2022-02-05T13:35:40Z</time>
      </trkpt>
      <trkpt lat="46.54779" lon="5.48429">
        <ele>506.4</ele>
        <time>2022-02-05T13:35:45Z</time>
      </trkpt>
      <trkpt lat="46.54745" lon="5.48414">
        <ele>505.8</ele>
        <time>2022-02-05T13:35:49Z</time>
      </trkpt>
      <trkpt lat="46.54718" lon="5.48403">
        <ele>505</ele>
        <time>2022-02-05T13:35:52Z</time>
      </trkpt>
      <trkpt lat="46.54682" lon="5.48388">
        <ele>503.8</ele>
        <time>2022-02-05T13:35:56Z</time>
      </trkpt>
      <trkpt lat="46.54664" lon="5.48381">
        <ele>503.2</ele>
        <time>2022-02-05T13:35:58Z</time>
      </trkpt>
      <trkpt lat="46.54655" lon="5.48377">
        <ele>502.4</ele>
        <time>2022-02-05T13:35:59Z</time>
      </trkpt>
      <trkpt lat="46.54628" lon="5.48365">
        <ele>501.4</ele>
        <time>2022-02-05T13:36:02Z</time>
      </trkpt>
      <trkpt lat="46.54603" lon="5.48355">
        <ele>500.2</ele>
        <time>2022-02-05T13:36:05Z</time>
      </trkpt>
      <trkpt lat="46.54577" lon="5.4834">
        <ele>499.2</ele>
        <time>2022-02-05T13:36:08Z</time>
      </trkpt>
      <trkpt lat="46.54562" lon="5.4833">
        <ele>498.8</ele>
        <time>2022-02-05T13:36:10Z</time>
      </trkpt>
      <trkpt lat="46.54539" lon="5.48311">
        <ele>497.8</ele>
        <time>2022-02-05T13:36:13Z</time>
      </trkpt>
      <trkpt lat="46.54514" lon="5.48289">
        <ele>497</ele>
        <time>2022-02-05T13:36:16Z</time>
      </trkpt>
      <trkpt lat="46.54506" lon="5.48283">
        <ele>496.4</ele>
        <time>2022-02-05T13:36:17Z</time>
      </trkpt>
      <trkpt lat="46.54482" lon="5.48262">
        <ele>495.4</ele>
        <time>2022-02-05T13:36:20Z</time>
      </trkpt>
      <trkpt lat="46.54441" lon="5.48227">
        <ele>494.4</ele>
        <time>2022-02-05T13:36:25Z</time>
      </trkpt>
      <trkpt lat="46.54433" lon="5.48221">
        <ele>494</ele>
        <time>2022-02-05T13:36:26Z</time>
      </trkpt>
      <trkpt lat="46.54408" lon="5.48204">
        <ele>493</ele>
        <time>2022-02-05T13:36:29Z</time>
      </trkpt>
      <trkpt lat="46.54374" lon="5.48184">
        <ele>492</ele>
        <time>2022-02-05T13:36:33Z</time>
      </trkpt>
      <trkpt lat="46.54365" lon="5.4818">
        <ele>491.8</ele>
        <time>2022-02-05T13:36:34Z</time>
      </trkpt>
      <trkpt lat="46.54322" lon="5.48159">
        <ele>490.8</ele>
        <time>2022-02-05T13:36:39Z</time>
      </trkpt>
      <trkpt lat="46.54305" lon="5.4815">
        <ele>490.4</ele>
        <time>2022-02-05T13:36:41Z</time>
      </trkpt>
      <trkpt lat="46.54269" lon="5.48127">
        <ele>489.4</ele>
        <time>2022-02-05T13:36:45Z</time>
      </trkpt>
      <trkpt lat="46.54255" lon="5.48115">
        <ele>489</ele>
        <time>2022-02-05T13:36:47Z</time>
      </trkpt>
      <trkpt lat="46.54225" lon="5.48084">
        <ele>488.2</ele>
        <time>2022-02-05T13:36:51Z</time>
      </trkpt>
      <trkpt lat="46.54211" lon="5.48066">
        <ele>487.6</ele>
        <time>2022-02-05T13:36:53Z</time>
      </trkpt>
      <trkpt lat="46.54204" lon="5.48056">
        <ele>487.2</ele>
        <time>2022-02-05T13:36:54Z</time>
      </trkpt>
      <trkpt lat="46.54178" lon="5.48017">
        <ele>485.8</ele>
        <time>2022-02-05T13:36:58Z</time>
      </trkpt>
      <trkpt lat="46.54165" lon="5.47998">
        <ele>485.2</ele>
        <time>2022-02-05T13:37:00Z</time>
      </trkpt>
      <trkpt lat="46.54158" lon="5.47989">
        <ele>484.8</ele>
        <time>2022-02-05T13:37:01Z</time>
      </trkpt>
      <trkpt lat="46.54128" lon="5.47955">
        <ele>483.8</ele>
        <time>2022-02-05T13:37:05Z</time>
      </trkpt>
      <trkpt lat="46.54119" lon="5.47947">
        <ele>483.6</ele>
        <time>2022-02-05T13:37:06Z</time>
      </trkpt>
      <trkpt lat="46.54086" lon="5.47925">
        <ele>482.6</ele>
        <time>2022-02-05T13:37:10Z</time>
      </trkpt>
      <trkpt lat="46.5405" lon="5.47907">
        <ele>481.4</ele>
        <time>2022-02-05T13:37:14Z</time>
      </trkpt>
      <trkpt lat="46.54013" lon="5.47891">
        <ele>480.6</ele>
        <time>2022-02-05T13:37:18Z</time>
      </trkpt>
      <trkpt lat="46.54004" lon="5.47887">
        <ele>480.2</ele>
        <time>2022-02-05T13:37:19Z</time>
      </trkpt>
      <trkpt lat="46.53967" lon="5.4787">
        <ele>478.8</ele>
        <time>2022-02-05T13:37:23Z</time>
      </trkpt>
      <trkpt lat="46.53939" lon="5.47857">
        <ele>477.6</ele>
        <time>2022-02-05T13:37:26Z</time>
      </trkpt>
      <trkpt lat="46.53912" lon="5.47844">
        <ele>477.2</ele>
        <time>2022-02-05T13:37:29Z</time>
      </trkpt>
      <trkpt lat="46.53893" lon="5.47835">
        <ele>476.4</ele>
        <time>2022-02-05T13:37:31Z</time>
      </trkpt>
      <trkpt lat="46.53857" lon="5.4782">
        <ele>475.6</ele>
        <time>2022-02-05T13:37:35Z</time>
      </trkpt>
      <trkpt lat="46.53849" lon="5.47815">
        <ele>475.4</ele>
        <time>2022-02-05T13:37:36Z</time>
      </trkpt>
      <trkpt lat="46.53804" lon="5.47797">
        <ele>474.4</ele>
        <time>2022-02-05T13:37:41Z</time>
      </trkpt>
      <trkpt lat="46.53795" lon="5.47795">
        <ele>474.2</ele>
        <time>2022-02-05T13:37:42Z</time>
      </trkpt>
      <trkpt lat="46.53749" lon="5.47791">
        <ele>473.6</ele>
        <time>2022-02-05T13:37:47Z</time>
      </trkpt>
      <trkpt lat="46.5373" lon="5.47791">
        <ele>473.2</ele>
        <time>2022-02-05T13:37:49Z</time>
      </trkpt>
      <trkpt lat="46.53702" lon="5.47792">
        <ele>472.6</ele>
        <time>2022-02-05T13:37:52Z</time>
      </trkpt>
      <trkpt lat="46.53653" lon="5.47793">
        <ele>471.2</ele>
        <time>2022-02-05T13:37:57Z</time>
      </trkpt>
      <trkpt lat="46.53643" lon="5.47795">
        <ele>470.8</ele>
        <time>2022-02-05T13:37:58Z</time>
      </trkpt>
      <trkpt lat="46.53623" lon="5.47799">
        <ele>469.8</ele>
        <time>2022-02-05T13:38:00Z</time>
      </trkpt>
      <trkpt lat="46.53593" lon="5.47808">
        <ele>469</ele>
        <time>2022-02-05T13:38:03Z</time>
      </trkpt>
      <trkpt lat="46.53583" lon="5.47812">
        <ele>468.2</ele>
        <time>2022-02-05T13:38:04Z</time>
      </trkpt>
      <trkpt lat="46.53543" lon="5.47832">
        <ele>467.2</ele>
        <time>2022-02-05T13:38:08Z</time>
      </trkpt>
      <trkpt lat="46.53523" lon="5.47841">
        <ele>466.4</ele>
        <time>2022-02-05T13:38:10Z</time>
      </trkpt>
      <trkpt lat="46.53513" lon="5.47846">
        <ele>465.8</ele>
        <time>2022-02-05T13:38:11Z</time>
      </trkpt>
      <trkpt lat="46.53484" lon="5.47859">
        <ele>464.8</ele>
        <time>2022-02-05T13:38:14Z</time>
      </trkpt>
      <trkpt lat="46.53445" lon="5.47878">
        <ele>463.4</ele>
        <time>2022-02-05T13:38:18Z</time>
      </trkpt>
      <trkpt lat="46.53435" lon="5.47883">
        <ele>463.2</ele>
        <time>2022-02-05T13:38:19Z</time>
      </trkpt>
      <trkpt lat="46.53406" lon="5.47896">
        <ele>461.8</ele>
        <time>2022-02-05T13:38:22Z</time>
      </trkpt>
      <trkpt lat="46.53377" lon="5.4791">
        <ele>460.4</ele>
        <time>2022-02-05T13:38:25Z</time>
      </trkpt>
      <trkpt lat="46.53338" lon="5.47928">
        <ele>459.4</ele>
        <time>2022-02-05T13:38:29Z</time>
      </trkpt>
      <trkpt lat="46.53281" lon="5.47955">
        <ele>458.4</ele>
        <time>2022-02-05T13:38:35Z</time>
      </trkpt>
      <trkpt lat="46.53262" lon="5.47964">
        <ele>458.2</ele>
        <time>2022-02-05T13:38:37Z</time>
      </trkpt>
      <trkpt lat="46.53235" lon="5.47976">
        <ele>457.8</ele>
        <time>2022-02-05T13:38:40Z</time>
      </trkpt>
      <trkpt lat="46.53186" lon="5.47988">
        <ele>457</ele>
        <time>2022-02-05T13:38:45Z</time>
      </trkpt>
      <trkpt lat="46.53177" lon="5.47989">
        <ele>457</ele>
        <time>2022-02-05T13:38:46Z</time>
      </trkpt>
      <trkpt lat="46.53119" lon="5.47999">
        <ele>456</ele>
        <time>2022-02-05T13:38:52Z</time>
      </trkpt>
      <trkpt lat="46.53082" lon="5.48003">
        <ele>455.6</ele>
        <time>2022-02-05T13:38:56Z</time>
      </trkpt>
      <trkpt lat="46.53038" lon="5.4801">
        <ele>455.2</ele>
        <time>2022-02-05T13:39:01Z</time>
      </trkpt>
      <trkpt lat="46.52997" lon="5.48005">
        <ele>455.2</ele>
        <time>2022-02-05T13:39:06Z</time>
      </trkpt>
      <trkpt lat="46.52954" lon="5.47986">
        <ele>455.8</ele>
        <time>2022-02-05T13:39:12Z</time>
      </trkpt>
      <trkpt lat="46.52899" lon="5.47955">
        <ele>456.6</ele>
        <time>2022-02-05T13:39:20Z</time>
      </trkpt>
      <trkpt lat="46.5285" lon="5.47931">
        <ele>457</ele>
        <time>2022-02-05T13:39:27Z</time>
      </trkpt>
      <trkpt lat="46.52792" lon="5.47911">
        <ele>456.8</ele>
        <time>2022-02-05T13:39:35Z</time>
      </trkpt>
      <trkpt lat="46.52785" lon="5.47908">
        <ele>456.6</ele>
        <time>2022-02-05T13:39:36Z</time>
      </trkpt>
      <trkpt lat="46.52729" lon="5.47888">
        <ele>456.2</ele>
        <time>2022-02-05T13:39:44Z</time>
      </trkpt>
      <trkpt lat="46.52715" lon="5.47884">
        <ele>456.2</ele>
        <time>2022-02-05T13:39:46Z</time>
      </trkpt>
      <trkpt lat="46.52657" lon="5.47863">
        <ele>456</ele>
        <time>2022-02-05T13:39:54Z</time>
      </trkpt>
      <trkpt lat="46.52641" lon="5.47857">
        <ele>456</ele>
        <time>2022-02-05T13:39:56Z</time>
      </trkpt>
      <trkpt lat="46.52586" lon="5.47837">
        <ele>455.4</ele>
        <time>2022-02-05T13:40:03Z</time>
      </trkpt>
      <trkpt lat="46.52569" lon="5.47831">
        <ele>455.2</ele>
        <time>2022-02-05T13:40:05Z</time>
      </trkpt>
      <trkpt lat="46.52561" lon="5.47828">
        <ele>455.2</ele>
        <time>2022-02-05T13:40:06Z</time>
      </trkpt>
      <trkpt lat="46.52528" lon="5.47816">
        <ele>454</ele>
        <time>2022-02-05T13:40:10Z</time>
      </trkpt>
      <trkpt lat="46.52502" lon="5.47807">
        <ele>453.8</ele>
        <time>2022-02-05T13:40:13Z</time>
      </trkpt>
      <trkpt lat="46.5245" lon="5.47787">
        <ele>453</ele>
        <time>2022-02-05T13:40:19Z</time>
      </trkpt>
      <trkpt lat="46.52417" lon="5.47774">
        <ele>452.4</ele>
        <time>2022-02-05T13:40:23Z</time>
      </trkpt>
      <trkpt lat="46.52376" lon="5.47758">
        <ele>452</ele>
        <time>2022-02-05T13:40:28Z</time>
      </trkpt>
      <trkpt lat="46.52336" lon="5.47739">
        <ele>451.8</ele>
        <time>2022-02-05T13:40:33Z</time>
      </trkpt>
      <trkpt lat="46.52281" lon="5.47713">
        <ele>451.4</ele>
        <time>2022-02-05T13:40:40Z</time>
      </trkpt>
      <trkpt lat="46.52274" lon="5.4771">
        <ele>451.2</ele>
        <time>2022-02-05T13:40:41Z</time>
      </trkpt>
      <trkpt lat="46.52258" lon="5.47703">
        <ele>451</ele>
        <time>2022-02-05T13:40:43Z</time>
      </trkpt>
      <trkpt lat="46.52206" lon="5.47677">
        <ele>450.8</ele>
        <time>2022-02-05T13:40:50Z</time>
      </trkpt>
      <trkpt lat="46.52155" lon="5.4765">
        <ele>451</ele>
        <time>2022-02-05T13:40:57Z</time>
      </trkpt>
      <trkpt lat="46.52148" lon="5.47646">
        <ele>451</ele>
        <time>2022-02-05T13:40:58Z</time>
      </trkpt>
      <trkpt lat="46.52096" lon="5.47622">
        <ele>451.2</ele>
        <time>2022-02-05T13:41:05Z</time>
      </trkpt>
      <trkpt lat="46.52088" lon="5.47619">
        <ele>451.2</ele>
        <time>2022-02-05T13:41:06Z</time>
      </trkpt>
      <trkpt lat="46.52033" lon="5.47597">
        <ele>451</ele>
        <time>2022-02-05T13:41:13Z</time>
      </trkpt>
      <trkpt lat="46.52018" lon="5.47591">
        <ele>450.8</ele>
        <time>2022-02-05T13:41:15Z</time>
      </trkpt>
      <trkpt lat="46.51963" lon="5.47569">
        <ele>450.4</ele>
        <time>2022-02-05T13:41:22Z</time>
      </trkpt>
      <trkpt lat="46.51933" lon="5.47556">
        <ele>450.6</ele>
        <time>2022-02-05T13:41:26Z</time>
      </trkpt>
      <trkpt lat="46.51879" lon="5.47535">
        <ele>450.6</ele>
        <time>2022-02-05T13:41:33Z</time>
      </trkpt>
      <trkpt lat="46.51871" lon="5.47532">
        <ele>450.6</ele>
        <time>2022-02-05T13:41:34Z</time>
      </trkpt>
      <trkpt lat="46.51827" lon="5.47514">
        <ele>450.2</ele>
        <time>2022-02-05T13:41:40Z</time>
      </trkpt>
      <trkpt lat="46.51783" lon="5.47497">
        <ele>450</ele>
        <time>2022-02-05T13:41:46Z</time>
      </trkpt>
      <trkpt lat="46.5173" lon="5.47475">
        <ele>449.4</ele>
        <time>2022-02-05T13:41:53Z</time>
      </trkpt>
      <trkpt lat="46.51715" lon="5.47469">
        <ele>449.4</ele>
        <time>2022-02-05T13:41:55Z</time>
      </trkpt>
      <trkpt lat="46.51677" lon="5.47453">
        <ele>449.2</ele>
        <time>2022-02-05T13:42:00Z</time>
      </trkpt>
      <trkpt lat="46.51646" lon="5.47441">
        <ele>449</ele>
        <time>2022-02-05T13:42:04Z</time>
      </trkpt>
      <trkpt lat="46.51592" lon="5.47419">
        <ele>448.6</ele>
        <time>2022-02-05T13:42:11Z</time>
      </trkpt>
      <trkpt lat="46.51576" lon="5.47413">
        <ele>448.4</ele>
        <time>2022-02-05T13:42:13Z</time>
      </trkpt>
      <trkpt lat="46.51538" lon="5.47397">
        <ele>448</ele>
        <time>2022-02-05T13:42:18Z</time>
      </trkpt>
      <trkpt lat="46.51499" lon="5.47381">
        <ele>447.6</ele>
        <time>2022-02-05T13:42:23Z</time>
      </trkpt>
      <trkpt lat="46.51446" lon="5.4736">
        <ele>447.6</ele>
        <time>2022-02-05T13:42:30Z</time>
      </trkpt>
      <trkpt lat="46.51424" lon="5.47351">
        <ele>447.6</ele>
        <time>2022-02-05T13:42:33Z</time>
      </trkpt>
      <trkpt lat="46.5137" lon="5.47328">
        <ele>447.4</ele>
        <time>2022-02-05T13:42:40Z</time>
      </trkpt>
      <trkpt lat="46.51353" lon="5.47322">
        <ele>447.4</ele>
        <time>2022-02-05T13:42:42Z</time>
      </trkpt>
      <trkpt lat="46.51299" lon="5.47301">
        <ele>447.2</ele>
        <time>2022-02-05T13:42:49Z</time>
      </trkpt>
      <trkpt lat="46.51268" lon="5.47289">
        <ele>447</ele>
        <time>2022-02-05T13:42:53Z</time>
      </trkpt>
      <trkpt lat="46.51209" lon="5.47265">
        <ele>446.8</ele>
        <time>2022-02-05T13:43:01Z</time>
      </trkpt>
      <trkpt lat="46.51202" lon="5.47262">
        <ele>446.8</ele>
        <time>2022-02-05T13:43:02Z</time>
      </trkpt>
      <trkpt lat="46.5115" lon="5.47241">
        <ele>446.8</ele>
        <time>2022-02-05T13:43:09Z</time>
      </trkpt>
      <trkpt lat="46.51127" lon="5.47233">
        <ele>446.8</ele>
        <time>2022-02-05T13:43:12Z</time>
      </trkpt>
      <trkpt lat="46.51074" lon="5.47214">
        <ele>447</ele>
        <time>2022-02-05T13:43:19Z</time>
      </trkpt>
      <trkpt lat="46.51042" lon="5.47202">
        <ele>447</ele>
        <time>2022-02-05T13:43:23Z</time>
      </trkpt>
      <trkpt lat="46.50989" lon="5.47181">
        <ele>446.8</ele>
        <time>2022-02-05T13:43:30Z</time>
      </trkpt>
      <trkpt lat="46.5096" lon="5.47169">
        <ele>447</ele>
        <time>2022-02-05T13:43:34Z</time>
      </trkpt>
      <trkpt lat="46.50905" lon="5.47143">
        <ele>447</ele>
        <time>2022-02-05T13:43:42Z</time>
      </trkpt>
      <trkpt lat="46.50884" lon="5.47132">
        <ele>447.2</ele>
        <time>2022-02-05T13:43:45Z</time>
      </trkpt>
      <trkpt lat="46.50865" lon="5.47125">
        <ele>447.6</ele>
        <time>2022-02-05T13:43:48Z</time>
      </trkpt>
      <trkpt lat="46.50844" lon="5.47116">
        <ele>447.6</ele>
        <time>2022-02-05T13:43:51Z</time>
      </trkpt>
      <trkpt lat="46.50831" lon="5.4711">
        <ele>447.6</ele>
        <time>2022-02-05T13:43:53Z</time>
      </trkpt>
      <trkpt lat="46.50779" lon="5.47089">
        <ele>447</ele>
        <time>2022-02-05T13:44:00Z</time>
      </trkpt>
      <trkpt lat="46.50771" lon="5.47085">
        <ele>447</ele>
        <time>2022-02-05T13:44:01Z</time>
      </trkpt>
      <trkpt lat="46.50717" lon="5.47064">
        <ele>446.4</ele>
        <time>2022-02-05T13:44:08Z</time>
      </trkpt>
      <trkpt lat="46.50693" lon="5.47055">
        <ele>446.4</ele>
        <time>2022-02-05T13:44:11Z</time>
      </trkpt>
      <trkpt lat="46.50638" lon="5.47038">
        <ele>445.8</ele>
        <time>2022-02-05T13:44:18Z</time>
      </trkpt>
      <trkpt lat="46.5063" lon="5.47036">
        <ele>445.8</ele>
        <time>2022-02-05T13:44:19Z</time>
      </trkpt>
      <trkpt lat="46.50614" lon="5.4703">
        <ele>445.6</ele>
        <time>2022-02-05T13:44:21Z</time>
      </trkpt>
      <trkpt lat="46.50559" lon="5.47013">
        <ele>445</ele>
        <time>2022-02-05T13:44:28Z</time>
      </trkpt>
      <trkpt lat="46.50536" lon="5.47005">
        <ele>444.8</ele>
        <time>2022-02-05T13:44:31Z</time>
      </trkpt>
      <trkpt lat="46.50515" lon="5.46998">
        <ele>444.8</ele>
        <time>2022-02-05T13:44:34Z</time>
      </trkpt>
      <trkpt lat="46.50468" lon="5.46982">
        <ele>445</ele>
        <time>2022-02-05T13:44:41Z</time>
      </trkpt>
      <trkpt lat="46.50431" lon="5.4697">
        <ele>445.4</ele>
        <time>2022-02-05T13:44:47Z</time>
      </trkpt>
      <trkpt lat="46.5042" lon="5.46968">
        <ele>445.8</ele>
        <time>2022-02-05T13:44:49Z</time>
      </trkpt>
      <trkpt lat="46.50395" lon="5.46965">
        <ele>446.2</ele>
        <time>2022-02-05T13:44:53Z</time>
      </trkpt>
      <trkpt lat="46.50358" lon="5.46965">
        <ele>447</ele>
        <time>2022-02-05T13:44:59Z</time>
      </trkpt>
      <trkpt lat="46.50352" lon="5.46966">
        <ele>447</ele>
        <time>2022-02-05T13:45:00Z</time>
      </trkpt>
      <trkpt lat="46.5032" lon="5.46967">
        <ele>448</ele>
        <time>2022-02-05T13:45:05Z</time>
      </trkpt>
      <trkpt lat="46.50293" lon="5.46968">
        <ele>448.6</ele>
        <time>2022-02-05T13:45:10Z</time>
      </trkpt>
      <trkpt lat="46.50269" lon="5.46969">
        <ele>449.2</ele>
        <time>2022-02-05T13:45:14Z</time>
      </trkpt>
      <trkpt lat="46.5024" lon="5.4697">
        <ele>449.6</ele>
        <time>2022-02-05T13:45:19Z</time>
      </trkpt>
      <trkpt lat="46.50191" lon="5.46979">
        <ele>449.6</ele>
        <time>2022-02-05T13:45:27Z</time>
      </trkpt>
      <trkpt lat="46.50144" lon="5.46998">
        <ele>449.2</ele>
        <time>2022-02-05T13:45:34Z</time>
      </trkpt>
      <trkpt lat="46.50089" lon="5.47018">
        <ele>448.6</ele>
        <time>2022-02-05T13:45:42Z</time>
      </trkpt>
      <trkpt lat="46.50081" lon="5.4702">
        <ele>448.6</ele>
        <time>2022-02-05T13:45:43Z</time>
      </trkpt>
      <trkpt lat="46.50021" lon="5.47026">
        <ele>448.2</ele>
        <time>2022-02-05T13:45:51Z</time>
      </trkpt>
      <trkpt lat="46.50013" lon="5.47026">
        <ele>448</ele>
        <time>2022-02-05T13:45:52Z</time>
      </trkpt>
      <trkpt lat="46.49967" lon="5.47016">
        <ele>447.2</ele>
        <time>2022-02-05T13:45:58Z</time>
      </trkpt>
      <trkpt lat="46.49959" lon="5.47013">
        <ele>447</ele>
        <time>2022-02-05T13:45:59Z</time>
      </trkpt>
      <trkpt lat="46.49909" lon="5.47">
        <ele>446.4</ele>
        <time>2022-02-05T13:46:06Z</time>
      </trkpt>
      <trkpt lat="46.49871" lon="5.46993">
        <ele>446</ele>
        <time>2022-02-05T13:46:11Z</time>
      </trkpt>
      <trkpt lat="46.49845" lon="5.46989">
        <ele>445.8</ele>
        <time>2022-02-05T13:46:14Z</time>
      </trkpt>
      <trkpt lat="46.49801" lon="5.4698">
        <ele>445.2</ele>
        <time>2022-02-05T13:46:20Z</time>
      </trkpt>
      <trkpt lat="46.49776" lon="5.46976">
        <ele>444.8</ele>
        <time>2022-02-05T13:46:23Z</time>
      </trkpt>
      <trkpt lat="46.4974" lon="5.4697">
        <ele>444.2</ele>
        <time>2022-02-05T13:46:28Z</time>
      </trkpt>
      <trkpt lat="46.49719" lon="5.46967">
        <ele>443.6</ele>
        <time>2022-02-05T13:46:31Z</time>
      </trkpt>
      <trkpt lat="46.49699" lon="5.46964">
        <ele>442.8</ele>
        <time>2022-02-05T13:46:34Z</time>
      </trkpt>
      <trkpt lat="46.49684" lon="5.46961">
        <ele>442.4</ele>
        <time>2022-02-05T13:46:36Z</time>
      </trkpt>
      <trkpt lat="46.49639" lon="5.46951">
        <ele>441.4</ele>
        <time>2022-02-05T13:46:42Z</time>
      </trkpt>
      <trkpt lat="46.49583" lon="5.46934">
        <ele>440.6</ele>
        <time>2022-02-05T13:46:49Z</time>
      </trkpt>
      <trkpt lat="46.49559" lon="5.46925">
        <ele>440.2</ele>
        <time>2022-02-05T13:46:52Z</time>
      </trkpt>
      <trkpt lat="46.49512" lon="5.46903">
        <ele>439.4</ele>
        <time>2022-02-05T13:46:58Z</time>
      </trkpt>
      <trkpt lat="46.49504" lon="5.46899">
        <ele>439</ele>
        <time>2022-02-05T13:46:59Z</time>
      </trkpt>
      <trkpt lat="46.49452" lon="5.46872">
        <ele>437.6</ele>
        <time>2022-02-05T13:47:05Z</time>
      </trkpt>
      <trkpt lat="46.49417" lon="5.46854">
        <ele>436.6</ele>
        <time>2022-02-05T13:47:09Z</time>
      </trkpt>
      <trkpt lat="46.4939" lon="5.46841">
        <ele>435.6</ele>
        <time>2022-02-05T13:47:12Z</time>
      </trkpt>
      <trkpt lat="46.49372" lon="5.46831">
        <ele>435.2</ele>
        <time>2022-02-05T13:47:14Z</time>
      </trkpt>
      <trkpt lat="46.49335" lon="5.46812">
        <ele>434.4</ele>
        <time>2022-02-05T13:47:18Z</time>
      </trkpt>
      <trkpt lat="46.49306" lon="5.46796">
        <ele>433.2</ele>
        <time>2022-02-05T13:47:21Z</time>
      </trkpt>
      <trkpt lat="46.49297" lon="5.4679">
        <ele>432.8</ele>
        <time>2022-02-05T13:47:22Z</time>
      </trkpt>
      <trkpt lat="46.49278" lon="5.46778">
        <ele>431.8</ele>
        <time>2022-02-05T13:47:24Z</time>
      </trkpt>
      <trkpt lat="46.49239" lon="5.46756">
        <ele>430.4</ele>
        <time>2022-02-05T13:47:28Z</time>
      </trkpt>
      <trkpt lat="46.49219" lon="5.46747">
        <ele>429.2</ele>
        <time>2022-02-05T13:47:30Z</time>
      </trkpt>
      <trkpt lat="46.49186" lon="5.46744">
        <ele>427.8</ele>
        <time>2022-02-05T13:47:33Z</time>
      </trkpt>
      <trkpt lat="46.49175" lon="5.46745">
        <ele>427.4</ele>
        <time>2022-02-05T13:47:34Z</time>
      </trkpt>
      <trkpt lat="46.49163" lon="5.46749">
        <ele>426</ele>
        <time>2022-02-05T13:47:35Z</time>
      </trkpt>
      <trkpt lat="46.49142" lon="5.4676">
        <ele>424.8</ele>
        <time>2022-02-05T13:47:37Z</time>
      </trkpt>
      <trkpt lat="46.49121" lon="5.46775">
        <ele>423.8</ele>
        <time>2022-02-05T13:47:39Z</time>
      </trkpt>
      <trkpt lat="46.49091" lon="5.46801">
        <ele>422.2</ele>
        <time>2022-02-05T13:47:42Z</time>
      </trkpt>
      <trkpt lat="46.49061" lon="5.46827">
        <ele>420.8</ele>
        <time>2022-02-05T13:47:45Z</time>
      </trkpt>
      <trkpt lat="46.49041" lon="5.46844">
        <ele>419.2</ele>
        <time>2022-02-05T13:47:47Z</time>
      </trkpt>
      <trkpt lat="46.49021" lon="5.46862">
        <ele>417.2</ele>
        <time>2022-02-05T13:47:49Z</time>
      </trkpt>
      <trkpt lat="46.48991" lon="5.4689">
        <ele>416.2</ele>
        <time>2022-02-05T13:47:52Z</time>
      </trkpt>
      <trkpt lat="46.4897" lon="5.46906">
        <ele>414.8</ele>
        <time>2022-02-05T13:47:54Z</time>
      </trkpt>
      <trkpt lat="46.48959" lon="5.46913">
        <ele>414.2</ele>
        <time>2022-02-05T13:47:55Z</time>
      </trkpt>
      <trkpt lat="46.48947" lon="5.46917">
        <ele>413.4</ele>
        <time>2022-02-05T13:47:56Z</time>
      </trkpt>
      <trkpt lat="46.48923" lon="5.46921">
        <ele>412.2</ele>
        <time>2022-02-05T13:47:58Z</time>
      </trkpt>
      <trkpt lat="46.48908" lon="5.46921">
        <ele>411.8</ele>
        <time>2022-02-05T13:47:59Z</time>
      </trkpt>
      <trkpt lat="46.48899" lon="5.46919">
        <ele>411</ele>
        <time>2022-02-05T13:48:00Z</time>
      </trkpt>
      <trkpt lat="46.48887" lon="5.46916">
        <ele>410.6</ele>
        <time>2022-02-05T13:48:01Z</time>
      </trkpt>
      <trkpt lat="46.48875" lon="5.46913">
        <ele>409.4</ele>
        <time>2022-02-05T13:48:02Z</time>
      </trkpt>
      <trkpt lat="46.48849" lon="5.46904">
        <ele>408</ele>
        <time>2022-02-05T13:48:04Z</time>
      </trkpt>
      <trkpt lat="46.48839" lon="5.469">
        <ele>407</ele>
        <time>2022-02-05T13:48:05Z</time>
      </trkpt>
      <trkpt lat="46.48828" lon="5.46894">
        <ele>406.4</ele>
        <time>2022-02-05T13:48:06Z</time>
      </trkpt>
      <trkpt lat="46.48817" lon="5.46887">
        <ele>405.4</ele>
        <time>2022-02-05T13:48:07Z</time>
      </trkpt>
      <trkpt lat="46.48795" lon="5.46874">
        <ele>403.8</ele>
        <time>2022-02-05T13:48:09Z</time>
      </trkpt>
      <trkpt lat="46.48774" lon="5.46862">
        <ele>402.8</ele>
        <time>2022-02-05T13:48:11Z</time>
      </trkpt>
      <trkpt lat="46.48753" lon="5.46849">
        <ele>401.4</ele>
        <time>2022-02-05T13:48:13Z</time>
      </trkpt>
      <trkpt lat="46.48743" lon="5.46843">
        <ele>400.8</ele>
        <time>2022-02-05T13:48:14Z</time>
      </trkpt>
      <trkpt lat="46.48722" lon="5.4683">
        <ele>399.6</ele>
        <time>2022-02-05T13:48:16Z</time>
      </trkpt>
      <trkpt lat="46.48692" lon="5.46812">
        <ele>398.4</ele>
        <time>2022-02-05T13:48:19Z</time>
      </trkpt>
      <trkpt lat="46.48672" lon="5.46799">
        <ele>397</ele>
        <time>2022-02-05T13:48:21Z</time>
      </trkpt>
      <trkpt lat="46.48662" lon="5.46793">
        <ele>396.6</ele>
        <time>2022-02-05T13:48:22Z</time>
      </trkpt>
      <trkpt lat="46.48652" lon="5.46787">
        <ele>396</ele>
        <time>2022-02-05T13:48:23Z</time>
      </trkpt>
      <trkpt lat="46.48632" lon="5.46775">
        <ele>394.6</ele>
        <time>2022-02-05T13:48:25Z</time>
      </trkpt>
      <trkpt lat="46.48612" lon="5.46763">
        <ele>393.4</ele>
        <time>2022-02-05T13:48:27Z</time>
      </trkpt>
      <trkpt lat="46.48592" lon="5.46751">
        <ele>392.8</ele>
        <time>2022-02-05T13:48:29Z</time>
      </trkpt>
      <trkpt lat="46.48573" lon="5.46739">
        <ele>392.4</ele>
        <time>2022-02-05T13:48:31Z</time>
      </trkpt>
      <trkpt lat="46.48544" lon="5.46722">
        <ele>391.2</ele>
        <time>2022-02-05T13:48:34Z</time>
      </trkpt>
      <trkpt lat="46.48517" lon="5.46706">
        <ele>390</ele>
        <time>2022-02-05T13:48:37Z</time>
      </trkpt>
      <trkpt lat="46.48508" lon="5.467">
        <ele>389.8</ele>
        <time>2022-02-05T13:48:38Z</time>
      </trkpt>
      <trkpt lat="46.48472" lon="5.46678">
        <ele>389</ele>
        <time>2022-02-05T13:48:42Z</time>
      </trkpt>
      <trkpt lat="46.48429" lon="5.46652">
        <ele>388.2</ele>
        <time>2022-02-05T13:48:47Z</time>
      </trkpt>
      <trkpt lat="46.48421" lon="5.46648">
        <ele>388</ele>
        <time>2022-02-05T13:48:48Z</time>
      </trkpt>
      <trkpt lat="46.48373" lon="5.46618">
        <ele>387.2</ele>
        <time>2022-02-05T13:48:54Z</time>
      </trkpt>
      <trkpt lat="46.48342" lon="5.46602">
        <ele>386.8</ele>
        <time>2022-02-05T13:48:58Z</time>
      </trkpt>
      <trkpt lat="46.48334" lon="5.46599">
        <ele>386.8</ele>
        <time>2022-02-05T13:48:59Z</time>
      </trkpt>
      <trkpt lat="46.48288" lon="5.46587">
        <ele>386.8</ele>
        <time>2022-02-05T13:49:05Z</time>
      </trkpt>
      <trkpt lat="46.48233" lon="5.46577">
        <ele>386.4</ele>
        <time>2022-02-05T13:49:12Z</time>
      </trkpt>
      <trkpt lat="46.48202" lon="5.46572">
        <ele>386.4</ele>
        <time>2022-02-05T13:49:16Z</time>
      </trkpt>
      <trkpt lat="46.48141" lon="5.46561">
        <ele>386.8</ele>
        <time>2022-02-05T13:49:24Z</time>
      </trkpt>
      <trkpt lat="46.48125" lon="5.46557">
        <ele>386.8</ele>
        <time>2022-02-05T13:49:26Z</time>
      </trkpt>
      <trkpt lat="46.48065" lon="5.46548">
        <ele>387.4</ele>
        <time>2022-02-05T13:49:34Z</time>
      </trkpt>
      <trkpt lat="46.48042" lon="5.46544">
        <ele>388.2</ele>
        <time>2022-02-05T13:49:37Z</time>
      </trkpt>
      <trkpt lat="46.47998" lon="5.46535">
        <ele>388.2</ele>
        <time>2022-02-05T13:49:43Z</time>
      </trkpt>
      <trkpt lat="46.47938" lon="5.46524">
        <ele>387.4</ele>
        <time>2022-02-05T13:49:51Z</time>
      </trkpt>
      <trkpt lat="46.47881" lon="5.46513">
        <ele>387.4</ele>
        <time>2022-02-05T13:49:58Z</time>
      </trkpt>
      <trkpt lat="46.47865" lon="5.46511">
        <ele>387.4</ele>
        <time>2022-02-05T13:50:00Z</time>
      </trkpt>
      <trkpt lat="46.47809" lon="5.46501">
        <ele>387.4</ele>
        <time>2022-02-05T13:50:07Z</time>
      </trkpt>
      <trkpt lat="46.47786" lon="5.46496">
        <ele>387.2</ele>
        <time>2022-02-05T13:50:10Z</time>
      </trkpt>
      <trkpt lat="46.47762" lon="5.46492">
        <ele>387.2</ele>
        <time>2022-02-05T13:50:13Z</time>
      </trkpt>
      <trkpt lat="46.47705" lon="5.46482">
        <ele>387</ele>
        <time>2022-02-05T13:50:20Z</time>
      </trkpt>
      <trkpt lat="46.4765" lon="5.46472">
        <ele>386.8</ele>
        <time>2022-02-05T13:50:27Z</time>
      </trkpt>
      <trkpt lat="46.47634" lon="5.46469">
        <ele>386.8</ele>
        <time>2022-02-05T13:50:29Z</time>
      </trkpt>
      <trkpt lat="46.47578" lon="5.46459">
        <ele>386.4</ele>
        <time>2022-02-05T13:50:36Z</time>
      </trkpt>
      <trkpt lat="46.47553" lon="5.46455">
        <ele>386.2</ele>
        <time>2022-02-05T13:50:39Z</time>
      </trkpt>
      <trkpt lat="46.47536" lon="5.46452">
        <ele>386</ele>
        <time>2022-02-05T13:50:41Z</time>
      </trkpt>
      <trkpt lat="46.47476" lon="5.46441">
        <ele>384.8</ele>
        <time>2022-02-05T13:50:48Z</time>
      </trkpt>
      <trkpt lat="46.47449" lon="5.46437">
        <ele>384.2</ele>
        <time>2022-02-05T13:50:51Z</time>
      </trkpt>
      <trkpt lat="46.47414" lon="5.4643">
        <ele>383.8</ele>
        <time>2022-02-05T13:50:55Z</time>
      </trkpt>
      <trkpt lat="46.47359" lon="5.4642">
        <ele>383.2</ele>
        <time>2022-02-05T13:51:01Z</time>
      </trkpt>
      <trkpt lat="46.4735" lon="5.46419">
        <ele>382.8</ele>
        <time>2022-02-05T13:51:02Z</time>
      </trkpt>
      <trkpt lat="46.47332" lon="5.46416">
        <ele>382.4</ele>
        <time>2022-02-05T13:51:04Z</time>
      </trkpt>
      <trkpt lat="46.47295" lon="5.46409">
        <ele>381.8</ele>
        <time>2022-02-05T13:51:08Z</time>
      </trkpt>
      <trkpt lat="46.47267" lon="5.46404">
        <ele>381.4</ele>
        <time>2022-02-05T13:51:11Z</time>
      </trkpt>
      <trkpt lat="46.47221" lon="5.46396">
        <ele>380.6</ele>
        <time>2022-02-05T13:51:16Z</time>
      </trkpt>
      <trkpt lat="46.47202" lon="5.46392">
        <ele>380.4</ele>
        <time>2022-02-05T13:51:18Z</time>
      </trkpt>
      <trkpt lat="46.47157" lon="5.46385">
        <ele>379.6</ele>
        <time>2022-02-05T13:51:23Z</time>
      </trkpt>
      <trkpt lat="46.47131" lon="5.4638">
        <ele>379.2</ele>
        <time>2022-02-05T13:51:26Z</time>
      </trkpt>
      <trkpt lat="46.4707" lon="5.46369">
        <ele>378.8</ele>
        <time>2022-02-05T13:51:33Z</time>
      </trkpt>
      <trkpt lat="46.47062" lon="5.46367">
        <ele>379</ele>
        <time>2022-02-05T13:51:34Z</time>
      </trkpt>
      <trkpt lat="46.47036" lon="5.46363">
        <ele>378.8</ele>
        <time>2022-02-05T13:51:37Z</time>
      </trkpt>
      <trkpt lat="46.46994" lon="5.46355">
        <ele>378.6</ele>
        <time>2022-02-05T13:51:42Z</time>
      </trkpt>
      <trkpt lat="46.46935" lon="5.46344">
        <ele>378</ele>
        <time>2022-02-05T13:51:49Z</time>
      </trkpt>
      <trkpt lat="46.46927" lon="5.46343">
        <ele>378</ele>
        <time>2022-02-05T13:51:50Z</time>
      </trkpt>
      <trkpt lat="46.46867" lon="5.46332">
        <ele>378</ele>
        <time>2022-02-05T13:51:57Z</time>
      </trkpt>
      <trkpt lat="46.4685" lon="5.46329">
        <ele>378.2</ele>
        <time>2022-02-05T13:51:59Z</time>
      </trkpt>
      <trkpt lat="46.46789" lon="5.46318">
        <ele>378.6</ele>
        <time>2022-02-05T13:52:06Z</time>
      </trkpt>
      <trkpt lat="46.46749" lon="5.46311">
        <ele>378.8</ele>
        <time>2022-02-05T13:52:11Z</time>
      </trkpt>
      <trkpt lat="46.46692" lon="5.463">
        <ele>378.8</ele>
        <time>2022-02-05T13:52:18Z</time>
      </trkpt>
      <trkpt lat="46.46683" lon="5.46299">
        <ele>378.8</ele>
        <time>2022-02-05T13:52:19Z</time>
      </trkpt>
      <trkpt lat="46.46627" lon="5.46289">
        <ele>378.4</ele>
        <time>2022-02-05T13:52:26Z</time>
      </trkpt>
      <trkpt lat="46.46611" lon="5.46286">
        <ele>378.2</ele>
        <time>2022-02-05T13:52:28Z</time>
      </trkpt>
      <trkpt lat="46.46555" lon="5.46276">
        <ele>377.8</ele>
        <time>2022-02-05T13:52:35Z</time>
      </trkpt>
      <trkpt lat="46.46539" lon="5.46273">
        <ele>378</ele>
        <time>2022-02-05T13:52:37Z</time>
      </trkpt>
      <trkpt lat="46.46531" lon="5.46271">
        <ele>377.8</ele>
        <time>2022-02-05T13:52:38Z</time>
      </trkpt>
      <trkpt lat="46.46477" lon="5.46262">
        <ele>377.6</ele>
        <time>2022-02-05T13:52:45Z</time>
      </trkpt>
      <trkpt lat="46.46423" lon="5.46252">
        <ele>378</ele>
        <time>2022-02-05T13:52:52Z</time>
      </trkpt>
      <trkpt lat="46.46416" lon="5.46251">
        <ele>378</ele>
        <time>2022-02-05T13:52:53Z</time>
      </trkpt>
      <trkpt lat="46.46361" lon="5.46241">
        <ele>377.6</ele>
        <time>2022-02-05T13:53:00Z</time>
      </trkpt>
      <trkpt lat="46.46344" lon="5.46238">
        <ele>377.6</ele>
        <time>2022-02-05T13:53:02Z</time>
      </trkpt>
      <trkpt lat="46.46283" lon="5.46227">
        <ele>377.4</ele>
        <time>2022-02-05T13:53:10Z</time>
      </trkpt>
      <trkpt lat="46.4626" lon="5.46223">
        <ele>377.4</ele>
        <time>2022-02-05T13:53:13Z</time>
      </trkpt>
      <trkpt lat="46.46214" lon="5.46215">
        <ele>377.4</ele>
        <time>2022-02-05T13:53:19Z</time>
      </trkpt>
      <trkpt lat="46.46191" lon="5.46211">
        <ele>377.4</ele>
        <time>2022-02-05T13:53:22Z</time>
      </trkpt>
      <trkpt lat="46.46137" lon="5.46201">
        <ele>377.4</ele>
        <time>2022-02-05T13:53:29Z</time>
      </trkpt>
      <trkpt lat="46.46115" lon="5.46198">
        <ele>377.4</ele>
        <time>2022-02-05T13:53:32Z</time>
      </trkpt>
      <trkpt lat="46.4606" lon="5.46188">
        <ele>377.4</ele>
        <time>2022-02-05T13:53:39Z</time>
      </trkpt>
      <trkpt lat="46.46052" lon="5.46187">
        <ele>377.4</ele>
        <time>2022-02-05T13:53:40Z</time>
      </trkpt>
      <trkpt lat="46.45998" lon="5.46177">
        <ele>377.6</ele>
        <time>2022-02-05T13:53:47Z</time>
      </trkpt>
      <trkpt lat="46.45975" lon="5.46173">
        <ele>377.6</ele>
        <time>2022-02-05T13:53:50Z</time>
      </trkpt>
      <trkpt lat="46.4592" lon="5.46163">
        <ele>377.6</ele>
        <time>2022-02-05T13:53:57Z</time>
      </trkpt>
      <trkpt lat="46.45905" lon="5.4616">
        <ele>377.6</ele>
        <time>2022-02-05T13:53:59Z</time>
      </trkpt>
      <trkpt lat="46.45851" lon="5.46151">
        <ele>377.4</ele>
        <time>2022-02-05T13:54:06Z</time>
      </trkpt>
      <trkpt lat="46.45821" lon="5.46146">
        <ele>377.4</ele>
        <time>2022-02-05T13:54:10Z</time>
      </trkpt>
      <trkpt lat="46.4576" lon="5.46135">
        <ele>377.6</ele>
        <time>2022-02-05T13:54:18Z</time>
      </trkpt>
      <trkpt lat="46.45722" lon="5.46128">
        <ele>377.8</ele>
        <time>2022-02-05T13:54:23Z</time>
      </trkpt>
      <trkpt lat="46.45665" lon="5.46118">
        <ele>377.8</ele>
        <time>2022-02-05T13:54:31Z</time>
      </trkpt>
      <trkpt lat="46.45651" lon="5.46115">
        <ele>378</ele>
        <time>2022-02-05T13:54:33Z</time>
      </trkpt>
      <trkpt lat="46.45596" lon="5.46106">
        <ele>378.6</ele>
        <time>2022-02-05T13:54:41Z</time>
      </trkpt>
      <trkpt lat="46.45583" lon="5.46104">
        <ele>378.6</ele>
        <time>2022-02-05T13:54:43Z</time>
      </trkpt>
      <trkpt lat="46.4555" lon="5.46097">
        <ele>379</ele>
        <time>2022-02-05T13:54:48Z</time>
      </trkpt>
      <trkpt lat="46.45524" lon="5.46092">
        <ele>379.4</ele>
        <time>2022-02-05T13:54:52Z</time>
      </trkpt>
      <trkpt lat="46.45504" lon="5.46088">
        <ele>380.2</ele>
        <time>2022-02-05T13:54:55Z</time>
      </trkpt>
      <trkpt lat="46.45466" lon="5.46083">
        <ele>381.2</ele>
        <time>2022-02-05T13:55:01Z</time>
      </trkpt>
      <trkpt lat="46.45459" lon="5.46082">
        <ele>381.2</ele>
        <time>2022-02-05T13:55:02Z</time>
      </trkpt>
      <trkpt lat="46.45423" lon="5.46075">
        <ele>382.4</ele>
        <time>2022-02-05T13:55:08Z</time>
      </trkpt>
      <trkpt lat="46.45387" lon="5.46069">
        <ele>383.4</ele>
        <time>2022-02-05T13:55:14Z</time>
      </trkpt>
      <trkpt lat="46.45375" lon="5.46067">
        <ele>383.6</ele>
        <time>2022-02-05T13:55:16Z</time>
      </trkpt>
      <trkpt lat="46.45321" lon="5.46057">
        <ele>384.2</ele>
        <time>2022-02-05T13:55:25Z</time>
      </trkpt>
      <trkpt lat="46.45315" lon="5.46056">
        <ele>384.2</ele>
        <time>2022-02-05T13:55:26Z</time>
      </trkpt>
      <trkpt lat="46.45272" lon="5.4605">
        <ele>384.4</ele>
        <time>2022-02-05T13:55:33Z</time>
      </trkpt>
      <trkpt lat="46.4524" lon="5.46042">
        <ele>384.6</ele>
        <time>2022-02-05T13:55:38Z</time>
      </trkpt>
      <trkpt lat="46.45226" lon="5.46035">
        <ele>384.6</ele>
        <time>2022-02-05T13:55:40Z</time>
      </trkpt>
      <trkpt lat="46.45213" lon="5.46024">
        <ele>384.4</ele>
        <time>2022-02-05T13:55:42Z</time>
      </trkpt>
      <trkpt lat="46.45183" lon="5.46">
        <ele>383.6</ele>
        <time>2022-02-05T13:55:46Z</time>
      </trkpt>
      <trkpt lat="46.45174" lon="5.45995">
        <ele>383.2</ele>
        <time>2022-02-05T13:55:47Z</time>
      </trkpt>
      <trkpt lat="46.45166" lon="5.4599">
        <ele>383</ele>
        <time>2022-02-05T13:55:48Z</time>
      </trkpt>
      <trkpt lat="46.45144" lon="5.45972">
        <ele>382.2</ele>
        <time>2022-02-05T13:55:51Z</time>
      </trkpt>
      <trkpt lat="46.45128" lon="5.45959">
        <ele>381.8</ele>
        <time>2022-02-05T13:55:53Z</time>
      </trkpt>
      <trkpt lat="46.4511" lon="5.45947">
        <ele>381.2</ele>
        <time>2022-02-05T13:55:55Z</time>
      </trkpt>
      <trkpt lat="46.45101" lon="5.45943">
        <ele>380.8</ele>
        <time>2022-02-05T13:55:56Z</time>
      </trkpt>
      <trkpt lat="46.45061" lon="5.45922">
        <ele>379.6</ele>
        <time>2022-02-05T13:56:01Z</time>
      </trkpt>
      <trkpt lat="46.45045" lon="5.45912">
        <ele>379.4</ele>
        <time>2022-02-05T13:56:03Z</time>
      </trkpt>
      <trkpt lat="46.45002" lon="5.45885">
        <ele>379.2</ele>
        <time>2022-02-05T13:56:09Z</time>
      </trkpt>
      <trkpt lat="46.44957" lon="5.45858">
        <ele>380</ele>
        <time>2022-02-05T13:56:16Z</time>
      </trkpt>
      <trkpt lat="46.44921" lon="5.45837">
        <ele>380.8</ele>
        <time>2022-02-05T13:56:22Z</time>
      </trkpt>
      <trkpt lat="46.44902" lon="5.45826">
        <ele>381</ele>
        <time>2022-02-05T13:56:25Z</time>
      </trkpt>
      <trkpt lat="46.44872" lon="5.45808">
        <ele>381.8</ele>
        <time>2022-02-05T13:56:30Z</time>
      </trkpt>
      <trkpt lat="46.44846" lon="5.45793">
        <ele>382.2</ele>
        <time>2022-02-05T13:56:34Z</time>
      </trkpt>
      <trkpt lat="46.44793" lon="5.45763">
        <ele>382.4</ele>
        <time>2022-02-05T13:56:42Z</time>
      </trkpt>
      <trkpt lat="46.44772" lon="5.45752">
        <ele>382.4</ele>
        <time>2022-02-05T13:56:45Z</time>
      </trkpt>
      <trkpt lat="46.4472" lon="5.45725">
        <ele>382</ele>
        <time>2022-02-05T13:56:52Z</time>
      </trkpt>
      <trkpt lat="46.44705" lon="5.45718">
        <ele>381.8</ele>
        <time>2022-02-05T13:56:54Z</time>
      </trkpt>
      <trkpt lat="46.4465" lon="5.45697">
        <ele>381.4</ele>
        <time>2022-02-05T13:57:01Z</time>
      </trkpt>
      <trkpt lat="46.44627" lon="5.4569">
        <ele>381.4</ele>
        <time>2022-02-05T13:57:04Z</time>
      </trkpt>
      <trkpt lat="46.44567" lon="5.4567">
        <ele>381.4</ele>
        <time>2022-02-05T13:57:12Z</time>
      </trkpt>
      <trkpt lat="46.4451" lon="5.45653">
        <ele>381.6</ele>
        <time>2022-02-05T13:57:20Z</time>
      </trkpt>
      <trkpt lat="46.44497" lon="5.4565">
        <ele>381.8</ele>
        <time>2022-02-05T13:57:22Z</time>
      </trkpt>
      <trkpt lat="46.44446" lon="5.45643">
        <ele>382.4</ele>
        <time>2022-02-05T13:57:29Z</time>
      </trkpt>
      <trkpt lat="46.44415" lon="5.4564">
        <ele>382.2</ele>
        <time>2022-02-05T13:57:33Z</time>
      </trkpt>
      <trkpt lat="46.44365" lon="5.45634">
        <ele>381.2</ele>
        <time>2022-02-05T13:57:39Z</time>
      </trkpt>
      <trkpt lat="46.44349" lon="5.45632">
        <ele>381</ele>
        <time>2022-02-05T13:57:41Z</time>
      </trkpt>
      <trkpt lat="46.44332" lon="5.4563">
        <ele>379.8</ele>
        <time>2022-02-05T13:57:43Z</time>
      </trkpt>
      <trkpt lat="46.443" lon="5.45627">
        <ele>378.8</ele>
        <time>2022-02-05T13:57:47Z</time>
      </trkpt>
      <trkpt lat="46.44275" lon="5.45624">
        <ele>378.8</ele>
        <time>2022-02-05T13:57:50Z</time>
      </trkpt>
      <trkpt lat="46.44234" lon="5.45627">
        <ele>378.2</ele>
        <time>2022-02-05T13:57:55Z</time>
      </trkpt>
      <trkpt lat="46.4421" lon="5.45631">
        <ele>377.6</ele>
        <time>2022-02-05T13:57:58Z</time>
      </trkpt>
      <trkpt lat="46.44161" lon="5.45641">
        <ele>376.6</ele>
        <time>2022-02-05T13:58:04Z</time>
      </trkpt>
      <trkpt lat="46.44145" lon="5.45644">
        <ele>376.4</ele>
        <time>2022-02-05T13:58:06Z</time>
      </trkpt>
      <trkpt lat="46.44091" lon="5.45654">
        <ele>375.8</ele>
        <time>2022-02-05T13:58:13Z</time>
      </trkpt>
      <trkpt lat="46.44084" lon="5.45656">
        <ele>375.8</ele>
        <time>2022-02-05T13:58:14Z</time>
      </trkpt>
      <trkpt lat="46.44068" lon="5.45659">
        <ele>375.6</ele>
        <time>2022-02-05T13:58:16Z</time>
      </trkpt>
      <trkpt lat="46.44014" lon="5.45669">
        <ele>375.2</ele>
        <time>2022-02-05T13:58:23Z</time>
      </trkpt>
      <trkpt lat="46.4396" lon="5.45679">
        <ele>374.6</ele>
        <time>2022-02-05T13:58:30Z</time>
      </trkpt>
      <trkpt lat="46.43932" lon="5.45684">
        <ele>374.2</ele>
        <time>2022-02-05T13:58:34Z</time>
      </trkpt>
      <trkpt lat="46.43897" lon="5.4569">
        <ele>373.6</ele>
        <time>2022-02-05T13:58:39Z</time>
      </trkpt>
      <trkpt lat="46.4389" lon="5.45692">
        <ele>373.6</ele>
        <time>2022-02-05T13:58:40Z</time>
      </trkpt>
      <trkpt lat="46.43862" lon="5.45697">
        <ele>373.6</ele>
        <time>2022-02-05T13:58:44Z</time>
      </trkpt>
      <trkpt lat="46.43841" lon="5.45698">
        <ele>373.8</ele>
        <time>2022-02-05T13:58:47Z</time>
      </trkpt>
      <trkpt lat="46.43834" lon="5.45697">
        <ele>374</ele>
        <time>2022-02-05T13:58:48Z</time>
      </trkpt>
      <trkpt lat="46.43827" lon="5.45694">
        <ele>374</ele>
        <time>2022-02-05T13:58:49Z</time>
      </trkpt>
      <trkpt lat="46.43814" lon="5.45684">
        <ele>374.2</ele>
        <time>2022-02-05T13:58:51Z</time>
      </trkpt>
      <trkpt lat="46.43792" lon="5.45655">
        <ele>374.2</ele>
        <time>2022-02-05T13:58:55Z</time>
      </trkpt>
      <trkpt lat="46.43786" lon="5.45649">
        <ele>374</ele>
        <time>2022-02-05T13:58:56Z</time>
      </trkpt>
      <trkpt lat="46.4378" lon="5.45644">
        <ele>374</ele>
        <time>2022-02-05T13:58:57Z</time>
      </trkpt>
      <trkpt lat="46.43762" lon="5.45633">
        <ele>373.6</ele>
        <time>2022-02-05T13:59:00Z</time>
      </trkpt>
      <trkpt lat="46.43729" lon="5.45612">
        <ele>374</ele>
        <time>2022-02-05T13:59:06Z</time>
      </trkpt>
      <trkpt lat="46.43718" lon="5.45602">
        <ele>374.4</ele>
        <time>2022-02-05T13:59:08Z</time>
      </trkpt>
      <trkpt lat="46.43709" lon="5.45588">
        <ele>374.4</ele>
        <time>2022-02-05T13:59:10Z</time>
      </trkpt>
      <trkpt lat="46.43704" lon="5.45573">
        <ele>374.6</ele>
        <time>2022-02-05T13:59:12Z</time>
      </trkpt>
      <trkpt lat="46.43701" lon="5.45557">
        <ele>374.6</ele>
        <time>2022-02-05T13:59:14Z</time>
      </trkpt>
      <trkpt lat="46.43701" lon="5.45549">
        <ele>374.6</ele>
        <time>2022-02-05T13:59:15Z</time>
      </trkpt>
      <trkpt lat="46.43704" lon="5.45528">
        <ele>375</ele>
        <time>2022-02-05T13:59:18Z</time>
      </trkpt>
      <trkpt lat="46.43709" lon="5.4551">
        <ele>375.6</ele>
        <time>2022-02-05T13:59:21Z</time>
      </trkpt>
      <trkpt lat="46.43714" lon="5.45494">
        <ele>376.2</ele>
        <time>2022-02-05T13:59:24Z</time>
      </trkpt>
      <trkpt lat="46.43715" lon="5.4549">
        <ele>376.6</ele>
        <time>2022-02-05T13:59:25Z</time>
      </trkpt>
      <trkpt lat="46.43722" lon="5.45476">
        <ele>378</ele>
        <time>2022-02-05T13:59:28Z</time>
      </trkpt>
      <trkpt lat="46.43724" lon="5.45472">
        <ele>378</ele>
        <time>2022-02-05T13:59:29Z</time>
      </trkpt>
      <trkpt lat="46.43731" lon="5.4546">
        <ele>379.2</ele>
        <time>2022-02-05T13:59:32Z</time>
      </trkpt>
      <trkpt lat="46.43736" lon="5.45449">
        <ele>380.2</ele>
        <time>2022-02-05T13:59:35Z</time>
      </trkpt>
      <trkpt lat="46.4374" lon="5.45433">
        <ele>381.8</ele>
        <time>2022-02-05T13:59:39Z</time>
      </trkpt>
      <trkpt lat="46.43741" lon="5.4543">
        <ele>382.2</ele>
        <time>2022-02-05T13:59:40Z</time>
      </trkpt>
      <trkpt lat="46.43741" lon="5.4542">
        <ele>383</ele>
        <time>2022-02-05T13:59:42Z</time>
      </trkpt>
      <trkpt lat="46.43745" lon="5.4539">
        <ele>383.6</ele>
        <time>2022-02-05T13:59:47Z</time>
      </trkpt>
      <trkpt lat="46.43747" lon="5.45383">
        <ele>383.6</ele>
        <time>2022-02-05T13:59:48Z</time>
      </trkpt>
      <trkpt lat="46.43757" lon="5.45362">
        <ele>383.4</ele>
        <time>2022-02-05T13:59:51Z</time>
      </trkpt>
      <trkpt lat="46.4376" lon="5.45354">
        <ele>383.4</ele>
        <time>2022-02-05T13:59:52Z</time>
      </trkpt>
      <trkpt lat="46.43768" lon="5.45324">
        <ele>382.6</ele>
        <time>2022-02-05T13:59:55Z</time>
      </trkpt>
      <trkpt lat="46.43772" lon="5.45302">
        <ele>381.8</ele>
        <time>2022-02-05T13:59:57Z</time>
      </trkpt>
      <trkpt lat="46.43777" lon="5.45267">
        <ele>380.4</ele>
        <time>2022-02-05T14:00:00Z</time>
      </trkpt>
      <trkpt lat="46.43779" lon="5.45256">
        <ele>380</ele>
        <time>2022-02-05T14:00:01Z</time>
      </trkpt>
      <trkpt lat="46.43784" lon="5.45222">
        <ele>379</ele>
        <time>2022-02-05T14:00:04Z</time>
      </trkpt>
      <trkpt lat="46.43798" lon="5.4516">
        <ele>378.2</ele>
        <time>2022-02-05T14:00:10Z</time>
      </trkpt>
      <trkpt lat="46.43801" lon="5.4515">
        <ele>378</ele>
        <time>2022-02-05T14:00:11Z</time>
      </trkpt>
      <trkpt lat="46.43812" lon="5.45123">
        <ele>377.8</ele>
        <time>2022-02-05T14:00:14Z</time>
      </trkpt>
      <trkpt lat="46.43816" lon="5.45115">
        <ele>377.8</ele>
        <time>2022-02-05T14:00:15Z</time>
      </trkpt>
      <trkpt lat="46.43842" lon="5.45071">
        <ele>377.8</ele>
        <time>2022-02-05T14:00:21Z</time>
      </trkpt>
      <trkpt lat="46.43845" lon="5.45063">
        <ele>377.8</ele>
        <time>2022-02-05T14:00:22Z</time>
      </trkpt>
      <trkpt lat="46.43847" lon="5.45055">
        <ele>377.8</ele>
        <time>2022-02-05T14:00:23Z</time>
      </trkpt>
      <trkpt lat="46.43849" lon="5.45037">
        <ele>377.8</ele>
        <time>2022-02-05T14:00:25Z</time>
      </trkpt>
      <trkpt lat="46.43848" lon="5.45027">
        <ele>377.8</ele>
        <time>2022-02-05T14:00:26Z</time>
      </trkpt>
      <trkpt lat="46.43844" lon="5.44991">
        <ele>378.2</ele>
        <time>2022-02-05T14:00:31Z</time>
      </trkpt>
      <trkpt lat="46.4384" lon="5.4498">
        <ele>378.4</ele>
        <time>2022-02-05T14:00:33Z</time>
      </trkpt>
      <trkpt lat="46.43835" lon="5.44971">
        <ele>379</ele>
        <time>2022-02-05T14:00:35Z</time>
      </trkpt>
      <trkpt lat="46.43822" lon="5.44957">
        <ele>380.2</ele>
        <time>2022-02-05T14:00:39Z</time>
      </trkpt>
      <trkpt lat="46.43813" lon="5.44951">
        <ele>380.8</ele>
        <time>2022-02-05T14:00:41Z</time>
      </trkpt>
      <trkpt lat="46.43804" lon="5.44945">
        <ele>381.2</ele>
        <time>2022-02-05T14:00:43Z</time>
      </trkpt>
      <trkpt lat="46.4379" lon="5.44934">
        <ele>381.8</ele>
        <time>2022-02-05T14:00:46Z</time>
      </trkpt>
      <trkpt lat="46.43786" lon="5.4493">
        <ele>381.8</ele>
        <time>2022-02-05T14:00:47Z</time>
      </trkpt>
      <trkpt lat="46.43754" lon="5.449">
        <ele>382</ele>
        <time>2022-02-05T14:00:53Z</time>
      </trkpt>
      <trkpt lat="46.43719" lon="5.44877">
        <ele>381.4</ele>
        <time>2022-02-05T14:00:59Z</time>
      </trkpt>
      <trkpt lat="46.43674" lon="5.44854">
        <ele>381.6</ele>
        <time>2022-02-05T14:01:07Z</time>
      </trkpt>
      <trkpt lat="46.43658" lon="5.44844">
        <ele>381.8</ele>
        <time>2022-02-05T14:01:10Z</time>
      </trkpt>
      <trkpt lat="46.43648" lon="5.44839">
        <ele>382</ele>
        <time>2022-02-05T14:01:12Z</time>
      </trkpt>
      <trkpt lat="46.43626" lon="5.44827">
        <ele>382.4</ele>
        <time>2022-02-05T14:01:16Z</time>
      </trkpt>
      <trkpt lat="46.43614" lon="5.44821">
        <ele>382.6</ele>
        <time>2022-02-05T14:01:18Z</time>
      </trkpt>
      <trkpt lat="46.43578" lon="5.44803">
        <ele>382.8</ele>
        <time>2022-02-05T14:01:24Z</time>
      </trkpt>
      <trkpt lat="46.43554" lon="5.44796">
        <ele>383</ele>
        <time>2022-02-05T14:01:28Z</time>
      </trkpt>
      <trkpt lat="46.43541" lon="5.44793">
        <ele>383</ele>
        <time>2022-02-05T14:01:30Z</time>
      </trkpt>
      <trkpt lat="46.43528" lon="5.44789">
        <ele>383</ele>
        <time>2022-02-05T14:01:32Z</time>
      </trkpt>
      <trkpt lat="46.43504" lon="5.44787">
        <ele>383.4</ele>
        <time>2022-02-05T14:01:36Z</time>
      </trkpt>
      <trkpt lat="46.43484" lon="5.44785">
        <ele>383.4</ele>
        <time>2022-02-05T14:01:39Z</time>
      </trkpt>
      <trkpt lat="46.43464" lon="5.44782">
        <ele>383.4</ele>
        <time>2022-02-05T14:01:42Z</time>
      </trkpt>
      <trkpt lat="46.43437" lon="5.44776">
        <ele>383.4</ele>
        <time>2022-02-05T14:01:47Z</time>
      </trkpt>
      <trkpt lat="46.43426" lon="5.44774">
        <ele>383.6</ele>
        <time>2022-02-05T14:01:49Z</time>
      </trkpt>
      <trkpt lat="46.43398" lon="5.44768">
        <ele>383.8</ele>
        <time>2022-02-05T14:01:54Z</time>
      </trkpt>
      <trkpt lat="46.43342" lon="5.44753">
        <ele>384</ele>
        <time>2022-02-05T14:02:03Z</time>
      </trkpt>
      <trkpt lat="46.4333" lon="5.4475">
        <ele>384</ele>
        <time>2022-02-05T14:02:05Z</time>
      </trkpt>
      <trkpt lat="46.43311" lon="5.44743">
        <ele>384.2</ele>
        <time>2022-02-05T14:02:08Z</time>
      </trkpt>
      <trkpt lat="46.433" lon="5.44741">
        <ele>384.4</ele>
        <time>2022-02-05T14:02:10Z</time>
      </trkpt>
      <trkpt lat="46.43288" lon="5.4474">
        <ele>384.6</ele>
        <time>2022-02-05T14:02:12Z</time>
      </trkpt>
      <trkpt lat="46.43283" lon="5.44738">
        <ele>384.6</ele>
        <time>2022-02-05T14:02:13Z</time>
      </trkpt>
      <trkpt lat="46.43246" lon="5.44721">
        <ele>385.2</ele>
        <time>2022-02-05T14:02:20Z</time>
      </trkpt>
      <trkpt lat="46.4324" lon="5.44718">
        <ele>385.6</ele>
        <time>2022-02-05T14:02:21Z</time>
      </trkpt>
      <trkpt lat="46.43201" lon="5.44708">
        <ele>386.4</ele>
        <time>2022-02-05T14:02:28Z</time>
      </trkpt>
      <trkpt lat="46.4318" lon="5.44705">
        <ele>386.6</ele>
        <time>2022-02-05T14:02:32Z</time>
      </trkpt>
      <trkpt lat="46.43158" lon="5.44703">
        <ele>387.2</ele>
        <time>2022-02-05T14:02:36Z</time>
      </trkpt>
      <trkpt lat="46.43136" lon="5.44702">
        <ele>387.6</ele>
        <time>2022-02-05T14:02:40Z</time>
      </trkpt>
      <trkpt lat="46.43114" lon="5.44704">
        <ele>388</ele>
        <time>2022-02-05T14:02:44Z</time>
      </trkpt>
      <trkpt lat="46.43089" lon="5.44707">
        <ele>388.8</ele>
        <time>2022-02-05T14:02:49Z</time>
      </trkpt>
      <trkpt lat="46.43074" lon="5.44708">
        <ele>389.2</ele>
        <time>2022-02-05T14:02:52Z</time>
      </trkpt>
      <trkpt lat="46.4306" lon="5.4471">
        <ele>389.8</ele>
        <time>2022-02-05T14:02:55Z</time>
      </trkpt>
      <trkpt lat="46.43025" lon="5.44713">
        <ele>391</ele>
        <time>2022-02-05T14:03:02Z</time>
      </trkpt>
      <trkpt lat="46.42988" lon="5.44714">
        <ele>392.2</ele>
        <time>2022-02-05T14:03:10Z</time>
      </trkpt>
      <trkpt lat="46.42979" lon="5.44714">
        <ele>392.6</ele>
        <time>2022-02-05T14:03:12Z</time>
      </trkpt>
      <trkpt lat="46.42969" lon="5.44714">
        <ele>393.2</ele>
        <time>2022-02-05T14:03:14Z</time>
      </trkpt>
      <trkpt lat="46.42941" lon="5.44713">
        <ele>394.2</ele>
        <time>2022-02-05T14:03:20Z</time>
      </trkpt>
      <trkpt lat="46.42936" lon="5.44712">
        <ele>394.4</ele>
        <time>2022-02-05T14:03:21Z</time>
      </trkpt>
      <trkpt lat="46.42896" lon="5.447">
        <ele>395.6</ele>
        <time>2022-02-05T14:03:29Z</time>
      </trkpt>
      <trkpt lat="46.42861" lon="5.44678">
        <ele>396.2</ele>
        <time>2022-02-05T14:03:36Z</time>
      </trkpt>
      <trkpt lat="46.42839" lon="5.44655">
        <ele>396.6</ele>
        <time>2022-02-05T14:03:41Z</time>
      </trkpt>
      <trkpt lat="46.42835" lon="5.4465">
        <ele>396.8</ele>
        <time>2022-02-05T14:03:42Z</time>
      </trkpt>
      <trkpt lat="46.42803" lon="5.44602">
        <ele>397.2</ele>
        <time>2022-02-05T14:03:50Z</time>
      </trkpt>
      <trkpt lat="46.42781" lon="5.4457">
        <ele>397.6</ele>
        <time>2022-02-05T14:03:57Z</time>
      </trkpt>
      <trkpt lat="46.42768" lon="5.44543">
        <ele>397.4</ele>
        <time>2022-02-05T14:04:03Z</time>
      </trkpt>
      <trkpt lat="46.42754" lon="5.44507">
        <ele>397.2</ele>
        <time>2022-02-05T14:04:07Z</time>
      </trkpt>
      <trkpt lat="46.4273" lon="5.44434">
        <ele>396.2</ele>
        <time>2022-02-05T14:04:14Z</time>
      </trkpt>
      <trkpt lat="46.42724" lon="5.44413">
        <ele>396</ele>
        <time>2022-02-05T14:04:16Z</time>
      </trkpt>
      <trkpt lat="46.42722" lon="5.44389">
        <ele>395.8</ele>
        <time>2022-02-05T14:04:18Z</time>
      </trkpt>
      <trkpt lat="46.42725" lon="5.44367">
        <ele>395.6</ele>
        <time>2022-02-05T14:04:20Z</time>
      </trkpt>
      <trkpt lat="46.4273" lon="5.44346">
        <ele>395.4</ele>
        <time>2022-02-05T14:04:22Z</time>
      </trkpt>
      <trkpt lat="46.42732" lon="5.44317">
        <ele>395.4</ele>
        <time>2022-02-05T14:04:25Z</time>
      </trkpt>
      <trkpt lat="46.42732" lon="5.44308">
        <ele>395.4</ele>
        <time>2022-02-05T14:04:26Z</time>
      </trkpt>
      <trkpt lat="46.42722" lon="5.44258">
        <ele>396</ele>
        <time>2022-02-05T14:04:32Z</time>
      </trkpt>
      <trkpt lat="46.42702" lon="5.44181">
        <ele>396.4</ele>
        <time>2022-02-05T14:04:41Z</time>
      </trkpt>
      <trkpt lat="46.42693" lon="5.44143">
        <ele>396.6</ele>
        <time>2022-02-05T14:04:45Z</time>
      </trkpt>
      <trkpt lat="46.42689" lon="5.44125">
        <ele>396.6</ele>
        <time>2022-02-05T14:04:47Z</time>
      </trkpt>
      <trkpt lat="46.42671" lon="5.44043">
        <ele>396.8</ele>
        <time>2022-02-05T14:04:56Z</time>
      </trkpt>
      <trkpt lat="46.42667" lon="5.44004">
        <ele>397.2</ele>
        <time>2022-02-05T14:05:01Z</time>
      </trkpt>
      <trkpt lat="46.42668" lon="5.43983">
        <ele>397.8</ele>
        <time>2022-02-05T14:05:04Z</time>
      </trkpt>
      <trkpt lat="46.4267" lon="5.43968">
        <ele>398.6</ele>
        <time>2022-02-05T14:05:06Z</time>
      </trkpt>
      <trkpt lat="46.42673" lon="5.43955">
        <ele>399</ele>
        <time>2022-02-05T14:05:08Z</time>
      </trkpt>
      <trkpt lat="46.42674" lon="5.43937">
        <ele>399.4</ele>
        <time>2022-02-05T14:05:11Z</time>
      </trkpt>
      <trkpt lat="46.42674" lon="5.43932">
        <ele>399.8</ele>
        <time>2022-02-05T14:05:12Z</time>
      </trkpt>
      <trkpt lat="46.42675" lon="5.43927">
        <ele>400</ele>
        <time>2022-02-05T14:05:13Z</time>
      </trkpt>
      <trkpt lat="46.42677" lon="5.43917">
        <ele>401</ele>
        <time>2022-02-05T14:05:15Z</time>
      </trkpt>
      <trkpt lat="46.42678" lon="5.43912">
        <ele>401.4</ele>
        <time>2022-02-05T14:05:16Z</time>
      </trkpt>
      <trkpt lat="46.42682" lon="5.43897">
        <ele>402.4</ele>
        <time>2022-02-05T14:05:19Z</time>
      </trkpt>
      <trkpt lat="46.42684" lon="5.43887">
        <ele>403</ele>
        <time>2022-02-05T14:05:21Z</time>
      </trkpt>
      <trkpt lat="46.42687" lon="5.43874">
        <ele>403.6</ele>
        <time>2022-02-05T14:05:24Z</time>
      </trkpt>
      <trkpt lat="46.42689" lon="5.43867">
        <ele>404.4</ele>
        <time>2022-02-05T14:05:26Z</time>
      </trkpt>
      <trkpt lat="46.4269" lon="5.43863">
        <ele>404.8</ele>
        <time>2022-02-05T14:05:27Z</time>
      </trkpt>
      <trkpt lat="46.42694" lon="5.4385">
        <ele>406.2</ele>
        <time>2022-02-05T14:05:30Z</time>
      </trkpt>
      <trkpt lat="46.42701" lon="5.43842">
        <ele>406.8</ele>
        <time>2022-02-05T14:05:32Z</time>
      </trkpt>
      <trkpt lat="46.42708" lon="5.43834">
        <ele>407.2</ele>
        <time>2022-02-05T14:05:34Z</time>
      </trkpt>
      <trkpt lat="46.42721" lon="5.43815">
        <ele>408.2</ele>
        <time>2022-02-05T14:05:38Z</time>
      </trkpt>
      <trkpt lat="46.42723" lon="5.4381">
        <ele>408.4</ele>
        <time>2022-02-05T14:05:39Z</time>
      </trkpt>
      <trkpt lat="46.42728" lon="5.43787">
        <ele>408.8</ele>
        <time>2022-02-05T14:05:43Z</time>
      </trkpt>
      <trkpt lat="46.42731" lon="5.43772">
        <ele>409.4</ele>
        <time>2022-02-05T14:05:46Z</time>
      </trkpt>
      <trkpt lat="46.4273" lon="5.43759">
        <ele>409.8</ele>
        <time>2022-02-05T14:05:49Z</time>
      </trkpt>
      <trkpt lat="46.42729" lon="5.43751">
        <ele>410.6</ele>
        <time>2022-02-05T14:05:51Z</time>
      </trkpt>
      <trkpt lat="46.42725" lon="5.43731">
        <ele>411.8</ele>
        <time>2022-02-05T14:05:56Z</time>
      </trkpt>
      <trkpt lat="46.42725" lon="5.43727">
        <ele>412</ele>
        <time>2022-02-05T14:05:57Z</time>
      </trkpt>
      <trkpt lat="46.42723" lon="5.43714">
        <ele>413</ele>
        <time>2022-02-05T14:06:00Z</time>
      </trkpt>
      <trkpt lat="46.42724" lon="5.43704">
        <ele>413.4</ele>
        <time>2022-02-05T14:06:02Z</time>
      </trkpt>
      <trkpt lat="46.42733" lon="5.43672">
        <ele>413.8</ele>
        <time>2022-02-05T14:06:07Z</time>
      </trkpt>
      <trkpt lat="46.42751" lon="5.4363">
        <ele>412.8</ele>
        <time>2022-02-05T14:06:12Z</time>
      </trkpt>
      <trkpt lat="46.42756" lon="5.43619">
        <ele>412.4</ele>
        <time>2022-02-05T14:06:13Z</time>
      </trkpt>
      <trkpt lat="46.42758" lon="5.43607">
        <ele>411.6</ele>
        <time>2022-02-05T14:06:14Z</time>
      </trkpt>
      <trkpt lat="46.42757" lon="5.43594">
        <ele>411.2</ele>
        <time>2022-02-05T14:06:15Z</time>
      </trkpt>
      <trkpt lat="46.42747" lon="5.4357">
        <ele>410.2</ele>
        <time>2022-02-05T14:06:17Z</time>
      </trkpt>
      <trkpt lat="46.4274" lon="5.4356">
        <ele>409.2</ele>
        <time>2022-02-05T14:06:18Z</time>
      </trkpt>
      <trkpt lat="46.42732" lon="5.43549">
        <ele>409</ele>
        <time>2022-02-05T14:06:19Z</time>
      </trkpt>
      <trkpt lat="46.42715" lon="5.43528">
        <ele>407.4</ele>
        <time>2022-02-05T14:06:21Z</time>
      </trkpt>
      <trkpt lat="46.42707" lon="5.43516">
        <ele>406.4</ele>
        <time>2022-02-05T14:06:22Z</time>
      </trkpt>
      <trkpt lat="46.42698" lon="5.43504">
        <ele>405.4</ele>
        <time>2022-02-05T14:06:23Z</time>
      </trkpt>
      <trkpt lat="46.42683" lon="5.43478">
        <ele>403.4</ele>
        <time>2022-02-05T14:06:25Z</time>
      </trkpt>
      <trkpt lat="46.42669" lon="5.43452">
        <ele>402.4</ele>
        <time>2022-02-05T14:06:27Z</time>
      </trkpt>
      <trkpt lat="46.42663" lon="5.43438">
        <ele>402</ele>
        <time>2022-02-05T14:06:28Z</time>
      </trkpt>
      <trkpt lat="46.42657" lon="5.43426">
        <ele>400.6</ele>
        <time>2022-02-05T14:06:29Z</time>
      </trkpt>
      <trkpt lat="46.42645" lon="5.43401">
        <ele>399.2</ele>
        <time>2022-02-05T14:06:31Z</time>
      </trkpt>
      <trkpt lat="46.42634" lon="5.43378">
        <ele>398.8</ele>
        <time>2022-02-05T14:06:33Z</time>
      </trkpt>
      <trkpt lat="46.42618" lon="5.43344">
        <ele>398.2</ele>
        <time>2022-02-05T14:06:36Z</time>
      </trkpt>
      <trkpt lat="46.42598" lon="5.43303">
        <ele>398</ele>
        <time>2022-02-05T14:06:40Z</time>
      </trkpt>
      <trkpt lat="46.42579" lon="5.43262">
        <ele>399</ele>
        <time>2022-02-05T14:06:45Z</time>
      </trkpt>
      <trkpt lat="46.42572" lon="5.43247">
        <ele>399.2</ele>
        <time>2022-02-05T14:06:47Z</time>
      </trkpt>
      <trkpt lat="46.42557" lon="5.43215">
        <ele>400.4</ele>
        <time>2022-02-05T14:06:52Z</time>
      </trkpt>
      <trkpt lat="46.42545" lon="5.43191">
        <ele>401.8</ele>
        <time>2022-02-05T14:06:56Z</time>
      </trkpt>
      <trkpt lat="46.42538" lon="5.4318">
        <ele>402.4</ele>
        <time>2022-02-05T14:06:58Z</time>
      </trkpt>
      <trkpt lat="46.42536" lon="5.43174">
        <ele>403</ele>
        <time>2022-02-05T14:06:59Z</time>
      </trkpt>
      <trkpt lat="46.42527" lon="5.43155">
        <ele>404.2</ele>
        <time>2022-02-05T14:07:02Z</time>
      </trkpt>
      <trkpt lat="46.42515" lon="5.4313">
        <ele>405.2</ele>
        <time>2022-02-05T14:07:06Z</time>
      </trkpt>
      <trkpt lat="46.4251" lon="5.43119">
        <ele>405.4</ele>
        <time>2022-02-05T14:07:08Z</time>
      </trkpt>
      <trkpt lat="46.42497" lon="5.43092">
        <ele>406.4</ele>
        <time>2022-02-05T14:07:13Z</time>
      </trkpt>
      <trkpt lat="46.4249" lon="5.43079">
        <ele>406.8</ele>
        <time>2022-02-05T14:07:16Z</time>
      </trkpt>
      <trkpt lat="46.42487" lon="5.4307">
        <ele>407.4</ele>
        <time>2022-02-05T14:07:18Z</time>
      </trkpt>
      <trkpt lat="46.42483" lon="5.43056">
        <ele>408.4</ele>
        <time>2022-02-05T14:07:21Z</time>
      </trkpt>
      <trkpt lat="46.42482" lon="5.43043">
        <ele>409.4</ele>
        <time>2022-02-05T14:07:24Z</time>
      </trkpt>
      <trkpt lat="46.4248" lon="5.43021">
        <ele>410.2</ele>
        <time>2022-02-05T14:07:29Z</time>
      </trkpt>
      <trkpt lat="46.42481" lon="5.43012">
        <ele>410.6</ele>
        <time>2022-02-05T14:07:31Z</time>
      </trkpt>
      <trkpt lat="46.42482" lon="5.42984">
        <ele>411.6</ele>
        <time>2022-02-05T14:07:37Z</time>
      </trkpt>
      <trkpt lat="46.42483" lon="5.4298">
        <ele>412</ele>
        <time>2022-02-05T14:07:38Z</time>
      </trkpt>
      <trkpt lat="46.42486" lon="5.42962">
        <ele>412.6</ele>
        <time>2022-02-05T14:07:42Z</time>
      </trkpt>
      <trkpt lat="46.42491" lon="5.42939">
        <ele>413.4</ele>
        <time>2022-02-05T14:07:47Z</time>
      </trkpt>
      <trkpt lat="46.42493" lon="5.4293">
        <ele>413.8</ele>
        <time>2022-02-05T14:07:49Z</time>
      </trkpt>
      <trkpt lat="46.42499" lon="5.42898">
        <ele>414.8</ele>
        <time>2022-02-05T14:07:55Z</time>
      </trkpt>
      <trkpt lat="46.42503" lon="5.42882">
        <ele>415.2</ele>
        <time>2022-02-05T14:07:58Z</time>
      </trkpt>
      <trkpt lat="46.42513" lon="5.42841">
        <ele>416</ele>
        <time>2022-02-05T14:08:06Z</time>
      </trkpt>
      <trkpt lat="46.42515" lon="5.42832">
        <ele>416.6</ele>
        <time>2022-02-05T14:08:08Z</time>
      </trkpt>
      <trkpt lat="46.42517" lon="5.42824">
        <ele>417.2</ele>
        <time>2022-02-05T14:08:10Z</time>
      </trkpt>
      <trkpt lat="46.42524" lon="5.42803">
        <ele>418.2</ele>
        <time>2022-02-05T14:08:15Z</time>
      </trkpt>
      <trkpt lat="46.42525" lon="5.42799">
        <ele>419</ele>
        <time>2022-02-05T14:08:16Z</time>
      </trkpt>
      <trkpt lat="46.42527" lon="5.4279">
        <ele>419.4</ele>
        <time>2022-02-05T14:08:18Z</time>
      </trkpt>
      <trkpt lat="46.42534" lon="5.42768">
        <ele>420.4</ele>
        <time>2022-02-05T14:08:23Z</time>
      </trkpt>
      <trkpt lat="46.42537" lon="5.42758">
        <ele>420.8</ele>
        <time>2022-02-05T14:08:25Z</time>
      </trkpt>
      <trkpt lat="46.42544" lon="5.42735">
        <ele>421.6</ele>
        <time>2022-02-05T14:08:30Z</time>
      </trkpt>
      <trkpt lat="46.42548" lon="5.4272">
        <ele>421.8</ele>
        <time>2022-02-05T14:08:33Z</time>
      </trkpt>
      <trkpt lat="46.42557" lon="5.42685">
        <ele>422.6</ele>
        <time>2022-02-05T14:08:40Z</time>
      </trkpt>
      <trkpt lat="46.42558" lon="5.42681">
        <ele>422.8</ele>
        <time>2022-02-05T14:08:41Z</time>
      </trkpt>
      <trkpt lat="46.42569" lon="5.42651">
        <ele>423.8</ele>
        <time>2022-02-05T14:08:48Z</time>
      </trkpt>
      <trkpt lat="46.42573" lon="5.42643">
        <ele>424</ele>
        <time>2022-02-05T14:08:50Z</time>
      </trkpt>
      <trkpt lat="46.42586" lon="5.42605">
        <ele>424.6</ele>
        <time>2022-02-05T14:08:57Z</time>
      </trkpt>
      <trkpt lat="46.42593" lon="5.42585">
        <ele>424.6</ele>
        <time>2022-02-05T14:09:00Z</time>
      </trkpt>
      <trkpt lat="46.42599" lon="5.42564">
        <ele>424.6</ele>
        <time>2022-02-05T14:09:03Z</time>
      </trkpt>
      <trkpt lat="46.42614" lon="5.42508">
        <ele>423.4</ele>
        <time>2022-02-05T14:09:10Z</time>
      </trkpt>
      <trkpt lat="46.42623" lon="5.42476">
        <ele>423.2</ele>
        <time>2022-02-05T14:09:14Z</time>
      </trkpt>
      <trkpt lat="46.42636" lon="5.42433">
        <ele>423.2</ele>
        <time>2022-02-05T14:09:20Z</time>
      </trkpt>
      <trkpt lat="46.42649" lon="5.42392">
        <ele>424</ele>
        <time>2022-02-05T14:09:27Z</time>
      </trkpt>
      <trkpt lat="46.42657" lon="5.42367">
        <ele>424.8</ele>
        <time>2022-02-05T14:09:32Z</time>
      </trkpt>
      <trkpt lat="46.42664" lon="5.42345">
        <ele>425.4</ele>
        <time>2022-02-05T14:09:36Z</time>
      </trkpt>
      <trkpt lat="46.42668" lon="5.42327">
        <ele>426</ele>
        <time>2022-02-05T14:09:39Z</time>
      </trkpt>
      <trkpt lat="46.42679" lon="5.42288">
        <ele>426.6</ele>
        <time>2022-02-05T14:09:45Z</time>
      </trkpt>
      <trkpt lat="46.42693" lon="5.42229">
        <ele>426.4</ele>
        <time>2022-02-05T14:09:53Z</time>
      </trkpt>
      <trkpt lat="46.42699" lon="5.42198">
        <ele>427</ele>
        <time>2022-02-05T14:09:58Z</time>
      </trkpt>
      <trkpt lat="46.427" lon="5.42193">
        <ele>427.2</ele>
        <time>2022-02-05T14:09:59Z</time>
      </trkpt>
      <trkpt lat="46.42703" lon="5.42179">
        <ele>428</ele>
        <time>2022-02-05T14:10:02Z</time>
      </trkpt>
      <trkpt lat="46.42706" lon="5.42163">
        <ele>429.4</ele>
        <time>2022-02-05T14:10:06Z</time>
      </trkpt>
      <trkpt lat="46.42709" lon="5.42153">
        <ele>430.4</ele>
        <time>2022-02-05T14:10:09Z</time>
      </trkpt>
      <trkpt lat="46.4271" lon="5.42141">
        <ele>431.6</ele>
        <time>2022-02-05T14:10:12Z</time>
      </trkpt>
      <trkpt lat="46.42713" lon="5.42129">
        <ele>432.6</ele>
        <time>2022-02-05T14:10:15Z</time>
      </trkpt>
      <trkpt lat="46.42717" lon="5.42115">
        <ele>433.4</ele>
        <time>2022-02-05T14:10:19Z</time>
      </trkpt>
      <trkpt lat="46.42718" lon="5.42111">
        <ele>434</ele>
        <time>2022-02-05T14:10:20Z</time>
      </trkpt>
      <trkpt lat="46.42724" lon="5.42093">
        <ele>435</ele>
        <time>2022-02-05T14:10:25Z</time>
      </trkpt>
      <trkpt lat="46.42725" lon="5.42089">
        <ele>435.4</ele>
        <time>2022-02-05T14:10:26Z</time>
      </trkpt>
      <trkpt lat="46.4273" lon="5.42069">
        <ele>436.6</ele>
        <time>2022-02-05T14:10:31Z</time>
      </trkpt>
      <trkpt lat="46.42732" lon="5.42062">
        <ele>437.2</ele>
        <time>2022-02-05T14:10:33Z</time>
      </trkpt>
      <trkpt lat="46.42735" lon="5.4205">
        <ele>437.8</ele>
        <time>2022-02-05T14:10:36Z</time>
      </trkpt>
      <trkpt lat="46.42739" lon="5.42035">
        <ele>438.8</ele>
        <time>2022-02-05T14:10:40Z</time>
      </trkpt>
      <trkpt lat="46.42741" lon="5.42019">
        <ele>439.4</ele>
        <time>2022-02-05T14:10:44Z</time>
      </trkpt>
      <trkpt lat="46.42742" lon="5.42008">
        <ele>440</ele>
        <time>2022-02-05T14:10:47Z</time>
      </trkpt>
      <trkpt lat="46.42742" lon="5.41993">
        <ele>440.8</ele>
        <time>2022-02-05T14:10:51Z</time>
      </trkpt>
      <trkpt lat="46.42742" lon="5.4199">
        <ele>441.4</ele>
        <time>2022-02-05T14:10:52Z</time>
      </trkpt>
      <trkpt lat="46.42742" lon="5.41976">
        <ele>442.4</ele>
        <time>2022-02-05T14:10:56Z</time>
      </trkpt>
      <trkpt lat="46.42741" lon="5.4196">
        <ele>443.6</ele>
        <time>2022-02-05T14:11:00Z</time>
      </trkpt>
      <trkpt lat="46.42741" lon="5.41957">
        <ele>444</ele>
        <time>2022-02-05T14:11:01Z</time>
      </trkpt>
      <trkpt lat="46.42738" lon="5.41941">
        <ele>444.8</ele>
        <time>2022-02-05T14:11:06Z</time>
      </trkpt>
      <trkpt lat="46.42736" lon="5.41932">
        <ele>445.8</ele>
        <time>2022-02-05T14:11:09Z</time>
      </trkpt>
      <trkpt lat="46.42734" lon="5.4193">
        <ele>446.2</ele>
        <time>2022-02-05T14:11:10Z</time>
      </trkpt>
      <trkpt lat="46.42726" lon="5.41925">
        <ele>447.4</ele>
        <time>2022-02-05T14:11:14Z</time>
      </trkpt>
      <trkpt lat="46.4271" lon="5.4192">
        <ele>448.4</ele>
        <time>2022-02-05T14:11:20Z</time>
      </trkpt>
      <trkpt lat="46.42687" lon="5.41919">
        <ele>449.6</ele>
        <time>2022-02-05T14:11:28Z</time>
      </trkpt>
      <trkpt lat="46.42681" lon="5.41918">
        <ele>450</ele>
        <time>2022-02-05T14:11:30Z</time>
      </trkpt>
      <trkpt lat="46.42672" lon="5.41914">
        <ele>450.6</ele>
        <time>2022-02-05T14:11:33Z</time>
      </trkpt>
      <trkpt lat="46.4266" lon="5.41906">
        <ele>451.2</ele>
        <time>2022-02-05T14:11:38Z</time>
      </trkpt>
      <trkpt lat="46.42656" lon="5.41901">
        <ele>451.6</ele>
        <time>2022-02-05T14:11:40Z</time>
      </trkpt>
      <trkpt lat="46.42641" lon="5.41889">
        <ele>452.6</ele>
        <time>2022-02-05T14:11:46Z</time>
      </trkpt>
      <trkpt lat="46.42638" lon="5.41888">
        <ele>452.8</ele>
        <time>2022-02-05T14:11:47Z</time>
      </trkpt>
      <trkpt lat="46.42635" lon="5.41887">
        <ele>453</ele>
        <time>2022-02-05T14:11:48Z</time>
      </trkpt>
      <trkpt lat="46.42619" lon="5.41883">
        <ele>453.6</ele>
        <time>2022-02-05T14:11:53Z</time>
      </trkpt>
      <trkpt lat="46.42611" lon="5.4188">
        <ele>454.4</ele>
        <time>2022-02-05T14:11:56Z</time>
      </trkpt>
      <trkpt lat="46.42605" lon="5.41878">
        <ele>455</ele>
        <time>2022-02-05T14:11:58Z</time>
      </trkpt>
      <trkpt lat="46.42595" lon="5.41868">
        <ele>456.2</ele>
        <time>2022-02-05T14:12:03Z</time>
      </trkpt>
      <trkpt lat="46.42587" lon="5.41856">
        <ele>457.2</ele>
        <time>2022-02-05T14:12:07Z</time>
      </trkpt>
      <trkpt lat="46.42578" lon="5.41842">
        <ele>458.4</ele>
        <time>2022-02-05T14:12:12Z</time>
      </trkpt>
      <trkpt lat="46.42566" lon="5.41825">
        <ele>459.6</ele>
        <time>2022-02-05T14:12:18Z</time>
      </trkpt>
      <trkpt lat="46.42562" lon="5.41819">
        <ele>460</ele>
        <time>2022-02-05T14:12:20Z</time>
      </trkpt>
      <trkpt lat="46.42559" lon="5.41814">
        <ele>460.6</ele>
        <time>2022-02-05T14:12:22Z</time>
      </trkpt>
      <trkpt lat="46.42546" lon="5.41797">
        <ele>461.8</ele>
        <time>2022-02-05T14:12:28Z</time>
      </trkpt>
      <trkpt lat="46.42544" lon="5.41782">
        <ele>462.8</ele>
        <time>2022-02-05T14:12:33Z</time>
      </trkpt>
      <trkpt lat="46.4255" lon="5.41784">
        <ele>463.6</ele>
        <time>2022-02-05T14:12:36Z</time>
      </trkpt>
      <trkpt lat="46.42553" lon="5.41786">
        <ele>464.2</ele>
        <time>2022-02-05T14:12:37Z</time>
      </trkpt>
      <trkpt lat="46.42563" lon="5.41792">
        <ele>465.4</ele>
        <time>2022-02-05T14:12:41Z</time>
      </trkpt>
      <trkpt lat="46.42573" lon="5.41797">
        <ele>466.4</ele>
        <time>2022-02-05T14:12:45Z</time>
      </trkpt>
      <trkpt lat="46.42585" lon="5.41798">
        <ele>467.4</ele>
        <time>2022-02-05T14:12:49Z</time>
      </trkpt>
      <trkpt lat="46.42595" lon="5.41797">
        <ele>468.2</ele>
        <time>2022-02-05T14:12:52Z</time>
      </trkpt>
      <trkpt lat="46.42601" lon="5.41794">
        <ele>468.4</ele>
        <time>2022-02-05T14:12:54Z</time>
      </trkpt>
      <trkpt lat="46.42612" lon="5.41785">
        <ele>468.8</ele>
        <time>2022-02-05T14:12:58Z</time>
      </trkpt>
      <trkpt lat="46.42623" lon="5.41771">
        <ele>469.6</ele>
        <time>2022-02-05T14:13:03Z</time>
      </trkpt>
      <trkpt lat="46.42629" lon="5.41765">
        <ele>470</ele>
        <time>2022-02-05T14:13:05Z</time>
      </trkpt>
      <trkpt lat="46.42642" lon="5.4175">
        <ele>470.8</ele>
        <time>2022-02-05T14:13:10Z</time>
      </trkpt>
      <trkpt lat="46.42648" lon="5.41744">
        <ele>470.8</ele>
        <time>2022-02-05T14:13:12Z</time>
      </trkpt>
      <trkpt lat="46.42667" lon="5.41725">
        <ele>471.8</ele>
        <time>2022-02-05T14:13:19Z</time>
      </trkpt>
      <trkpt lat="46.42669" lon="5.41722">
        <ele>471.8</ele>
        <time>2022-02-05T14:13:20Z</time>
      </trkpt>
      <trkpt lat="46.42684" lon="5.41705">
        <ele>472.8</ele>
        <time>2022-02-05T14:13:26Z</time>
      </trkpt>
      <trkpt lat="46.42686" lon="5.41702">
        <ele>473.2</ele>
        <time>2022-02-05T14:13:27Z</time>
      </trkpt>
      <trkpt lat="46.42702" lon="5.41687">
        <ele>473.8</ele>
        <time>2022-02-05T14:13:33Z</time>
      </trkpt>
      <trkpt lat="46.42707" lon="5.41682">
        <ele>474.4</ele>
        <time>2022-02-05T14:13:35Z</time>
      </trkpt>
      <trkpt lat="46.42713" lon="5.41674">
        <ele>475.2</ele>
        <time>2022-02-05T14:13:38Z</time>
      </trkpt>
      <trkpt lat="46.42716" lon="5.41663">
        <ele>476.4</ele>
        <time>2022-02-05T14:13:41Z</time>
      </trkpt>
      <trkpt lat="46.42712" lon="5.41647">
        <ele>477</ele>
        <time>2022-02-05T14:13:45Z</time>
      </trkpt>
      <trkpt lat="46.42706" lon="5.41642">
        <ele>477.4</ele>
        <time>2022-02-05T14:13:47Z</time>
      </trkpt>
      <trkpt lat="46.42699" lon="5.41639">
        <ele>477.8</ele>
        <time>2022-02-05T14:13:49Z</time>
      </trkpt>
      <trkpt lat="46.42688" lon="5.41637">
        <ele>478.4</ele>
        <time>2022-02-05T14:13:52Z</time>
      </trkpt>
      <trkpt lat="46.4268" lon="5.41635">
        <ele>478.6</ele>
        <time>2022-02-05T14:13:54Z</time>
      </trkpt>
      <trkpt lat="46.42666" lon="5.41627">
        <ele>479.4</ele>
        <time>2022-02-05T14:13:58Z</time>
      </trkpt>
      <trkpt lat="46.42656" lon="5.41619">
        <ele>479.8</ele>
        <time>2022-02-05T14:14:01Z</time>
      </trkpt>
      <trkpt lat="46.42647" lon="5.41613">
        <ele>480.6</ele>
        <time>2022-02-05T14:14:04Z</time>
      </trkpt>
      <trkpt lat="46.42642" lon="5.4161">
        <ele>481.2</ele>
        <time>2022-02-05T14:14:06Z</time>
      </trkpt>
      <trkpt lat="46.42637" lon="5.41608">
        <ele>481.8</ele>
        <time>2022-02-05T14:14:08Z</time>
      </trkpt>
      <trkpt lat="46.42623" lon="5.41605">
        <ele>483.2</ele>
        <time>2022-02-05T14:14:13Z</time>
      </trkpt>
      <trkpt lat="46.4262" lon="5.41604">
        <ele>483.4</ele>
        <time>2022-02-05T14:14:14Z</time>
      </trkpt>
      <trkpt lat="46.42613" lon="5.41601">
        <ele>484.4</ele>
        <time>2022-02-05T14:14:17Z</time>
      </trkpt>
      <trkpt lat="46.42597" lon="5.41598">
        <ele>485.6</ele>
        <time>2022-02-05T14:14:23Z</time>
      </trkpt>
      <trkpt lat="46.42591" lon="5.41596">
        <ele>486.2</ele>
        <time>2022-02-05T14:14:25Z</time>
      </trkpt>
      <trkpt lat="46.42586" lon="5.41594">
        <ele>486.6</ele>
        <time>2022-02-05T14:14:27Z</time>
      </trkpt>
      <trkpt lat="46.4257" lon="5.41591">
        <ele>487.8</ele>
        <time>2022-02-05T14:14:32Z</time>
      </trkpt>
      <trkpt lat="46.42564" lon="5.4159">
        <ele>488.2</ele>
        <time>2022-02-05T14:14:34Z</time>
      </trkpt>
      <trkpt lat="46.42539" lon="5.41585">
        <ele>488.8</ele>
        <time>2022-02-05T14:14:42Z</time>
      </trkpt>
      <trkpt lat="46.42531" lon="5.41583">
        <ele>489</ele>
        <time>2022-02-05T14:14:44Z</time>
      </trkpt>
      <trkpt lat="46.42528" lon="5.41582">
        <ele>489</ele>
        <time>2022-02-05T14:14:45Z</time>
      </trkpt>
      <trkpt lat="46.4251" lon="5.41578">
        <ele>489.4</ele>
        <time>2022-02-05T14:14:49Z</time>
      </trkpt>
      <trkpt lat="46.42474" lon="5.41572">
        <ele>489.6</ele>
        <time>2022-02-05T14:14:56Z</time>
      </trkpt>
      <trkpt lat="46.42438" lon="5.41552">
        <ele>489.2</ele>
        <time>2022-02-05T14:15:02Z</time>
      </trkpt>
      <trkpt lat="46.42396" lon="5.41534">
        <ele>488.6</ele>
        <time>2022-02-05T14:15:09Z</time>
      </trkpt>
      <trkpt lat="46.42354" lon="5.41515">
        <ele>488.4</ele>
        <time>2022-02-05T14:15:16Z</time>
      </trkpt>
      <trkpt lat="46.4235" lon="5.41513">
        <ele>488.4</ele>
        <time>2022-02-05T14:15:17Z</time>
      </trkpt>
      <trkpt lat="46.42326" lon="5.415">
        <ele>488.8</ele>
        <time>2022-02-05T14:15:21Z</time>
      </trkpt>
      <trkpt lat="46.4232" lon="5.41497">
        <ele>488.8</ele>
        <time>2022-02-05T14:15:22Z</time>
      </trkpt>
      <trkpt lat="46.42281" lon="5.41485">
        <ele>489.4</ele>
        <time>2022-02-05T14:15:29Z</time>
      </trkpt>
      <trkpt lat="46.4227" lon="5.41484">
        <ele>489.8</ele>
        <time>2022-02-05T14:15:31Z</time>
      </trkpt>
      <trkpt lat="46.42247" lon="5.41482">
        <ele>490.8</ele>
        <time>2022-02-05T14:15:36Z</time>
      </trkpt>
      <trkpt lat="46.42242" lon="5.41481">
        <ele>491</ele>
        <time>2022-02-05T14:15:37Z</time>
      </trkpt>
      <trkpt lat="46.42233" lon="5.4148">
        <ele>491.4</ele>
        <time>2022-02-05T14:15:39Z</time>
      </trkpt>
      <trkpt lat="46.4222" lon="5.41477">
        <ele>492</ele>
        <time>2022-02-05T14:15:42Z</time>
      </trkpt>
      <trkpt lat="46.42216" lon="5.41477">
        <ele>492.2</ele>
        <time>2022-02-05T14:15:43Z</time>
      </trkpt>
      <trkpt lat="46.42199" lon="5.41476">
        <ele>493.2</ele>
        <time>2022-02-05T14:15:47Z</time>
      </trkpt>
      <trkpt lat="46.42187" lon="5.41473">
        <ele>493.6</ele>
        <time>2022-02-05T14:15:50Z</time>
      </trkpt>
      <trkpt lat="46.42175" lon="5.4147">
        <ele>494.4</ele>
        <time>2022-02-05T14:15:53Z</time>
      </trkpt>
      <trkpt lat="46.42159" lon="5.41465">
        <ele>494.8</ele>
        <time>2022-02-05T14:15:57Z</time>
      </trkpt>
      <trkpt lat="46.42141" lon="5.41456">
        <ele>495.6</ele>
        <time>2022-02-05T14:16:02Z</time>
      </trkpt>
      <trkpt lat="46.42134" lon="5.41453">
        <ele>496</ele>
        <time>2022-02-05T14:16:04Z</time>
      </trkpt>
      <trkpt lat="46.42111" lon="5.41442">
        <ele>496.6</ele>
        <time>2022-02-05T14:16:10Z</time>
      </trkpt>
      <trkpt lat="46.42107" lon="5.4144">
        <ele>496.8</ele>
        <time>2022-02-05T14:16:11Z</time>
      </trkpt>
      <trkpt lat="46.4208" lon="5.4143">
        <ele>497.6</ele>
        <time>2022-02-05T14:16:18Z</time>
      </trkpt>
      <trkpt lat="46.42076" lon="5.41428">
        <ele>497.8</ele>
        <time>2022-02-05T14:16:19Z</time>
      </trkpt>
      <trkpt lat="46.42053" lon="5.41419">
        <ele>498.8</ele>
        <time>2022-02-05T14:16:25Z</time>
      </trkpt>
      <trkpt lat="46.42049" lon="5.41418">
        <ele>498.8</ele>
        <time>2022-02-05T14:16:26Z</time>
      </trkpt>
      <trkpt lat="46.4203" lon="5.41409">
        <ele>499.8</ele>
        <time>2022-02-05T14:16:31Z</time>
      </trkpt>
      <trkpt lat="46.42008" lon="5.41399">
        <ele>500.6</ele>
        <time>2022-02-05T14:16:37Z</time>
      </trkpt>
      <trkpt lat="46.42005" lon="5.41398">
        <ele>500.8</ele>
        <time>2022-02-05T14:16:38Z</time>
      </trkpt>
      <trkpt lat="46.41989" lon="5.41386">
        <ele>501.8</ele>
        <time>2022-02-05T14:16:43Z</time>
      </trkpt>
      <trkpt lat="46.41976" lon="5.4137">
        <ele>503</ele>
        <time>2022-02-05T14:16:48Z</time>
      </trkpt>
      <trkpt lat="46.41968" lon="5.41352">
        <ele>503.8</ele>
        <time>2022-02-05T14:16:52Z</time>
      </trkpt>
      <trkpt lat="46.41967" lon="5.41347">
        <ele>504.2</ele>
        <time>2022-02-05T14:16:53Z</time>
      </trkpt>
      <trkpt lat="46.41965" lon="5.41333">
        <ele>504.8</ele>
        <time>2022-02-05T14:16:56Z</time>
      </trkpt>
      <trkpt lat="46.41965" lon="5.41328">
        <ele>505.2</ele>
        <time>2022-02-05T14:16:57Z</time>
      </trkpt>
      <trkpt lat="46.41961" lon="5.41309">
        <ele>506.2</ele>
        <time>2022-02-05T14:17:01Z</time>
      </trkpt>
      <trkpt lat="46.41961" lon="5.41304">
        <ele>506.4</ele>
        <time>2022-02-05T14:17:02Z</time>
      </trkpt>
      <trkpt lat="46.41959" lon="5.4128">
        <ele>507.4</ele>
        <time>2022-02-05T14:17:07Z</time>
      </trkpt>
      <trkpt lat="46.41957" lon="5.41273">
        <ele>507.6</ele>
        <time>2022-02-05T14:17:08Z</time>
      </trkpt>
      <trkpt lat="46.41954" lon="5.41247">
        <ele>508.4</ele>
        <time>2022-02-05T14:17:12Z</time>
      </trkpt>
      <trkpt lat="46.41953" lon="5.41227">
        <ele>508.8</ele>
        <time>2022-02-05T14:17:15Z</time>
      </trkpt>
      <trkpt lat="46.41951" lon="5.4121">
        <ele>509.2</ele>
        <time>2022-02-05T14:17:18Z</time>
      </trkpt>
      <trkpt lat="46.41949" lon="5.41187">
        <ele>509.8</ele>
        <time>2022-02-05T14:17:23Z</time>
      </trkpt>
      <trkpt lat="46.41949" lon="5.41182">
        <ele>510.2</ele>
        <time>2022-02-05T14:17:24Z</time>
      </trkpt>
      <trkpt lat="46.41948" lon="5.41168">
        <ele>510.8</ele>
        <time>2022-02-05T14:17:27Z</time>
      </trkpt>
      <trkpt lat="46.41948" lon="5.41149">
        <ele>511.4</ele>
        <time>2022-02-05T14:17:31Z</time>
      </trkpt>
      <trkpt lat="46.41948" lon="5.41135">
        <ele>511.8</ele>
        <time>2022-02-05T14:17:34Z</time>
      </trkpt>
      <trkpt lat="46.41947" lon="5.41122">
        <ele>512.2</ele>
        <time>2022-02-05T14:17:37Z</time>
      </trkpt>
      <trkpt lat="46.41946" lon="5.41103">
        <ele>513</ele>
        <time>2022-02-05T14:17:41Z</time>
      </trkpt>
      <trkpt lat="46.41947" lon="5.41084">
        <ele>513.4</ele>
        <time>2022-02-05T14:17:45Z</time>
      </trkpt>
      <trkpt lat="46.41948" lon="5.41075">
        <ele>513.8</ele>
        <time>2022-02-05T14:17:47Z</time>
      </trkpt>
      <trkpt lat="46.41952" lon="5.4106">
        <ele>514.4</ele>
        <time>2022-02-05T14:17:50Z</time>
      </trkpt>
      <trkpt lat="46.41954" lon="5.4105">
        <ele>514.8</ele>
        <time>2022-02-05T14:17:52Z</time>
      </trkpt>
      <trkpt lat="46.41958" lon="5.41042">
        <ele>514.8</ele>
        <time>2022-02-05T14:17:54Z</time>
      </trkpt>
      <trkpt lat="46.41963" lon="5.41031">
        <ele>515.2</ele>
        <time>2022-02-05T14:17:57Z</time>
      </trkpt>
      <trkpt lat="46.41976" lon="5.41016">
        <ele>515.8</ele>
        <time>2022-02-05T14:18:01Z</time>
      </trkpt>
      <trkpt lat="46.41984" lon="5.41007">
        <ele>515.8</ele>
        <time>2022-02-05T14:18:03Z</time>
      </trkpt>
      <trkpt lat="46.41989" lon="5.41002">
        <ele>515.8</ele>
        <time>2022-02-05T14:18:04Z</time>
      </trkpt>
      <trkpt lat="46.41993" lon="5.40998">
        <ele>516</ele>
        <time>2022-02-05T14:18:05Z</time>
      </trkpt>
      <trkpt lat="46.42011" lon="5.40968">
        <ele>516.4</ele>
        <time>2022-02-05T14:18:10Z</time>
      </trkpt>
      <trkpt lat="46.42016" lon="5.40953">
        <ele>516.6</ele>
        <time>2022-02-05T14:18:12Z</time>
      </trkpt>
      <trkpt lat="46.4202" lon="5.40931">
        <ele>516.8</ele>
        <time>2022-02-05T14:18:15Z</time>
      </trkpt>
      <trkpt lat="46.4202" lon="5.40924">
        <ele>517</ele>
        <time>2022-02-05T14:18:16Z</time>
      </trkpt>
      <trkpt lat="46.4202" lon="5.40916">
        <ele>517</ele>
        <time>2022-02-05T14:18:17Z</time>
      </trkpt>
      <trkpt lat="46.42019" lon="5.40902">
        <ele>517.2</ele>
        <time>2022-02-05T14:18:19Z</time>
      </trkpt>
      <trkpt lat="46.42018" lon="5.40877">
        <ele>517.4</ele>
        <time>2022-02-05T14:18:22Z</time>
      </trkpt>
      <trkpt lat="46.42022" lon="5.40849">
        <ele>517.6</ele>
        <time>2022-02-05T14:18:26Z</time>
      </trkpt>
      <trkpt lat="46.42042" lon="5.4083">
        <ele>517.6</ele>
        <time>2022-02-05T14:18:31Z</time>
      </trkpt>
      <trkpt lat="46.42063" lon="5.40815">
        <ele>517.4</ele>
        <time>2022-02-05T14:18:36Z</time>
      </trkpt>
      <trkpt lat="46.42071" lon="5.40809">
        <ele>517.2</ele>
        <time>2022-02-05T14:18:38Z</time>
      </trkpt>
      <trkpt lat="46.42074" lon="5.40805">
        <ele>517</ele>
        <time>2022-02-05T14:18:39Z</time>
      </trkpt>
      <trkpt lat="46.4208" lon="5.40802">
        <ele>517.2</ele>
        <time>2022-02-05T14:18:40Z</time>
      </trkpt>
      <trkpt lat="46.42091" lon="5.40798">
        <ele>517</ele>
        <time>2022-02-05T14:18:42Z</time>
      </trkpt>
      <trkpt lat="46.42121" lon="5.40802">
        <ele>516.4</ele>
        <time>2022-02-05T14:18:47Z</time>
      </trkpt>
      <trkpt lat="46.42128" lon="5.40802">
        <ele>516.2</ele>
        <time>2022-02-05T14:18:48Z</time>
      </trkpt>
      <trkpt lat="46.42141" lon="5.408">
        <ele>515.8</ele>
        <time>2022-02-05T14:18:50Z</time>
      </trkpt>
      <trkpt lat="46.42147" lon="5.40798">
        <ele>515.6</ele>
        <time>2022-02-05T14:18:51Z</time>
      </trkpt>
      <trkpt lat="46.42153" lon="5.40796">
        <ele>515.4</ele>
        <time>2022-02-05T14:18:52Z</time>
      </trkpt>
      <trkpt lat="46.42159" lon="5.40793">
        <ele>514.8</ele>
        <time>2022-02-05T14:18:53Z</time>
      </trkpt>
      <trkpt lat="46.42165" lon="5.40788">
        <ele>514.8</ele>
        <time>2022-02-05T14:18:54Z</time>
      </trkpt>
      <trkpt lat="46.42171" lon="5.40782">
        <ele>514.4</ele>
        <time>2022-02-05T14:18:55Z</time>
      </trkpt>
      <trkpt lat="46.42188" lon="5.4076">
        <ele>513.4</ele>
        <time>2022-02-05T14:18:58Z</time>
      </trkpt>
      <trkpt lat="46.422" lon="5.40747">
        <ele>512.8</ele>
        <time>2022-02-05T14:19:00Z</time>
      </trkpt>
      <trkpt lat="46.42206" lon="5.4074">
        <ele>512.6</ele>
        <time>2022-02-05T14:19:01Z</time>
      </trkpt>
      <trkpt lat="46.42214" lon="5.40735">
        <ele>512.2</ele>
        <time>2022-02-05T14:19:02Z</time>
      </trkpt>
      <trkpt lat="46.42229" lon="5.40723">
        <ele>511.6</ele>
        <time>2022-02-05T14:19:04Z</time>
      </trkpt>
      <trkpt lat="46.42245" lon="5.40711">
        <ele>510.8</ele>
        <time>2022-02-05T14:19:06Z</time>
      </trkpt>
      <trkpt lat="46.42253" lon="5.40703">
        <ele>509.8</ele>
        <time>2022-02-05T14:19:07Z</time>
      </trkpt>
      <trkpt lat="46.42268" lon="5.4069">
        <ele>509.2</ele>
        <time>2022-02-05T14:19:09Z</time>
      </trkpt>
      <trkpt lat="46.42283" lon="5.40674">
        <ele>508.8</ele>
        <time>2022-02-05T14:19:11Z</time>
      </trkpt>
      <trkpt lat="46.42304" lon="5.40647">
        <ele>507.2</ele>
        <time>2022-02-05T14:19:14Z</time>
      </trkpt>
      <trkpt lat="46.4232" lon="5.40632">
        <ele>506</ele>
        <time>2022-02-05T14:19:16Z</time>
      </trkpt>
      <trkpt lat="46.42345" lon="5.40612">
        <ele>504.8</ele>
        <time>2022-02-05T14:19:19Z</time>
      </trkpt>
      <trkpt lat="46.42361" lon="5.40599">
        <ele>503.4</ele>
        <time>2022-02-05T14:19:21Z</time>
      </trkpt>
      <trkpt lat="46.42392" lon="5.40573">
        <ele>501.8</ele>
        <time>2022-02-05T14:19:25Z</time>
      </trkpt>
      <trkpt lat="46.42399" lon="5.40566">
        <ele>501.6</ele>
        <time>2022-02-05T14:19:26Z</time>
      </trkpt>
      <trkpt lat="46.42414" lon="5.40552">
        <ele>500.6</ele>
        <time>2022-02-05T14:19:28Z</time>
      </trkpt>
      <trkpt lat="46.42422" lon="5.40545">
        <ele>499.8</ele>
        <time>2022-02-05T14:19:29Z</time>
      </trkpt>
      <trkpt lat="46.42429" lon="5.40537">
        <ele>499</ele>
        <time>2022-02-05T14:19:30Z</time>
      </trkpt>
      <trkpt lat="46.42443" lon="5.40521">
        <ele>498.2</ele>
        <time>2022-02-05T14:19:32Z</time>
      </trkpt>
      <trkpt lat="46.42451" lon="5.40513">
        <ele>497.8</ele>
        <time>2022-02-05T14:19:33Z</time>
      </trkpt>
      <trkpt lat="46.42464" lon="5.40496">
        <ele>496.6</ele>
        <time>2022-02-05T14:19:35Z</time>
      </trkpt>
      <trkpt lat="46.42476" lon="5.40479">
        <ele>495</ele>
        <time>2022-02-05T14:19:37Z</time>
      </trkpt>
      <trkpt lat="46.42481" lon="5.40469">
        <ele>494.6</ele>
        <time>2022-02-05T14:19:38Z</time>
      </trkpt>
      <trkpt lat="46.42485" lon="5.40458">
        <ele>494.2</ele>
        <time>2022-02-05T14:19:39Z</time>
      </trkpt>
      <trkpt lat="46.42491" lon="5.40434">
        <ele>493.8</ele>
        <time>2022-02-05T14:19:41Z</time>
      </trkpt>
      <trkpt lat="46.42492" lon="5.40422">
        <ele>493.4</ele>
        <time>2022-02-05T14:19:42Z</time>
      </trkpt>
      <trkpt lat="46.42491" lon="5.40408">
        <ele>492.8</ele>
        <time>2022-02-05T14:19:43Z</time>
      </trkpt>
      <trkpt lat="46.42489" lon="5.40396">
        <ele>492.4</ele>
        <time>2022-02-05T14:19:44Z</time>
      </trkpt>
      <trkpt lat="46.42486" lon="5.40384">
        <ele>491.6</ele>
        <time>2022-02-05T14:19:45Z</time>
      </trkpt>
      <trkpt lat="46.4248" lon="5.40373">
        <ele>491</ele>
        <time>2022-02-05T14:19:46Z</time>
      </trkpt>
      <trkpt lat="46.42472" lon="5.40364">
        <ele>490.8</ele>
        <time>2022-02-05T14:19:47Z</time>
      </trkpt>
      <trkpt lat="46.42464" lon="5.40356">
        <ele>490</ele>
        <time>2022-02-05T14:19:48Z</time>
      </trkpt>
      <trkpt lat="46.42444" lon="5.40341">
        <ele>488.6</ele>
        <time>2022-02-05T14:19:50Z</time>
      </trkpt>
      <trkpt lat="46.42434" lon="5.40333">
        <ele>488</ele>
        <time>2022-02-05T14:19:51Z</time>
      </trkpt>
      <trkpt lat="46.42423" lon="5.40324">
        <ele>486.8</ele>
        <time>2022-02-05T14:19:52Z</time>
      </trkpt>
      <trkpt lat="46.42413" lon="5.40314">
        <ele>486.4</ele>
        <time>2022-02-05T14:19:53Z</time>
      </trkpt>
      <trkpt lat="46.42404" lon="5.40302">
        <ele>485.2</ele>
        <time>2022-02-05T14:19:54Z</time>
      </trkpt>
      <trkpt lat="46.42396" lon="5.40288">
        <ele>482.6</ele>
        <time>2022-02-05T14:19:55Z</time>
      </trkpt>
      <trkpt lat="46.42389" lon="5.40271">
        <ele>481.6</ele>
        <time>2022-02-05T14:19:56Z</time>
      </trkpt>
      <trkpt lat="46.42386" lon="5.40254">
        <ele>480.2</ele>
        <time>2022-02-05T14:19:57Z</time>
      </trkpt>
      <trkpt lat="46.42385" lon="5.40219">
        <ele>478.4</ele>
        <time>2022-02-05T14:19:59Z</time>
      </trkpt>
      <trkpt lat="46.42385" lon="5.40201">
        <ele>478</ele>
        <time>2022-02-05T14:20:00Z</time>
      </trkpt>
      <trkpt lat="46.42387" lon="5.40168">
        <ele>476.6</ele>
        <time>2022-02-05T14:20:02Z</time>
      </trkpt>
      <trkpt lat="46.42387" lon="5.40135">
        <ele>475</ele>
        <time>2022-02-05T14:20:04Z</time>
      </trkpt>
      <trkpt lat="46.42388" lon="5.40119">
        <ele>474.6</ele>
        <time>2022-02-05T14:20:05Z</time>
      </trkpt>
      <trkpt lat="46.42389" lon="5.40102">
        <ele>473.8</ele>
        <time>2022-02-05T14:20:06Z</time>
      </trkpt>
      <trkpt lat="46.42389" lon="5.4007">
        <ele>472.6</ele>
        <time>2022-02-05T14:20:08Z</time>
      </trkpt>
      <trkpt lat="46.42391" lon="5.40039">
        <ele>471.6</ele>
        <time>2022-02-05T14:20:10Z</time>
      </trkpt>
      <trkpt lat="46.42391" lon="5.40009">
        <ele>470.4</ele>
        <time>2022-02-05T14:20:12Z</time>
      </trkpt>
      <trkpt lat="46.42393" lon="5.39961">
        <ele>469.2</ele>
        <time>2022-02-05T14:20:15Z</time>
      </trkpt>
      <trkpt lat="46.42394" lon="5.39936">
        <ele>468.2</ele>
        <time>2022-02-05T14:20:17Z</time>
      </trkpt>
      <trkpt lat="46.42394" lon="5.39922">
        <ele>468</ele>
        <time>2022-02-05T14:20:18Z</time>
      </trkpt>
      <trkpt lat="46.42395" lon="5.39884">
        <ele>467.4</ele>
        <time>2022-02-05T14:20:21Z</time>
      </trkpt>
      <trkpt lat="46.42396" lon="5.39861">
        <ele>467</ele>
        <time>2022-02-05T14:20:23Z</time>
      </trkpt>
      <trkpt lat="46.42398" lon="5.3982">
        <ele>467.2</ele>
        <time>2022-02-05T14:20:27Z</time>
      </trkpt>
      <trkpt lat="46.42399" lon="5.39811">
        <ele>467.2</ele>
        <time>2022-02-05T14:20:28Z</time>
      </trkpt>
      <trkpt lat="46.42406" lon="5.39796">
        <ele>467.4</ele>
        <time>2022-02-05T14:20:30Z</time>
      </trkpt>
      <trkpt lat="46.42413" lon="5.39792">
        <ele>467.6</ele>
        <time>2022-02-05T14:20:32Z</time>
      </trkpt>
      <trkpt lat="46.42418" lon="5.39793">
        <ele>468.2</ele>
        <time>2022-02-05T14:20:33Z</time>
      </trkpt>
      <trkpt lat="46.42423" lon="5.39794">
        <ele>468.6</ele>
        <time>2022-02-05T14:20:34Z</time>
      </trkpt>
      <trkpt lat="46.42433" lon="5.39797">
        <ele>469.8</ele>
        <time>2022-02-05T14:20:36Z</time>
      </trkpt>
      <trkpt lat="46.42444" lon="5.39801">
        <ele>470</ele>
        <time>2022-02-05T14:20:38Z</time>
      </trkpt>
      <trkpt lat="46.42451" lon="5.39806">
        <ele>470</ele>
        <time>2022-02-05T14:20:39Z</time>
      </trkpt>
      <trkpt lat="46.42457" lon="5.39811">
        <ele>470</ele>
        <time>2022-02-05T14:20:40Z</time>
      </trkpt>
      <trkpt lat="46.42471" lon="5.39828">
        <ele>469.8</ele>
        <time>2022-02-05T14:20:43Z</time>
      </trkpt>
      <trkpt lat="46.42499" lon="5.39867">
        <ele>469.2</ele>
        <time>2022-02-05T14:20:49Z</time>
      </trkpt>
      <trkpt lat="46.42533" lon="5.39897">
        <ele>469</ele>
        <time>2022-02-05T14:20:55Z</time>
      </trkpt>
      <trkpt lat="46.42581" lon="5.39933">
        <ele>469</ele>
        <time>2022-02-05T14:21:04Z</time>
      </trkpt>
      <trkpt lat="46.42615" lon="5.39952">
        <ele>468.8</ele>
        <time>2022-02-05T14:21:11Z</time>
      </trkpt>
      <trkpt lat="46.42659" lon="5.39972">
        <ele>469.6</ele>
        <time>2022-02-05T14:21:20Z</time>
      </trkpt>
      <trkpt lat="46.42715" lon="5.39998">
        <ele>469.8</ele>
        <time>2022-02-05T14:21:31Z</time>
      </trkpt>
      <trkpt lat="46.42765" lon="5.40018">
        <ele>470.4</ele>
        <time>2022-02-05T14:21:41Z</time>
      </trkpt>
      <trkpt lat="46.42811" lon="5.40035">
        <ele>471</ele>
        <time>2022-02-05T14:21:50Z</time>
      </trkpt>
      <trkpt lat="46.42853" lon="5.40049">
        <ele>470.8</ele>
        <time>2022-02-05T14:21:57Z</time>
      </trkpt>
      <trkpt lat="46.42892" lon="5.40057">
        <ele>470.6</ele>
        <time>2022-02-05T14:22:04Z</time>
      </trkpt>
      <trkpt lat="46.42926" lon="5.40058">
        <ele>470.6</ele>
        <time>2022-02-05T14:22:11Z</time>
      </trkpt>
      <trkpt lat="46.42966" lon="5.40064">
        <ele>471</ele>
        <time>2022-02-05T14:22:20Z</time>
      </trkpt>
      <trkpt lat="46.42986" lon="5.40068">
        <ele>472.4</ele>
        <time>2022-02-05T14:22:24Z</time>
      </trkpt>
      <trkpt lat="46.43011" lon="5.40072">
        <ele>473</ele>
        <time>2022-02-05T14:22:29Z</time>
      </trkpt>
      <trkpt lat="46.4304" lon="5.40077">
        <ele>473.4</ele>
        <time>2022-02-05T14:22:35Z</time>
      </trkpt>
      <trkpt lat="46.43064" lon="5.40077">
        <ele>473.6</ele>
        <time>2022-02-05T14:22:40Z</time>
      </trkpt>
      <trkpt lat="46.43097" lon="5.40082">
        <ele>473.4</ele>
        <time>2022-02-05T14:22:46Z</time>
      </trkpt>
      <trkpt lat="46.43138" lon="5.4009">
        <ele>472.4</ele>
        <time>2022-02-05T14:22:52Z</time>
      </trkpt>
      <trkpt lat="46.43145" lon="5.40091">
        <ele>472.2</ele>
        <time>2022-02-05T14:22:53Z</time>
      </trkpt>
      <trkpt lat="46.43189" lon="5.401">
        <ele>471.4</ele>
        <time>2022-02-05T14:23:00Z</time>
      </trkpt>
      <trkpt lat="46.43224" lon="5.40119">
        <ele>471.2</ele>
        <time>2022-02-05T14:23:06Z</time>
      </trkpt>
      <trkpt lat="46.43237" lon="5.40122">
        <ele>471.2</ele>
        <time>2022-02-05T14:23:08Z</time>
      </trkpt>
      <trkpt lat="46.43256" lon="5.40123">
        <ele>471</ele>
        <time>2022-02-05T14:23:11Z</time>
      </trkpt>
      <trkpt lat="46.43296" lon="5.40117">
        <ele>470.2</ele>
        <time>2022-02-05T14:23:17Z</time>
      </trkpt>
      <trkpt lat="46.43307" lon="5.40116">
        <ele>470.2</ele>
        <time>2022-02-05T14:23:19Z</time>
      </trkpt>
      <trkpt lat="46.43361" lon="5.40118">
        <ele>470</ele>
        <time>2022-02-05T14:23:27Z</time>
      </trkpt>
      <trkpt lat="46.43406" lon="5.40131">
        <ele>470</ele>
        <time>2022-02-05T14:23:34Z</time>
      </trkpt>
      <trkpt lat="46.43456" lon="5.40152">
        <ele>469.6</ele>
        <time>2022-02-05T14:23:42Z</time>
      </trkpt>
      <trkpt lat="46.43489" lon="5.4017">
        <ele>469.8</ele>
        <time>2022-02-05T14:23:48Z</time>
      </trkpt>
      <trkpt lat="46.43521" lon="5.40175">
        <ele>470.4</ele>
        <time>2022-02-05T14:23:54Z</time>
      </trkpt>
      <trkpt lat="46.43573" lon="5.40181">
        <ele>471</ele>
        <time>2022-02-05T14:24:04Z</time>
      </trkpt>
      <trkpt lat="46.43614" lon="5.4019">
        <ele>470.4</ele>
        <time>2022-02-05T14:24:11Z</time>
      </trkpt>
      <trkpt lat="46.43662" lon="5.40184">
        <ele>470.8</ele>
        <time>2022-02-05T14:24:20Z</time>
      </trkpt>
      <trkpt lat="46.43705" lon="5.40178">
        <ele>471.2</ele>
        <time>2022-02-05T14:24:28Z</time>
      </trkpt>
      <trkpt lat="46.43715" lon="5.40176">
        <ele>471.4</ele>
        <time>2022-02-05T14:24:30Z</time>
      </trkpt>
      <trkpt lat="46.43744" lon="5.40171">
        <ele>472.6</ele>
        <time>2022-02-05T14:24:36Z</time>
      </trkpt>
      <trkpt lat="46.4375" lon="5.4017">
        <ele>472.6</ele>
        <time>2022-02-05T14:24:37Z</time>
      </trkpt>
      <trkpt lat="46.43779" lon="5.40163">
        <ele>473</ele>
        <time>2022-02-05T14:24:42Z</time>
      </trkpt>
      <trkpt lat="46.4382" lon="5.40148">
        <ele>473.2</ele>
        <time>2022-02-05T14:24:50Z</time>
      </trkpt>
      <trkpt lat="46.43855" lon="5.40137">
        <ele>473.4</ele>
        <time>2022-02-05T14:24:56Z</time>
      </trkpt>
      <trkpt lat="46.43882" lon="5.40123">
        <ele>473</ele>
        <time>2022-02-05T14:25:00Z</time>
      </trkpt>
      <trkpt lat="46.43888" lon="5.40117">
        <ele>472.8</ele>
        <time>2022-02-05T14:25:01Z</time>
      </trkpt>
      <trkpt lat="46.4391" lon="5.40098">
        <ele>472.2</ele>
        <time>2022-02-05T14:25:05Z</time>
      </trkpt>
      <trkpt lat="46.43927" lon="5.40089">
        <ele>472.2</ele>
        <time>2022-02-05T14:25:08Z</time>
      </trkpt>
      <trkpt lat="46.43933" lon="5.40087">
        <ele>472.2</ele>
        <time>2022-02-05T14:25:09Z</time>
      </trkpt>
      <trkpt lat="46.43954" lon="5.40086">
        <ele>472.2</ele>
        <time>2022-02-05T14:25:12Z</time>
      </trkpt>
      <trkpt lat="46.4399" lon="5.40085">
        <ele>471.8</ele>
        <time>2022-02-05T14:25:17Z</time>
      </trkpt>
      <trkpt lat="46.43997" lon="5.40084">
        <ele>471.6</ele>
        <time>2022-02-05T14:25:18Z</time>
      </trkpt>
      <trkpt lat="46.44035" lon="5.40076">
        <ele>471.4</ele>
        <time>2022-02-05T14:25:24Z</time>
      </trkpt>
      <trkpt lat="46.44088" lon="5.40062">
        <ele>472.2</ele>
        <time>2022-02-05T14:25:33Z</time>
      </trkpt>
      <trkpt lat="46.44131" lon="5.40047">
        <ele>472.6</ele>
        <time>2022-02-05T14:25:41Z</time>
      </trkpt>
      <trkpt lat="46.44151" lon="5.40033">
        <ele>472.8</ele>
        <time>2022-02-05T14:25:45Z</time>
      </trkpt>
      <trkpt lat="46.44164" lon="5.40021">
        <ele>473</ele>
        <time>2022-02-05T14:25:48Z</time>
      </trkpt>
      <trkpt lat="46.44187" lon="5.4">
        <ele>473.8</ele>
        <time>2022-02-05T14:25:53Z</time>
      </trkpt>
      <trkpt lat="46.4421" lon="5.39979">
        <ele>474.6</ele>
        <time>2022-02-05T14:25:58Z</time>
      </trkpt>
      <trkpt lat="46.44245" lon="5.39957">
        <ele>474.6</ele>
        <time>2022-02-05T14:26:04Z</time>
      </trkpt>
      <trkpt lat="46.44276" lon="5.39953">
        <ele>474.4</ele>
        <time>2022-02-05T14:26:09Z</time>
      </trkpt>
      <trkpt lat="46.44302" lon="5.39953">
        <ele>474.4</ele>
        <time>2022-02-05T14:26:14Z</time>
      </trkpt>
      <trkpt lat="46.44321" lon="5.39952">
        <ele>474.8</ele>
        <time>2022-02-05T14:26:18Z</time>
      </trkpt>
      <trkpt lat="46.44335" lon="5.39951">
        <ele>475.4</ele>
        <time>2022-02-05T14:26:21Z</time>
      </trkpt>
      <trkpt lat="46.44351" lon="5.39951">
        <ele>476</ele>
        <time>2022-02-05T14:26:24Z</time>
      </trkpt>
      <trkpt lat="46.44377" lon="5.39951">
        <ele>477.2</ele>
        <time>2022-02-05T14:26:29Z</time>
      </trkpt>
      <trkpt lat="46.44382" lon="5.39951">
        <ele>477.4</ele>
        <time>2022-02-05T14:26:30Z</time>
      </trkpt>
      <trkpt lat="46.44425" lon="5.39947">
        <ele>477.8</ele>
        <time>2022-02-05T14:26:36Z</time>
      </trkpt>
      <trkpt lat="46.44456" lon="5.39937">
        <ele>477.2</ele>
        <time>2022-02-05T14:26:41Z</time>
      </trkpt>
      <trkpt lat="46.44488" lon="5.39921">
        <ele>477</ele>
        <time>2022-02-05T14:26:47Z</time>
      </trkpt>
      <trkpt lat="46.44521" lon="5.39905">
        <ele>477.8</ele>
        <time>2022-02-05T14:26:54Z</time>
      </trkpt>
      <trkpt lat="46.44561" lon="5.39887">
        <ele>478.4</ele>
        <time>2022-02-05T14:27:02Z</time>
      </trkpt>
      <trkpt lat="46.44572" lon="5.39882">
        <ele>478.2</ele>
        <time>2022-02-05T14:27:04Z</time>
      </trkpt>
      <trkpt lat="46.44578" lon="5.39879">
        <ele>478.2</ele>
        <time>2022-02-05T14:27:05Z</time>
      </trkpt>
      <trkpt lat="46.44592" lon="5.39868">
        <ele>478.2</ele>
        <time>2022-02-05T14:27:08Z</time>
      </trkpt>
      <trkpt lat="46.44596" lon="5.39864">
        <ele>478.2</ele>
        <time>2022-02-05T14:27:09Z</time>
      </trkpt>
      <trkpt lat="46.44615" lon="5.39842">
        <ele>478.8</ele>
        <time>2022-02-05T14:27:14Z</time>
      </trkpt>
      <trkpt lat="46.44647" lon="5.39808">
        <ele>479</ele>
        <time>2022-02-05T14:27:21Z</time>
      </trkpt>
      <trkpt lat="46.44661" lon="5.39801">
        <ele>479</ele>
        <time>2022-02-05T14:27:23Z</time>
      </trkpt>
      <trkpt lat="46.44676" lon="5.39797">
        <ele>478.6</ele>
        <time>2022-02-05T14:27:25Z</time>
      </trkpt>
      <trkpt lat="46.44719" lon="5.39798">
        <ele>477.4</ele>
        <time>2022-02-05T14:27:31Z</time>
      </trkpt>
      <trkpt lat="46.4474" lon="5.398">
        <ele>477.4</ele>
        <time>2022-02-05T14:27:35Z</time>
      </trkpt>
      <trkpt lat="46.44748" lon="5.398">
        <ele>477.6</ele>
        <time>2022-02-05T14:27:37Z</time>
      </trkpt>
      <trkpt lat="46.44765" lon="5.39802">
        <ele>478.4</ele>
        <time>2022-02-05T14:27:41Z</time>
      </trkpt>
      <trkpt lat="46.44775" lon="5.39801">
        <ele>479</ele>
        <time>2022-02-05T14:27:43Z</time>
      </trkpt>
      <trkpt lat="46.44786" lon="5.39798">
        <ele>479.6</ele>
        <time>2022-02-05T14:27:45Z</time>
      </trkpt>
      <trkpt lat="46.44792" lon="5.39797">
        <ele>479.6</ele>
        <time>2022-02-05T14:27:46Z</time>
      </trkpt>
      <trkpt lat="46.44792" lon="5.39797">
        <ele>480</ele>
        <time>2022-02-05T14:27:47Z</time>
      </trkpt>
      <trkpt lat="46.44814" lon="5.39785">
        <ele>480.4</ele>
        <time>2022-02-05T14:27:50Z</time>
      </trkpt>
      <trkpt lat="46.44827" lon="5.39775">
        <ele>480.6</ele>
        <time>2022-02-05T14:27:52Z</time>
      </trkpt>
      <trkpt lat="46.44856" lon="5.39758">
        <ele>480.4</ele>
        <time>2022-02-05T14:27:56Z</time>
      </trkpt>
      <trkpt lat="46.44856" lon="5.39758">
        <ele>480.4</ele>
        <time>2022-02-05T14:27:57Z</time>
      </trkpt>
      <trkpt lat="46.44892" lon="5.39749">
        <ele>480</ele>
        <time>2022-02-05T14:28:02Z</time>
      </trkpt>
      <trkpt lat="46.44922" lon="5.39743">
        <ele>480.6</ele>
        <time>2022-02-05T14:28:08Z</time>
      </trkpt>
      <trkpt lat="46.44927" lon="5.39741">
        <ele>481</ele>
        <time>2022-02-05T14:28:09Z</time>
      </trkpt>
      <trkpt lat="46.44955" lon="5.39735">
        <ele>481.6</ele>
        <time>2022-02-05T14:28:14Z</time>
      </trkpt>
      <trkpt lat="46.44961" lon="5.39733">
        <ele>481.6</ele>
        <time>2022-02-05T14:28:15Z</time>
      </trkpt>
      <trkpt lat="46.44977" lon="5.39726">
        <ele>481.4</ele>
        <time>2022-02-05T14:28:18Z</time>
      </trkpt>
      <trkpt lat="46.44987" lon="5.39718">
        <ele>481</ele>
        <time>2022-02-05T14:28:20Z</time>
      </trkpt>
      <trkpt lat="46.45019" lon="5.39685">
        <ele>481</ele>
        <time>2022-02-05T14:28:28Z</time>
      </trkpt>
      <trkpt lat="46.4505" lon="5.39657">
        <ele>482.4</ele>
        <time>2022-02-05T14:28:36Z</time>
      </trkpt>
      <trkpt lat="46.45054" lon="5.39654">
        <ele>482.8</ele>
        <time>2022-02-05T14:28:37Z</time>
      </trkpt>
      <trkpt lat="46.45077" lon="5.39636">
        <ele>484.2</ele>
        <time>2022-02-05T14:28:44Z</time>
      </trkpt>
      <trkpt lat="46.45084" lon="5.39631">
        <ele>484</ele>
        <time>2022-02-05T14:28:45Z</time>
      </trkpt>
      <trkpt lat="46.45093" lon="5.39626">
        <ele>484.4</ele>
        <time>2022-02-05T14:28:47Z</time>
      </trkpt>
      <trkpt lat="46.45113" lon="5.39612">
        <ele>485.2</ele>
        <time>2022-02-05T14:28:52Z</time>
      </trkpt>
      <trkpt lat="46.45138" lon="5.396">
        <ele>485.6</ele>
        <time>2022-02-05T14:28:57Z</time>
      </trkpt>
      <trkpt lat="46.45182" lon="5.3958">
        <ele>485.6</ele>
        <time>2022-02-05T14:29:05Z</time>
      </trkpt>
      <trkpt lat="46.45223" lon="5.39562">
        <ele>484.8</ele>
        <time>2022-02-05T14:29:12Z</time>
      </trkpt>
      <trkpt lat="46.45252" lon="5.39544">
        <ele>483.8</ele>
        <time>2022-02-05T14:29:15Z</time>
      </trkpt>
      <trkpt lat="46.45265" lon="5.39532">
        <ele>483</ele>
        <time>2022-02-05T14:29:17Z</time>
      </trkpt>
      <trkpt lat="46.45277" lon="5.39519">
        <ele>482.4</ele>
        <time>2022-02-05T14:29:19Z</time>
      </trkpt>
      <trkpt lat="46.45304" lon="5.39486">
        <ele>481.4</ele>
        <time>2022-02-05T14:29:24Z</time>
      </trkpt>
      <trkpt lat="46.45329" lon="5.39437">
        <ele>480.6</ele>
        <time>2022-02-05T14:29:30Z</time>
      </trkpt>
      <trkpt lat="46.45335" lon="5.39419">
        <ele>480.2</ele>
        <time>2022-02-05T14:29:33Z</time>
      </trkpt>
      <trkpt lat="46.4536" lon="5.39349">
        <ele>479.6</ele>
        <time>2022-02-05T14:29:39Z</time>
      </trkpt>
      <trkpt lat="46.45364" lon="5.39339">
        <ele>479</ele>
        <time>2022-02-05T14:29:40Z</time>
      </trkpt>
      <trkpt lat="46.45372" lon="5.39317">
        <ele>477.6</ele>
        <time>2022-02-05T14:29:43Z</time>
      </trkpt>
      <trkpt lat="46.45387" lon="5.39275">
        <ele>476.4</ele>
        <time>2022-02-05T14:29:46Z</time>
      </trkpt>
      <trkpt lat="46.45391" lon="5.39264">
        <ele>476</ele>
        <time>2022-02-05T14:29:47Z</time>
      </trkpt>
      <trkpt lat="46.45399" lon="5.39243">
        <ele>475.2</ele>
        <time>2022-02-05T14:29:49Z</time>
      </trkpt>
      <trkpt lat="46.45403" lon="5.39233">
        <ele>474.2</ele>
        <time>2022-02-05T14:29:51Z</time>
      </trkpt>
      <trkpt lat="46.4541" lon="5.39212">
        <ele>473.8</ele>
        <time>2022-02-05T14:29:52Z</time>
      </trkpt>
      <trkpt lat="46.45431" lon="5.39153">
        <ele>473</ele>
        <time>2022-02-05T14:29:58Z</time>
      </trkpt>
      <trkpt lat="46.45434" lon="5.39143">
        <ele>472.8</ele>
        <time>2022-02-05T14:29:59Z</time>
      </trkpt>
      <trkpt lat="46.45446" lon="5.39112">
        <ele>472.2</ele>
        <time>2022-02-05T14:30:02Z</time>
      </trkpt>
      <trkpt lat="46.45452" lon="5.39103">
        <ele>471.8</ele>
        <time>2022-02-05T14:30:03Z</time>
      </trkpt>
      <trkpt lat="46.4546" lon="5.39097">
        <ele>471.8</ele>
        <time>2022-02-05T14:30:04Z</time>
      </trkpt>
      <trkpt lat="46.45468" lon="5.39094">
        <ele>471.4</ele>
        <time>2022-02-05T14:30:05Z</time>
      </trkpt>
      <trkpt lat="46.45477" lon="5.39095">
        <ele>471.2</ele>
        <time>2022-02-05T14:30:06Z</time>
      </trkpt>
      <trkpt lat="46.45484" lon="5.39101">
        <ele>470.6</ele>
        <time>2022-02-05T14:30:07Z</time>
      </trkpt>
      <trkpt lat="46.4549" lon="5.39107">
        <ele>470.2</ele>
        <time>2022-02-05T14:30:08Z</time>
      </trkpt>
      <trkpt lat="46.45501" lon="5.39122">
        <ele>469.8</ele>
        <time>2022-02-05T14:30:10Z</time>
      </trkpt>
      <trkpt lat="46.45513" lon="5.39133">
        <ele>469.4</ele>
        <time>2022-02-05T14:30:12Z</time>
      </trkpt>
      <trkpt lat="46.45529" lon="5.39149">
        <ele>469.2</ele>
        <time>2022-02-05T14:30:15Z</time>
      </trkpt>
      <trkpt lat="46.45559" lon="5.39177">
        <ele>470.2</ele>
        <time>2022-02-05T14:30:21Z</time>
      </trkpt>
      <trkpt lat="46.45568" lon="5.39185">
        <ele>470.6</ele>
        <time>2022-02-05T14:30:23Z</time>
      </trkpt>
      <trkpt lat="46.45583" lon="5.392">
        <ele>471.8</ele>
        <time>2022-02-05T14:30:27Z</time>
      </trkpt>
      <trkpt lat="46.45593" lon="5.3921">
        <ele>473</ele>
        <time>2022-02-05T14:30:30Z</time>
      </trkpt>
      <trkpt lat="46.45602" lon="5.3922">
        <ele>473.4</ele>
        <time>2022-02-05T14:30:33Z</time>
      </trkpt>
      <trkpt lat="46.45613" lon="5.39234">
        <ele>474</ele>
        <time>2022-02-05T14:30:37Z</time>
      </trkpt>
      <trkpt lat="46.45616" lon="5.39238">
        <ele>474</ele>
        <time>2022-02-05T14:30:38Z</time>
      </trkpt>
      <trkpt lat="46.45633" lon="5.39255">
        <ele>475</ele>
        <time>2022-02-05T14:30:43Z</time>
      </trkpt>
      <trkpt lat="46.45637" lon="5.39259">
        <ele>475.2</ele>
        <time>2022-02-05T14:30:44Z</time>
      </trkpt>
      <trkpt lat="46.45659" lon="5.39283">
        <ele>476.2</ele>
        <time>2022-02-05T14:30:51Z</time>
      </trkpt>
      <trkpt lat="46.45681" lon="5.39307">
        <ele>477.6</ele>
        <time>2022-02-05T14:30:58Z</time>
      </trkpt>
      <trkpt lat="46.45688" lon="5.39314">
        <ele>477.8</ele>
        <time>2022-02-05T14:31:00Z</time>
      </trkpt>
      <trkpt lat="46.45704" lon="5.3933">
        <ele>479</ele>
        <time>2022-02-05T14:31:06Z</time>
      </trkpt>
      <trkpt lat="46.45721" lon="5.39347">
        <ele>480</ele>
        <time>2022-02-05T14:31:11Z</time>
      </trkpt>
      <trkpt lat="46.45724" lon="5.3935">
        <ele>480.2</ele>
        <time>2022-02-05T14:31:12Z</time>
      </trkpt>
      <trkpt lat="46.45737" lon="5.39365">
        <ele>481.2</ele>
        <time>2022-02-05T14:31:17Z</time>
      </trkpt>
      <trkpt lat="46.45749" lon="5.39384">
        <ele>482.4</ele>
        <time>2022-02-05T14:31:22Z</time>
      </trkpt>
      <trkpt lat="46.45759" lon="5.39406">
        <ele>483.6</ele>
        <time>2022-02-05T14:31:27Z</time>
      </trkpt>
      <trkpt lat="46.45764" lon="5.3942">
        <ele>484</ele>
        <time>2022-02-05T14:31:30Z</time>
      </trkpt>
      <trkpt lat="46.45768" lon="5.39439">
        <ele>484.6</ele>
        <time>2022-02-05T14:31:34Z</time>
      </trkpt>
      <trkpt lat="46.4577" lon="5.39459">
        <ele>485.4</ele>
        <time>2022-02-05T14:31:38Z</time>
      </trkpt>
      <trkpt lat="46.4577" lon="5.39468">
        <ele>485.8</ele>
        <time>2022-02-05T14:31:40Z</time>
      </trkpt>
      <trkpt lat="46.45769" lon="5.39493">
        <ele>487</ele>
        <time>2022-02-05T14:31:45Z</time>
      </trkpt>
      <trkpt lat="46.45768" lon="5.39504">
        <ele>487.2</ele>
        <time>2022-02-05T14:31:47Z</time>
      </trkpt>
      <trkpt lat="46.45768" lon="5.39509">
        <ele>487.8</ele>
        <time>2022-02-05T14:31:48Z</time>
      </trkpt>
      <trkpt lat="46.45767" lon="5.3952">
        <ele>488.2</ele>
        <time>2022-02-05T14:31:50Z</time>
      </trkpt>
      <trkpt lat="46.45761" lon="5.39553">
        <ele>489</ele>
        <time>2022-02-05T14:31:56Z</time>
      </trkpt>
      <trkpt lat="46.4576" lon="5.39559">
        <ele>489.2</ele>
        <time>2022-02-05T14:31:57Z</time>
      </trkpt>
      <trkpt lat="46.4576" lon="5.39602">
        <ele>489.8</ele>
        <time>2022-02-05T14:32:04Z</time>
      </trkpt>
      <trkpt lat="46.45762" lon="5.39626">
        <ele>490.2</ele>
        <time>2022-02-05T14:32:08Z</time>
      </trkpt>
      <trkpt lat="46.45763" lon="5.39632">
        <ele>490.4</ele>
        <time>2022-02-05T14:32:09Z</time>
      </trkpt>
      <trkpt lat="46.45766" lon="5.39648">
        <ele>490.6</ele>
        <time>2022-02-05T14:32:12Z</time>
      </trkpt>
      <trkpt lat="46.45775" lon="5.39672">
        <ele>491.4</ele>
        <time>2022-02-05T14:32:17Z</time>
      </trkpt>
      <trkpt lat="46.45777" lon="5.39677">
        <ele>491.6</ele>
        <time>2022-02-05T14:32:18Z</time>
      </trkpt>
      <trkpt lat="46.45792" lon="5.39703">
        <ele>492.6</ele>
        <time>2022-02-05T14:32:24Z</time>
      </trkpt>
      <trkpt lat="46.45798" lon="5.39711">
        <ele>492.6</ele>
        <time>2022-02-05T14:32:26Z</time>
      </trkpt>
      <trkpt lat="46.4582" lon="5.39732">
        <ele>493.6</ele>
        <time>2022-02-05T14:32:33Z</time>
      </trkpt>
      <trkpt lat="46.45827" lon="5.39738">
        <ele>494.2</ele>
        <time>2022-02-05T14:32:35Z</time>
      </trkpt>
      <trkpt lat="46.45837" lon="5.39747">
        <ele>494.8</ele>
        <time>2022-02-05T14:32:38Z</time>
      </trkpt>
      <trkpt lat="46.45861" lon="5.39767">
        <ele>495.6</ele>
        <time>2022-02-05T14:32:46Z</time>
      </trkpt>
      <trkpt lat="46.45869" lon="5.39774">
        <ele>495.8</ele>
        <time>2022-02-05T14:32:48Z</time>
      </trkpt>
      <trkpt lat="46.45879" lon="5.39783">
        <ele>496.2</ele>
        <time>2022-02-05T14:32:51Z</time>
      </trkpt>
      <trkpt lat="46.45902" lon="5.39802">
        <ele>496.8</ele>
        <time>2022-02-05T14:32:56Z</time>
      </trkpt>
      <trkpt lat="46.45936" lon="5.39828">
        <ele>497</ele>
        <time>2022-02-05T14:33:03Z</time>
      </trkpt>
      <trkpt lat="46.4597" lon="5.39858">
        <ele>497.4</ele>
        <time>2022-02-05T14:33:11Z</time>
      </trkpt>
      <trkpt lat="46.46001" lon="5.39882">
        <ele>497.8</ele>
        <time>2022-02-05T14:33:18Z</time>
      </trkpt>
      <trkpt lat="46.46006" lon="5.39886">
        <ele>497.8</ele>
        <time>2022-02-05T14:33:19Z</time>
      </trkpt>
      <trkpt lat="46.46048" lon="5.39921">
        <ele>498.4</ele>
        <time>2022-02-05T14:33:29Z</time>
      </trkpt>
      <trkpt lat="46.46067" lon="5.39938">
        <ele>499</ele>
        <time>2022-02-05T14:33:34Z</time>
      </trkpt>
      <trkpt lat="46.46075" lon="5.39945">
        <ele>499.2</ele>
        <time>2022-02-05T14:33:36Z</time>
      </trkpt>
      <trkpt lat="46.46109" lon="5.39975">
        <ele>499.6</ele>
        <time>2022-02-05T14:33:44Z</time>
      </trkpt>
      <trkpt lat="46.46136" lon="5.39997">
        <ele>500</ele>
        <time>2022-02-05T14:33:50Z</time>
      </trkpt>
      <trkpt lat="46.46152" lon="5.40012">
        <ele>500.2</ele>
        <time>2022-02-05T14:33:54Z</time>
      </trkpt>
      <trkpt lat="46.46177" lon="5.40046">
        <ele>500.6</ele>
        <time>2022-02-05T14:34:01Z</time>
      </trkpt>
      <trkpt lat="46.46189" lon="5.4008">
        <ele>501</ele>
        <time>2022-02-05T14:34:07Z</time>
      </trkpt>
      <trkpt lat="46.46191" lon="5.40086">
        <ele>501.2</ele>
        <time>2022-02-05T14:34:08Z</time>
      </trkpt>
      <trkpt lat="46.46195" lon="5.40129">
        <ele>502</ele>
        <time>2022-02-05T14:34:15Z</time>
      </trkpt>
      <trkpt lat="46.46195" lon="5.40134">
        <ele>502</ele>
        <time>2022-02-05T14:34:16Z</time>
      </trkpt>
      <trkpt lat="46.46197" lon="5.40139">
        <ele>502.2</ele>
        <time>2022-02-05T14:34:17Z</time>
      </trkpt>
      <trkpt lat="46.46197" lon="5.40139">
        <ele>502.4</ele>
        <time>2022-02-05T14:34:18Z</time>
      </trkpt>
      <trkpt lat="46.46204" lon="5.40144">
        <ele>502.4</ele>
        <time>2022-02-05T14:34:19Z</time>
      </trkpt>
      <trkpt lat="46.46208" lon="5.40144">
        <ele>502.6</ele>
        <time>2022-02-05T14:34:20Z</time>
      </trkpt>
      <trkpt lat="46.46212" lon="5.40141">
        <ele>502.6</ele>
        <time>2022-02-05T14:34:21Z</time>
      </trkpt>
      <trkpt lat="46.46223" lon="5.40128">
        <ele>503</ele>
        <time>2022-02-05T14:34:24Z</time>
      </trkpt>
      <trkpt lat="46.46234" lon="5.40114">
        <ele>503.2</ele>
        <time>2022-02-05T14:34:27Z</time>
      </trkpt>
      <trkpt lat="46.46247" lon="5.40104">
        <ele>503.4</ele>
        <time>2022-02-05T14:34:30Z</time>
      </trkpt>
      <trkpt lat="46.46264" lon="5.40095">
        <ele>503.6</ele>
        <time>2022-02-05T14:34:34Z</time>
      </trkpt>
      <trkpt lat="46.46272" lon="5.40093">
        <ele>503.8</ele>
        <time>2022-02-05T14:34:36Z</time>
      </trkpt>
      <trkpt lat="46.46287" lon="5.40093">
        <ele>504.4</ele>
        <time>2022-02-05T14:34:40Z</time>
      </trkpt>
      <trkpt lat="46.46294" lon="5.40093">
        <ele>504.8</ele>
        <time>2022-02-05T14:34:42Z</time>
      </trkpt>
      <trkpt lat="46.46303" lon="5.40094">
        <ele>505.6</ele>
        <time>2022-02-05T14:34:45Z</time>
      </trkpt>
      <trkpt lat="46.46321" lon="5.40096">
        <ele>506.2</ele>
        <time>2022-02-05T14:34:50Z</time>
      </trkpt>
      <trkpt lat="46.46324" lon="5.40096">
        <ele>506.8</ele>
        <time>2022-02-05T14:34:51Z</time>
      </trkpt>
      <trkpt lat="46.46343" lon="5.40095">
        <ele>508</ele>
        <time>2022-02-05T14:34:56Z</time>
      </trkpt>
      <trkpt lat="46.46357" lon="5.40093">
        <ele>509.2</ele>
        <time>2022-02-05T14:35:00Z</time>
      </trkpt>
      <trkpt lat="46.46378" lon="5.4009">
        <ele>510</ele>
        <time>2022-02-05T14:35:06Z</time>
      </trkpt>
      <trkpt lat="46.46382" lon="5.40089">
        <ele>510.2</ele>
        <time>2022-02-05T14:35:07Z</time>
      </trkpt>
      <trkpt lat="46.46409" lon="5.40084">
        <ele>510.6</ele>
        <time>2022-02-05T14:35:15Z</time>
      </trkpt>
      <trkpt lat="46.46419" lon="5.40082">
        <ele>511.4</ele>
        <time>2022-02-05T14:35:18Z</time>
      </trkpt>
      <trkpt lat="46.46443" lon="5.40077">
        <ele>512.4</ele>
        <time>2022-02-05T14:35:25Z</time>
      </trkpt>
      <trkpt lat="46.46472" lon="5.40073">
        <ele>513.6</ele>
        <time>2022-02-05T14:35:33Z</time>
      </trkpt>
      <trkpt lat="46.4648" lon="5.40072">
        <ele>513.8</ele>
        <time>2022-02-05T14:35:35Z</time>
      </trkpt>
      <trkpt lat="46.46504" lon="5.40074">
        <ele>514.6</ele>
        <time>2022-02-05T14:35:41Z</time>
      </trkpt>
      <trkpt lat="46.46513" lon="5.40077">
        <ele>514.8</ele>
        <time>2022-02-05T14:35:43Z</time>
      </trkpt>
      <trkpt lat="46.46539" lon="5.40091">
        <ele>515.4</ele>
        <time>2022-02-05T14:35:50Z</time>
      </trkpt>
      <trkpt lat="46.4655" lon="5.40096">
        <ele>515.6</ele>
        <time>2022-02-05T14:35:53Z</time>
      </trkpt>
      <trkpt lat="46.46577" lon="5.4011">
        <ele>516.8</ele>
        <time>2022-02-05T14:36:00Z</time>
      </trkpt>
      <trkpt lat="46.4658" lon="5.40112">
        <ele>516.8</ele>
        <time>2022-02-05T14:36:01Z</time>
      </trkpt>
      <trkpt lat="46.46608" lon="5.40127">
        <ele>518</ele>
        <time>2022-02-05T14:36:09Z</time>
      </trkpt>
      <trkpt lat="46.46615" lon="5.4013">
        <ele>518.6</ele>
        <time>2022-02-05T14:36:11Z</time>
      </trkpt>
      <trkpt lat="46.46624" lon="5.40135">
        <ele>519</ele>
        <time>2022-02-05T14:36:14Z</time>
      </trkpt>
      <trkpt lat="46.46644" lon="5.40145">
        <ele>520</ele>
        <time>2022-02-05T14:36:20Z</time>
      </trkpt>
      <trkpt lat="46.46662" lon="5.40155">
        <ele>521</ele>
        <time>2022-02-05T14:36:26Z</time>
      </trkpt>
      <trkpt lat="46.46677" lon="5.40163">
        <ele>522</ele>
        <time>2022-02-05T14:36:31Z</time>
      </trkpt>
      <trkpt lat="46.46681" lon="5.40164">
        <ele>522.2</ele>
        <time>2022-02-05T14:36:32Z</time>
      </trkpt>
      <trkpt lat="46.46693" lon="5.4017">
        <ele>523.2</ele>
        <time>2022-02-05T14:36:36Z</time>
      </trkpt>
      <trkpt lat="46.46708" lon="5.40177">
        <ele>524</ele>
        <time>2022-02-05T14:36:41Z</time>
      </trkpt>
      <trkpt lat="46.46712" lon="5.40178">
        <ele>524.2</ele>
        <time>2022-02-05T14:36:42Z</time>
      </trkpt>
      <trkpt lat="46.46732" lon="5.40187">
        <ele>525.6</ele>
        <time>2022-02-05T14:36:49Z</time>
      </trkpt>
      <trkpt lat="46.46734" lon="5.40188">
        <ele>525.8</ele>
        <time>2022-02-05T14:36:50Z</time>
      </trkpt>
      <trkpt lat="46.46745" lon="5.40195">
        <ele>526.8</ele>
        <time>2022-02-05T14:36:54Z</time>
      </trkpt>
      <trkpt lat="46.46754" lon="5.402">
        <ele>527.4</ele>
        <time>2022-02-05T14:36:57Z</time>
      </trkpt>
      <trkpt lat="46.46767" lon="5.40208">
        <ele>528</ele>
        <time>2022-02-05T14:37:01Z</time>
      </trkpt>
      <trkpt lat="46.46778" lon="5.40216">
        <ele>528.8</ele>
        <time>2022-02-05T14:37:05Z</time>
      </trkpt>
      <trkpt lat="46.46783" lon="5.40219">
        <ele>529.2</ele>
        <time>2022-02-05T14:37:07Z</time>
      </trkpt>
      <trkpt lat="46.46794" lon="5.40226">
        <ele>530</ele>
        <time>2022-02-05T14:37:11Z</time>
      </trkpt>
      <trkpt lat="46.46799" lon="5.40228">
        <ele>530.2</ele>
        <time>2022-02-05T14:37:13Z</time>
      </trkpt>
      <trkpt lat="46.46816" lon="5.40237">
        <ele>531.4</ele>
        <time>2022-02-05T14:37:19Z</time>
      </trkpt>
      <trkpt lat="46.46833" lon="5.40245">
        <ele>532.6</ele>
        <time>2022-02-05T14:37:25Z</time>
      </trkpt>
      <trkpt lat="46.4685" lon="5.40251">
        <ele>533.4</ele>
        <time>2022-02-05T14:37:31Z</time>
      </trkpt>
      <trkpt lat="46.46855" lon="5.40253">
        <ele>533.6</ele>
        <time>2022-02-05T14:37:33Z</time>
      </trkpt>
      <trkpt lat="46.46866" lon="5.40259">
        <ele>534.6</ele>
        <time>2022-02-05T14:37:37Z</time>
      </trkpt>
      <trkpt lat="46.46875" lon="5.40264">
        <ele>535.2</ele>
        <time>2022-02-05T14:37:40Z</time>
      </trkpt>
      <trkpt lat="46.46893" lon="5.40273">
        <ele>535.8</ele>
        <time>2022-02-05T14:37:45Z</time>
      </trkpt>
      <trkpt lat="46.4692" lon="5.40285">
        <ele>536.8</ele>
        <time>2022-02-05T14:37:52Z</time>
      </trkpt>
      <trkpt lat="46.46944" lon="5.40299">
        <ele>537.6</ele>
        <time>2022-02-05T14:37:59Z</time>
      </trkpt>
      <trkpt lat="46.46951" lon="5.40303">
        <ele>538</ele>
        <time>2022-02-05T14:38:01Z</time>
      </trkpt>
      <trkpt lat="46.46969" lon="5.40309">
        <ele>538.8</ele>
        <time>2022-02-05T14:38:06Z</time>
      </trkpt>
      <trkpt lat="46.46972" lon="5.4031">
        <ele>539.2</ele>
        <time>2022-02-05T14:38:07Z</time>
      </trkpt>
      <trkpt lat="46.46999" lon="5.40321">
        <ele>540</ele>
        <time>2022-02-05T14:38:15Z</time>
      </trkpt>
      <trkpt lat="46.47011" lon="5.40324">
        <ele>540.4</ele>
        <time>2022-02-05T14:38:18Z</time>
      </trkpt>
      <trkpt lat="46.47027" lon="5.40326">
        <ele>541</ele>
        <time>2022-02-05T14:38:22Z</time>
      </trkpt>
      <trkpt lat="46.47039" lon="5.40326">
        <ele>541.4</ele>
        <time>2022-02-05T14:38:25Z</time>
      </trkpt>
      <trkpt lat="46.47057" lon="5.40326">
        <ele>541.6</ele>
        <time>2022-02-05T14:38:29Z</time>
      </trkpt>
      <trkpt lat="46.47087" lon="5.40327">
        <ele>541</ele>
        <time>2022-02-05T14:38:34Z</time>
      </trkpt>
      <trkpt lat="46.47107" lon="5.40329">
        <ele>540.4</ele>
        <time>2022-02-05T14:38:37Z</time>
      </trkpt>
      <trkpt lat="46.4712" lon="5.40331">
        <ele>539.4</ele>
        <time>2022-02-05T14:38:39Z</time>
      </trkpt>
      <trkpt lat="46.47133" lon="5.40334">
        <ele>538.6</ele>
        <time>2022-02-05T14:38:41Z</time>
      </trkpt>
      <trkpt lat="46.47138" lon="5.40335">
        <ele>538</ele>
        <time>2022-02-05T14:38:42Z</time>
      </trkpt>
      <trkpt lat="46.47144" lon="5.40336">
        <ele>537.4</ele>
        <time>2022-02-05T14:38:43Z</time>
      </trkpt>
      <trkpt lat="46.47157" lon="5.40341">
        <ele>536.8</ele>
        <time>2022-02-05T14:38:45Z</time>
      </trkpt>
      <trkpt lat="46.47165" lon="5.40345">
        <ele>536.8</ele>
        <time>2022-02-05T14:38:46Z</time>
      </trkpt>
      <trkpt lat="46.47182" lon="5.40355">
        <ele>536.4</ele>
        <time>2022-02-05T14:38:48Z</time>
      </trkpt>
      <trkpt lat="46.47195" lon="5.4037">
        <ele>535.8</ele>
        <time>2022-02-05T14:38:50Z</time>
      </trkpt>
      <trkpt lat="46.47214" lon="5.40396">
        <ele>535</ele>
        <time>2022-02-05T14:38:53Z</time>
      </trkpt>
      <trkpt lat="46.47222" lon="5.40403">
        <ele>534.2</ele>
        <time>2022-02-05T14:38:54Z</time>
      </trkpt>
      <trkpt lat="46.47241" lon="5.40418">
        <ele>533.4</ele>
        <time>2022-02-05T14:38:56Z</time>
      </trkpt>
      <trkpt lat="46.47254" lon="5.40424">
        <ele>532.4</ele>
        <time>2022-02-05T14:38:57Z</time>
      </trkpt>
      <trkpt lat="46.47264" lon="5.40427">
        <ele>532</ele>
        <time>2022-02-05T14:38:58Z</time>
      </trkpt>
      <trkpt lat="46.47273" lon="5.40431">
        <ele>531.2</ele>
        <time>2022-02-05T14:38:59Z</time>
      </trkpt>
      <trkpt lat="46.47297" lon="5.40438">
        <ele>530</ele>
        <time>2022-02-05T14:39:01Z</time>
      </trkpt>
      <trkpt lat="46.47324" lon="5.40445">
        <ele>528.6</ele>
        <time>2022-02-05T14:39:04Z</time>
      </trkpt>
      <trkpt lat="46.47333" lon="5.40446">
        <ele>527.4</ele>
        <time>2022-02-05T14:39:06Z</time>
      </trkpt>
      <trkpt lat="46.47371" lon="5.4045">
        <ele>526.4</ele>
        <time>2022-02-05T14:39:09Z</time>
      </trkpt>
      <trkpt lat="46.47401" lon="5.40449">
        <ele>525.2</ele>
        <time>2022-02-05T14:39:12Z</time>
      </trkpt>
      <trkpt lat="46.47421" lon="5.40447">
        <ele>524.2</ele>
        <time>2022-02-05T14:39:14Z</time>
      </trkpt>
      <trkpt lat="46.47451" lon="5.40447">
        <ele>523</ele>
        <time>2022-02-05T14:39:17Z</time>
      </trkpt>
      <trkpt lat="46.47461" lon="5.40449">
        <ele>522.8</ele>
        <time>2022-02-05T14:39:18Z</time>
      </trkpt>
      <trkpt lat="46.47479" lon="5.40453">
        <ele>521.6</ele>
        <time>2022-02-05T14:39:20Z</time>
      </trkpt>
      <trkpt lat="46.47493" lon="5.4046">
        <ele>519.8</ele>
        <time>2022-02-05T14:39:22Z</time>
      </trkpt>
      <trkpt lat="46.47505" lon="5.40473">
        <ele>518.4</ele>
        <time>2022-02-05T14:39:24Z</time>
      </trkpt>
      <trkpt lat="46.47511" lon="5.4048">
        <ele>518.2</ele>
        <time>2022-02-05T14:39:25Z</time>
      </trkpt>
      <trkpt lat="46.47518" lon="5.40485">
        <ele>517.4</ele>
        <time>2022-02-05T14:39:26Z</time>
      </trkpt>
      <trkpt lat="46.47532" lon="5.40485">
        <ele>516.2</ele>
        <time>2022-02-05T14:39:28Z</time>
      </trkpt>
      <trkpt lat="46.47541" lon="5.40474">
        <ele>515.4</ele>
        <time>2022-02-05T14:39:30Z</time>
      </trkpt>
      <trkpt lat="46.47542" lon="5.40464">
        <ele>515</ele>
        <time>2022-02-05T14:39:31Z</time>
      </trkpt>
      <trkpt lat="46.47543" lon="5.40454">
        <ele>514.6</ele>
        <time>2022-02-05T14:39:32Z</time>
      </trkpt>
      <trkpt lat="46.47544" lon="5.40443">
        <ele>513.8</ele>
        <time>2022-02-05T14:39:33Z</time>
      </trkpt>
      <trkpt lat="46.47543" lon="5.4043">
        <ele>513.6</ele>
        <time>2022-02-05T14:39:34Z</time>
      </trkpt>
      <trkpt lat="46.4754" lon="5.40417">
        <ele>513</ele>
        <time>2022-02-05T14:39:35Z</time>
      </trkpt>
      <trkpt lat="46.47537" lon="5.40404">
        <ele>512.8</ele>
        <time>2022-02-05T14:39:36Z</time>
      </trkpt>
      <trkpt lat="46.47529" lon="5.4038">
        <ele>511.6</ele>
        <time>2022-02-05T14:39:38Z</time>
      </trkpt>
      <trkpt lat="46.47525" lon="5.40367">
        <ele>511.4</ele>
        <time>2022-02-05T14:39:39Z</time>
      </trkpt>
      <trkpt lat="46.47522" lon="5.40337">
        <ele>510.6</ele>
        <time>2022-02-05T14:39:41Z</time>
      </trkpt>
      <trkpt lat="46.47525" lon="5.40322">
        <ele>510</ele>
        <time>2022-02-05T14:39:42Z</time>
      </trkpt>
      <trkpt lat="46.4753" lon="5.40308">
        <ele>509.6</ele>
        <time>2022-02-05T14:39:43Z</time>
      </trkpt>
      <trkpt lat="46.47543" lon="5.40286">
        <ele>509.2</ele>
        <time>2022-02-05T14:39:45Z</time>
      </trkpt>
      <trkpt lat="46.47551" lon="5.40276">
        <ele>508.2</ele>
        <time>2022-02-05T14:39:46Z</time>
      </trkpt>
      <trkpt lat="46.47569" lon="5.4026">
        <ele>507</ele>
        <time>2022-02-05T14:39:48Z</time>
      </trkpt>
      <trkpt lat="46.47589" lon="5.40252">
        <ele>506.2</ele>
        <time>2022-02-05T14:39:50Z</time>
      </trkpt>
      <trkpt lat="46.476" lon="5.4025">
        <ele>505.4</ele>
        <time>2022-02-05T14:39:51Z</time>
      </trkpt>
      <trkpt lat="46.47611" lon="5.40248">
        <ele>505</ele>
        <time>2022-02-05T14:39:52Z</time>
      </trkpt>
      <trkpt lat="46.47632" lon="5.40244">
        <ele>503.6</ele>
        <time>2022-02-05T14:39:54Z</time>
      </trkpt>
      <trkpt lat="46.47664" lon="5.40244">
        <ele>502.6</ele>
        <time>2022-02-05T14:39:57Z</time>
      </trkpt>
      <trkpt lat="46.47691" lon="5.4024">
        <ele>500.6</ele>
        <time>2022-02-05T14:40:00Z</time>
      </trkpt>
      <trkpt lat="46.477" lon="5.40235">
        <ele>500.2</ele>
        <time>2022-02-05T14:40:01Z</time>
      </trkpt>
      <trkpt lat="46.47708" lon="5.40227">
        <ele>499.6</ele>
        <time>2022-02-05T14:40:02Z</time>
      </trkpt>
      <trkpt lat="46.47717" lon="5.40207">
        <ele>498.4</ele>
        <time>2022-02-05T14:40:04Z</time>
      </trkpt>
      <trkpt lat="46.47723" lon="5.40182">
        <ele>497.8</ele>
        <time>2022-02-05T14:40:06Z</time>
      </trkpt>
      <trkpt lat="46.47728" lon="5.40172">
        <ele>497.6</ele>
        <time>2022-02-05T14:40:07Z</time>
      </trkpt>
      <trkpt lat="46.47734" lon="5.40163">
        <ele>497.4</ele>
        <time>2022-02-05T14:40:08Z</time>
      </trkpt>
      <trkpt lat="46.47749" lon="5.40144">
        <ele>496.6</ele>
        <time>2022-02-05T14:40:10Z</time>
      </trkpt>
      <trkpt lat="46.47755" lon="5.40131">
        <ele>496.2</ele>
        <time>2022-02-05T14:40:11Z</time>
      </trkpt>
      <trkpt lat="46.47759" lon="5.40118">
        <ele>495.4</ele>
        <time>2022-02-05T14:40:12Z</time>
      </trkpt>
      <trkpt lat="46.47762" lon="5.40104">
        <ele>495</ele>
        <time>2022-02-05T14:40:13Z</time>
      </trkpt>
      <trkpt lat="46.47765" lon="5.40091">
        <ele>494.4</ele>
        <time>2022-02-05T14:40:14Z</time>
      </trkpt>
      <trkpt lat="46.47764" lon="5.40062">
        <ele>493.6</ele>
        <time>2022-02-05T14:40:16Z</time>
      </trkpt>
      <trkpt lat="46.47763" lon="5.40047">
        <ele>493.2</ele>
        <time>2022-02-05T14:40:17Z</time>
      </trkpt>
      <trkpt lat="46.47764" lon="5.40033">
        <ele>492.4</ele>
        <time>2022-02-05T14:40:18Z</time>
      </trkpt>
      <trkpt lat="46.47767" lon="5.40019">
        <ele>492.2</ele>
        <time>2022-02-05T14:40:19Z</time>
      </trkpt>
      <trkpt lat="46.4778" lon="5.39998">
        <ele>490.8</ele>
        <time>2022-02-05T14:40:21Z</time>
      </trkpt>
      <trkpt lat="46.47788" lon="5.39992">
        <ele>490.4</ele>
        <time>2022-02-05T14:40:22Z</time>
      </trkpt>
      <trkpt lat="46.47797" lon="5.39988">
        <ele>489.8</ele>
        <time>2022-02-05T14:40:23Z</time>
      </trkpt>
      <trkpt lat="46.47815" lon="5.39979">
        <ele>488.6</ele>
        <time>2022-02-05T14:40:25Z</time>
      </trkpt>
      <trkpt lat="46.47835" lon="5.3997">
        <ele>487.4</ele>
        <time>2022-02-05T14:40:27Z</time>
      </trkpt>
      <trkpt lat="46.47845" lon="5.39964">
        <ele>486.4</ele>
        <time>2022-02-05T14:40:28Z</time>
      </trkpt>
      <trkpt lat="46.47854" lon="5.39959">
        <ele>486</ele>
        <time>2022-02-05T14:40:29Z</time>
      </trkpt>
      <trkpt lat="46.47874" lon="5.39949">
        <ele>484.8</ele>
        <time>2022-02-05T14:40:31Z</time>
      </trkpt>
      <trkpt lat="46.47893" lon="5.39938">
        <ele>483.4</ele>
        <time>2022-02-05T14:40:33Z</time>
      </trkpt>
      <trkpt lat="46.47913" lon="5.39928">
        <ele>482.2</ele>
        <time>2022-02-05T14:40:35Z</time>
      </trkpt>
      <trkpt lat="46.47933" lon="5.39918">
        <ele>480.8</ele>
        <time>2022-02-05T14:40:37Z</time>
      </trkpt>
      <trkpt lat="46.47952" lon="5.39907">
        <ele>479.6</ele>
        <time>2022-02-05T14:40:39Z</time>
      </trkpt>
      <trkpt lat="46.47981" lon="5.39893">
        <ele>478.6</ele>
        <time>2022-02-05T14:40:42Z</time>
      </trkpt>
      <trkpt lat="46.48" lon="5.39885">
        <ele>477.8</ele>
        <time>2022-02-05T14:40:44Z</time>
      </trkpt>
      <trkpt lat="46.48009" lon="5.39883">
        <ele>477.2</ele>
        <time>2022-02-05T14:40:45Z</time>
      </trkpt>
      <trkpt lat="46.48028" lon="5.39886">
        <ele>476.4</ele>
        <time>2022-02-05T14:40:47Z</time>
      </trkpt>
      <trkpt lat="46.48053" lon="5.39901">
        <ele>476.2</ele>
        <time>2022-02-05T14:40:50Z</time>
      </trkpt>
      <trkpt lat="46.48061" lon="5.39905">
        <ele>476</ele>
        <time>2022-02-05T14:40:51Z</time>
      </trkpt>
      <trkpt lat="46.48076" lon="5.3991">
        <ele>476</ele>
        <time>2022-02-05T14:40:53Z</time>
      </trkpt>
      <trkpt lat="46.48092" lon="5.39911">
        <ele>475.8</ele>
        <time>2022-02-05T14:40:55Z</time>
      </trkpt>
      <trkpt lat="46.48132" lon="5.39902">
        <ele>476</ele>
        <time>2022-02-05T14:41:00Z</time>
      </trkpt>
      <trkpt lat="46.48178" lon="5.39876">
        <ele>475.8</ele>
        <time>2022-02-05T14:41:06Z</time>
      </trkpt>
      <trkpt lat="46.48185" lon="5.39871">
        <ele>475.6</ele>
        <time>2022-02-05T14:41:07Z</time>
      </trkpt>
      <trkpt lat="46.48195" lon="5.39854">
        <ele>475.6</ele>
        <time>2022-02-05T14:41:09Z</time>
      </trkpt>
      <trkpt lat="46.48196" lon="5.39832">
        <ele>475.2</ele>
        <time>2022-02-05T14:41:11Z</time>
      </trkpt>
      <trkpt lat="46.48194" lon="5.3982">
        <ele>475</ele>
        <time>2022-02-05T14:41:12Z</time>
      </trkpt>
      <trkpt lat="46.48186" lon="5.39773">
        <ele>474.6</ele>
        <time>2022-02-05T14:41:16Z</time>
      </trkpt>
      <trkpt lat="46.48179" lon="5.39725">
        <ele>474</ele>
        <time>2022-02-05T14:41:20Z</time>
      </trkpt>
      <trkpt lat="46.48177" lon="5.397">
        <ele>473.8</ele>
        <time>2022-02-05T14:41:22Z</time>
      </trkpt>
      <trkpt lat="46.48179" lon="5.39661">
        <ele>473.4</ele>
        <time>2022-02-05T14:41:25Z</time>
      </trkpt>
      <trkpt lat="46.48181" lon="5.39648">
        <ele>473.2</ele>
        <time>2022-02-05T14:41:26Z</time>
      </trkpt>
      <trkpt lat="46.48186" lon="5.39632">
        <ele>473</ele>
        <time>2022-02-05T14:41:27Z</time>
      </trkpt>
      <trkpt lat="46.48195" lon="5.3961">
        <ele>472.2</ele>
        <time>2022-02-05T14:41:29Z</time>
      </trkpt>
      <trkpt lat="46.48206" lon="5.39584">
        <ele>471.4</ele>
        <time>2022-02-05T14:41:31Z</time>
      </trkpt>
      <trkpt lat="46.48214" lon="5.39556">
        <ele>470.8</ele>
        <time>2022-02-05T14:41:33Z</time>
      </trkpt>
      <trkpt lat="46.48216" lon="5.3954">
        <ele>470.4</ele>
        <time>2022-02-05T14:41:34Z</time>
      </trkpt>
      <trkpt lat="46.48224" lon="5.39506">
        <ele>467.8</ele>
        <time>2022-02-05T14:41:36Z</time>
      </trkpt>
      <trkpt lat="46.48229" lon="5.39496">
        <ele>467.2</ele>
        <time>2022-02-05T14:41:37Z</time>
      </trkpt>
      <trkpt lat="46.48235" lon="5.39485">
        <ele>466.4</ele>
        <time>2022-02-05T14:41:38Z</time>
      </trkpt>
      <trkpt lat="46.48249" lon="5.39469">
        <ele>464.2</ele>
        <time>2022-02-05T14:41:40Z</time>
      </trkpt>
      <trkpt lat="46.48265" lon="5.39464">
        <ele>462.6</ele>
        <time>2022-02-05T14:41:42Z</time>
      </trkpt>
      <trkpt lat="46.48271" lon="5.39464">
        <ele>462.2</ele>
        <time>2022-02-05T14:41:43Z</time>
      </trkpt>
      <trkpt lat="46.4828" lon="5.39463">
        <ele>460.4</ele>
        <time>2022-02-05T14:41:44Z</time>
      </trkpt>
      <trkpt lat="46.48289" lon="5.39459">
        <ele>459</ele>
        <time>2022-02-05T14:41:45Z</time>
      </trkpt>
      <trkpt lat="46.48297" lon="5.3945">
        <ele>458.6</ele>
        <time>2022-02-05T14:41:46Z</time>
      </trkpt>
      <trkpt lat="46.48301" lon="5.39442">
        <ele>457.8</ele>
        <time>2022-02-05T14:41:47Z</time>
      </trkpt>
      <trkpt lat="46.48304" lon="5.39431">
        <ele>457.2</ele>
        <time>2022-02-05T14:41:48Z</time>
      </trkpt>
      <trkpt lat="46.48307" lon="5.39417">
        <ele>456.2</ele>
        <time>2022-02-05T14:41:49Z</time>
      </trkpt>
      <trkpt lat="46.48316" lon="5.39386">
        <ele>454.6</ele>
        <time>2022-02-05T14:41:51Z</time>
      </trkpt>
      <trkpt lat="46.48331" lon="5.39361">
        <ele>453</ele>
        <time>2022-02-05T14:41:53Z</time>
      </trkpt>
      <trkpt lat="46.48346" lon="5.39336">
        <ele>451.6</ele>
        <time>2022-02-05T14:41:55Z</time>
      </trkpt>
      <trkpt lat="46.48354" lon="5.39328">
        <ele>451</ele>
        <time>2022-02-05T14:41:56Z</time>
      </trkpt>
      <trkpt lat="46.48363" lon="5.39322">
        <ele>450.4</ele>
        <time>2022-02-05T14:41:57Z</time>
      </trkpt>
      <trkpt lat="46.48374" lon="5.3932">
        <ele>449.2</ele>
        <time>2022-02-05T14:41:58Z</time>
      </trkpt>
      <trkpt lat="46.48397" lon="5.39322">
        <ele>447.6</ele>
        <time>2022-02-05T14:42:00Z</time>
      </trkpt>
      <trkpt lat="46.48408" lon="5.39322">
        <ele>445.6</ele>
        <time>2022-02-05T14:42:01Z</time>
      </trkpt>
      <trkpt lat="46.48421" lon="5.39323">
        <ele>444.8</ele>
        <time>2022-02-05T14:42:02Z</time>
      </trkpt>
      <trkpt lat="46.48434" lon="5.39321">
        <ele>443.8</ele>
        <time>2022-02-05T14:42:03Z</time>
      </trkpt>
      <trkpt lat="46.48447" lon="5.39319">
        <ele>443.4</ele>
        <time>2022-02-05T14:42:04Z</time>
      </trkpt>
      <trkpt lat="46.4846" lon="5.39315">
        <ele>442.8</ele>
        <time>2022-02-05T14:42:05Z</time>
      </trkpt>
      <trkpt lat="46.48487" lon="5.3931">
        <ele>440.4</ele>
        <time>2022-02-05T14:42:07Z</time>
      </trkpt>
      <trkpt lat="46.48513" lon="5.39304">
        <ele>438.2</ele>
        <time>2022-02-05T14:42:09Z</time>
      </trkpt>
      <trkpt lat="46.48527" lon="5.393">
        <ele>436.6</ele>
        <time>2022-02-05T14:42:10Z</time>
      </trkpt>
      <trkpt lat="46.48554" lon="5.39293">
        <ele>435</ele>
        <time>2022-02-05T14:42:12Z</time>
      </trkpt>
      <trkpt lat="46.48581" lon="5.39288">
        <ele>433.8</ele>
        <time>2022-02-05T14:42:14Z</time>
      </trkpt>
      <trkpt lat="46.48595" lon="5.39287">
        <ele>433</ele>
        <time>2022-02-05T14:42:15Z</time>
      </trkpt>
      <trkpt lat="46.48609" lon="5.39284">
        <ele>430.6</ele>
        <time>2022-02-05T14:42:16Z</time>
      </trkpt>
      <trkpt lat="46.48636" lon="5.39281">
        <ele>428.6</ele>
        <time>2022-02-05T14:42:18Z</time>
      </trkpt>
      <trkpt lat="46.48649" lon="5.3928">
        <ele>427.6</ele>
        <time>2022-02-05T14:42:19Z</time>
      </trkpt>
      <trkpt lat="46.48661" lon="5.39281">
        <ele>427.4</ele>
        <time>2022-02-05T14:42:20Z</time>
      </trkpt>
      <trkpt lat="46.48673" lon="5.39283">
        <ele>425.8</ele>
        <time>2022-02-05T14:42:21Z</time>
      </trkpt>
      <trkpt lat="46.48683" lon="5.39286">
        <ele>425</ele>
        <time>2022-02-05T14:42:22Z</time>
      </trkpt>
      <trkpt lat="46.48692" lon="5.3929">
        <ele>424</ele>
        <time>2022-02-05T14:42:23Z</time>
      </trkpt>
      <trkpt lat="46.48703" lon="5.39295">
        <ele>423.6</ele>
        <time>2022-02-05T14:42:24Z</time>
      </trkpt>
      <trkpt lat="46.4871" lon="5.393">
        <ele>422.8</ele>
        <time>2022-02-05T14:42:25Z</time>
      </trkpt>
      <trkpt lat="46.48718" lon="5.39304">
        <ele>422</ele>
        <time>2022-02-05T14:42:26Z</time>
      </trkpt>
      <trkpt lat="46.48728" lon="5.39306">
        <ele>420.6</ele>
        <time>2022-02-05T14:42:27Z</time>
      </trkpt>
      <trkpt lat="46.48735" lon="5.39305">
        <ele>419.2</ele>
        <time>2022-02-05T14:42:28Z</time>
      </trkpt>
      <trkpt lat="46.48743" lon="5.39302">
        <ele>418.6</ele>
        <time>2022-02-05T14:42:29Z</time>
      </trkpt>
      <trkpt lat="46.48745" lon="5.39299">
        <ele>417.2</ele>
        <time>2022-02-05T14:42:30Z</time>
      </trkpt>
      <trkpt lat="46.48733" lon="5.39294">
        <ele>416.4</ele>
        <time>2022-02-05T14:42:31Z</time>
      </trkpt>
      <trkpt lat="46.48727" lon="5.39288">
        <ele>415.4</ele>
        <time>2022-02-05T14:42:32Z</time>
      </trkpt>
      <trkpt lat="46.48723" lon="5.39285">
        <ele>414.4</ele>
        <time>2022-02-05T14:42:33Z</time>
      </trkpt>
      <trkpt lat="46.48713" lon="5.3927">
        <ele>412.8</ele>
        <time>2022-02-05T14:42:34Z</time>
      </trkpt>
      <trkpt lat="46.48703" lon="5.39255">
        <ele>411.4</ele>
        <time>2022-02-05T14:42:35Z</time>
      </trkpt>
      <trkpt lat="46.48681" lon="5.39221">
        <ele>409.2</ele>
        <time>2022-02-05T14:42:37Z</time>
      </trkpt>
      <trkpt lat="46.48669" lon="5.39203">
        <ele>408.4</ele>
        <time>2022-02-05T14:42:38Z</time>
      </trkpt>
      <trkpt lat="46.48659" lon="5.39187">
        <ele>407.2</ele>
        <time>2022-02-05T14:42:39Z</time>
      </trkpt>
      <trkpt lat="46.48641" lon="5.3916">
        <ele>406</ele>
        <time>2022-02-05T14:42:41Z</time>
      </trkpt>
      <trkpt lat="46.48628" lon="5.39145">
        <ele>405.6</ele>
        <time>2022-02-05T14:42:42Z</time>
      </trkpt>
      <trkpt lat="46.48606" lon="5.39124">
        <ele>403.8</ele>
        <time>2022-02-05T14:42:44Z</time>
      </trkpt>
      <trkpt lat="46.48578" lon="5.39103">
        <ele>402.4</ele>
        <time>2022-02-05T14:42:46Z</time>
      </trkpt>
      <trkpt lat="46.48565" lon="5.39093">
        <ele>401.6</ele>
        <time>2022-02-05T14:42:47Z</time>
      </trkpt>
      <trkpt lat="46.48554" lon="5.39086">
        <ele>400.4</ele>
        <time>2022-02-05T14:42:48Z</time>
      </trkpt>
      <trkpt lat="46.48528" lon="5.39068">
        <ele>398</ele>
        <time>2022-02-05T14:42:50Z</time>
      </trkpt>
      <trkpt lat="46.48516" lon="5.39057">
        <ele>397.4</ele>
        <time>2022-02-05T14:42:51Z</time>
      </trkpt>
      <trkpt lat="46.48503" lon="5.39039">
        <ele>396</ele>
        <time>2022-02-05T14:42:52Z</time>
      </trkpt>
      <trkpt lat="46.48498" lon="5.39023">
        <ele>394</ele>
        <time>2022-02-05T14:42:53Z</time>
      </trkpt>
      <trkpt lat="46.48494" lon="5.39001">
        <ele>393.4</ele>
        <time>2022-02-05T14:42:54Z</time>
      </trkpt>
      <trkpt lat="46.48488" lon="5.3898">
        <ele>391.6</ele>
        <time>2022-02-05T14:42:55Z</time>
      </trkpt>
      <trkpt lat="46.48473" lon="5.38945">
        <ele>389</ele>
        <time>2022-02-05T14:42:57Z</time>
      </trkpt>
      <trkpt lat="46.48458" lon="5.38918">
        <ele>386.4</ele>
        <time>2022-02-05T14:42:59Z</time>
      </trkpt>
      <trkpt lat="46.48454" lon="5.38905">
        <ele>384.6</ele>
        <time>2022-02-05T14:43:00Z</time>
      </trkpt>
      <trkpt lat="46.48452" lon="5.38891">
        <ele>384</ele>
        <time>2022-02-05T14:43:01Z</time>
      </trkpt>
      <trkpt lat="46.48455" lon="5.38878">
        <ele>383</ele>
        <time>2022-02-05T14:43:02Z</time>
      </trkpt>
      <trkpt lat="46.4846" lon="5.38866">
        <ele>382.6</ele>
        <time>2022-02-05T14:43:03Z</time>
      </trkpt>
      <trkpt lat="46.48467" lon="5.38856">
        <ele>381.6</ele>
        <time>2022-02-05T14:43:04Z</time>
      </trkpt>
      <trkpt lat="46.48476" lon="5.38847">
        <ele>380.8</ele>
        <time>2022-02-05T14:43:05Z</time>
      </trkpt>
      <trkpt lat="46.48485" lon="5.38841">
        <ele>379.8</ele>
        <time>2022-02-05T14:43:06Z</time>
      </trkpt>
      <trkpt lat="46.48495" lon="5.38835">
        <ele>379.6</ele>
        <time>2022-02-05T14:43:07Z</time>
      </trkpt>
      <trkpt lat="46.48505" lon="5.38829">
        <ele>378</ele>
        <time>2022-02-05T14:43:08Z</time>
      </trkpt>
      <trkpt lat="46.48515" lon="5.38823">
        <ele>377.2</ele>
        <time>2022-02-05T14:43:09Z</time>
      </trkpt>
      <trkpt lat="46.48525" lon="5.38817">
        <ele>377</ele>
        <time>2022-02-05T14:43:10Z</time>
      </trkpt>
      <trkpt lat="46.48546" lon="5.38803">
        <ele>375.6</ele>
        <time>2022-02-05T14:43:12Z</time>
      </trkpt>
      <trkpt lat="46.48556" lon="5.38796">
        <ele>374.6</ele>
        <time>2022-02-05T14:43:13Z</time>
      </trkpt>
      <trkpt lat="46.48565" lon="5.3879">
        <ele>374.2</ele>
        <time>2022-02-05T14:43:14Z</time>
      </trkpt>
      <trkpt lat="46.48574" lon="5.38784">
        <ele>373</ele>
        <time>2022-02-05T14:43:15Z</time>
      </trkpt>
      <trkpt lat="46.48583" lon="5.38779">
        <ele>372.4</ele>
        <time>2022-02-05T14:43:16Z</time>
      </trkpt>
      <trkpt lat="46.4859" lon="5.38777">
        <ele>371.8</ele>
        <time>2022-02-05T14:43:17Z</time>
      </trkpt>
      <trkpt lat="46.48597" lon="5.38779">
        <ele>371</ele>
        <time>2022-02-05T14:43:18Z</time>
      </trkpt>
      <trkpt lat="46.48604" lon="5.38781">
        <ele>370.6</ele>
        <time>2022-02-05T14:43:19Z</time>
      </trkpt>
      <trkpt lat="46.48611" lon="5.3878">
        <ele>369.6</ele>
        <time>2022-02-05T14:43:20Z</time>
      </trkpt>
      <trkpt lat="46.48625" lon="5.38769">
        <ele>367.6</ele>
        <time>2022-02-05T14:43:22Z</time>
      </trkpt>
      <trkpt lat="46.48635" lon="5.38747">
        <ele>365.6</ele>
        <time>2022-02-05T14:43:24Z</time>
      </trkpt>
      <trkpt lat="46.48639" lon="5.38734">
        <ele>364.4</ele>
        <time>2022-02-05T14:43:25Z</time>
      </trkpt>
      <trkpt lat="46.48642" lon="5.38718">
        <ele>363.8</ele>
        <time>2022-02-05T14:43:26Z</time>
      </trkpt>
      <trkpt lat="46.48644" lon="5.38706">
        <ele>362.8</ele>
        <time>2022-02-05T14:43:27Z</time>
      </trkpt>
      <trkpt lat="46.48644" lon="5.38691">
        <ele>362.4</ele>
        <time>2022-02-05T14:43:28Z</time>
      </trkpt>
      <trkpt lat="46.48643" lon="5.38675">
        <ele>361.6</ele>
        <time>2022-02-05T14:43:29Z</time>
      </trkpt>
      <trkpt lat="46.48641" lon="5.3866">
        <ele>361.2</ele>
        <time>2022-02-05T14:43:30Z</time>
      </trkpt>
      <trkpt lat="46.48637" lon="5.38645">
        <ele>360.4</ele>
        <time>2022-02-05T14:43:31Z</time>
      </trkpt>
      <trkpt lat="46.4863" lon="5.38615">
        <ele>359.2</ele>
        <time>2022-02-05T14:43:33Z</time>
      </trkpt>
      <trkpt lat="46.48618" lon="5.3857">
        <ele>357.2</ele>
        <time>2022-02-05T14:43:36Z</time>
      </trkpt>
      <trkpt lat="46.4861" lon="5.38539">
        <ele>356</ele>
        <time>2022-02-05T14:43:38Z</time>
      </trkpt>
      <trkpt lat="46.48601" lon="5.38508">
        <ele>355</ele>
        <time>2022-02-05T14:43:40Z</time>
      </trkpt>
    </trkseg>
  </trk>
</gpx>